<?xml version="1.0" encoding="UTF-8" standalone="no" ?>
<gpx xmlns="http://www.topografix.com/GPX/1/1" xmlns:xsi="http://www.w3.org/2001/XMLSchema-instance" xsi:schemaLocation="http://www.topografix.com/GPX/1/1 http://www.topografix.com/GPX/1/1/gpx.xsd" version="1.1" creator="VisuGPX - https://www.visugpx.com">
  <metadata>
    <name>Rando des 4 chateaux</name>
    <desc><![CDATA[Belle rando VTT dans le jura, proche de LONS-LE-SAUNIER]]></desc>
  </metadata>
  <trk>
    <name><![CDATA[2015-07-12-4chateaux]]></name>
    <trkseg>
      <trkpt lat="46.70378" lon="5.73323">
        <ele>571.6</ele>
        <time>2015-07-12T05:51:07Z</time>
      </trkpt>
      <trkpt lat="46.70381" lon="5.73324">
        <ele>572</ele>
        <time>2015-07-12T05:51:09Z</time>
      </trkpt>
      <trkpt lat="46.70339" lon="5.73321">
        <ele>577</ele>
        <time>2015-07-12T05:51:23Z</time>
      </trkpt>
      <trkpt lat="46.70347" lon="5.73313">
        <ele>580.2</ele>
        <time>2015-07-12T05:52:39Z</time>
      </trkpt>
      <trkpt lat="46.70345" lon="5.733">
        <ele>580.3</ele>
        <time>2015-07-12T05:52:50Z</time>
      </trkpt>
      <trkpt lat="46.70336" lon="5.73295">
        <ele>580.4</ele>
        <time>2015-07-12T05:53:01Z</time>
      </trkpt>
      <trkpt lat="46.70326" lon="5.7329">
        <ele>580.4</ele>
        <time>2015-07-12T05:53:06Z</time>
      </trkpt>
      <trkpt lat="46.70316" lon="5.73291">
        <ele>580.6</ele>
        <time>2015-07-12T05:53:10Z</time>
      </trkpt>
      <trkpt lat="46.70305" lon="5.73292">
        <ele>580.7</ele>
        <time>2015-07-12T05:53:14Z</time>
      </trkpt>
      <trkpt lat="46.70295" lon="5.73293">
        <ele>580.9</ele>
        <time>2015-07-12T05:53:17Z</time>
      </trkpt>
      <trkpt lat="46.70286" lon="5.73294">
        <ele>581</ele>
        <time>2015-07-12T05:53:20Z</time>
      </trkpt>
      <trkpt lat="46.70277" lon="5.73293">
        <ele>581.3</ele>
        <time>2015-07-12T05:53:23Z</time>
      </trkpt>
      <trkpt lat="46.70268" lon="5.73291">
        <ele>581.4</ele>
        <time>2015-07-12T05:53:26Z</time>
      </trkpt>
      <trkpt lat="46.70256" lon="5.73286">
        <ele>581.8</ele>
        <time>2015-07-12T05:53:30Z</time>
      </trkpt>
      <trkpt lat="46.70247" lon="5.7328">
        <ele>582</ele>
        <time>2015-07-12T05:53:33Z</time>
      </trkpt>
      <trkpt lat="46.70239" lon="5.73274">
        <ele>582.2</ele>
        <time>2015-07-12T05:53:36Z</time>
      </trkpt>
      <trkpt lat="46.70228" lon="5.73266">
        <ele>582.6</ele>
        <time>2015-07-12T05:53:40Z</time>
      </trkpt>
      <trkpt lat="46.70218" lon="5.73258">
        <ele>583</ele>
        <time>2015-07-12T05:53:44Z</time>
      </trkpt>
      <trkpt lat="46.70207" lon="5.73252">
        <ele>583.4</ele>
        <time>2015-07-12T05:53:48Z</time>
      </trkpt>
      <trkpt lat="46.70197" lon="5.73246">
        <ele>583.7</ele>
        <time>2015-07-12T05:53:52Z</time>
      </trkpt>
      <trkpt lat="46.70188" lon="5.73243">
        <ele>584</ele>
        <time>2015-07-12T05:53:55Z</time>
      </trkpt>
      <trkpt lat="46.70178" lon="5.73243">
        <ele>584.1</ele>
        <time>2015-07-12T05:53:58Z</time>
      </trkpt>
      <trkpt lat="46.70167" lon="5.73247">
        <ele>584.4</ele>
        <time>2015-07-12T05:54:02Z</time>
      </trkpt>
      <trkpt lat="46.70156" lon="5.73249">
        <ele>584.9</ele>
        <time>2015-07-12T05:54:06Z</time>
      </trkpt>
      <trkpt lat="46.70145" lon="5.73249">
        <ele>585.4</ele>
        <time>2015-07-12T05:54:10Z</time>
      </trkpt>
      <trkpt lat="46.70134" lon="5.73249">
        <ele>586</ele>
        <time>2015-07-12T05:54:14Z</time>
      </trkpt>
      <trkpt lat="46.70124" lon="5.73249">
        <ele>586.5</ele>
        <time>2015-07-12T05:54:18Z</time>
      </trkpt>
      <trkpt lat="46.70115" lon="5.73248">
        <ele>587.4</ele>
        <time>2015-07-12T05:54:23Z</time>
      </trkpt>
      <trkpt lat="46.70104" lon="5.73246">
        <ele>588.3</ele>
        <time>2015-07-12T05:54:28Z</time>
      </trkpt>
      <trkpt lat="46.70095" lon="5.73247">
        <ele>589.1</ele>
        <time>2015-07-12T05:54:32Z</time>
      </trkpt>
      <trkpt lat="46.70085" lon="5.73247">
        <ele>590</ele>
        <time>2015-07-12T05:54:36Z</time>
      </trkpt>
      <trkpt lat="46.70074" lon="5.73247">
        <ele>590.9</ele>
        <time>2015-07-12T05:54:41Z</time>
      </trkpt>
      <trkpt lat="46.70063" lon="5.73247">
        <ele>591.8</ele>
        <time>2015-07-12T05:54:46Z</time>
      </trkpt>
      <trkpt lat="46.70054" lon="5.73247">
        <ele>592.5</ele>
        <time>2015-07-12T05:54:51Z</time>
      </trkpt>
      <trkpt lat="46.70048" lon="5.73256">
        <ele>594.1</ele>
        <time>2015-07-12T05:55:12Z</time>
      </trkpt>
      <trkpt lat="46.70038" lon="5.73257">
        <ele>594.4</ele>
        <time>2015-07-12T05:55:24Z</time>
      </trkpt>
      <trkpt lat="46.70044" lon="5.73246">
        <ele>594.6</ele>
        <time>2015-07-12T06:01:05Z</time>
      </trkpt>
      <trkpt lat="46.70054" lon="5.73244">
        <ele>594.6</ele>
        <time>2015-07-12T06:01:12Z</time>
      </trkpt>
      <trkpt lat="46.70063" lon="5.73248">
        <ele>594.6</ele>
        <time>2015-07-12T06:01:16Z</time>
      </trkpt>
      <trkpt lat="46.70073" lon="5.7325">
        <ele>594.6</ele>
        <time>2015-07-12T06:01:19Z</time>
      </trkpt>
      <trkpt lat="46.70084" lon="5.73249">
        <ele>594.4</ele>
        <time>2015-07-12T06:01:22Z</time>
      </trkpt>
      <trkpt lat="46.70095" lon="5.73248">
        <ele>594.2</ele>
        <time>2015-07-12T06:01:24Z</time>
      </trkpt>
      <trkpt lat="46.70106" lon="5.73247">
        <ele>593.9</ele>
        <time>2015-07-12T06:01:26Z</time>
      </trkpt>
      <trkpt lat="46.70119" lon="5.73247">
        <ele>593.6</ele>
        <time>2015-07-12T06:01:28Z</time>
      </trkpt>
      <trkpt lat="46.7013" lon="5.73247">
        <ele>593.2</ele>
        <time>2015-07-12T06:01:30Z</time>
      </trkpt>
      <trkpt lat="46.70142" lon="5.73248">
        <ele>592.8</ele>
        <time>2015-07-12T06:01:32Z</time>
      </trkpt>
      <trkpt lat="46.70153" lon="5.73248">
        <ele>592.3</ele>
        <time>2015-07-12T06:01:34Z</time>
      </trkpt>
      <trkpt lat="46.70162" lon="5.73245">
        <ele>591.6</ele>
        <time>2015-07-12T06:01:36Z</time>
      </trkpt>
      <trkpt lat="46.70168" lon="5.73236">
        <ele>590.8</ele>
        <time>2015-07-12T06:01:39Z</time>
      </trkpt>
      <trkpt lat="46.70172" lon="5.73222">
        <ele>589.9</ele>
        <time>2015-07-12T06:01:42Z</time>
      </trkpt>
      <trkpt lat="46.70163" lon="5.73215">
        <ele>588.9</ele>
        <time>2015-07-12T06:01:46Z</time>
      </trkpt>
      <trkpt lat="46.70151" lon="5.7321">
        <ele>588.3</ele>
        <time>2015-07-12T06:01:49Z</time>
      </trkpt>
      <trkpt lat="46.7014" lon="5.73201">
        <ele>587.8</ele>
        <time>2015-07-12T06:01:52Z</time>
      </trkpt>
      <trkpt lat="46.70129" lon="5.73192">
        <ele>587.3</ele>
        <time>2015-07-12T06:01:55Z</time>
      </trkpt>
      <trkpt lat="46.70119" lon="5.73179">
        <ele>586.9</ele>
        <time>2015-07-12T06:01:58Z</time>
      </trkpt>
      <trkpt lat="46.70113" lon="5.73168">
        <ele>586.6</ele>
        <time>2015-07-12T06:02:00Z</time>
      </trkpt>
      <trkpt lat="46.70109" lon="5.73155">
        <ele>586.2</ele>
        <time>2015-07-12T06:02:02Z</time>
      </trkpt>
      <trkpt lat="46.70107" lon="5.73143">
        <ele>585.9</ele>
        <time>2015-07-12T06:02:04Z</time>
      </trkpt>
      <trkpt lat="46.70105" lon="5.73129">
        <ele>585.6</ele>
        <time>2015-07-12T06:02:06Z</time>
      </trkpt>
      <trkpt lat="46.70101" lon="5.73116">
        <ele>585.4</ele>
        <time>2015-07-12T06:02:08Z</time>
      </trkpt>
      <trkpt lat="46.70096" lon="5.73106">
        <ele>585.2</ele>
        <time>2015-07-12T06:02:10Z</time>
      </trkpt>
      <trkpt lat="46.70089" lon="5.73094">
        <ele>585</ele>
        <time>2015-07-12T06:02:12Z</time>
      </trkpt>
      <trkpt lat="46.70084" lon="5.73082">
        <ele>584.8</ele>
        <time>2015-07-12T06:02:14Z</time>
      </trkpt>
      <trkpt lat="46.70076" lon="5.73066">
        <ele>584.6</ele>
        <time>2015-07-12T06:02:17Z</time>
      </trkpt>
      <trkpt lat="46.7007" lon="5.73056">
        <ele>584.5</ele>
        <time>2015-07-12T06:02:19Z</time>
      </trkpt>
      <trkpt lat="46.70064" lon="5.73046">
        <ele>584.4</ele>
        <time>2015-07-12T06:02:21Z</time>
      </trkpt>
      <trkpt lat="46.70055" lon="5.73033">
        <ele>584.3</ele>
        <time>2015-07-12T06:02:24Z</time>
      </trkpt>
      <trkpt lat="46.70044" lon="5.73021">
        <ele>584.2</ele>
        <time>2015-07-12T06:02:27Z</time>
      </trkpt>
      <trkpt lat="46.70036" lon="5.73014">
        <ele>584.1</ele>
        <time>2015-07-12T06:02:29Z</time>
      </trkpt>
      <trkpt lat="46.70026" lon="5.73004">
        <ele>584</ele>
        <time>2015-07-12T06:02:32Z</time>
      </trkpt>
      <trkpt lat="46.70018" lon="5.72996">
        <ele>584</ele>
        <time>2015-07-12T06:02:34Z</time>
      </trkpt>
      <trkpt lat="46.70009" lon="5.72985">
        <ele>584</ele>
        <time>2015-07-12T06:02:37Z</time>
      </trkpt>
      <trkpt lat="46.70001" lon="5.72975">
        <ele>584</ele>
        <time>2015-07-12T06:02:40Z</time>
      </trkpt>
      <trkpt lat="46.69995" lon="5.72966">
        <ele>584</ele>
        <time>2015-07-12T06:02:43Z</time>
      </trkpt>
      <trkpt lat="46.69987" lon="5.72954">
        <ele>584</ele>
        <time>2015-07-12T06:02:46Z</time>
      </trkpt>
      <trkpt lat="46.69981" lon="5.72942">
        <ele>584.1</ele>
        <time>2015-07-12T06:02:49Z</time>
      </trkpt>
      <trkpt lat="46.69971" lon="5.72929">
        <ele>584.1</ele>
        <time>2015-07-12T06:02:52Z</time>
      </trkpt>
      <trkpt lat="46.69963" lon="5.72916">
        <ele>584.1</ele>
        <time>2015-07-12T06:02:55Z</time>
      </trkpt>
      <trkpt lat="46.69958" lon="5.72901">
        <ele>584.2</ele>
        <time>2015-07-12T06:02:58Z</time>
      </trkpt>
      <trkpt lat="46.69961" lon="5.72887">
        <ele>584.2</ele>
        <time>2015-07-12T06:03:01Z</time>
      </trkpt>
      <trkpt lat="46.69965" lon="5.72872">
        <ele>584.3</ele>
        <time>2015-07-12T06:03:04Z</time>
      </trkpt>
      <trkpt lat="46.69969" lon="5.72855">
        <ele>584.3</ele>
        <time>2015-07-12T06:03:07Z</time>
      </trkpt>
      <trkpt lat="46.69977" lon="5.72838">
        <ele>584.4</ele>
        <time>2015-07-12T06:03:10Z</time>
      </trkpt>
      <trkpt lat="46.69983" lon="5.72826">
        <ele>584.5</ele>
        <time>2015-07-12T06:03:12Z</time>
      </trkpt>
      <trkpt lat="46.69989" lon="5.72811">
        <ele>584.5</ele>
        <time>2015-07-12T06:03:14Z</time>
      </trkpt>
      <trkpt lat="46.69995" lon="5.72796">
        <ele>584.5</ele>
        <time>2015-07-12T06:03:16Z</time>
      </trkpt>
      <trkpt lat="46.69999" lon="5.72777">
        <ele>584.4</ele>
        <time>2015-07-12T06:03:18Z</time>
      </trkpt>
      <trkpt lat="46.69996" lon="5.72758">
        <ele>584.3</ele>
        <time>2015-07-12T06:03:20Z</time>
      </trkpt>
      <trkpt lat="46.69994" lon="5.72738">
        <ele>584.1</ele>
        <time>2015-07-12T06:03:22Z</time>
      </trkpt>
      <trkpt lat="46.69992" lon="5.72716">
        <ele>583.7</ele>
        <time>2015-07-12T06:03:24Z</time>
      </trkpt>
      <trkpt lat="46.69991" lon="5.72693">
        <ele>583.3</ele>
        <time>2015-07-12T06:03:26Z</time>
      </trkpt>
      <trkpt lat="46.69989" lon="5.72668">
        <ele>582.8</ele>
        <time>2015-07-12T06:03:28Z</time>
      </trkpt>
      <trkpt lat="46.69989" lon="5.72643">
        <ele>582.1</ele>
        <time>2015-07-12T06:03:30Z</time>
      </trkpt>
      <trkpt lat="46.69993" lon="5.72617">
        <ele>581.2</ele>
        <time>2015-07-12T06:03:32Z</time>
      </trkpt>
      <trkpt lat="46.69996" lon="5.72605">
        <ele>580.8</ele>
        <time>2015-07-12T06:03:33Z</time>
      </trkpt>
      <trkpt lat="46.70002" lon="5.72594">
        <ele>580.3</ele>
        <time>2015-07-12T06:03:34Z</time>
      </trkpt>
      <trkpt lat="46.70008" lon="5.72584">
        <ele>579.8</ele>
        <time>2015-07-12T06:03:35Z</time>
      </trkpt>
      <trkpt lat="46.70017" lon="5.72577">
        <ele>579.4</ele>
        <time>2015-07-12T06:03:36Z</time>
      </trkpt>
      <trkpt lat="46.70026" lon="5.7257">
        <ele>579</ele>
        <time>2015-07-12T06:03:37Z</time>
      </trkpt>
      <trkpt lat="46.70035" lon="5.72564">
        <ele>578.6</ele>
        <time>2015-07-12T06:03:38Z</time>
      </trkpt>
      <trkpt lat="46.70044" lon="5.72558">
        <ele>578.1</ele>
        <time>2015-07-12T06:03:39Z</time>
      </trkpt>
      <trkpt lat="46.70052" lon="5.72551">
        <ele>577.7</ele>
        <time>2015-07-12T06:03:40Z</time>
      </trkpt>
      <trkpt lat="46.70059" lon="5.72543">
        <ele>577.2</ele>
        <time>2015-07-12T06:03:41Z</time>
      </trkpt>
      <trkpt lat="46.7007" lon="5.72523">
        <ele>576.2</ele>
        <time>2015-07-12T06:03:43Z</time>
      </trkpt>
      <trkpt lat="46.70073" lon="5.725">
        <ele>575.3</ele>
        <time>2015-07-12T06:03:45Z</time>
      </trkpt>
      <trkpt lat="46.70071" lon="5.72476">
        <ele>574.5</ele>
        <time>2015-07-12T06:03:47Z</time>
      </trkpt>
      <trkpt lat="46.70071" lon="5.72455">
        <ele>573.6</ele>
        <time>2015-07-12T06:03:49Z</time>
      </trkpt>
      <trkpt lat="46.70077" lon="5.72438">
        <ele>572.7</ele>
        <time>2015-07-12T06:03:51Z</time>
      </trkpt>
      <trkpt lat="46.70088" lon="5.72432">
        <ele>571.9</ele>
        <time>2015-07-12T06:03:53Z</time>
      </trkpt>
      <trkpt lat="46.70099" lon="5.72431">
        <ele>571.2</ele>
        <time>2015-07-12T06:03:55Z</time>
      </trkpt>
      <trkpt lat="46.70108" lon="5.72432">
        <ele>570.2</ele>
        <time>2015-07-12T06:03:58Z</time>
      </trkpt>
      <trkpt lat="46.70118" lon="5.72435">
        <ele>569.1</ele>
        <time>2015-07-12T06:04:02Z</time>
      </trkpt>
      <trkpt lat="46.70128" lon="5.72437">
        <ele>568.4</ele>
        <time>2015-07-12T06:04:05Z</time>
      </trkpt>
      <trkpt lat="46.70141" lon="5.72441">
        <ele>567.8</ele>
        <time>2015-07-12T06:04:08Z</time>
      </trkpt>
      <trkpt lat="46.70153" lon="5.72448">
        <ele>567.3</ele>
        <time>2015-07-12T06:04:11Z</time>
      </trkpt>
      <trkpt lat="46.7016" lon="5.72456">
        <ele>567</ele>
        <time>2015-07-12T06:04:13Z</time>
      </trkpt>
      <trkpt lat="46.70168" lon="5.72464">
        <ele>566.7</ele>
        <time>2015-07-12T06:04:15Z</time>
      </trkpt>
      <trkpt lat="46.70175" lon="5.72474">
        <ele>566.3</ele>
        <time>2015-07-12T06:04:17Z</time>
      </trkpt>
      <trkpt lat="46.70181" lon="5.72486">
        <ele>566.1</ele>
        <time>2015-07-12T06:04:19Z</time>
      </trkpt>
      <trkpt lat="46.70185" lon="5.72498">
        <ele>565.9</ele>
        <time>2015-07-12T06:04:21Z</time>
      </trkpt>
      <trkpt lat="46.70188" lon="5.72516">
        <ele>565.6</ele>
        <time>2015-07-12T06:04:24Z</time>
      </trkpt>
      <trkpt lat="46.70192" lon="5.72533">
        <ele>565.4</ele>
        <time>2015-07-12T06:04:27Z</time>
      </trkpt>
      <trkpt lat="46.702" lon="5.72549">
        <ele>565.3</ele>
        <time>2015-07-12T06:04:30Z</time>
      </trkpt>
      <trkpt lat="46.7021" lon="5.72561">
        <ele>565.1</ele>
        <time>2015-07-12T06:04:33Z</time>
      </trkpt>
      <trkpt lat="46.70222" lon="5.72571">
        <ele>565.1</ele>
        <time>2015-07-12T06:04:36Z</time>
      </trkpt>
      <trkpt lat="46.70233" lon="5.72579">
        <ele>565</ele>
        <time>2015-07-12T06:04:39Z</time>
      </trkpt>
      <trkpt lat="46.70242" lon="5.72584">
        <ele>565</ele>
        <time>2015-07-12T06:04:41Z</time>
      </trkpt>
      <trkpt lat="46.70252" lon="5.72589">
        <ele>565</ele>
        <time>2015-07-12T06:04:43Z</time>
      </trkpt>
      <trkpt lat="46.70262" lon="5.72594">
        <ele>564.9</ele>
        <time>2015-07-12T06:04:45Z</time>
      </trkpt>
      <trkpt lat="46.70272" lon="5.72599">
        <ele>564.9</ele>
        <time>2015-07-12T06:04:47Z</time>
      </trkpt>
      <trkpt lat="46.70281" lon="5.72606">
        <ele>564.5</ele>
        <time>2015-07-12T06:04:49Z</time>
      </trkpt>
      <trkpt lat="46.7029" lon="5.72612">
        <ele>564.4</ele>
        <time>2015-07-12T06:04:51Z</time>
      </trkpt>
      <trkpt lat="46.703" lon="5.72617">
        <ele>564.3</ele>
        <time>2015-07-12T06:04:53Z</time>
      </trkpt>
      <trkpt lat="46.7031" lon="5.72621">
        <ele>564.2</ele>
        <time>2015-07-12T06:04:55Z</time>
      </trkpt>
      <trkpt lat="46.7032" lon="5.72622">
        <ele>564.1</ele>
        <time>2015-07-12T06:04:57Z</time>
      </trkpt>
      <trkpt lat="46.7033" lon="5.72624">
        <ele>564.2</ele>
        <time>2015-07-12T06:04:59Z</time>
      </trkpt>
      <trkpt lat="46.70343" lon="5.72629">
        <ele>564.3</ele>
        <time>2015-07-12T06:05:02Z</time>
      </trkpt>
      <trkpt lat="46.70353" lon="5.72634">
        <ele>564.5</ele>
        <time>2015-07-12T06:05:05Z</time>
      </trkpt>
      <trkpt lat="46.70361" lon="5.72639">
        <ele>564.7</ele>
        <time>2015-07-12T06:05:09Z</time>
      </trkpt>
      <trkpt lat="46.70361" lon="5.72655">
        <ele>564.9</ele>
        <time>2015-07-12T06:06:27Z</time>
      </trkpt>
      <trkpt lat="46.70362" lon="5.72668">
        <ele>565</ele>
        <time>2015-07-12T06:06:30Z</time>
      </trkpt>
      <trkpt lat="46.7036" lon="5.72684">
        <ele>565.1</ele>
        <time>2015-07-12T06:06:33Z</time>
      </trkpt>
      <trkpt lat="46.70355" lon="5.72701">
        <ele>565.2</ele>
        <time>2015-07-12T06:06:36Z</time>
      </trkpt>
      <trkpt lat="46.70351" lon="5.72718">
        <ele>565.3</ele>
        <time>2015-07-12T06:06:39Z</time>
      </trkpt>
      <trkpt lat="46.70349" lon="5.72737">
        <ele>565.4</ele>
        <time>2015-07-12T06:06:42Z</time>
      </trkpt>
      <trkpt lat="46.70353" lon="5.72755">
        <ele>565.5</ele>
        <time>2015-07-12T06:06:45Z</time>
      </trkpt>
      <trkpt lat="46.70362" lon="5.7277">
        <ele>565.6</ele>
        <time>2015-07-12T06:06:48Z</time>
      </trkpt>
      <trkpt lat="46.70374" lon="5.72778">
        <ele>565.6</ele>
        <time>2015-07-12T06:06:51Z</time>
      </trkpt>
      <trkpt lat="46.70384" lon="5.72782">
        <ele>565.6</ele>
        <time>2015-07-12T06:06:53Z</time>
      </trkpt>
      <trkpt lat="46.70394" lon="5.72786">
        <ele>565.5</ele>
        <time>2015-07-12T06:06:55Z</time>
      </trkpt>
      <trkpt lat="46.70405" lon="5.72788">
        <ele>565.4</ele>
        <time>2015-07-12T06:06:57Z</time>
      </trkpt>
      <trkpt lat="46.70415" lon="5.72792">
        <ele>565.3</ele>
        <time>2015-07-12T06:06:59Z</time>
      </trkpt>
      <trkpt lat="46.70426" lon="5.72796">
        <ele>565.2</ele>
        <time>2015-07-12T06:07:01Z</time>
      </trkpt>
      <trkpt lat="46.70435" lon="5.72801">
        <ele>565.1</ele>
        <time>2015-07-12T06:07:03Z</time>
      </trkpt>
      <trkpt lat="46.70444" lon="5.72808">
        <ele>565.1</ele>
        <time>2015-07-12T06:07:05Z</time>
      </trkpt>
      <trkpt lat="46.70453" lon="5.72815">
        <ele>565.1</ele>
        <time>2015-07-12T06:07:07Z</time>
      </trkpt>
      <trkpt lat="46.70463" lon="5.72821">
        <ele>565.1</ele>
        <time>2015-07-12T06:07:09Z</time>
      </trkpt>
      <trkpt lat="46.70472" lon="5.72825">
        <ele>565.1</ele>
        <time>2015-07-12T06:07:11Z</time>
      </trkpt>
      <trkpt lat="46.70485" lon="5.72831">
        <ele>565.1</ele>
        <time>2015-07-12T06:07:14Z</time>
      </trkpt>
      <trkpt lat="46.70494" lon="5.72834">
        <ele>565.2</ele>
        <time>2015-07-12T06:07:16Z</time>
      </trkpt>
      <trkpt lat="46.70504" lon="5.72837">
        <ele>565.2</ele>
        <time>2015-07-12T06:07:18Z</time>
      </trkpt>
      <trkpt lat="46.70514" lon="5.7284">
        <ele>565.3</ele>
        <time>2015-07-12T06:07:20Z</time>
      </trkpt>
      <trkpt lat="46.70523" lon="5.72843">
        <ele>565.4</ele>
        <time>2015-07-12T06:07:22Z</time>
      </trkpt>
      <trkpt lat="46.70532" lon="5.72847">
        <ele>565.4</ele>
        <time>2015-07-12T06:07:24Z</time>
      </trkpt>
      <trkpt lat="46.70541" lon="5.72854">
        <ele>565.5</ele>
        <time>2015-07-12T06:07:26Z</time>
      </trkpt>
      <trkpt lat="46.70549" lon="5.72862">
        <ele>565.6</ele>
        <time>2015-07-12T06:07:28Z</time>
      </trkpt>
      <trkpt lat="46.70557" lon="5.72873">
        <ele>565.6</ele>
        <time>2015-07-12T06:07:30Z</time>
      </trkpt>
      <trkpt lat="46.70563" lon="5.72883">
        <ele>565.7</ele>
        <time>2015-07-12T06:07:32Z</time>
      </trkpt>
      <trkpt lat="46.7057" lon="5.72892">
        <ele>565.8</ele>
        <time>2015-07-12T06:07:34Z</time>
      </trkpt>
      <trkpt lat="46.70578" lon="5.729">
        <ele>565.9</ele>
        <time>2015-07-12T06:07:36Z</time>
      </trkpt>
      <trkpt lat="46.70587" lon="5.72906">
        <ele>566</ele>
        <time>2015-07-12T06:07:38Z</time>
      </trkpt>
      <trkpt lat="46.70595" lon="5.72912">
        <ele>566.2</ele>
        <time>2015-07-12T06:07:40Z</time>
      </trkpt>
      <trkpt lat="46.70607" lon="5.72919">
        <ele>566.5</ele>
        <time>2015-07-12T06:07:43Z</time>
      </trkpt>
      <trkpt lat="46.70617" lon="5.72925">
        <ele>566.9</ele>
        <time>2015-07-12T06:07:46Z</time>
      </trkpt>
      <trkpt lat="46.70627" lon="5.72934">
        <ele>567.3</ele>
        <time>2015-07-12T06:07:49Z</time>
      </trkpt>
      <trkpt lat="46.70636" lon="5.72945">
        <ele>567.7</ele>
        <time>2015-07-12T06:07:52Z</time>
      </trkpt>
      <trkpt lat="46.70643" lon="5.72957">
        <ele>568.2</ele>
        <time>2015-07-12T06:07:55Z</time>
      </trkpt>
      <trkpt lat="46.70649" lon="5.72973">
        <ele>568.5</ele>
        <time>2015-07-12T06:07:58Z</time>
      </trkpt>
      <trkpt lat="46.70654" lon="5.7299">
        <ele>568.8</ele>
        <time>2015-07-12T06:08:01Z</time>
      </trkpt>
      <trkpt lat="46.70657" lon="5.73005">
        <ele>569.1</ele>
        <time>2015-07-12T06:08:04Z</time>
      </trkpt>
      <trkpt lat="46.70663" lon="5.73019">
        <ele>569.5</ele>
        <time>2015-07-12T06:08:07Z</time>
      </trkpt>
      <trkpt lat="46.70666" lon="5.73034">
        <ele>569.9</ele>
        <time>2015-07-12T06:08:10Z</time>
      </trkpt>
      <trkpt lat="46.70671" lon="5.73049">
        <ele>570.4</ele>
        <time>2015-07-12T06:08:14Z</time>
      </trkpt>
      <trkpt lat="46.70681" lon="5.73055">
        <ele>570.7</ele>
        <time>2015-07-12T06:08:17Z</time>
      </trkpt>
      <trkpt lat="46.7069" lon="5.73059">
        <ele>570.8</ele>
        <time>2015-07-12T06:08:19Z</time>
      </trkpt>
      <trkpt lat="46.707" lon="5.73065">
        <ele>570.9</ele>
        <time>2015-07-12T06:08:21Z</time>
      </trkpt>
      <trkpt lat="46.7071" lon="5.73074">
        <ele>570.9</ele>
        <time>2015-07-12T06:08:23Z</time>
      </trkpt>
      <trkpt lat="46.70721" lon="5.73083">
        <ele>570.9</ele>
        <time>2015-07-12T06:08:25Z</time>
      </trkpt>
      <trkpt lat="46.70734" lon="5.7309">
        <ele>570.8</ele>
        <time>2015-07-12T06:08:27Z</time>
      </trkpt>
      <trkpt lat="46.70747" lon="5.73095">
        <ele>570.7</ele>
        <time>2015-07-12T06:08:29Z</time>
      </trkpt>
      <trkpt lat="46.7076" lon="5.731">
        <ele>570.5</ele>
        <time>2015-07-12T06:08:31Z</time>
      </trkpt>
      <trkpt lat="46.70772" lon="5.73102">
        <ele>570.4</ele>
        <time>2015-07-12T06:08:33Z</time>
      </trkpt>
      <trkpt lat="46.70782" lon="5.73099">
        <ele>570.2</ele>
        <time>2015-07-12T06:08:35Z</time>
      </trkpt>
      <trkpt lat="46.70791" lon="5.73095">
        <ele>570</ele>
        <time>2015-07-12T06:08:37Z</time>
      </trkpt>
      <trkpt lat="46.70801" lon="5.73088">
        <ele>569.9</ele>
        <time>2015-07-12T06:08:39Z</time>
      </trkpt>
      <trkpt lat="46.7081" lon="5.73081">
        <ele>569.8</ele>
        <time>2015-07-12T06:08:41Z</time>
      </trkpt>
      <trkpt lat="46.70819" lon="5.73073">
        <ele>569.7</ele>
        <time>2015-07-12T06:08:43Z</time>
      </trkpt>
      <trkpt lat="46.70828" lon="5.73064">
        <ele>569.5</ele>
        <time>2015-07-12T06:08:46Z</time>
      </trkpt>
      <trkpt lat="46.70832" lon="5.7305">
        <ele>569.4</ele>
        <time>2015-07-12T06:08:51Z</time>
      </trkpt>
      <trkpt lat="46.70835" lon="5.73032">
        <ele>569.3</ele>
        <time>2015-07-12T06:08:55Z</time>
      </trkpt>
      <trkpt lat="46.70835" lon="5.73015">
        <ele>569.2</ele>
        <time>2015-07-12T06:08:58Z</time>
      </trkpt>
      <trkpt lat="46.70832" lon="5.72998">
        <ele>569</ele>
        <time>2015-07-12T06:09:01Z</time>
      </trkpt>
      <trkpt lat="46.70831" lon="5.72982">
        <ele>568.8</ele>
        <time>2015-07-12T06:09:04Z</time>
      </trkpt>
      <trkpt lat="46.70829" lon="5.72968">
        <ele>568.6</ele>
        <time>2015-07-12T06:09:06Z</time>
      </trkpt>
      <trkpt lat="46.70825" lon="5.72953">
        <ele>568.3</ele>
        <time>2015-07-12T06:09:09Z</time>
      </trkpt>
      <trkpt lat="46.70827" lon="5.72939">
        <ele>567.5</ele>
        <time>2015-07-12T06:09:15Z</time>
      </trkpt>
      <trkpt lat="46.70829" lon="5.72925">
        <ele>567.2</ele>
        <time>2015-07-12T06:09:19Z</time>
      </trkpt>
      <trkpt lat="46.70828" lon="5.72912">
        <ele>566.9</ele>
        <time>2015-07-12T06:09:22Z</time>
      </trkpt>
      <trkpt lat="46.70827" lon="5.72896">
        <ele>566.5</ele>
        <time>2015-07-12T06:09:25Z</time>
      </trkpt>
      <trkpt lat="46.7083" lon="5.72878">
        <ele>566.2</ele>
        <time>2015-07-12T06:09:28Z</time>
      </trkpt>
      <trkpt lat="46.70835" lon="5.72862">
        <ele>565.8</ele>
        <time>2015-07-12T06:09:31Z</time>
      </trkpt>
      <trkpt lat="46.70846" lon="5.72849">
        <ele>565.5</ele>
        <time>2015-07-12T06:09:33Z</time>
      </trkpt>
      <trkpt lat="46.70852" lon="5.72838">
        <ele>565.3</ele>
        <time>2015-07-12T06:09:35Z</time>
      </trkpt>
      <trkpt lat="46.70858" lon="5.72825">
        <ele>565.1</ele>
        <time>2015-07-12T06:09:37Z</time>
      </trkpt>
      <trkpt lat="46.70865" lon="5.72815">
        <ele>564.9</ele>
        <time>2015-07-12T06:09:39Z</time>
      </trkpt>
      <trkpt lat="46.70876" lon="5.72806">
        <ele>564.8</ele>
        <time>2015-07-12T06:09:42Z</time>
      </trkpt>
      <trkpt lat="46.70887" lon="5.728">
        <ele>564.8</ele>
        <time>2015-07-12T06:09:45Z</time>
      </trkpt>
      <trkpt lat="46.70898" lon="5.72797">
        <ele>564.6</ele>
        <time>2015-07-12T06:09:49Z</time>
      </trkpt>
      <trkpt lat="46.70908" lon="5.72796">
        <ele>564.7</ele>
        <time>2015-07-12T06:09:54Z</time>
      </trkpt>
      <trkpt lat="46.70919" lon="5.72791">
        <ele>564.9</ele>
        <time>2015-07-12T06:09:59Z</time>
      </trkpt>
      <trkpt lat="46.70928" lon="5.72782">
        <ele>565.5</ele>
        <time>2015-07-12T06:10:04Z</time>
      </trkpt>
      <trkpt lat="46.70934" lon="5.72772">
        <ele>565.6</ele>
        <time>2015-07-12T06:10:07Z</time>
      </trkpt>
      <trkpt lat="46.70939" lon="5.7276">
        <ele>566</ele>
        <time>2015-07-12T06:10:10Z</time>
      </trkpt>
      <trkpt lat="46.70943" lon="5.72749">
        <ele>566.3</ele>
        <time>2015-07-12T06:10:13Z</time>
      </trkpt>
      <trkpt lat="46.70947" lon="5.72736">
        <ele>566.5</ele>
        <time>2015-07-12T06:10:16Z</time>
      </trkpt>
      <trkpt lat="46.70953" lon="5.7272">
        <ele>566.3</ele>
        <time>2015-07-12T06:10:19Z</time>
      </trkpt>
      <trkpt lat="46.70959" lon="5.72707">
        <ele>566.2</ele>
        <time>2015-07-12T06:10:22Z</time>
      </trkpt>
      <trkpt lat="46.70965" lon="5.72697">
        <ele>566.1</ele>
        <time>2015-07-12T06:10:25Z</time>
      </trkpt>
      <trkpt lat="46.70971" lon="5.72684">
        <ele>566</ele>
        <time>2015-07-12T06:10:29Z</time>
      </trkpt>
      <trkpt lat="46.70982" lon="5.72669">
        <ele>565.7</ele>
        <time>2015-07-12T06:10:34Z</time>
      </trkpt>
      <trkpt lat="46.7099" lon="5.72659">
        <ele>565.5</ele>
        <time>2015-07-12T06:10:37Z</time>
      </trkpt>
      <trkpt lat="46.71" lon="5.72651">
        <ele>565.3</ele>
        <time>2015-07-12T06:10:40Z</time>
      </trkpt>
      <trkpt lat="46.71009" lon="5.72644">
        <ele>565.1</ele>
        <time>2015-07-12T06:10:43Z</time>
      </trkpt>
      <trkpt lat="46.71017" lon="5.72635">
        <ele>564.7</ele>
        <time>2015-07-12T06:10:46Z</time>
      </trkpt>
      <trkpt lat="46.71024" lon="5.72625">
        <ele>564.5</ele>
        <time>2015-07-12T06:10:49Z</time>
      </trkpt>
      <trkpt lat="46.71033" lon="5.72615">
        <ele>564.2</ele>
        <time>2015-07-12T06:10:52Z</time>
      </trkpt>
      <trkpt lat="46.7104" lon="5.72609">
        <ele>564.1</ele>
        <time>2015-07-12T06:10:55Z</time>
      </trkpt>
      <trkpt lat="46.71049" lon="5.72598">
        <ele>563.9</ele>
        <time>2015-07-12T06:10:58Z</time>
      </trkpt>
      <trkpt lat="46.71061" lon="5.72595">
        <ele>563.7</ele>
        <time>2015-07-12T06:11:01Z</time>
      </trkpt>
      <trkpt lat="46.71072" lon="5.72599">
        <ele>563.6</ele>
        <time>2015-07-12T06:11:04Z</time>
      </trkpt>
      <trkpt lat="46.71083" lon="5.72597">
        <ele>563.6</ele>
        <time>2015-07-12T06:11:07Z</time>
      </trkpt>
      <trkpt lat="46.71094" lon="5.72592">
        <ele>563.5</ele>
        <time>2015-07-12T06:11:10Z</time>
      </trkpt>
      <trkpt lat="46.71104" lon="5.72585">
        <ele>563.6</ele>
        <time>2015-07-12T06:11:13Z</time>
      </trkpt>
      <trkpt lat="46.71112" lon="5.72579">
        <ele>563.7</ele>
        <time>2015-07-12T06:11:15Z</time>
      </trkpt>
      <trkpt lat="46.71124" lon="5.72571">
        <ele>563.8</ele>
        <time>2015-07-12T06:11:18Z</time>
      </trkpt>
      <trkpt lat="46.71133" lon="5.72566">
        <ele>563.8</ele>
        <time>2015-07-12T06:11:20Z</time>
      </trkpt>
      <trkpt lat="46.71142" lon="5.7256">
        <ele>563.9</ele>
        <time>2015-07-12T06:11:22Z</time>
      </trkpt>
      <trkpt lat="46.71151" lon="5.72554">
        <ele>564</ele>
        <time>2015-07-12T06:11:24Z</time>
      </trkpt>
      <trkpt lat="46.7116" lon="5.72544">
        <ele>564</ele>
        <time>2015-07-12T06:11:26Z</time>
      </trkpt>
      <trkpt lat="46.7117" lon="5.72533">
        <ele>564.1</ele>
        <time>2015-07-12T06:11:28Z</time>
      </trkpt>
      <trkpt lat="46.71178" lon="5.72522">
        <ele>564.1</ele>
        <time>2015-07-12T06:11:30Z</time>
      </trkpt>
      <trkpt lat="46.71186" lon="5.7251">
        <ele>564.3</ele>
        <time>2015-07-12T06:11:32Z</time>
      </trkpt>
      <trkpt lat="46.71196" lon="5.72498">
        <ele>564.4</ele>
        <time>2015-07-12T06:11:34Z</time>
      </trkpt>
      <trkpt lat="46.71207" lon="5.72484">
        <ele>564.5</ele>
        <time>2015-07-12T06:11:36Z</time>
      </trkpt>
      <trkpt lat="46.71216" lon="5.72472">
        <ele>564.5</ele>
        <time>2015-07-12T06:11:38Z</time>
      </trkpt>
      <trkpt lat="46.71227" lon="5.7246">
        <ele>564.4</ele>
        <time>2015-07-12T06:11:40Z</time>
      </trkpt>
      <trkpt lat="46.71237" lon="5.7245">
        <ele>564.3</ele>
        <time>2015-07-12T06:11:42Z</time>
      </trkpt>
      <trkpt lat="46.71248" lon="5.72439">
        <ele>564.1</ele>
        <time>2015-07-12T06:11:44Z</time>
      </trkpt>
      <trkpt lat="46.7126" lon="5.72429">
        <ele>564</ele>
        <time>2015-07-12T06:11:46Z</time>
      </trkpt>
      <trkpt lat="46.7127" lon="5.72418">
        <ele>563.8</ele>
        <time>2015-07-12T06:11:48Z</time>
      </trkpt>
      <trkpt lat="46.71278" lon="5.72405">
        <ele>563.7</ele>
        <time>2015-07-12T06:11:50Z</time>
      </trkpt>
      <trkpt lat="46.71285" lon="5.72391">
        <ele>563.5</ele>
        <time>2015-07-12T06:11:52Z</time>
      </trkpt>
      <trkpt lat="46.7129" lon="5.72378">
        <ele>563.4</ele>
        <time>2015-07-12T06:11:54Z</time>
      </trkpt>
      <trkpt lat="46.71296" lon="5.72365">
        <ele>563.3</ele>
        <time>2015-07-12T06:11:56Z</time>
      </trkpt>
      <trkpt lat="46.71304" lon="5.72353">
        <ele>563.2</ele>
        <time>2015-07-12T06:11:58Z</time>
      </trkpt>
      <trkpt lat="46.71314" lon="5.72343">
        <ele>563.2</ele>
        <time>2015-07-12T06:12:00Z</time>
      </trkpt>
      <trkpt lat="46.71325" lon="5.72336">
        <ele>563</ele>
        <time>2015-07-12T06:12:02Z</time>
      </trkpt>
      <trkpt lat="46.71335" lon="5.72327">
        <ele>562.8</ele>
        <time>2015-07-12T06:12:04Z</time>
      </trkpt>
      <trkpt lat="46.71341" lon="5.72313">
        <ele>562.6</ele>
        <time>2015-07-12T06:12:06Z</time>
      </trkpt>
      <trkpt lat="46.71344" lon="5.72299">
        <ele>562.4</ele>
        <time>2015-07-12T06:12:08Z</time>
      </trkpt>
      <trkpt lat="46.71346" lon="5.72283">
        <ele>562.2</ele>
        <time>2015-07-12T06:12:10Z</time>
      </trkpt>
      <trkpt lat="46.71347" lon="5.72266">
        <ele>561.9</ele>
        <time>2015-07-12T06:12:12Z</time>
      </trkpt>
      <trkpt lat="46.71348" lon="5.72247">
        <ele>561.5</ele>
        <time>2015-07-12T06:12:14Z</time>
      </trkpt>
      <trkpt lat="46.71351" lon="5.72227">
        <ele>561</ele>
        <time>2015-07-12T06:12:16Z</time>
      </trkpt>
      <trkpt lat="46.71356" lon="5.72205">
        <ele>560.5</ele>
        <time>2015-07-12T06:12:18Z</time>
      </trkpt>
      <trkpt lat="46.71362" lon="5.72185">
        <ele>560</ele>
        <time>2015-07-12T06:12:20Z</time>
      </trkpt>
      <trkpt lat="46.71371" lon="5.72165">
        <ele>559.5</ele>
        <time>2015-07-12T06:12:22Z</time>
      </trkpt>
      <trkpt lat="46.71378" lon="5.72144">
        <ele>559</ele>
        <time>2015-07-12T06:12:24Z</time>
      </trkpt>
      <trkpt lat="46.71386" lon="5.72123">
        <ele>558.5</ele>
        <time>2015-07-12T06:12:26Z</time>
      </trkpt>
      <trkpt lat="46.71394" lon="5.72104">
        <ele>557.8</ele>
        <time>2015-07-12T06:12:28Z</time>
      </trkpt>
      <trkpt lat="46.71402" lon="5.72088">
        <ele>557.1</ele>
        <time>2015-07-12T06:12:30Z</time>
      </trkpt>
      <trkpt lat="46.7141" lon="5.72073">
        <ele>556.6</ele>
        <time>2015-07-12T06:12:32Z</time>
      </trkpt>
      <trkpt lat="46.71418" lon="5.72059">
        <ele>556.1</ele>
        <time>2015-07-12T06:12:34Z</time>
      </trkpt>
      <trkpt lat="46.71425" lon="5.72043">
        <ele>555.7</ele>
        <time>2015-07-12T06:12:36Z</time>
      </trkpt>
      <trkpt lat="46.7143" lon="5.72023">
        <ele>555.2</ele>
        <time>2015-07-12T06:12:38Z</time>
      </trkpt>
      <trkpt lat="46.71431" lon="5.72001">
        <ele>554.7</ele>
        <time>2015-07-12T06:12:40Z</time>
      </trkpt>
      <trkpt lat="46.71434" lon="5.71981">
        <ele>554.3</ele>
        <time>2015-07-12T06:12:42Z</time>
      </trkpt>
      <trkpt lat="46.71439" lon="5.71962">
        <ele>553.8</ele>
        <time>2015-07-12T06:12:44Z</time>
      </trkpt>
      <trkpt lat="46.71442" lon="5.71944">
        <ele>553.1</ele>
        <time>2015-07-12T06:12:46Z</time>
      </trkpt>
      <trkpt lat="46.71446" lon="5.71928">
        <ele>552.5</ele>
        <time>2015-07-12T06:12:48Z</time>
      </trkpt>
      <trkpt lat="46.71448" lon="5.71909">
        <ele>551.7</ele>
        <time>2015-07-12T06:12:51Z</time>
      </trkpt>
      <trkpt lat="46.71452" lon="5.71891">
        <ele>551.1</ele>
        <time>2015-07-12T06:12:54Z</time>
      </trkpt>
      <trkpt lat="46.71455" lon="5.71874">
        <ele>550.7</ele>
        <time>2015-07-12T06:12:57Z</time>
      </trkpt>
      <trkpt lat="46.71461" lon="5.71857">
        <ele>550.5</ele>
        <time>2015-07-12T06:13:00Z</time>
      </trkpt>
      <trkpt lat="46.71468" lon="5.71842">
        <ele>550.3</ele>
        <time>2015-07-12T06:13:03Z</time>
      </trkpt>
      <trkpt lat="46.71473" lon="5.71828">
        <ele>550.3</ele>
        <time>2015-07-12T06:13:06Z</time>
      </trkpt>
      <trkpt lat="46.71481" lon="5.71816">
        <ele>550.4</ele>
        <time>2015-07-12T06:13:10Z</time>
      </trkpt>
      <trkpt lat="46.71491" lon="5.71814">
        <ele>550.7</ele>
        <time>2015-07-12T06:13:14Z</time>
      </trkpt>
      <trkpt lat="46.715" lon="5.71809">
        <ele>550.9</ele>
        <time>2015-07-12T06:13:17Z</time>
      </trkpt>
      <trkpt lat="46.71509" lon="5.71801">
        <ele>551.1</ele>
        <time>2015-07-12T06:13:20Z</time>
      </trkpt>
      <trkpt lat="46.71516" lon="5.7179">
        <ele>551.2</ele>
        <time>2015-07-12T06:13:23Z</time>
      </trkpt>
      <trkpt lat="46.71522" lon="5.71779">
        <ele>551.4</ele>
        <time>2015-07-12T06:13:25Z</time>
      </trkpt>
      <trkpt lat="46.71527" lon="5.71766">
        <ele>551.6</ele>
        <time>2015-07-12T06:13:27Z</time>
      </trkpt>
      <trkpt lat="46.71533" lon="5.71752">
        <ele>551.5</ele>
        <time>2015-07-12T06:13:29Z</time>
      </trkpt>
      <trkpt lat="46.71539" lon="5.71737">
        <ele>551.3</ele>
        <time>2015-07-12T06:13:31Z</time>
      </trkpt>
      <trkpt lat="46.71544" lon="5.71719">
        <ele>551.1</ele>
        <time>2015-07-12T06:13:33Z</time>
      </trkpt>
      <trkpt lat="46.71551" lon="5.717">
        <ele>550.8</ele>
        <time>2015-07-12T06:13:35Z</time>
      </trkpt>
      <trkpt lat="46.71557" lon="5.71681">
        <ele>550.3</ele>
        <time>2015-07-12T06:13:37Z</time>
      </trkpt>
      <trkpt lat="46.71563" lon="5.71664">
        <ele>549.8</ele>
        <time>2015-07-12T06:13:39Z</time>
      </trkpt>
      <trkpt lat="46.71571" lon="5.71645">
        <ele>549.3</ele>
        <time>2015-07-12T06:13:41Z</time>
      </trkpt>
      <trkpt lat="46.71576" lon="5.71626">
        <ele>548.7</ele>
        <time>2015-07-12T06:13:43Z</time>
      </trkpt>
      <trkpt lat="46.71575" lon="5.7161">
        <ele>548.1</ele>
        <time>2015-07-12T06:13:45Z</time>
      </trkpt>
      <trkpt lat="46.71576" lon="5.71596">
        <ele>547.7</ele>
        <time>2015-07-12T06:13:47Z</time>
      </trkpt>
      <trkpt lat="46.71574" lon="5.71582">
        <ele>547.2</ele>
        <time>2015-07-12T06:13:50Z</time>
      </trkpt>
      <trkpt lat="46.71568" lon="5.71565">
        <ele>546.8</ele>
        <time>2015-07-12T06:13:54Z</time>
      </trkpt>
      <trkpt lat="46.71563" lon="5.71551">
        <ele>546.5</ele>
        <time>2015-07-12T06:13:57Z</time>
      </trkpt>
      <trkpt lat="46.71558" lon="5.71539">
        <ele>546.3</ele>
        <time>2015-07-12T06:14:00Z</time>
      </trkpt>
      <trkpt lat="46.71554" lon="5.71527">
        <ele>546.1</ele>
        <time>2015-07-12T06:14:03Z</time>
      </trkpt>
      <trkpt lat="46.71549" lon="5.71511">
        <ele>546</ele>
        <time>2015-07-12T06:14:06Z</time>
      </trkpt>
      <trkpt lat="46.71546" lon="5.71497">
        <ele>546</ele>
        <time>2015-07-12T06:14:09Z</time>
      </trkpt>
      <trkpt lat="46.71541" lon="5.71478">
        <ele>546.1</ele>
        <time>2015-07-12T06:14:12Z</time>
      </trkpt>
      <trkpt lat="46.71538" lon="5.71457">
        <ele>546.1</ele>
        <time>2015-07-12T06:14:15Z</time>
      </trkpt>
      <trkpt lat="46.71539" lon="5.71437">
        <ele>546.1</ele>
        <time>2015-07-12T06:14:18Z</time>
      </trkpt>
      <trkpt lat="46.71542" lon="5.7142">
        <ele>546.1</ele>
        <time>2015-07-12T06:14:21Z</time>
      </trkpt>
      <trkpt lat="46.71544" lon="5.71403">
        <ele>546.1</ele>
        <time>2015-07-12T06:14:24Z</time>
      </trkpt>
      <trkpt lat="46.71548" lon="5.71386">
        <ele>546.1</ele>
        <time>2015-07-12T06:14:27Z</time>
      </trkpt>
      <trkpt lat="46.7155" lon="5.7137">
        <ele>546.1</ele>
        <time>2015-07-12T06:14:29Z</time>
      </trkpt>
      <trkpt lat="46.71553" lon="5.71353">
        <ele>546.1</ele>
        <time>2015-07-12T06:14:31Z</time>
      </trkpt>
      <trkpt lat="46.71557" lon="5.7134">
        <ele>546</ele>
        <time>2015-07-12T06:14:33Z</time>
      </trkpt>
      <trkpt lat="46.71561" lon="5.71323">
        <ele>545.8</ele>
        <time>2015-07-12T06:14:35Z</time>
      </trkpt>
      <trkpt lat="46.71565" lon="5.71308">
        <ele>545.7</ele>
        <time>2015-07-12T06:14:37Z</time>
      </trkpt>
      <trkpt lat="46.71571" lon="5.71293">
        <ele>545.6</ele>
        <time>2015-07-12T06:14:39Z</time>
      </trkpt>
      <trkpt lat="46.71575" lon="5.71279">
        <ele>545.4</ele>
        <time>2015-07-12T06:14:41Z</time>
      </trkpt>
      <trkpt lat="46.71582" lon="5.71264">
        <ele>545.1</ele>
        <time>2015-07-12T06:14:43Z</time>
      </trkpt>
      <trkpt lat="46.71588" lon="5.71252">
        <ele>545</ele>
        <time>2015-07-12T06:14:45Z</time>
      </trkpt>
      <trkpt lat="46.71595" lon="5.71241">
        <ele>544.9</ele>
        <time>2015-07-12T06:14:47Z</time>
      </trkpt>
      <trkpt lat="46.71602" lon="5.71227">
        <ele>544.9</ele>
        <time>2015-07-12T06:14:49Z</time>
      </trkpt>
      <trkpt lat="46.71607" lon="5.71214">
        <ele>544.9</ele>
        <time>2015-07-12T06:14:51Z</time>
      </trkpt>
      <trkpt lat="46.71614" lon="5.71203">
        <ele>544.9</ele>
        <time>2015-07-12T06:14:53Z</time>
      </trkpt>
      <trkpt lat="46.7162" lon="5.71191">
        <ele>544.9</ele>
        <time>2015-07-12T06:14:55Z</time>
      </trkpt>
      <trkpt lat="46.71623" lon="5.71178">
        <ele>544.8</ele>
        <time>2015-07-12T06:14:57Z</time>
      </trkpt>
      <trkpt lat="46.71626" lon="5.71163">
        <ele>544.8</ele>
        <time>2015-07-12T06:14:59Z</time>
      </trkpt>
      <trkpt lat="46.71632" lon="5.71151">
        <ele>544.7</ele>
        <time>2015-07-12T06:15:01Z</time>
      </trkpt>
      <trkpt lat="46.71637" lon="5.7114">
        <ele>544.6</ele>
        <time>2015-07-12T06:15:03Z</time>
      </trkpt>
      <trkpt lat="46.71643" lon="5.71129">
        <ele>544.6</ele>
        <time>2015-07-12T06:15:05Z</time>
      </trkpt>
      <trkpt lat="46.7165" lon="5.71114">
        <ele>544.6</ele>
        <time>2015-07-12T06:15:08Z</time>
      </trkpt>
      <trkpt lat="46.71656" lon="5.71103">
        <ele>544.5</ele>
        <time>2015-07-12T06:15:10Z</time>
      </trkpt>
      <trkpt lat="46.71663" lon="5.71086">
        <ele>544.4</ele>
        <time>2015-07-12T06:15:13Z</time>
      </trkpt>
      <trkpt lat="46.71667" lon="5.71073">
        <ele>544.3</ele>
        <time>2015-07-12T06:15:15Z</time>
      </trkpt>
      <trkpt lat="46.7167" lon="5.71058">
        <ele>544.1</ele>
        <time>2015-07-12T06:15:17Z</time>
      </trkpt>
      <trkpt lat="46.71673" lon="5.71045">
        <ele>543.9</ele>
        <time>2015-07-12T06:15:19Z</time>
      </trkpt>
      <trkpt lat="46.71676" lon="5.71028">
        <ele>543.8</ele>
        <time>2015-07-12T06:15:21Z</time>
      </trkpt>
      <trkpt lat="46.71681" lon="5.71009">
        <ele>543.4</ele>
        <time>2015-07-12T06:15:23Z</time>
      </trkpt>
      <trkpt lat="46.71685" lon="5.70992">
        <ele>543.1</ele>
        <time>2015-07-12T06:15:25Z</time>
      </trkpt>
      <trkpt lat="46.71689" lon="5.70977">
        <ele>542.7</ele>
        <time>2015-07-12T06:15:28Z</time>
      </trkpt>
      <trkpt lat="46.7168" lon="5.70979">
        <ele>541.8</ele>
        <time>2015-07-12T06:15:34Z</time>
      </trkpt>
      <trkpt lat="46.71668" lon="5.70983">
        <ele>541.4</ele>
        <time>2015-07-12T06:15:38Z</time>
      </trkpt>
      <trkpt lat="46.71658" lon="5.70984">
        <ele>541.2</ele>
        <time>2015-07-12T06:15:41Z</time>
      </trkpt>
      <trkpt lat="46.71647" lon="5.70982">
        <ele>541.1</ele>
        <time>2015-07-12T06:15:44Z</time>
      </trkpt>
      <trkpt lat="46.71637" lon="5.70978">
        <ele>541.1</ele>
        <time>2015-07-12T06:15:47Z</time>
      </trkpt>
      <trkpt lat="46.71627" lon="5.70974">
        <ele>541.2</ele>
        <time>2015-07-12T06:15:50Z</time>
      </trkpt>
      <trkpt lat="46.71615" lon="5.70969">
        <ele>541.4</ele>
        <time>2015-07-12T06:15:53Z</time>
      </trkpt>
      <trkpt lat="46.71602" lon="5.70964">
        <ele>541.7</ele>
        <time>2015-07-12T06:15:56Z</time>
      </trkpt>
      <trkpt lat="46.7159" lon="5.7096">
        <ele>541.9</ele>
        <time>2015-07-12T06:15:59Z</time>
      </trkpt>
      <trkpt lat="46.71579" lon="5.70957">
        <ele>542</ele>
        <time>2015-07-12T06:16:02Z</time>
      </trkpt>
      <trkpt lat="46.71567" lon="5.70952">
        <ele>542.2</ele>
        <time>2015-07-12T06:16:05Z</time>
      </trkpt>
      <trkpt lat="46.71556" lon="5.70947">
        <ele>542.4</ele>
        <time>2015-07-12T06:16:08Z</time>
      </trkpt>
      <trkpt lat="46.71546" lon="5.70938">
        <ele>542.7</ele>
        <time>2015-07-12T06:16:11Z</time>
      </trkpt>
      <trkpt lat="46.71539" lon="5.70926">
        <ele>542.9</ele>
        <time>2015-07-12T06:16:14Z</time>
      </trkpt>
      <trkpt lat="46.71534" lon="5.7091">
        <ele>543.3</ele>
        <time>2015-07-12T06:16:17Z</time>
      </trkpt>
      <trkpt lat="46.71528" lon="5.70894">
        <ele>543.6</ele>
        <time>2015-07-12T06:16:20Z</time>
      </trkpt>
      <trkpt lat="46.71522" lon="5.70879">
        <ele>543.8</ele>
        <time>2015-07-12T06:16:23Z</time>
      </trkpt>
      <trkpt lat="46.71515" lon="5.70869">
        <ele>544.2</ele>
        <time>2015-07-12T06:16:26Z</time>
      </trkpt>
      <trkpt lat="46.71507" lon="5.7086">
        <ele>544.6</ele>
        <time>2015-07-12T06:16:29Z</time>
      </trkpt>
      <trkpt lat="46.71498" lon="5.70854">
        <ele>545.1</ele>
        <time>2015-07-12T06:16:32Z</time>
      </trkpt>
      <trkpt lat="46.71489" lon="5.70847">
        <ele>545.5</ele>
        <time>2015-07-12T06:16:35Z</time>
      </trkpt>
      <trkpt lat="46.7148" lon="5.70841">
        <ele>545.9</ele>
        <time>2015-07-12T06:16:38Z</time>
      </trkpt>
      <trkpt lat="46.71471" lon="5.70834">
        <ele>546.4</ele>
        <time>2015-07-12T06:16:41Z</time>
      </trkpt>
      <trkpt lat="46.71461" lon="5.7083">
        <ele>546.8</ele>
        <time>2015-07-12T06:16:44Z</time>
      </trkpt>
      <trkpt lat="46.71452" lon="5.70826">
        <ele>547.2</ele>
        <time>2015-07-12T06:16:47Z</time>
      </trkpt>
      <trkpt lat="46.71441" lon="5.70824">
        <ele>547.6</ele>
        <time>2015-07-12T06:16:50Z</time>
      </trkpt>
      <trkpt lat="46.7143" lon="5.70823">
        <ele>548</ele>
        <time>2015-07-12T06:16:53Z</time>
      </trkpt>
      <trkpt lat="46.71421" lon="5.70814">
        <ele>548.4</ele>
        <time>2015-07-12T06:16:57Z</time>
      </trkpt>
      <trkpt lat="46.71424" lon="5.70795">
        <ele>548.5</ele>
        <time>2015-07-12T06:17:00Z</time>
      </trkpt>
      <trkpt lat="46.7143" lon="5.70781">
        <ele>548.4</ele>
        <time>2015-07-12T06:17:02Z</time>
      </trkpt>
      <trkpt lat="46.71436" lon="5.70763">
        <ele>548.4</ele>
        <time>2015-07-12T06:17:04Z</time>
      </trkpt>
      <trkpt lat="46.71443" lon="5.70743">
        <ele>548.3</ele>
        <time>2015-07-12T06:17:06Z</time>
      </trkpt>
      <trkpt lat="46.7145" lon="5.70721">
        <ele>548.1</ele>
        <time>2015-07-12T06:17:08Z</time>
      </trkpt>
      <trkpt lat="46.71455" lon="5.70698">
        <ele>547.8</ele>
        <time>2015-07-12T06:17:10Z</time>
      </trkpt>
      <trkpt lat="46.71456" lon="5.70674">
        <ele>547.4</ele>
        <time>2015-07-12T06:17:12Z</time>
      </trkpt>
      <trkpt lat="46.71453" lon="5.70651">
        <ele>547</ele>
        <time>2015-07-12T06:17:14Z</time>
      </trkpt>
      <trkpt lat="46.71448" lon="5.7063">
        <ele>546.7</ele>
        <time>2015-07-12T06:17:16Z</time>
      </trkpt>
      <trkpt lat="46.71443" lon="5.70611">
        <ele>546.3</ele>
        <time>2015-07-12T06:17:18Z</time>
      </trkpt>
      <trkpt lat="46.71441" lon="5.70595">
        <ele>546</ele>
        <time>2015-07-12T06:17:20Z</time>
      </trkpt>
      <trkpt lat="46.71442" lon="5.70581">
        <ele>545.8</ele>
        <time>2015-07-12T06:17:22Z</time>
      </trkpt>
      <trkpt lat="46.71445" lon="5.70563">
        <ele>545.3</ele>
        <time>2015-07-12T06:17:25Z</time>
      </trkpt>
      <trkpt lat="46.71449" lon="5.70551">
        <ele>545</ele>
        <time>2015-07-12T06:17:27Z</time>
      </trkpt>
      <trkpt lat="46.71451" lon="5.70533">
        <ele>544.5</ele>
        <time>2015-07-12T06:17:30Z</time>
      </trkpt>
      <trkpt lat="46.71453" lon="5.70519">
        <ele>544.2</ele>
        <time>2015-07-12T06:17:32Z</time>
      </trkpt>
      <trkpt lat="46.71454" lon="5.70505">
        <ele>543.9</ele>
        <time>2015-07-12T06:17:34Z</time>
      </trkpt>
      <trkpt lat="46.71455" lon="5.70489">
        <ele>543.6</ele>
        <time>2015-07-12T06:17:36Z</time>
      </trkpt>
      <trkpt lat="46.71456" lon="5.7047">
        <ele>543.3</ele>
        <time>2015-07-12T06:17:38Z</time>
      </trkpt>
      <trkpt lat="46.71457" lon="5.70453">
        <ele>542.9</ele>
        <time>2015-07-12T06:17:40Z</time>
      </trkpt>
      <trkpt lat="46.71455" lon="5.70436">
        <ele>542.6</ele>
        <time>2015-07-12T06:17:42Z</time>
      </trkpt>
      <trkpt lat="46.7145" lon="5.7042">
        <ele>542.3</ele>
        <time>2015-07-12T06:17:44Z</time>
      </trkpt>
      <trkpt lat="46.71446" lon="5.70406">
        <ele>541.9</ele>
        <time>2015-07-12T06:17:46Z</time>
      </trkpt>
      <trkpt lat="46.71442" lon="5.70394">
        <ele>541.5</ele>
        <time>2015-07-12T06:17:48Z</time>
      </trkpt>
      <trkpt lat="46.7144" lon="5.70377">
        <ele>540.9</ele>
        <time>2015-07-12T06:17:51Z</time>
      </trkpt>
      <trkpt lat="46.71438" lon="5.70362">
        <ele>540.4</ele>
        <time>2015-07-12T06:17:54Z</time>
      </trkpt>
      <trkpt lat="46.71435" lon="5.70346">
        <ele>539.7</ele>
        <time>2015-07-12T06:17:57Z</time>
      </trkpt>
      <trkpt lat="46.71435" lon="5.7033">
        <ele>539</ele>
        <time>2015-07-12T06:18:00Z</time>
      </trkpt>
      <trkpt lat="46.71438" lon="5.70317">
        <ele>538.5</ele>
        <time>2015-07-12T06:18:03Z</time>
      </trkpt>
      <trkpt lat="46.71441" lon="5.70304">
        <ele>538</ele>
        <time>2015-07-12T06:18:06Z</time>
      </trkpt>
      <trkpt lat="46.71444" lon="5.7029">
        <ele>537.3</ele>
        <time>2015-07-12T06:18:09Z</time>
      </trkpt>
      <trkpt lat="46.71444" lon="5.70273">
        <ele>536.6</ele>
        <time>2015-07-12T06:18:12Z</time>
      </trkpt>
      <trkpt lat="46.7144" lon="5.7026">
        <ele>536.2</ele>
        <time>2015-07-12T06:18:14Z</time>
      </trkpt>
      <trkpt lat="46.71434" lon="5.70249">
        <ele>535.8</ele>
        <time>2015-07-12T06:18:16Z</time>
      </trkpt>
      <trkpt lat="46.71425" lon="5.70235">
        <ele>535.3</ele>
        <time>2015-07-12T06:18:19Z</time>
      </trkpt>
      <trkpt lat="46.71417" lon="5.70223">
        <ele>535</ele>
        <time>2015-07-12T06:18:21Z</time>
      </trkpt>
      <trkpt lat="46.71411" lon="5.7021">
        <ele>534.6</ele>
        <time>2015-07-12T06:18:23Z</time>
      </trkpt>
      <trkpt lat="46.71408" lon="5.70193">
        <ele>534.1</ele>
        <time>2015-07-12T06:18:26Z</time>
      </trkpt>
      <trkpt lat="46.71409" lon="5.70174">
        <ele>533.7</ele>
        <time>2015-07-12T06:18:29Z</time>
      </trkpt>
      <trkpt lat="46.71408" lon="5.70155">
        <ele>533.3</ele>
        <time>2015-07-12T06:18:32Z</time>
      </trkpt>
      <trkpt lat="46.71407" lon="5.70141">
        <ele>533.1</ele>
        <time>2015-07-12T06:18:34Z</time>
      </trkpt>
      <trkpt lat="46.71404" lon="5.70128">
        <ele>532.9</ele>
        <time>2015-07-12T06:18:36Z</time>
      </trkpt>
      <trkpt lat="46.71401" lon="5.70113">
        <ele>532.6</ele>
        <time>2015-07-12T06:18:38Z</time>
      </trkpt>
      <trkpt lat="46.71399" lon="5.70097">
        <ele>532.5</ele>
        <time>2015-07-12T06:18:40Z</time>
      </trkpt>
      <trkpt lat="46.71395" lon="5.70085">
        <ele>532.4</ele>
        <time>2015-07-12T06:18:42Z</time>
      </trkpt>
      <trkpt lat="46.71391" lon="5.70072">
        <ele>532.3</ele>
        <time>2015-07-12T06:18:44Z</time>
      </trkpt>
      <trkpt lat="46.71389" lon="5.7006">
        <ele>532.3</ele>
        <time>2015-07-12T06:18:46Z</time>
      </trkpt>
      <trkpt lat="46.71387" lon="5.70041">
        <ele>532.1</ele>
        <time>2015-07-12T06:18:49Z</time>
      </trkpt>
      <trkpt lat="46.71384" lon="5.70028">
        <ele>531.9</ele>
        <time>2015-07-12T06:18:51Z</time>
      </trkpt>
      <trkpt lat="46.7138" lon="5.70013">
        <ele>531.4</ele>
        <time>2015-07-12T06:18:54Z</time>
      </trkpt>
      <trkpt lat="46.71379" lon="5.69996">
        <ele>530.8</ele>
        <time>2015-07-12T06:18:58Z</time>
      </trkpt>
      <trkpt lat="46.71384" lon="5.69982">
        <ele>530.3</ele>
        <time>2015-07-12T06:19:01Z</time>
      </trkpt>
      <trkpt lat="46.71388" lon="5.6997">
        <ele>529.7</ele>
        <time>2015-07-12T06:19:05Z</time>
      </trkpt>
      <trkpt lat="46.71389" lon="5.69957">
        <ele>528.7</ele>
        <time>2015-07-12T06:19:14Z</time>
      </trkpt>
      <trkpt lat="46.71385" lon="5.69943">
        <ele>528.4</ele>
        <time>2015-07-12T06:19:18Z</time>
      </trkpt>
      <trkpt lat="46.7138" lon="5.69929">
        <ele>528.2</ele>
        <time>2015-07-12T06:19:21Z</time>
      </trkpt>
      <trkpt lat="46.71377" lon="5.69915">
        <ele>528</ele>
        <time>2015-07-12T06:19:24Z</time>
      </trkpt>
      <trkpt lat="46.7137" lon="5.69901">
        <ele>527.8</ele>
        <time>2015-07-12T06:19:28Z</time>
      </trkpt>
      <trkpt lat="46.71359" lon="5.69897">
        <ele>527.7</ele>
        <time>2015-07-12T06:19:31Z</time>
      </trkpt>
      <trkpt lat="46.71351" lon="5.69905">
        <ele>527.6</ele>
        <time>2015-07-12T06:19:36Z</time>
      </trkpt>
      <trkpt lat="46.71344" lon="5.69914">
        <ele>527.7</ele>
        <time>2015-07-12T06:19:40Z</time>
      </trkpt>
      <trkpt lat="46.71337" lon="5.69927">
        <ele>528</ele>
        <time>2015-07-12T06:19:45Z</time>
      </trkpt>
      <trkpt lat="46.71328" lon="5.69933">
        <ele>528.2</ele>
        <time>2015-07-12T06:19:49Z</time>
      </trkpt>
      <trkpt lat="46.71317" lon="5.69931">
        <ele>528.1</ele>
        <time>2015-07-12T06:19:53Z</time>
      </trkpt>
      <trkpt lat="46.71307" lon="5.69924">
        <ele>528.2</ele>
        <time>2015-07-12T06:19:56Z</time>
      </trkpt>
      <trkpt lat="46.71296" lon="5.69917">
        <ele>528.4</ele>
        <time>2015-07-12T06:19:59Z</time>
      </trkpt>
      <trkpt lat="46.71286" lon="5.6991">
        <ele>528.5</ele>
        <time>2015-07-12T06:20:02Z</time>
      </trkpt>
      <trkpt lat="46.71281" lon="5.69895">
        <ele>528.6</ele>
        <time>2015-07-12T06:20:06Z</time>
      </trkpt>
      <trkpt lat="46.71277" lon="5.69883">
        <ele>528.5</ele>
        <time>2015-07-12T06:20:10Z</time>
      </trkpt>
      <trkpt lat="46.71271" lon="5.69871">
        <ele>528</ele>
        <time>2015-07-12T06:20:14Z</time>
      </trkpt>
      <trkpt lat="46.71262" lon="5.69859">
        <ele>527.9</ele>
        <time>2015-07-12T06:20:18Z</time>
      </trkpt>
      <trkpt lat="46.71253" lon="5.69862">
        <ele>527.9</ele>
        <time>2015-07-12T06:20:23Z</time>
      </trkpt>
      <trkpt lat="46.71255" lon="5.69879">
        <ele>528</ele>
        <time>2015-07-12T06:20:27Z</time>
      </trkpt>
      <trkpt lat="46.71256" lon="5.69892">
        <ele>528.1</ele>
        <time>2015-07-12T06:20:30Z</time>
      </trkpt>
      <trkpt lat="46.71253" lon="5.69906">
        <ele>528.3</ele>
        <time>2015-07-12T06:20:33Z</time>
      </trkpt>
      <trkpt lat="46.71253" lon="5.69923">
        <ele>528.8</ele>
        <time>2015-07-12T06:20:37Z</time>
      </trkpt>
      <trkpt lat="46.71243" lon="5.69926">
        <ele>529.2</ele>
        <time>2015-07-12T06:20:43Z</time>
      </trkpt>
      <trkpt lat="46.71232" lon="5.69923">
        <ele>529.4</ele>
        <time>2015-07-12T06:20:47Z</time>
      </trkpt>
      <trkpt lat="46.71223" lon="5.69921">
        <ele>529.3</ele>
        <time>2015-07-12T06:20:50Z</time>
      </trkpt>
      <trkpt lat="46.71211" lon="5.69919">
        <ele>529.1</ele>
        <time>2015-07-12T06:20:53Z</time>
      </trkpt>
      <trkpt lat="46.71199" lon="5.69918">
        <ele>528.7</ele>
        <time>2015-07-12T06:20:56Z</time>
      </trkpt>
      <trkpt lat="46.71188" lon="5.69915">
        <ele>528.5</ele>
        <time>2015-07-12T06:20:59Z</time>
      </trkpt>
      <trkpt lat="46.71178" lon="5.69913">
        <ele>528.4</ele>
        <time>2015-07-12T06:21:02Z</time>
      </trkpt>
      <trkpt lat="46.71166" lon="5.69911">
        <ele>528.2</ele>
        <time>2015-07-12T06:21:05Z</time>
      </trkpt>
      <trkpt lat="46.71155" lon="5.69908">
        <ele>527.5</ele>
        <time>2015-07-12T06:21:08Z</time>
      </trkpt>
      <trkpt lat="46.71143" lon="5.69906">
        <ele>527.4</ele>
        <time>2015-07-12T06:21:11Z</time>
      </trkpt>
      <trkpt lat="46.71132" lon="5.69904">
        <ele>527.4</ele>
        <time>2015-07-12T06:21:14Z</time>
      </trkpt>
      <trkpt lat="46.71123" lon="5.69901">
        <ele>527.1</ele>
        <time>2015-07-12T06:21:17Z</time>
      </trkpt>
      <trkpt lat="46.71113" lon="5.69899">
        <ele>526.8</ele>
        <time>2015-07-12T06:21:21Z</time>
      </trkpt>
      <trkpt lat="46.71104" lon="5.69906">
        <ele>526.6</ele>
        <time>2015-07-12T06:21:25Z</time>
      </trkpt>
      <trkpt lat="46.71097" lon="5.69917">
        <ele>526.6</ele>
        <time>2015-07-12T06:21:29Z</time>
      </trkpt>
      <trkpt lat="46.71088" lon="5.69928">
        <ele>526.8</ele>
        <time>2015-07-12T06:21:33Z</time>
      </trkpt>
      <trkpt lat="46.71079" lon="5.69934">
        <ele>527.2</ele>
        <time>2015-07-12T06:21:37Z</time>
      </trkpt>
      <trkpt lat="46.7108" lon="5.69921">
        <ele>527.1</ele>
        <time>2015-07-12T06:21:44Z</time>
      </trkpt>
      <trkpt lat="46.71085" lon="5.69908">
        <ele>527.4</ele>
        <time>2015-07-12T06:21:48Z</time>
      </trkpt>
      <trkpt lat="46.7109" lon="5.69896">
        <ele>527.2</ele>
        <time>2015-07-12T06:21:52Z</time>
      </trkpt>
      <trkpt lat="46.71095" lon="5.69882">
        <ele>527.2</ele>
        <time>2015-07-12T06:21:56Z</time>
      </trkpt>
      <trkpt lat="46.711" lon="5.69867">
        <ele>527.2</ele>
        <time>2015-07-12T06:22:00Z</time>
      </trkpt>
      <trkpt lat="46.71106" lon="5.69855">
        <ele>527.4</ele>
        <time>2015-07-12T06:22:05Z</time>
      </trkpt>
      <trkpt lat="46.71104" lon="5.69842">
        <ele>527.5</ele>
        <time>2015-07-12T06:22:10Z</time>
      </trkpt>
      <trkpt lat="46.71093" lon="5.69833">
        <ele>527.5</ele>
        <time>2015-07-12T06:22:14Z</time>
      </trkpt>
      <trkpt lat="46.71084" lon="5.69823">
        <ele>527.5</ele>
        <time>2015-07-12T06:22:18Z</time>
      </trkpt>
      <trkpt lat="46.71074" lon="5.69813">
        <ele>527.5</ele>
        <time>2015-07-12T06:22:22Z</time>
      </trkpt>
      <trkpt lat="46.71065" lon="5.69802">
        <ele>527.4</ele>
        <time>2015-07-12T06:22:26Z</time>
      </trkpt>
      <trkpt lat="46.71058" lon="5.69793">
        <ele>527.4</ele>
        <time>2015-07-12T06:22:29Z</time>
      </trkpt>
      <trkpt lat="46.71051" lon="5.69784">
        <ele>527.4</ele>
        <time>2015-07-12T06:22:32Z</time>
      </trkpt>
      <trkpt lat="46.71044" lon="5.69771">
        <ele>527.4</ele>
        <time>2015-07-12T06:22:36Z</time>
      </trkpt>
      <trkpt lat="46.71045" lon="5.69758">
        <ele>527.5</ele>
        <time>2015-07-12T06:22:39Z</time>
      </trkpt>
      <trkpt lat="46.71042" lon="5.69742">
        <ele>527.6</ele>
        <time>2015-07-12T06:22:43Z</time>
      </trkpt>
      <trkpt lat="46.71039" lon="5.69726">
        <ele>527.7</ele>
        <time>2015-07-12T06:22:47Z</time>
      </trkpt>
      <trkpt lat="46.71034" lon="5.69714">
        <ele>527.9</ele>
        <time>2015-07-12T06:22:51Z</time>
      </trkpt>
      <trkpt lat="46.71028" lon="5.697">
        <ele>528.1</ele>
        <time>2015-07-12T06:22:55Z</time>
      </trkpt>
      <trkpt lat="46.71023" lon="5.69685">
        <ele>528.1</ele>
        <time>2015-07-12T06:22:59Z</time>
      </trkpt>
      <trkpt lat="46.71016" lon="5.69674">
        <ele>528.4</ele>
        <time>2015-07-12T06:23:04Z</time>
      </trkpt>
      <trkpt lat="46.71009" lon="5.69663">
        <ele>528.8</ele>
        <time>2015-07-12T06:23:09Z</time>
      </trkpt>
      <trkpt lat="46.71003" lon="5.69653">
        <ele>529.1</ele>
        <time>2015-07-12T06:23:13Z</time>
      </trkpt>
      <trkpt lat="46.70996" lon="5.69641">
        <ele>529.3</ele>
        <time>2015-07-12T06:23:17Z</time>
      </trkpt>
      <trkpt lat="46.7099" lon="5.69626">
        <ele>529.4</ele>
        <time>2015-07-12T06:23:21Z</time>
      </trkpt>
      <trkpt lat="46.70984" lon="5.69612">
        <ele>529.5</ele>
        <time>2015-07-12T06:23:25Z</time>
      </trkpt>
      <trkpt lat="46.70979" lon="5.69597">
        <ele>529.6</ele>
        <time>2015-07-12T06:23:29Z</time>
      </trkpt>
      <trkpt lat="46.70982" lon="5.69582">
        <ele>529.6</ele>
        <time>2015-07-12T06:23:33Z</time>
      </trkpt>
      <trkpt lat="46.70984" lon="5.69568">
        <ele>529.6</ele>
        <time>2015-07-12T06:23:36Z</time>
      </trkpt>
      <trkpt lat="46.70981" lon="5.69554">
        <ele>529.6</ele>
        <time>2015-07-12T06:23:39Z</time>
      </trkpt>
      <trkpt lat="46.70975" lon="5.69541">
        <ele>529.6</ele>
        <time>2015-07-12T06:23:42Z</time>
      </trkpt>
      <trkpt lat="46.70969" lon="5.69529">
        <ele>529.7</ele>
        <time>2015-07-12T06:23:45Z</time>
      </trkpt>
      <trkpt lat="46.70961" lon="5.69518">
        <ele>529.8</ele>
        <time>2015-07-12T06:23:48Z</time>
      </trkpt>
      <trkpt lat="46.70953" lon="5.69508">
        <ele>529.8</ele>
        <time>2015-07-12T06:23:51Z</time>
      </trkpt>
      <trkpt lat="46.70944" lon="5.69499">
        <ele>529.7</ele>
        <time>2015-07-12T06:23:54Z</time>
      </trkpt>
      <trkpt lat="46.70935" lon="5.69495">
        <ele>529.6</ele>
        <time>2015-07-12T06:23:57Z</time>
      </trkpt>
      <trkpt lat="46.70926" lon="5.69494">
        <ele>529.6</ele>
        <time>2015-07-12T06:24:00Z</time>
      </trkpt>
      <trkpt lat="46.70915" lon="5.69496">
        <ele>529.7</ele>
        <time>2015-07-12T06:24:03Z</time>
      </trkpt>
      <trkpt lat="46.70904" lon="5.69497">
        <ele>529.7</ele>
        <time>2015-07-12T06:24:06Z</time>
      </trkpt>
      <trkpt lat="46.70894" lon="5.69498">
        <ele>529.8</ele>
        <time>2015-07-12T06:24:09Z</time>
      </trkpt>
      <trkpt lat="46.70883" lon="5.695">
        <ele>529.9</ele>
        <time>2015-07-12T06:24:12Z</time>
      </trkpt>
      <trkpt lat="46.70872" lon="5.69499">
        <ele>530.1</ele>
        <time>2015-07-12T06:24:16Z</time>
      </trkpt>
      <trkpt lat="46.70863" lon="5.69494">
        <ele>530.2</ele>
        <time>2015-07-12T06:24:20Z</time>
      </trkpt>
      <trkpt lat="46.70855" lon="5.69488">
        <ele>530.5</ele>
        <time>2015-07-12T06:24:24Z</time>
      </trkpt>
      <trkpt lat="46.70846" lon="5.69481">
        <ele>531</ele>
        <time>2015-07-12T06:24:28Z</time>
      </trkpt>
      <trkpt lat="46.70836" lon="5.6948">
        <ele>531.3</ele>
        <time>2015-07-12T06:24:31Z</time>
      </trkpt>
      <trkpt lat="46.70825" lon="5.69482">
        <ele>531.7</ele>
        <time>2015-07-12T06:24:35Z</time>
      </trkpt>
      <trkpt lat="46.70816" lon="5.69483">
        <ele>531.9</ele>
        <time>2015-07-12T06:24:38Z</time>
      </trkpt>
      <trkpt lat="46.70807" lon="5.69481">
        <ele>532.1</ele>
        <time>2015-07-12T06:24:41Z</time>
      </trkpt>
      <trkpt lat="46.70797" lon="5.69473">
        <ele>532.7</ele>
        <time>2015-07-12T06:24:45Z</time>
      </trkpt>
      <trkpt lat="46.70789" lon="5.69464">
        <ele>533.2</ele>
        <time>2015-07-12T06:24:49Z</time>
      </trkpt>
      <trkpt lat="46.70778" lon="5.69454">
        <ele>533.6</ele>
        <time>2015-07-12T06:24:53Z</time>
      </trkpt>
      <trkpt lat="46.70767" lon="5.69447">
        <ele>533.8</ele>
        <time>2015-07-12T06:24:56Z</time>
      </trkpt>
      <trkpt lat="46.70753" lon="5.69441">
        <ele>533.9</ele>
        <time>2015-07-12T06:24:59Z</time>
      </trkpt>
      <trkpt lat="46.70742" lon="5.69437">
        <ele>533.8</ele>
        <time>2015-07-12T06:25:01Z</time>
      </trkpt>
      <trkpt lat="46.70728" lon="5.69437">
        <ele>533.8</ele>
        <time>2015-07-12T06:25:03Z</time>
      </trkpt>
      <trkpt lat="46.70714" lon="5.69439">
        <ele>533.7</ele>
        <time>2015-07-12T06:25:05Z</time>
      </trkpt>
      <trkpt lat="46.707" lon="5.69443">
        <ele>533.5</ele>
        <time>2015-07-12T06:25:07Z</time>
      </trkpt>
      <trkpt lat="46.70688" lon="5.69446">
        <ele>533.3</ele>
        <time>2015-07-12T06:25:09Z</time>
      </trkpt>
      <trkpt lat="46.70676" lon="5.69445">
        <ele>533</ele>
        <time>2015-07-12T06:25:11Z</time>
      </trkpt>
      <trkpt lat="46.70666" lon="5.69439">
        <ele>532.7</ele>
        <time>2015-07-12T06:25:13Z</time>
      </trkpt>
      <trkpt lat="46.70657" lon="5.69429">
        <ele>532.5</ele>
        <time>2015-07-12T06:25:15Z</time>
      </trkpt>
      <trkpt lat="46.7065" lon="5.69418">
        <ele>532.1</ele>
        <time>2015-07-12T06:25:17Z</time>
      </trkpt>
      <trkpt lat="46.70643" lon="5.69403">
        <ele>531.7</ele>
        <time>2015-07-12T06:25:20Z</time>
      </trkpt>
      <trkpt lat="46.70635" lon="5.69388">
        <ele>531.4</ele>
        <time>2015-07-12T06:25:23Z</time>
      </trkpt>
      <trkpt lat="46.70627" lon="5.69374">
        <ele>531.2</ele>
        <time>2015-07-12T06:25:26Z</time>
      </trkpt>
      <trkpt lat="46.70618" lon="5.69364">
        <ele>531</ele>
        <time>2015-07-12T06:25:29Z</time>
      </trkpt>
      <trkpt lat="46.70607" lon="5.69364">
        <ele>530.8</ele>
        <time>2015-07-12T06:25:32Z</time>
      </trkpt>
      <trkpt lat="46.70599" lon="5.69375">
        <ele>530.8</ele>
        <time>2015-07-12T06:25:35Z</time>
      </trkpt>
      <trkpt lat="46.7059" lon="5.69378">
        <ele>530.8</ele>
        <time>2015-07-12T06:25:40Z</time>
      </trkpt>
      <trkpt lat="46.70581" lon="5.69372">
        <ele>530.7</ele>
        <time>2015-07-12T06:25:43Z</time>
      </trkpt>
      <trkpt lat="46.70571" lon="5.69365">
        <ele>530.5</ele>
        <time>2015-07-12T06:25:46Z</time>
      </trkpt>
      <trkpt lat="46.70559" lon="5.69357">
        <ele>530.5</ele>
        <time>2015-07-12T06:25:49Z</time>
      </trkpt>
      <trkpt lat="46.70548" lon="5.69349">
        <ele>530.4</ele>
        <time>2015-07-12T06:25:52Z</time>
      </trkpt>
      <trkpt lat="46.70536" lon="5.6934">
        <ele>530.4</ele>
        <time>2015-07-12T06:25:55Z</time>
      </trkpt>
      <trkpt lat="46.70525" lon="5.69329">
        <ele>530.2</ele>
        <time>2015-07-12T06:25:58Z</time>
      </trkpt>
      <trkpt lat="46.70514" lon="5.69319">
        <ele>529.9</ele>
        <time>2015-07-12T06:26:01Z</time>
      </trkpt>
      <trkpt lat="46.70503" lon="5.6931">
        <ele>529.7</ele>
        <time>2015-07-12T06:26:04Z</time>
      </trkpt>
      <trkpt lat="46.70492" lon="5.69301">
        <ele>529.5</ele>
        <time>2015-07-12T06:26:07Z</time>
      </trkpt>
      <trkpt lat="46.70481" lon="5.6929">
        <ele>529.2</ele>
        <time>2015-07-12T06:26:10Z</time>
      </trkpt>
      <trkpt lat="46.70478" lon="5.69273">
        <ele>528.8</ele>
        <time>2015-07-12T06:26:13Z</time>
      </trkpt>
      <trkpt lat="46.70485" lon="5.69263">
        <ele>528.6</ele>
        <time>2015-07-12T06:26:16Z</time>
      </trkpt>
      <trkpt lat="46.70493" lon="5.69258">
        <ele>528.3</ele>
        <time>2015-07-12T06:26:20Z</time>
      </trkpt>
      <trkpt lat="46.70496" lon="5.69244">
        <ele>528.3</ele>
        <time>2015-07-12T06:26:24Z</time>
      </trkpt>
      <trkpt lat="46.705" lon="5.69231">
        <ele>528.3</ele>
        <time>2015-07-12T06:26:27Z</time>
      </trkpt>
      <trkpt lat="46.70505" lon="5.69216">
        <ele>528.4</ele>
        <time>2015-07-12T06:26:30Z</time>
      </trkpt>
      <trkpt lat="46.7051" lon="5.69202">
        <ele>528.4</ele>
        <time>2015-07-12T06:26:33Z</time>
      </trkpt>
      <trkpt lat="46.70516" lon="5.69187">
        <ele>528.4</ele>
        <time>2015-07-12T06:26:36Z</time>
      </trkpt>
      <trkpt lat="46.70522" lon="5.6917">
        <ele>528.2</ele>
        <time>2015-07-12T06:26:39Z</time>
      </trkpt>
      <trkpt lat="46.70527" lon="5.69158">
        <ele>528.1</ele>
        <time>2015-07-12T06:26:41Z</time>
      </trkpt>
      <trkpt lat="46.7053" lon="5.69145">
        <ele>527.9</ele>
        <time>2015-07-12T06:26:43Z</time>
      </trkpt>
      <trkpt lat="46.70534" lon="5.69132">
        <ele>527.7</ele>
        <time>2015-07-12T06:26:45Z</time>
      </trkpt>
      <trkpt lat="46.70536" lon="5.69118">
        <ele>527.6</ele>
        <time>2015-07-12T06:26:47Z</time>
      </trkpt>
      <trkpt lat="46.70539" lon="5.69106">
        <ele>527.3</ele>
        <time>2015-07-12T06:26:49Z</time>
      </trkpt>
      <trkpt lat="46.70543" lon="5.69093">
        <ele>527</ele>
        <time>2015-07-12T06:26:51Z</time>
      </trkpt>
      <trkpt lat="46.70546" lon="5.6908">
        <ele>526.8</ele>
        <time>2015-07-12T06:26:53Z</time>
      </trkpt>
      <trkpt lat="46.7055" lon="5.69066">
        <ele>526.6</ele>
        <time>2015-07-12T06:26:55Z</time>
      </trkpt>
      <trkpt lat="46.70553" lon="5.69052">
        <ele>526.5</ele>
        <time>2015-07-12T06:26:57Z</time>
      </trkpt>
      <trkpt lat="46.70557" lon="5.69038">
        <ele>526.3</ele>
        <time>2015-07-12T06:26:59Z</time>
      </trkpt>
      <trkpt lat="46.7056" lon="5.69025">
        <ele>526</ele>
        <time>2015-07-12T06:27:01Z</time>
      </trkpt>
      <trkpt lat="46.70561" lon="5.69011">
        <ele>525.7</ele>
        <time>2015-07-12T06:27:03Z</time>
      </trkpt>
      <trkpt lat="46.7056" lon="5.68996">
        <ele>525.2</ele>
        <time>2015-07-12T06:27:05Z</time>
      </trkpt>
      <trkpt lat="46.70557" lon="5.68977">
        <ele>524.8</ele>
        <time>2015-07-12T06:27:07Z</time>
      </trkpt>
      <trkpt lat="46.70557" lon="5.68961">
        <ele>524.3</ele>
        <time>2015-07-12T06:27:09Z</time>
      </trkpt>
      <trkpt lat="46.70556" lon="5.68947">
        <ele>524</ele>
        <time>2015-07-12T06:27:11Z</time>
      </trkpt>
      <trkpt lat="46.7056" lon="5.68928">
        <ele>523.5</ele>
        <time>2015-07-12T06:27:14Z</time>
      </trkpt>
      <trkpt lat="46.70568" lon="5.68914">
        <ele>522.9</ele>
        <time>2015-07-12T06:27:17Z</time>
      </trkpt>
      <trkpt lat="46.70576" lon="5.68905">
        <ele>522.5</ele>
        <time>2015-07-12T06:27:21Z</time>
      </trkpt>
      <trkpt lat="46.70583" lon="5.68893">
        <ele>522.3</ele>
        <time>2015-07-12T06:27:24Z</time>
      </trkpt>
      <trkpt lat="46.70592" lon="5.68881">
        <ele>522.2</ele>
        <time>2015-07-12T06:27:27Z</time>
      </trkpt>
      <trkpt lat="46.70598" lon="5.68867">
        <ele>522.2</ele>
        <time>2015-07-12T06:27:30Z</time>
      </trkpt>
      <trkpt lat="46.70605" lon="5.68853">
        <ele>522.2</ele>
        <time>2015-07-12T06:27:33Z</time>
      </trkpt>
      <trkpt lat="46.70612" lon="5.68841">
        <ele>522.3</ele>
        <time>2015-07-12T06:27:36Z</time>
      </trkpt>
      <trkpt lat="46.70618" lon="5.68827">
        <ele>522.4</ele>
        <time>2015-07-12T06:27:39Z</time>
      </trkpt>
      <trkpt lat="46.70625" lon="5.68819">
        <ele>522.5</ele>
        <time>2015-07-12T06:27:42Z</time>
      </trkpt>
      <trkpt lat="46.70633" lon="5.68808">
        <ele>522.7</ele>
        <time>2015-07-12T06:27:45Z</time>
      </trkpt>
      <trkpt lat="46.70642" lon="5.68796">
        <ele>522.7</ele>
        <time>2015-07-12T06:27:48Z</time>
      </trkpt>
      <trkpt lat="46.7065" lon="5.68785">
        <ele>522.8</ele>
        <time>2015-07-12T06:27:51Z</time>
      </trkpt>
      <trkpt lat="46.7066" lon="5.68777">
        <ele>522.8</ele>
        <time>2015-07-12T06:27:54Z</time>
      </trkpt>
      <trkpt lat="46.70671" lon="5.6877">
        <ele>522.8</ele>
        <time>2015-07-12T06:27:57Z</time>
      </trkpt>
      <trkpt lat="46.70679" lon="5.68762">
        <ele>522.8</ele>
        <time>2015-07-12T06:28:00Z</time>
      </trkpt>
      <trkpt lat="46.70687" lon="5.68751">
        <ele>522.8</ele>
        <time>2015-07-12T06:28:03Z</time>
      </trkpt>
      <trkpt lat="46.70693" lon="5.68739">
        <ele>522.8</ele>
        <time>2015-07-12T06:28:07Z</time>
      </trkpt>
      <trkpt lat="46.707" lon="5.68729">
        <ele>523</ele>
        <time>2015-07-12T06:28:11Z</time>
      </trkpt>
      <trkpt lat="46.70708" lon="5.68722">
        <ele>523.1</ele>
        <time>2015-07-12T06:28:14Z</time>
      </trkpt>
      <trkpt lat="46.70717" lon="5.68715">
        <ele>523.4</ele>
        <time>2015-07-12T06:28:17Z</time>
      </trkpt>
      <trkpt lat="46.70726" lon="5.68704">
        <ele>523.7</ele>
        <time>2015-07-12T06:28:21Z</time>
      </trkpt>
      <trkpt lat="46.70734" lon="5.68695">
        <ele>524.1</ele>
        <time>2015-07-12T06:28:25Z</time>
      </trkpt>
      <trkpt lat="46.70741" lon="5.68686">
        <ele>524.4</ele>
        <time>2015-07-12T06:28:28Z</time>
      </trkpt>
      <trkpt lat="46.70748" lon="5.68677">
        <ele>524.6</ele>
        <time>2015-07-12T06:28:31Z</time>
      </trkpt>
      <trkpt lat="46.70756" lon="5.68668">
        <ele>524.8</ele>
        <time>2015-07-12T06:28:34Z</time>
      </trkpt>
      <trkpt lat="46.70763" lon="5.68657">
        <ele>524.9</ele>
        <time>2015-07-12T06:28:37Z</time>
      </trkpt>
      <trkpt lat="46.70772" lon="5.68644">
        <ele>525.1</ele>
        <time>2015-07-12T06:28:40Z</time>
      </trkpt>
      <trkpt lat="46.70782" lon="5.68632">
        <ele>525</ele>
        <time>2015-07-12T06:28:43Z</time>
      </trkpt>
      <trkpt lat="46.7079" lon="5.68619">
        <ele>524.9</ele>
        <time>2015-07-12T06:28:46Z</time>
      </trkpt>
      <trkpt lat="46.70797" lon="5.68606">
        <ele>524.9</ele>
        <time>2015-07-12T06:28:49Z</time>
      </trkpt>
      <trkpt lat="46.70804" lon="5.68592">
        <ele>524.9</ele>
        <time>2015-07-12T06:28:52Z</time>
      </trkpt>
      <trkpt lat="46.70809" lon="5.6858">
        <ele>524.9</ele>
        <time>2015-07-12T06:28:55Z</time>
      </trkpt>
      <trkpt lat="46.70818" lon="5.68588">
        <ele>524.3</ele>
        <time>2015-07-12T06:29:04Z</time>
      </trkpt>
      <trkpt lat="46.70825" lon="5.68601">
        <ele>524</ele>
        <time>2015-07-12T06:29:07Z</time>
      </trkpt>
      <trkpt lat="46.70831" lon="5.68611">
        <ele>523.8</ele>
        <time>2015-07-12T06:29:10Z</time>
      </trkpt>
      <trkpt lat="46.70837" lon="5.68621">
        <ele>523.7</ele>
        <time>2015-07-12T06:29:13Z</time>
      </trkpt>
      <trkpt lat="46.7084" lon="5.68636">
        <ele>523.8</ele>
        <time>2015-07-12T06:29:16Z</time>
      </trkpt>
      <trkpt lat="46.70843" lon="5.68651">
        <ele>524</ele>
        <time>2015-07-12T06:29:19Z</time>
      </trkpt>
      <trkpt lat="46.70846" lon="5.68665">
        <ele>524.2</ele>
        <time>2015-07-12T06:29:22Z</time>
      </trkpt>
      <trkpt lat="46.70851" lon="5.68681">
        <ele>524.4</ele>
        <time>2015-07-12T06:29:25Z</time>
      </trkpt>
      <trkpt lat="46.7086" lon="5.68691">
        <ele>524.6</ele>
        <time>2015-07-12T06:29:27Z</time>
      </trkpt>
      <trkpt lat="46.70868" lon="5.687">
        <ele>524.7</ele>
        <time>2015-07-12T06:29:29Z</time>
      </trkpt>
      <trkpt lat="46.70878" lon="5.68706">
        <ele>524.8</ele>
        <time>2015-07-12T06:29:31Z</time>
      </trkpt>
      <trkpt lat="46.70888" lon="5.68716">
        <ele>524.9</ele>
        <time>2015-07-12T06:29:33Z</time>
      </trkpt>
      <trkpt lat="46.70897" lon="5.68725">
        <ele>524.9</ele>
        <time>2015-07-12T06:29:35Z</time>
      </trkpt>
      <trkpt lat="46.70905" lon="5.68735">
        <ele>524.9</ele>
        <time>2015-07-12T06:29:37Z</time>
      </trkpt>
      <trkpt lat="46.70912" lon="5.68746">
        <ele>524.9</ele>
        <time>2015-07-12T06:29:39Z</time>
      </trkpt>
      <trkpt lat="46.70919" lon="5.68758">
        <ele>524.9</ele>
        <time>2015-07-12T06:29:41Z</time>
      </trkpt>
      <trkpt lat="46.70928" lon="5.6877">
        <ele>524.9</ele>
        <time>2015-07-12T06:29:44Z</time>
      </trkpt>
      <trkpt lat="46.70939" lon="5.68769">
        <ele>524.7</ele>
        <time>2015-07-12T06:29:47Z</time>
      </trkpt>
      <trkpt lat="46.70947" lon="5.6876">
        <ele>524.5</ele>
        <time>2015-07-12T06:29:50Z</time>
      </trkpt>
      <trkpt lat="46.70955" lon="5.68752">
        <ele>524.2</ele>
        <time>2015-07-12T06:29:53Z</time>
      </trkpt>
      <trkpt lat="46.70964" lon="5.68744">
        <ele>523.8</ele>
        <time>2015-07-12T06:29:56Z</time>
      </trkpt>
      <trkpt lat="46.70971" lon="5.68737">
        <ele>523.5</ele>
        <time>2015-07-12T06:29:59Z</time>
      </trkpt>
      <trkpt lat="46.70978" lon="5.68726">
        <ele>523.4</ele>
        <time>2015-07-12T06:30:02Z</time>
      </trkpt>
      <trkpt lat="46.70985" lon="5.68713">
        <ele>523.2</ele>
        <time>2015-07-12T06:30:05Z</time>
      </trkpt>
      <trkpt lat="46.70991" lon="5.68698">
        <ele>523.1</ele>
        <time>2015-07-12T06:30:08Z</time>
      </trkpt>
      <trkpt lat="46.70995" lon="5.68685">
        <ele>523</ele>
        <time>2015-07-12T06:30:10Z</time>
      </trkpt>
      <trkpt lat="46.71" lon="5.68672">
        <ele>523</ele>
        <time>2015-07-12T06:30:12Z</time>
      </trkpt>
      <trkpt lat="46.71004" lon="5.6866">
        <ele>523.2</ele>
        <time>2015-07-12T06:30:14Z</time>
      </trkpt>
      <trkpt lat="46.71006" lon="5.68647">
        <ele>523.3</ele>
        <time>2015-07-12T06:30:16Z</time>
      </trkpt>
      <trkpt lat="46.71009" lon="5.68632">
        <ele>523.5</ele>
        <time>2015-07-12T06:30:19Z</time>
      </trkpt>
      <trkpt lat="46.71011" lon="5.68614">
        <ele>523.7</ele>
        <time>2015-07-12T06:30:22Z</time>
      </trkpt>
      <trkpt lat="46.71013" lon="5.68596">
        <ele>523.8</ele>
        <time>2015-07-12T06:30:25Z</time>
      </trkpt>
      <trkpt lat="46.7102" lon="5.68581">
        <ele>524</ele>
        <time>2015-07-12T06:30:28Z</time>
      </trkpt>
      <trkpt lat="46.71029" lon="5.68568">
        <ele>524.2</ele>
        <time>2015-07-12T06:30:31Z</time>
      </trkpt>
      <trkpt lat="46.71035" lon="5.68554">
        <ele>524.3</ele>
        <time>2015-07-12T06:30:34Z</time>
      </trkpt>
      <trkpt lat="46.7104" lon="5.6854">
        <ele>524.5</ele>
        <time>2015-07-12T06:30:37Z</time>
      </trkpt>
      <trkpt lat="46.71044" lon="5.68525">
        <ele>524.5</ele>
        <time>2015-07-12T06:30:40Z</time>
      </trkpt>
      <trkpt lat="46.71051" lon="5.68509">
        <ele>524.6</ele>
        <time>2015-07-12T06:30:43Z</time>
      </trkpt>
      <trkpt lat="46.71057" lon="5.68496">
        <ele>524.6</ele>
        <time>2015-07-12T06:30:45Z</time>
      </trkpt>
      <trkpt lat="46.7106" lon="5.68483">
        <ele>524.6</ele>
        <time>2015-07-12T06:30:47Z</time>
      </trkpt>
      <trkpt lat="46.71062" lon="5.6847">
        <ele>524.7</ele>
        <time>2015-07-12T06:30:49Z</time>
      </trkpt>
      <trkpt lat="46.71063" lon="5.68456">
        <ele>524.5</ele>
        <time>2015-07-12T06:30:51Z</time>
      </trkpt>
      <trkpt lat="46.71061" lon="5.68438">
        <ele>524.4</ele>
        <time>2015-07-12T06:30:54Z</time>
      </trkpt>
      <trkpt lat="46.71056" lon="5.68424">
        <ele>524.5</ele>
        <time>2015-07-12T06:30:57Z</time>
      </trkpt>
      <trkpt lat="46.7105" lon="5.6841">
        <ele>524.6</ele>
        <time>2015-07-12T06:31:01Z</time>
      </trkpt>
      <trkpt lat="46.71046" lon="5.68398">
        <ele>524.7</ele>
        <time>2015-07-12T06:31:04Z</time>
      </trkpt>
      <trkpt lat="46.71042" lon="5.68383">
        <ele>524.7</ele>
        <time>2015-07-12T06:31:07Z</time>
      </trkpt>
      <trkpt lat="46.7104" lon="5.68369">
        <ele>524.6</ele>
        <time>2015-07-12T06:31:10Z</time>
      </trkpt>
      <trkpt lat="46.71037" lon="5.68351">
        <ele>524.5</ele>
        <time>2015-07-12T06:31:13Z</time>
      </trkpt>
      <trkpt lat="46.71036" lon="5.68335">
        <ele>524.5</ele>
        <time>2015-07-12T06:31:15Z</time>
      </trkpt>
      <trkpt lat="46.71036" lon="5.6832">
        <ele>524.3</ele>
        <time>2015-07-12T06:31:17Z</time>
      </trkpt>
      <trkpt lat="46.71037" lon="5.68302">
        <ele>523.8</ele>
        <time>2015-07-12T06:31:20Z</time>
      </trkpt>
      <trkpt lat="46.71041" lon="5.68285">
        <ele>523.3</ele>
        <time>2015-07-12T06:31:23Z</time>
      </trkpt>
      <trkpt lat="46.71046" lon="5.68268">
        <ele>522.8</ele>
        <time>2015-07-12T06:31:26Z</time>
      </trkpt>
      <trkpt lat="46.7105" lon="5.68255">
        <ele>522.6</ele>
        <time>2015-07-12T06:31:28Z</time>
      </trkpt>
      <trkpt lat="46.71056" lon="5.68242">
        <ele>522.3</ele>
        <time>2015-07-12T06:31:30Z</time>
      </trkpt>
      <trkpt lat="46.71062" lon="5.68229">
        <ele>522.1</ele>
        <time>2015-07-12T06:31:32Z</time>
      </trkpt>
      <trkpt lat="46.71067" lon="5.68215">
        <ele>521.9</ele>
        <time>2015-07-12T06:31:34Z</time>
      </trkpt>
      <trkpt lat="46.71073" lon="5.68201">
        <ele>521.7</ele>
        <time>2015-07-12T06:31:36Z</time>
      </trkpt>
      <trkpt lat="46.71076" lon="5.68186">
        <ele>521.4</ele>
        <time>2015-07-12T06:31:38Z</time>
      </trkpt>
      <trkpt lat="46.71078" lon="5.6817">
        <ele>521.1</ele>
        <time>2015-07-12T06:31:40Z</time>
      </trkpt>
      <trkpt lat="46.71082" lon="5.68157">
        <ele>520.8</ele>
        <time>2015-07-12T06:31:42Z</time>
      </trkpt>
      <trkpt lat="46.71086" lon="5.68144">
        <ele>520.5</ele>
        <time>2015-07-12T06:31:44Z</time>
      </trkpt>
      <trkpt lat="46.71089" lon="5.68128">
        <ele>520.1</ele>
        <time>2015-07-12T06:31:46Z</time>
      </trkpt>
      <trkpt lat="46.71091" lon="5.6811">
        <ele>519.7</ele>
        <time>2015-07-12T06:31:48Z</time>
      </trkpt>
      <trkpt lat="46.71092" lon="5.68093">
        <ele>519.3</ele>
        <time>2015-07-12T06:31:50Z</time>
      </trkpt>
      <trkpt lat="46.71091" lon="5.68077">
        <ele>518.9</ele>
        <time>2015-07-12T06:31:52Z</time>
      </trkpt>
      <trkpt lat="46.71093" lon="5.68059">
        <ele>518.5</ele>
        <time>2015-07-12T06:31:54Z</time>
      </trkpt>
      <trkpt lat="46.71095" lon="5.68039">
        <ele>518.1</ele>
        <time>2015-07-12T06:31:56Z</time>
      </trkpt>
      <trkpt lat="46.71097" lon="5.6802">
        <ele>517.8</ele>
        <time>2015-07-12T06:31:58Z</time>
      </trkpt>
      <trkpt lat="46.71097" lon="5.68005">
        <ele>517.4</ele>
        <time>2015-07-12T06:32:00Z</time>
      </trkpt>
      <trkpt lat="46.71109" lon="5.68002">
        <ele>514.8</ele>
        <time>2015-07-12T06:32:17Z</time>
      </trkpt>
      <trkpt lat="46.71121" lon="5.68002">
        <ele>514.6</ele>
        <time>2015-07-12T06:32:21Z</time>
      </trkpt>
      <trkpt lat="46.71131" lon="5.68001">
        <ele>514.5</ele>
        <time>2015-07-12T06:32:24Z</time>
      </trkpt>
      <trkpt lat="46.7114" lon="5.68002">
        <ele>514.4</ele>
        <time>2015-07-12T06:32:27Z</time>
      </trkpt>
      <trkpt lat="46.71151" lon="5.67999">
        <ele>514.3</ele>
        <time>2015-07-12T06:32:30Z</time>
      </trkpt>
      <trkpt lat="46.71161" lon="5.67999">
        <ele>514.4</ele>
        <time>2015-07-12T06:32:34Z</time>
      </trkpt>
      <trkpt lat="46.71171" lon="5.67996">
        <ele>514.6</ele>
        <time>2015-07-12T06:32:39Z</time>
      </trkpt>
      <trkpt lat="46.71178" lon="5.67985">
        <ele>514.4</ele>
        <time>2015-07-12T06:32:44Z</time>
      </trkpt>
      <trkpt lat="46.71187" lon="5.67978">
        <ele>514.4</ele>
        <time>2015-07-12T06:32:47Z</time>
      </trkpt>
      <trkpt lat="46.71199" lon="5.67977">
        <ele>514.3</ele>
        <time>2015-07-12T06:32:50Z</time>
      </trkpt>
      <trkpt lat="46.7121" lon="5.67971">
        <ele>514.3</ele>
        <time>2015-07-12T06:32:54Z</time>
      </trkpt>
      <trkpt lat="46.71218" lon="5.67961">
        <ele>514.3</ele>
        <time>2015-07-12T06:32:58Z</time>
      </trkpt>
      <trkpt lat="46.71219" lon="5.67946">
        <ele>514.2</ele>
        <time>2015-07-12T06:33:01Z</time>
      </trkpt>
      <trkpt lat="46.71218" lon="5.67932">
        <ele>514.2</ele>
        <time>2015-07-12T06:33:03Z</time>
      </trkpt>
      <trkpt lat="46.71216" lon="5.67919">
        <ele>514.2</ele>
        <time>2015-07-12T06:33:05Z</time>
      </trkpt>
      <trkpt lat="46.71213" lon="5.679">
        <ele>514.2</ele>
        <time>2015-07-12T06:33:08Z</time>
      </trkpt>
      <trkpt lat="46.71211" lon="5.67882">
        <ele>514.2</ele>
        <time>2015-07-12T06:33:11Z</time>
      </trkpt>
      <trkpt lat="46.71207" lon="5.67865">
        <ele>514.2</ele>
        <time>2015-07-12T06:33:14Z</time>
      </trkpt>
      <trkpt lat="46.71204" lon="5.67845">
        <ele>514.2</ele>
        <time>2015-07-12T06:33:17Z</time>
      </trkpt>
      <trkpt lat="46.71203" lon="5.67831">
        <ele>514.2</ele>
        <time>2015-07-12T06:33:19Z</time>
      </trkpt>
      <trkpt lat="46.712" lon="5.67818">
        <ele>514.2</ele>
        <time>2015-07-12T06:33:21Z</time>
      </trkpt>
      <trkpt lat="46.71198" lon="5.67802">
        <ele>514.4</ele>
        <time>2015-07-12T06:33:24Z</time>
      </trkpt>
      <trkpt lat="46.71197" lon="5.67785">
        <ele>514.6</ele>
        <time>2015-07-12T06:33:28Z</time>
      </trkpt>
      <trkpt lat="46.71206" lon="5.67781">
        <ele>516</ele>
        <time>2015-07-12T06:33:59Z</time>
      </trkpt>
      <trkpt lat="46.71216" lon="5.67783">
        <ele>516.2</ele>
        <time>2015-07-12T06:34:05Z</time>
      </trkpt>
      <trkpt lat="46.71225" lon="5.67779">
        <ele>516.7</ele>
        <time>2015-07-12T06:34:10Z</time>
      </trkpt>
      <trkpt lat="46.71234" lon="5.67774">
        <ele>517.4</ele>
        <time>2015-07-12T06:34:20Z</time>
      </trkpt>
      <trkpt lat="46.71244" lon="5.67771">
        <ele>518.7</ele>
        <time>2015-07-12T06:34:30Z</time>
      </trkpt>
      <trkpt lat="46.71253" lon="5.67774">
        <ele>519.2</ele>
        <time>2015-07-12T06:34:35Z</time>
      </trkpt>
      <trkpt lat="46.71263" lon="5.67777">
        <ele>519.8</ele>
        <time>2015-07-12T06:34:42Z</time>
      </trkpt>
      <trkpt lat="46.71272" lon="5.67776">
        <ele>520.1</ele>
        <time>2015-07-12T06:34:48Z</time>
      </trkpt>
      <trkpt lat="46.71281" lon="5.67775">
        <ele>520.4</ele>
        <time>2015-07-12T06:34:54Z</time>
      </trkpt>
      <trkpt lat="46.71292" lon="5.67776">
        <ele>520.8</ele>
        <time>2015-07-12T06:35:02Z</time>
      </trkpt>
      <trkpt lat="46.71302" lon="5.67777">
        <ele>521.1</ele>
        <time>2015-07-12T06:35:06Z</time>
      </trkpt>
      <trkpt lat="46.71312" lon="5.67775">
        <ele>521.2</ele>
        <time>2015-07-12T06:35:11Z</time>
      </trkpt>
      <trkpt lat="46.71321" lon="5.67769">
        <ele>521.3</ele>
        <time>2015-07-12T06:35:17Z</time>
      </trkpt>
      <trkpt lat="46.7133" lon="5.67764">
        <ele>521.5</ele>
        <time>2015-07-12T06:35:21Z</time>
      </trkpt>
      <trkpt lat="46.7134" lon="5.67763">
        <ele>521.4</ele>
        <time>2015-07-12T06:35:25Z</time>
      </trkpt>
      <trkpt lat="46.7135" lon="5.67769">
        <ele>521.5</ele>
        <time>2015-07-12T06:35:31Z</time>
      </trkpt>
      <trkpt lat="46.71361" lon="5.67769">
        <ele>521.7</ele>
        <time>2015-07-12T06:35:35Z</time>
      </trkpt>
      <trkpt lat="46.7137" lon="5.67765">
        <ele>521.8</ele>
        <time>2015-07-12T06:35:38Z</time>
      </trkpt>
      <trkpt lat="46.71382" lon="5.67763">
        <ele>521.8</ele>
        <time>2015-07-12T06:35:41Z</time>
      </trkpt>
      <trkpt lat="46.71391" lon="5.67759">
        <ele>521.8</ele>
        <time>2015-07-12T06:35:44Z</time>
      </trkpt>
      <trkpt lat="46.714" lon="5.67752">
        <ele>521.8</ele>
        <time>2015-07-12T06:35:47Z</time>
      </trkpt>
      <trkpt lat="46.71406" lon="5.67739">
        <ele>521.3</ele>
        <time>2015-07-12T06:35:52Z</time>
      </trkpt>
      <trkpt lat="46.71411" lon="5.67727">
        <ele>521.3</ele>
        <time>2015-07-12T06:35:55Z</time>
      </trkpt>
      <trkpt lat="46.71418" lon="5.67719">
        <ele>521.3</ele>
        <time>2015-07-12T06:35:58Z</time>
      </trkpt>
      <trkpt lat="46.71427" lon="5.67714">
        <ele>521.4</ele>
        <time>2015-07-12T06:36:01Z</time>
      </trkpt>
      <trkpt lat="46.71438" lon="5.67716">
        <ele>521.4</ele>
        <time>2015-07-12T06:36:06Z</time>
      </trkpt>
      <trkpt lat="46.71447" lon="5.67724">
        <ele>521.4</ele>
        <time>2015-07-12T06:36:10Z</time>
      </trkpt>
      <trkpt lat="46.71457" lon="5.67719">
        <ele>521.3</ele>
        <time>2015-07-12T06:36:15Z</time>
      </trkpt>
      <trkpt lat="46.7146" lon="5.67734">
        <ele>521.1</ele>
        <time>2015-07-12T06:36:20Z</time>
      </trkpt>
      <trkpt lat="46.71464" lon="5.67751">
        <ele>521</ele>
        <time>2015-07-12T06:36:24Z</time>
      </trkpt>
      <trkpt lat="46.71466" lon="5.67765">
        <ele>520.9</ele>
        <time>2015-07-12T06:36:27Z</time>
      </trkpt>
      <trkpt lat="46.71468" lon="5.67779">
        <ele>520.9</ele>
        <time>2015-07-12T06:36:30Z</time>
      </trkpt>
      <trkpt lat="46.7148" lon="5.67791">
        <ele>520.8</ele>
        <time>2015-07-12T06:36:36Z</time>
      </trkpt>
      <trkpt lat="46.71488" lon="5.67783">
        <ele>521.1</ele>
        <time>2015-07-12T06:36:43Z</time>
      </trkpt>
      <trkpt lat="46.71498" lon="5.67778">
        <ele>521.3</ele>
        <time>2015-07-12T06:36:47Z</time>
      </trkpt>
      <trkpt lat="46.71507" lon="5.67779">
        <ele>521.5</ele>
        <time>2015-07-12T06:36:51Z</time>
      </trkpt>
      <trkpt lat="46.71517" lon="5.6778">
        <ele>521.4</ele>
        <time>2015-07-12T06:36:56Z</time>
      </trkpt>
      <trkpt lat="46.71527" lon="5.67783">
        <ele>520.9</ele>
        <time>2015-07-12T06:37:02Z</time>
      </trkpt>
      <trkpt lat="46.71535" lon="5.6779">
        <ele>519.7</ele>
        <time>2015-07-12T06:37:12Z</time>
      </trkpt>
      <trkpt lat="46.71545" lon="5.67787">
        <ele>520.4</ele>
        <time>2015-07-12T06:37:45Z</time>
      </trkpt>
      <trkpt lat="46.71553" lon="5.67782">
        <ele>521.3</ele>
        <time>2015-07-12T06:38:01Z</time>
      </trkpt>
      <trkpt lat="46.71563" lon="5.6778">
        <ele>521.8</ele>
        <time>2015-07-12T06:38:06Z</time>
      </trkpt>
      <trkpt lat="46.71573" lon="5.67782">
        <ele>522.3</ele>
        <time>2015-07-12T06:38:10Z</time>
      </trkpt>
      <trkpt lat="46.71583" lon="5.67782">
        <ele>522.7</ele>
        <time>2015-07-12T06:38:14Z</time>
      </trkpt>
      <trkpt lat="46.71592" lon="5.67778">
        <ele>523.5</ele>
        <time>2015-07-12T06:38:19Z</time>
      </trkpt>
      <trkpt lat="46.71602" lon="5.67776">
        <ele>524.2</ele>
        <time>2015-07-12T06:38:24Z</time>
      </trkpt>
      <trkpt lat="46.71612" lon="5.67784">
        <ele>524.8</ele>
        <time>2015-07-12T06:38:29Z</time>
      </trkpt>
      <trkpt lat="46.71616" lon="5.67796">
        <ele>525</ele>
        <time>2015-07-12T06:38:37Z</time>
      </trkpt>
      <trkpt lat="46.71625" lon="5.67798">
        <ele>525.4</ele>
        <time>2015-07-12T06:38:48Z</time>
      </trkpt>
      <trkpt lat="46.71635" lon="5.67796">
        <ele>525.9</ele>
        <time>2015-07-12T06:38:58Z</time>
      </trkpt>
      <trkpt lat="46.71644" lon="5.67793">
        <ele>525.1</ele>
        <time>2015-07-12T06:39:10Z</time>
      </trkpt>
      <trkpt lat="46.71655" lon="5.67789">
        <ele>524.1</ele>
        <time>2015-07-12T06:39:16Z</time>
      </trkpt>
      <trkpt lat="46.71666" lon="5.6779">
        <ele>523.7</ele>
        <time>2015-07-12T06:39:20Z</time>
      </trkpt>
      <trkpt lat="46.71675" lon="5.67797">
        <ele>523</ele>
        <time>2015-07-12T06:39:24Z</time>
      </trkpt>
      <trkpt lat="46.71684" lon="5.67791">
        <ele>521.4</ele>
        <time>2015-07-12T06:39:31Z</time>
      </trkpt>
      <trkpt lat="46.71685" lon="5.67806">
        <ele>519.8</ele>
        <time>2015-07-12T06:39:43Z</time>
      </trkpt>
      <trkpt lat="46.71685" lon="5.6782">
        <ele>519.4</ele>
        <time>2015-07-12T06:39:48Z</time>
      </trkpt>
      <trkpt lat="46.71685" lon="5.67835">
        <ele>519.3</ele>
        <time>2015-07-12T06:39:53Z</time>
      </trkpt>
      <trkpt lat="46.71685" lon="5.6785">
        <ele>519.6</ele>
        <time>2015-07-12T06:39:58Z</time>
      </trkpt>
      <trkpt lat="46.71687" lon="5.67863">
        <ele>520.1</ele>
        <time>2015-07-12T06:40:04Z</time>
      </trkpt>
      <trkpt lat="46.71688" lon="5.67878">
        <ele>520.5</ele>
        <time>2015-07-12T06:40:10Z</time>
      </trkpt>
      <trkpt lat="46.71689" lon="5.67893">
        <ele>520.9</ele>
        <time>2015-07-12T06:40:15Z</time>
      </trkpt>
      <trkpt lat="46.71695" lon="5.67904">
        <ele>521.5</ele>
        <time>2015-07-12T06:40:20Z</time>
      </trkpt>
      <trkpt lat="46.71705" lon="5.67907">
        <ele>522.1</ele>
        <time>2015-07-12T06:40:25Z</time>
      </trkpt>
      <trkpt lat="46.71716" lon="5.67908">
        <ele>522.5</ele>
        <time>2015-07-12T06:40:30Z</time>
      </trkpt>
      <trkpt lat="46.71726" lon="5.67909">
        <ele>522.9</ele>
        <time>2015-07-12T06:40:35Z</time>
      </trkpt>
      <trkpt lat="46.71736" lon="5.67909">
        <ele>523.7</ele>
        <time>2015-07-12T06:40:40Z</time>
      </trkpt>
      <trkpt lat="46.71745" lon="5.67907">
        <ele>524.2</ele>
        <time>2015-07-12T06:40:45Z</time>
      </trkpt>
      <trkpt lat="46.71755" lon="5.67909">
        <ele>524.7</ele>
        <time>2015-07-12T06:40:50Z</time>
      </trkpt>
      <trkpt lat="46.71766" lon="5.67904">
        <ele>525.1</ele>
        <time>2015-07-12T06:40:55Z</time>
      </trkpt>
      <trkpt lat="46.71776" lon="5.67898">
        <ele>525.3</ele>
        <time>2015-07-12T06:40:58Z</time>
      </trkpt>
      <trkpt lat="46.71785" lon="5.67885">
        <ele>525.4</ele>
        <time>2015-07-12T06:41:01Z</time>
      </trkpt>
      <trkpt lat="46.7179" lon="5.67867">
        <ele>525.5</ele>
        <time>2015-07-12T06:41:04Z</time>
      </trkpt>
      <trkpt lat="46.71793" lon="5.67851">
        <ele>525.5</ele>
        <time>2015-07-12T06:41:06Z</time>
      </trkpt>
      <trkpt lat="46.71797" lon="5.67833">
        <ele>525.4</ele>
        <time>2015-07-12T06:41:08Z</time>
      </trkpt>
      <trkpt lat="46.71801" lon="5.67814">
        <ele>525.2</ele>
        <time>2015-07-12T06:41:10Z</time>
      </trkpt>
      <trkpt lat="46.71806" lon="5.67798">
        <ele>524.9</ele>
        <time>2015-07-12T06:41:12Z</time>
      </trkpt>
      <trkpt lat="46.71812" lon="5.67784">
        <ele>524.8</ele>
        <time>2015-07-12T06:41:14Z</time>
      </trkpt>
      <trkpt lat="46.71824" lon="5.67776">
        <ele>524.6</ele>
        <time>2015-07-12T06:41:16Z</time>
      </trkpt>
      <trkpt lat="46.71838" lon="5.67775">
        <ele>524.4</ele>
        <time>2015-07-12T06:41:18Z</time>
      </trkpt>
      <trkpt lat="46.71848" lon="5.6778">
        <ele>524.3</ele>
        <time>2015-07-12T06:41:20Z</time>
      </trkpt>
      <trkpt lat="46.71855" lon="5.6779">
        <ele>524.1</ele>
        <time>2015-07-12T06:41:22Z</time>
      </trkpt>
      <trkpt lat="46.71859" lon="5.67803">
        <ele>523.9</ele>
        <time>2015-07-12T06:41:24Z</time>
      </trkpt>
      <trkpt lat="46.71861" lon="5.67819">
        <ele>523.7</ele>
        <time>2015-07-12T06:41:26Z</time>
      </trkpt>
      <trkpt lat="46.71863" lon="5.67834">
        <ele>523.5</ele>
        <time>2015-07-12T06:41:28Z</time>
      </trkpt>
      <trkpt lat="46.71868" lon="5.67846">
        <ele>523.4</ele>
        <time>2015-07-12T06:41:30Z</time>
      </trkpt>
      <trkpt lat="46.71876" lon="5.67857">
        <ele>523.1</ele>
        <time>2015-07-12T06:41:33Z</time>
      </trkpt>
      <trkpt lat="46.71885" lon="5.67866">
        <ele>522.8</ele>
        <time>2015-07-12T06:41:36Z</time>
      </trkpt>
      <trkpt lat="46.71897" lon="5.6787">
        <ele>522.5</ele>
        <time>2015-07-12T06:41:39Z</time>
      </trkpt>
      <trkpt lat="46.71906" lon="5.67875">
        <ele>522.2</ele>
        <time>2015-07-12T06:41:41Z</time>
      </trkpt>
      <trkpt lat="46.71916" lon="5.67878">
        <ele>522</ele>
        <time>2015-07-12T06:41:43Z</time>
      </trkpt>
      <trkpt lat="46.71927" lon="5.6788">
        <ele>521.8</ele>
        <time>2015-07-12T06:41:45Z</time>
      </trkpt>
      <trkpt lat="46.71937" lon="5.67882">
        <ele>521.6</ele>
        <time>2015-07-12T06:41:47Z</time>
      </trkpt>
      <trkpt lat="46.71947" lon="5.67884">
        <ele>521.4</ele>
        <time>2015-07-12T06:41:49Z</time>
      </trkpt>
      <trkpt lat="46.71957" lon="5.67885">
        <ele>521.2</ele>
        <time>2015-07-12T06:41:51Z</time>
      </trkpt>
      <trkpt lat="46.71966" lon="5.67887">
        <ele>521.1</ele>
        <time>2015-07-12T06:41:53Z</time>
      </trkpt>
      <trkpt lat="46.71976" lon="5.67888">
        <ele>521</ele>
        <time>2015-07-12T06:41:55Z</time>
      </trkpt>
      <trkpt lat="46.71986" lon="5.67889">
        <ele>520.9</ele>
        <time>2015-07-12T06:41:57Z</time>
      </trkpt>
      <trkpt lat="46.71995" lon="5.67889">
        <ele>520.8</ele>
        <time>2015-07-12T06:41:59Z</time>
      </trkpt>
      <trkpt lat="46.72005" lon="5.67891">
        <ele>520.8</ele>
        <time>2015-07-12T06:42:01Z</time>
      </trkpt>
      <trkpt lat="46.72018" lon="5.67894">
        <ele>520.7</ele>
        <time>2015-07-12T06:42:04Z</time>
      </trkpt>
      <trkpt lat="46.72026" lon="5.67899">
        <ele>520.7</ele>
        <time>2015-07-12T06:42:06Z</time>
      </trkpt>
      <trkpt lat="46.72035" lon="5.6791">
        <ele>520.8</ele>
        <time>2015-07-12T06:42:09Z</time>
      </trkpt>
      <trkpt lat="46.72042" lon="5.67924">
        <ele>521</ele>
        <time>2015-07-12T06:42:12Z</time>
      </trkpt>
      <trkpt lat="46.72049" lon="5.67939">
        <ele>521.2</ele>
        <time>2015-07-12T06:42:15Z</time>
      </trkpt>
      <trkpt lat="46.72055" lon="5.67953">
        <ele>521.3</ele>
        <time>2015-07-12T06:42:18Z</time>
      </trkpt>
      <trkpt lat="46.72058" lon="5.67968">
        <ele>521.5</ele>
        <time>2015-07-12T06:42:21Z</time>
      </trkpt>
      <trkpt lat="46.72061" lon="5.6798">
        <ele>521.8</ele>
        <time>2015-07-12T06:42:24Z</time>
      </trkpt>
      <trkpt lat="46.7207" lon="5.6799">
        <ele>522.2</ele>
        <time>2015-07-12T06:42:28Z</time>
      </trkpt>
      <trkpt lat="46.72079" lon="5.67999">
        <ele>522.7</ele>
        <time>2015-07-12T06:42:33Z</time>
      </trkpt>
      <trkpt lat="46.72088" lon="5.68008">
        <ele>523.2</ele>
        <time>2015-07-12T06:42:37Z</time>
      </trkpt>
      <trkpt lat="46.72095" lon="5.68017">
        <ele>523.9</ele>
        <time>2015-07-12T06:42:41Z</time>
      </trkpt>
      <trkpt lat="46.72102" lon="5.68026">
        <ele>524.6</ele>
        <time>2015-07-12T06:42:45Z</time>
      </trkpt>
      <trkpt lat="46.7211" lon="5.68037">
        <ele>525.4</ele>
        <time>2015-07-12T06:42:50Z</time>
      </trkpt>
      <trkpt lat="46.72118" lon="5.68044">
        <ele>526.2</ele>
        <time>2015-07-12T06:42:55Z</time>
      </trkpt>
      <trkpt lat="46.72124" lon="5.68056">
        <ele>526.9</ele>
        <time>2015-07-12T06:43:00Z</time>
      </trkpt>
      <trkpt lat="46.72129" lon="5.68068">
        <ele>527.4</ele>
        <time>2015-07-12T06:43:04Z</time>
      </trkpt>
      <trkpt lat="46.72134" lon="5.68084">
        <ele>528.4</ele>
        <time>2015-07-12T06:43:09Z</time>
      </trkpt>
      <trkpt lat="46.72138" lon="5.68099">
        <ele>529</ele>
        <time>2015-07-12T06:43:12Z</time>
      </trkpt>
      <trkpt lat="46.72141" lon="5.68113">
        <ele>529.5</ele>
        <time>2015-07-12T06:43:15Z</time>
      </trkpt>
      <trkpt lat="46.72146" lon="5.68126">
        <ele>530.1</ele>
        <time>2015-07-12T06:43:19Z</time>
      </trkpt>
      <trkpt lat="46.72152" lon="5.68137">
        <ele>530.4</ele>
        <time>2015-07-12T06:43:22Z</time>
      </trkpt>
      <trkpt lat="46.7216" lon="5.68146">
        <ele>530.9</ele>
        <time>2015-07-12T06:43:26Z</time>
      </trkpt>
      <trkpt lat="46.72172" lon="5.6815">
        <ele>531.5</ele>
        <time>2015-07-12T06:43:30Z</time>
      </trkpt>
      <trkpt lat="46.72183" lon="5.68153">
        <ele>531.9</ele>
        <time>2015-07-12T06:43:33Z</time>
      </trkpt>
      <trkpt lat="46.72194" lon="5.68157">
        <ele>532.2</ele>
        <time>2015-07-12T06:43:36Z</time>
      </trkpt>
      <trkpt lat="46.72207" lon="5.68159">
        <ele>532.5</ele>
        <time>2015-07-12T06:43:39Z</time>
      </trkpt>
      <trkpt lat="46.72218" lon="5.68159">
        <ele>532.7</ele>
        <time>2015-07-12T06:43:42Z</time>
      </trkpt>
      <trkpt lat="46.72227" lon="5.68166">
        <ele>532.7</ele>
        <time>2015-07-12T06:43:45Z</time>
      </trkpt>
      <trkpt lat="46.72231" lon="5.68179">
        <ele>532.7</ele>
        <time>2015-07-12T06:43:48Z</time>
      </trkpt>
      <trkpt lat="46.72234" lon="5.68196">
        <ele>532.6</ele>
        <time>2015-07-12T06:43:51Z</time>
      </trkpt>
      <trkpt lat="46.72237" lon="5.6821">
        <ele>532.6</ele>
        <time>2015-07-12T06:43:53Z</time>
      </trkpt>
      <trkpt lat="46.72242" lon="5.68225">
        <ele>532.5</ele>
        <time>2015-07-12T06:43:55Z</time>
      </trkpt>
      <trkpt lat="46.72249" lon="5.68237">
        <ele>532.3</ele>
        <time>2015-07-12T06:43:57Z</time>
      </trkpt>
      <trkpt lat="46.72259" lon="5.68249">
        <ele>532.1</ele>
        <time>2015-07-12T06:43:59Z</time>
      </trkpt>
      <trkpt lat="46.72269" lon="5.6826">
        <ele>531.9</ele>
        <time>2015-07-12T06:44:01Z</time>
      </trkpt>
      <trkpt lat="46.72276" lon="5.68275">
        <ele>531.7</ele>
        <time>2015-07-12T06:44:03Z</time>
      </trkpt>
      <trkpt lat="46.72282" lon="5.68291">
        <ele>531.4</ele>
        <time>2015-07-12T06:44:05Z</time>
      </trkpt>
      <trkpt lat="46.72286" lon="5.68306">
        <ele>531.1</ele>
        <time>2015-07-12T06:44:07Z</time>
      </trkpt>
      <trkpt lat="46.7229" lon="5.68323">
        <ele>530.6</ele>
        <time>2015-07-12T06:44:10Z</time>
      </trkpt>
      <trkpt lat="46.72291" lon="5.6834">
        <ele>530.2</ele>
        <time>2015-07-12T06:44:13Z</time>
      </trkpt>
      <trkpt lat="46.72291" lon="5.68354">
        <ele>529.9</ele>
        <time>2015-07-12T06:44:16Z</time>
      </trkpt>
      <trkpt lat="46.7229" lon="5.6837">
        <ele>529.8</ele>
        <time>2015-07-12T06:44:20Z</time>
      </trkpt>
      <trkpt lat="46.72289" lon="5.68383">
        <ele>529.9</ele>
        <time>2015-07-12T06:44:23Z</time>
      </trkpt>
      <trkpt lat="46.72286" lon="5.68396">
        <ele>530.1</ele>
        <time>2015-07-12T06:44:26Z</time>
      </trkpt>
      <trkpt lat="46.72282" lon="5.68411">
        <ele>530.4</ele>
        <time>2015-07-12T06:44:30Z</time>
      </trkpt>
      <trkpt lat="46.72277" lon="5.68423">
        <ele>530.5</ele>
        <time>2015-07-12T06:44:33Z</time>
      </trkpt>
      <trkpt lat="46.72271" lon="5.68439">
        <ele>530.6</ele>
        <time>2015-07-12T06:44:36Z</time>
      </trkpt>
      <trkpt lat="46.72264" lon="5.68453">
        <ele>530.7</ele>
        <time>2015-07-12T06:44:39Z</time>
      </trkpt>
      <trkpt lat="46.72258" lon="5.68469">
        <ele>530.8</ele>
        <time>2015-07-12T06:44:42Z</time>
      </trkpt>
      <trkpt lat="46.72253" lon="5.6848">
        <ele>530.8</ele>
        <time>2015-07-12T06:44:44Z</time>
      </trkpt>
      <trkpt lat="46.72251" lon="5.68493">
        <ele>530.9</ele>
        <time>2015-07-12T06:44:46Z</time>
      </trkpt>
      <trkpt lat="46.72247" lon="5.68511">
        <ele>531.1</ele>
        <time>2015-07-12T06:44:49Z</time>
      </trkpt>
      <trkpt lat="46.72241" lon="5.68528">
        <ele>531.3</ele>
        <time>2015-07-12T06:44:52Z</time>
      </trkpt>
      <trkpt lat="46.72239" lon="5.68541">
        <ele>531.5</ele>
        <time>2015-07-12T06:44:54Z</time>
      </trkpt>
      <trkpt lat="46.72235" lon="5.68553">
        <ele>531.6</ele>
        <time>2015-07-12T06:44:56Z</time>
      </trkpt>
      <trkpt lat="46.72233" lon="5.68572">
        <ele>531.9</ele>
        <time>2015-07-12T06:44:59Z</time>
      </trkpt>
      <trkpt lat="46.72232" lon="5.68589">
        <ele>532.1</ele>
        <time>2015-07-12T06:45:02Z</time>
      </trkpt>
      <trkpt lat="46.72236" lon="5.68603">
        <ele>532.3</ele>
        <time>2015-07-12T06:45:05Z</time>
      </trkpt>
      <trkpt lat="46.72241" lon="5.68615">
        <ele>532.8</ele>
        <time>2015-07-12T06:45:09Z</time>
      </trkpt>
      <trkpt lat="46.72246" lon="5.68628">
        <ele>533.2</ele>
        <time>2015-07-12T06:45:13Z</time>
      </trkpt>
      <trkpt lat="46.72251" lon="5.68644">
        <ele>533.6</ele>
        <time>2015-07-12T06:45:17Z</time>
      </trkpt>
      <trkpt lat="46.72251" lon="5.6866">
        <ele>533.9</ele>
        <time>2015-07-12T06:45:21Z</time>
      </trkpt>
      <trkpt lat="46.7225" lon="5.68675">
        <ele>534.1</ele>
        <time>2015-07-12T06:45:24Z</time>
      </trkpt>
      <trkpt lat="46.72249" lon="5.68689">
        <ele>534.3</ele>
        <time>2015-07-12T06:45:26Z</time>
      </trkpt>
      <trkpt lat="46.72249" lon="5.68702">
        <ele>534.4</ele>
        <time>2015-07-12T06:45:28Z</time>
      </trkpt>
      <trkpt lat="46.72249" lon="5.68716">
        <ele>534.3</ele>
        <time>2015-07-12T06:45:30Z</time>
      </trkpt>
      <trkpt lat="46.72248" lon="5.68729">
        <ele>534.2</ele>
        <time>2015-07-12T06:45:32Z</time>
      </trkpt>
      <trkpt lat="46.72246" lon="5.68742">
        <ele>534.1</ele>
        <time>2015-07-12T06:45:34Z</time>
      </trkpt>
      <trkpt lat="46.72242" lon="5.6876">
        <ele>533.9</ele>
        <time>2015-07-12T06:45:37Z</time>
      </trkpt>
      <trkpt lat="46.72236" lon="5.68776">
        <ele>533.5</ele>
        <time>2015-07-12T06:45:40Z</time>
      </trkpt>
      <trkpt lat="46.72231" lon="5.68789">
        <ele>533</ele>
        <time>2015-07-12T06:45:42Z</time>
      </trkpt>
      <trkpt lat="46.72228" lon="5.68804">
        <ele>532.5</ele>
        <time>2015-07-12T06:45:44Z</time>
      </trkpt>
      <trkpt lat="46.72226" lon="5.6882">
        <ele>531.8</ele>
        <time>2015-07-12T06:45:46Z</time>
      </trkpt>
      <trkpt lat="46.72222" lon="5.68835">
        <ele>531.4</ele>
        <time>2015-07-12T06:45:48Z</time>
      </trkpt>
      <trkpt lat="46.72219" lon="5.6885">
        <ele>530.8</ele>
        <time>2015-07-12T06:45:51Z</time>
      </trkpt>
      <trkpt lat="46.72221" lon="5.68866">
        <ele>530.4</ele>
        <time>2015-07-12T06:45:55Z</time>
      </trkpt>
      <trkpt lat="46.72219" lon="5.68879">
        <ele>530.4</ele>
        <time>2015-07-12T06:46:04Z</time>
      </trkpt>
      <trkpt lat="46.72222" lon="5.68892">
        <ele>530.6</ele>
        <time>2015-07-12T06:46:16Z</time>
      </trkpt>
      <trkpt lat="46.72223" lon="5.68906">
        <ele>530.9</ele>
        <time>2015-07-12T06:46:19Z</time>
      </trkpt>
      <trkpt lat="46.72219" lon="5.6892">
        <ele>531.2</ele>
        <time>2015-07-12T06:46:23Z</time>
      </trkpt>
      <trkpt lat="46.72215" lon="5.68932">
        <ele>531.5</ele>
        <time>2015-07-12T06:46:26Z</time>
      </trkpt>
      <trkpt lat="46.72211" lon="5.6895">
        <ele>531.7</ele>
        <time>2015-07-12T06:46:29Z</time>
      </trkpt>
      <trkpt lat="46.72207" lon="5.68963">
        <ele>531.9</ele>
        <time>2015-07-12T06:46:31Z</time>
      </trkpt>
      <trkpt lat="46.72203" lon="5.68979">
        <ele>531.9</ele>
        <time>2015-07-12T06:46:33Z</time>
      </trkpt>
      <trkpt lat="46.72203" lon="5.68995">
        <ele>531.7</ele>
        <time>2015-07-12T06:46:35Z</time>
      </trkpt>
      <trkpt lat="46.72204" lon="5.69012">
        <ele>531.4</ele>
        <time>2015-07-12T06:46:37Z</time>
      </trkpt>
      <trkpt lat="46.72204" lon="5.69029">
        <ele>531.2</ele>
        <time>2015-07-12T06:46:39Z</time>
      </trkpt>
      <trkpt lat="46.72203" lon="5.69042">
        <ele>531</ele>
        <time>2015-07-12T06:46:41Z</time>
      </trkpt>
      <trkpt lat="46.72199" lon="5.69056">
        <ele>530.5</ele>
        <time>2015-07-12T06:46:44Z</time>
      </trkpt>
      <trkpt lat="46.72196" lon="5.69071">
        <ele>530.2</ele>
        <time>2015-07-12T06:46:47Z</time>
      </trkpt>
      <trkpt lat="46.72195" lon="5.69086">
        <ele>530</ele>
        <time>2015-07-12T06:46:50Z</time>
      </trkpt>
      <trkpt lat="46.72191" lon="5.69102">
        <ele>530</ele>
        <time>2015-07-12T06:46:54Z</time>
      </trkpt>
      <trkpt lat="46.72185" lon="5.69117">
        <ele>529.9</ele>
        <time>2015-07-12T06:46:58Z</time>
      </trkpt>
      <trkpt lat="46.72178" lon="5.69129">
        <ele>529.9</ele>
        <time>2015-07-12T06:47:01Z</time>
      </trkpt>
      <trkpt lat="46.72172" lon="5.6914">
        <ele>529.6</ele>
        <time>2015-07-12T06:47:04Z</time>
      </trkpt>
      <trkpt lat="46.72177" lon="5.69155">
        <ele>529.1</ele>
        <time>2015-07-12T06:47:09Z</time>
      </trkpt>
      <trkpt lat="46.72176" lon="5.69171">
        <ele>528.9</ele>
        <time>2015-07-12T06:47:13Z</time>
      </trkpt>
      <trkpt lat="46.72171" lon="5.69186">
        <ele>528.7</ele>
        <time>2015-07-12T06:47:16Z</time>
      </trkpt>
      <trkpt lat="46.72164" lon="5.69199">
        <ele>528.7</ele>
        <time>2015-07-12T06:47:19Z</time>
      </trkpt>
      <trkpt lat="46.72156" lon="5.69211">
        <ele>528.5</ele>
        <time>2015-07-12T06:47:22Z</time>
      </trkpt>
      <trkpt lat="46.72149" lon="5.69222">
        <ele>528.4</ele>
        <time>2015-07-12T06:47:25Z</time>
      </trkpt>
      <trkpt lat="46.72141" lon="5.69232">
        <ele>528.3</ele>
        <time>2015-07-12T06:47:28Z</time>
      </trkpt>
      <trkpt lat="46.72134" lon="5.69244">
        <ele>528.3</ele>
        <time>2015-07-12T06:47:31Z</time>
      </trkpt>
      <trkpt lat="46.72126" lon="5.69255">
        <ele>528.5</ele>
        <time>2015-07-12T06:47:34Z</time>
      </trkpt>
      <trkpt lat="46.72119" lon="5.69267">
        <ele>528.6</ele>
        <time>2015-07-12T06:47:37Z</time>
      </trkpt>
      <trkpt lat="46.72112" lon="5.69279">
        <ele>528.7</ele>
        <time>2015-07-12T06:47:40Z</time>
      </trkpt>
      <trkpt lat="46.72105" lon="5.6929">
        <ele>528.9</ele>
        <time>2015-07-12T06:47:43Z</time>
      </trkpt>
      <trkpt lat="46.72099" lon="5.69302">
        <ele>529.1</ele>
        <time>2015-07-12T06:47:46Z</time>
      </trkpt>
      <trkpt lat="46.72094" lon="5.69313">
        <ele>529.2</ele>
        <time>2015-07-12T06:47:49Z</time>
      </trkpt>
      <trkpt lat="46.72087" lon="5.69326">
        <ele>529.4</ele>
        <time>2015-07-12T06:47:53Z</time>
      </trkpt>
      <trkpt lat="46.7208" lon="5.69336">
        <ele>529.4</ele>
        <time>2015-07-12T06:47:56Z</time>
      </trkpt>
      <trkpt lat="46.72074" lon="5.69348">
        <ele>529.5</ele>
        <time>2015-07-12T06:47:59Z</time>
      </trkpt>
      <trkpt lat="46.72071" lon="5.6936">
        <ele>529.6</ele>
        <time>2015-07-12T06:48:02Z</time>
      </trkpt>
      <trkpt lat="46.72069" lon="5.69374">
        <ele>529.5</ele>
        <time>2015-07-12T06:48:07Z</time>
      </trkpt>
      <trkpt lat="46.72059" lon="5.69379">
        <ele>529.4</ele>
        <time>2015-07-12T06:48:10Z</time>
      </trkpt>
      <trkpt lat="46.72049" lon="5.69391">
        <ele>529.3</ele>
        <time>2015-07-12T06:48:13Z</time>
      </trkpt>
      <trkpt lat="46.72042" lon="5.694">
        <ele>529.3</ele>
        <time>2015-07-12T06:48:15Z</time>
      </trkpt>
      <trkpt lat="46.72034" lon="5.6941">
        <ele>529.3</ele>
        <time>2015-07-12T06:48:17Z</time>
      </trkpt>
      <trkpt lat="46.72026" lon="5.6942">
        <ele>529.3</ele>
        <time>2015-07-12T06:48:19Z</time>
      </trkpt>
      <trkpt lat="46.72017" lon="5.6943">
        <ele>529.3</ele>
        <time>2015-07-12T06:48:21Z</time>
      </trkpt>
      <trkpt lat="46.7201" lon="5.6944">
        <ele>529.2</ele>
        <time>2015-07-12T06:48:23Z</time>
      </trkpt>
      <trkpt lat="46.72003" lon="5.6945">
        <ele>529.2</ele>
        <time>2015-07-12T06:48:25Z</time>
      </trkpt>
      <trkpt lat="46.71995" lon="5.69461">
        <ele>529.2</ele>
        <time>2015-07-12T06:48:28Z</time>
      </trkpt>
      <trkpt lat="46.71987" lon="5.69471">
        <ele>529.3</ele>
        <time>2015-07-12T06:48:31Z</time>
      </trkpt>
      <trkpt lat="46.71978" lon="5.6948">
        <ele>529.3</ele>
        <time>2015-07-12T06:48:34Z</time>
      </trkpt>
      <trkpt lat="46.71969" lon="5.69488">
        <ele>529.3</ele>
        <time>2015-07-12T06:48:37Z</time>
      </trkpt>
      <trkpt lat="46.71961" lon="5.69496">
        <ele>529.3</ele>
        <time>2015-07-12T06:48:40Z</time>
      </trkpt>
      <trkpt lat="46.71951" lon="5.69506">
        <ele>529.3</ele>
        <time>2015-07-12T06:48:43Z</time>
      </trkpt>
      <trkpt lat="46.71943" lon="5.69519">
        <ele>529.5</ele>
        <time>2015-07-12T06:48:46Z</time>
      </trkpt>
      <trkpt lat="46.71936" lon="5.69533">
        <ele>529.7</ele>
        <time>2015-07-12T06:48:49Z</time>
      </trkpt>
      <trkpt lat="46.71927" lon="5.69546">
        <ele>529.8</ele>
        <time>2015-07-12T06:48:52Z</time>
      </trkpt>
      <trkpt lat="46.71916" lon="5.69557">
        <ele>529.9</ele>
        <time>2015-07-12T06:48:55Z</time>
      </trkpt>
      <trkpt lat="46.71908" lon="5.69563">
        <ele>530.1</ele>
        <time>2015-07-12T06:48:57Z</time>
      </trkpt>
      <trkpt lat="46.71896" lon="5.69568">
        <ele>530.4</ele>
        <time>2015-07-12T06:49:00Z</time>
      </trkpt>
      <trkpt lat="46.71884" lon="5.69569">
        <ele>530.8</ele>
        <time>2015-07-12T06:49:03Z</time>
      </trkpt>
      <trkpt lat="46.71871" lon="5.69569">
        <ele>531.1</ele>
        <time>2015-07-12T06:49:06Z</time>
      </trkpt>
      <trkpt lat="46.71862" lon="5.69571">
        <ele>531.3</ele>
        <time>2015-07-12T06:49:08Z</time>
      </trkpt>
      <trkpt lat="46.71853" lon="5.69578">
        <ele>531.5</ele>
        <time>2015-07-12T06:49:11Z</time>
      </trkpt>
      <trkpt lat="46.71845" lon="5.69586">
        <ele>531.7</ele>
        <time>2015-07-12T06:49:13Z</time>
      </trkpt>
      <trkpt lat="46.71839" lon="5.69597">
        <ele>531.8</ele>
        <time>2015-07-12T06:49:15Z</time>
      </trkpt>
      <trkpt lat="46.71835" lon="5.6961">
        <ele>532</ele>
        <time>2015-07-12T06:49:17Z</time>
      </trkpt>
      <trkpt lat="46.7183" lon="5.69627">
        <ele>532.4</ele>
        <time>2015-07-12T06:49:20Z</time>
      </trkpt>
      <trkpt lat="46.71826" lon="5.69645">
        <ele>532.7</ele>
        <time>2015-07-12T06:49:23Z</time>
      </trkpt>
      <trkpt lat="46.71822" lon="5.69657">
        <ele>532.9</ele>
        <time>2015-07-12T06:49:25Z</time>
      </trkpt>
      <trkpt lat="46.71818" lon="5.6967">
        <ele>533.1</ele>
        <time>2015-07-12T06:49:27Z</time>
      </trkpt>
      <trkpt lat="46.71813" lon="5.69686">
        <ele>533.4</ele>
        <time>2015-07-12T06:49:30Z</time>
      </trkpt>
      <trkpt lat="46.71808" lon="5.697">
        <ele>533.6</ele>
        <time>2015-07-12T06:49:33Z</time>
      </trkpt>
      <trkpt lat="46.71809" lon="5.69713">
        <ele>534</ele>
        <time>2015-07-12T06:49:36Z</time>
      </trkpt>
      <trkpt lat="46.71819" lon="5.69722">
        <ele>534.3</ele>
        <time>2015-07-12T06:49:39Z</time>
      </trkpt>
      <trkpt lat="46.71827" lon="5.69729">
        <ele>534.5</ele>
        <time>2015-07-12T06:49:41Z</time>
      </trkpt>
      <trkpt lat="46.71837" lon="5.69735">
        <ele>534.7</ele>
        <time>2015-07-12T06:49:43Z</time>
      </trkpt>
      <trkpt lat="46.71848" lon="5.69741">
        <ele>534.7</ele>
        <time>2015-07-12T06:49:45Z</time>
      </trkpt>
      <trkpt lat="46.7186" lon="5.69747">
        <ele>534.7</ele>
        <time>2015-07-12T06:49:47Z</time>
      </trkpt>
      <trkpt lat="46.71873" lon="5.69751">
        <ele>534.6</ele>
        <time>2015-07-12T06:49:49Z</time>
      </trkpt>
      <trkpt lat="46.71885" lon="5.69756">
        <ele>534.6</ele>
        <time>2015-07-12T06:49:51Z</time>
      </trkpt>
      <trkpt lat="46.71898" lon="5.69761">
        <ele>534.2</ele>
        <time>2015-07-12T06:49:53Z</time>
      </trkpt>
      <trkpt lat="46.71909" lon="5.69766">
        <ele>534</ele>
        <time>2015-07-12T06:49:55Z</time>
      </trkpt>
      <trkpt lat="46.7192" lon="5.6977">
        <ele>533.7</ele>
        <time>2015-07-12T06:49:57Z</time>
      </trkpt>
      <trkpt lat="46.71932" lon="5.69774">
        <ele>533.6</ele>
        <time>2015-07-12T06:49:59Z</time>
      </trkpt>
      <trkpt lat="46.71944" lon="5.69779">
        <ele>533.4</ele>
        <time>2015-07-12T06:50:01Z</time>
      </trkpt>
      <trkpt lat="46.71955" lon="5.69787">
        <ele>533.4</ele>
        <time>2015-07-12T06:50:03Z</time>
      </trkpt>
      <trkpt lat="46.71965" lon="5.69795">
        <ele>533.3</ele>
        <time>2015-07-12T06:50:05Z</time>
      </trkpt>
      <trkpt lat="46.71974" lon="5.69804">
        <ele>533.3</ele>
        <time>2015-07-12T06:50:07Z</time>
      </trkpt>
      <trkpt lat="46.71983" lon="5.69813">
        <ele>533.4</ele>
        <time>2015-07-12T06:50:09Z</time>
      </trkpt>
      <trkpt lat="46.71992" lon="5.6982">
        <ele>533.5</ele>
        <time>2015-07-12T06:50:11Z</time>
      </trkpt>
      <trkpt lat="46.72002" lon="5.69824">
        <ele>533.6</ele>
        <time>2015-07-12T06:50:13Z</time>
      </trkpt>
      <trkpt lat="46.72012" lon="5.69827">
        <ele>533.8</ele>
        <time>2015-07-12T06:50:15Z</time>
      </trkpt>
      <trkpt lat="46.72022" lon="5.69829">
        <ele>534</ele>
        <time>2015-07-12T06:50:17Z</time>
      </trkpt>
      <trkpt lat="46.72032" lon="5.69831">
        <ele>534.2</ele>
        <time>2015-07-12T06:50:19Z</time>
      </trkpt>
      <trkpt lat="46.72042" lon="5.69834">
        <ele>534.4</ele>
        <time>2015-07-12T06:50:21Z</time>
      </trkpt>
      <trkpt lat="46.72051" lon="5.69838">
        <ele>534.7</ele>
        <time>2015-07-12T06:50:23Z</time>
      </trkpt>
      <trkpt lat="46.72061" lon="5.69843">
        <ele>535</ele>
        <time>2015-07-12T06:50:25Z</time>
      </trkpt>
      <trkpt lat="46.7207" lon="5.69849">
        <ele>535.2</ele>
        <time>2015-07-12T06:50:27Z</time>
      </trkpt>
      <trkpt lat="46.72079" lon="5.69855">
        <ele>535.5</ele>
        <time>2015-07-12T06:50:29Z</time>
      </trkpt>
      <trkpt lat="46.72089" lon="5.69861">
        <ele>535.7</ele>
        <time>2015-07-12T06:50:31Z</time>
      </trkpt>
      <trkpt lat="46.72097" lon="5.69868">
        <ele>536</ele>
        <time>2015-07-12T06:50:33Z</time>
      </trkpt>
      <trkpt lat="46.72106" lon="5.69876">
        <ele>536.2</ele>
        <time>2015-07-12T06:50:35Z</time>
      </trkpt>
      <trkpt lat="46.72114" lon="5.69883">
        <ele>536.4</ele>
        <time>2015-07-12T06:50:37Z</time>
      </trkpt>
      <trkpt lat="46.72122" lon="5.69892">
        <ele>536.6</ele>
        <time>2015-07-12T06:50:39Z</time>
      </trkpt>
      <trkpt lat="46.72131" lon="5.69899">
        <ele>536.9</ele>
        <time>2015-07-12T06:50:41Z</time>
      </trkpt>
      <trkpt lat="46.72141" lon="5.69907">
        <ele>537</ele>
        <time>2015-07-12T06:50:43Z</time>
      </trkpt>
      <trkpt lat="46.72151" lon="5.69914">
        <ele>537.2</ele>
        <time>2015-07-12T06:50:45Z</time>
      </trkpt>
      <trkpt lat="46.72163" lon="5.69923">
        <ele>537.4</ele>
        <time>2015-07-12T06:50:47Z</time>
      </trkpt>
      <trkpt lat="46.72176" lon="5.69932">
        <ele>537.6</ele>
        <time>2015-07-12T06:50:49Z</time>
      </trkpt>
      <trkpt lat="46.72189" lon="5.6994">
        <ele>537.7</ele>
        <time>2015-07-12T06:50:51Z</time>
      </trkpt>
      <trkpt lat="46.72202" lon="5.69949">
        <ele>537.8</ele>
        <time>2015-07-12T06:50:53Z</time>
      </trkpt>
      <trkpt lat="46.72215" lon="5.69957">
        <ele>537.8</ele>
        <time>2015-07-12T06:50:55Z</time>
      </trkpt>
      <trkpt lat="46.72228" lon="5.69965">
        <ele>537.8</ele>
        <time>2015-07-12T06:50:57Z</time>
      </trkpt>
      <trkpt lat="46.7224" lon="5.69972">
        <ele>537.8</ele>
        <time>2015-07-12T06:50:59Z</time>
      </trkpt>
      <trkpt lat="46.72252" lon="5.69978">
        <ele>537.8</ele>
        <time>2015-07-12T06:51:01Z</time>
      </trkpt>
      <trkpt lat="46.72263" lon="5.69984">
        <ele>537.8</ele>
        <time>2015-07-12T06:51:03Z</time>
      </trkpt>
      <trkpt lat="46.72274" lon="5.69991">
        <ele>537.8</ele>
        <time>2015-07-12T06:51:05Z</time>
      </trkpt>
      <trkpt lat="46.72285" lon="5.69997">
        <ele>537.9</ele>
        <time>2015-07-12T06:51:07Z</time>
      </trkpt>
      <trkpt lat="46.72295" lon="5.70004">
        <ele>538</ele>
        <time>2015-07-12T06:51:09Z</time>
      </trkpt>
      <trkpt lat="46.72304" lon="5.70011">
        <ele>538.1</ele>
        <time>2015-07-12T06:51:11Z</time>
      </trkpt>
      <trkpt lat="46.72312" lon="5.70018">
        <ele>538.4</ele>
        <time>2015-07-12T06:51:13Z</time>
      </trkpt>
      <trkpt lat="46.7232" lon="5.70029">
        <ele>538.8</ele>
        <time>2015-07-12T06:51:16Z</time>
      </trkpt>
      <trkpt lat="46.72318" lon="5.70045">
        <ele>539.3</ele>
        <time>2015-07-12T06:51:19Z</time>
      </trkpt>
      <trkpt lat="46.72316" lon="5.70065">
        <ele>539.7</ele>
        <time>2015-07-12T06:51:22Z</time>
      </trkpt>
      <trkpt lat="46.72316" lon="5.70079">
        <ele>540</ele>
        <time>2015-07-12T06:51:24Z</time>
      </trkpt>
      <trkpt lat="46.72318" lon="5.70092">
        <ele>540.4</ele>
        <time>2015-07-12T06:51:26Z</time>
      </trkpt>
      <trkpt lat="46.7232" lon="5.70105">
        <ele>540.7</ele>
        <time>2015-07-12T06:51:28Z</time>
      </trkpt>
      <trkpt lat="46.72322" lon="5.70119">
        <ele>541.1</ele>
        <time>2015-07-12T06:51:30Z</time>
      </trkpt>
      <trkpt lat="46.72324" lon="5.70132">
        <ele>541.5</ele>
        <time>2015-07-12T06:51:32Z</time>
      </trkpt>
      <trkpt lat="46.72327" lon="5.70151">
        <ele>542.2</ele>
        <time>2015-07-12T06:51:35Z</time>
      </trkpt>
      <trkpt lat="46.72329" lon="5.70164">
        <ele>542.5</ele>
        <time>2015-07-12T06:51:37Z</time>
      </trkpt>
      <trkpt lat="46.7233" lon="5.70178">
        <ele>542.9</ele>
        <time>2015-07-12T06:51:39Z</time>
      </trkpt>
      <trkpt lat="46.72333" lon="5.7019">
        <ele>543.4</ele>
        <time>2015-07-12T06:51:41Z</time>
      </trkpt>
      <trkpt lat="46.72338" lon="5.70202">
        <ele>543.7</ele>
        <time>2015-07-12T06:51:43Z</time>
      </trkpt>
      <trkpt lat="46.72343" lon="5.70215">
        <ele>544.1</ele>
        <time>2015-07-12T06:51:45Z</time>
      </trkpt>
      <trkpt lat="46.72348" lon="5.70229">
        <ele>544.5</ele>
        <time>2015-07-12T06:51:47Z</time>
      </trkpt>
      <trkpt lat="46.72351" lon="5.70244">
        <ele>544.8</ele>
        <time>2015-07-12T06:51:49Z</time>
      </trkpt>
      <trkpt lat="46.72353" lon="5.7026">
        <ele>545</ele>
        <time>2015-07-12T06:51:51Z</time>
      </trkpt>
      <trkpt lat="46.72354" lon="5.70277">
        <ele>545.3</ele>
        <time>2015-07-12T06:51:53Z</time>
      </trkpt>
      <trkpt lat="46.72356" lon="5.70295">
        <ele>545.5</ele>
        <time>2015-07-12T06:51:55Z</time>
      </trkpt>
      <trkpt lat="46.7236" lon="5.70313">
        <ele>545.6</ele>
        <time>2015-07-12T06:51:57Z</time>
      </trkpt>
      <trkpt lat="46.72367" lon="5.7033">
        <ele>545.7</ele>
        <time>2015-07-12T06:51:59Z</time>
      </trkpt>
      <trkpt lat="46.72374" lon="5.70348">
        <ele>545.7</ele>
        <time>2015-07-12T06:52:01Z</time>
      </trkpt>
      <trkpt lat="46.72381" lon="5.70367">
        <ele>545.7</ele>
        <time>2015-07-12T06:52:03Z</time>
      </trkpt>
      <trkpt lat="46.72388" lon="5.70386">
        <ele>545.6</ele>
        <time>2015-07-12T06:52:05Z</time>
      </trkpt>
      <trkpt lat="46.72395" lon="5.70404">
        <ele>545.5</ele>
        <time>2015-07-12T06:52:07Z</time>
      </trkpt>
      <trkpt lat="46.72403" lon="5.70421">
        <ele>545.4</ele>
        <time>2015-07-12T06:52:09Z</time>
      </trkpt>
      <trkpt lat="46.7241" lon="5.70436">
        <ele>545.4</ele>
        <time>2015-07-12T06:52:11Z</time>
      </trkpt>
      <trkpt lat="46.72417" lon="5.7045">
        <ele>545.3</ele>
        <time>2015-07-12T06:52:13Z</time>
      </trkpt>
      <trkpt lat="46.72426" lon="5.70461">
        <ele>545.3</ele>
        <time>2015-07-12T06:52:15Z</time>
      </trkpt>
      <trkpt lat="46.72438" lon="5.70466">
        <ele>545.2</ele>
        <time>2015-07-12T06:52:17Z</time>
      </trkpt>
      <trkpt lat="46.72451" lon="5.70465">
        <ele>545.1</ele>
        <time>2015-07-12T06:52:19Z</time>
      </trkpt>
      <trkpt lat="46.72464" lon="5.70463">
        <ele>545</ele>
        <time>2015-07-12T06:52:21Z</time>
      </trkpt>
      <trkpt lat="46.72478" lon="5.70464">
        <ele>544.8</ele>
        <time>2015-07-12T06:52:23Z</time>
      </trkpt>
      <trkpt lat="46.72492" lon="5.70468">
        <ele>544.7</ele>
        <time>2015-07-12T06:52:25Z</time>
      </trkpt>
      <trkpt lat="46.72506" lon="5.70476">
        <ele>544.6</ele>
        <time>2015-07-12T06:52:27Z</time>
      </trkpt>
      <trkpt lat="46.72517" lon="5.70489">
        <ele>544.5</ele>
        <time>2015-07-12T06:52:29Z</time>
      </trkpt>
      <trkpt lat="46.72526" lon="5.70505">
        <ele>544.4</ele>
        <time>2015-07-12T06:52:31Z</time>
      </trkpt>
      <trkpt lat="46.72534" lon="5.70524">
        <ele>544.3</ele>
        <time>2015-07-12T06:52:33Z</time>
      </trkpt>
      <trkpt lat="46.7254" lon="5.70542">
        <ele>544.3</ele>
        <time>2015-07-12T06:52:35Z</time>
      </trkpt>
      <trkpt lat="46.72548" lon="5.70558">
        <ele>544.2</ele>
        <time>2015-07-12T06:52:37Z</time>
      </trkpt>
      <trkpt lat="46.7256" lon="5.70571">
        <ele>544.2</ele>
        <time>2015-07-12T06:52:39Z</time>
      </trkpt>
      <trkpt lat="46.7257" lon="5.70588">
        <ele>544</ele>
        <time>2015-07-12T06:52:41Z</time>
      </trkpt>
      <trkpt lat="46.72575" lon="5.70611">
        <ele>543.8</ele>
        <time>2015-07-12T06:52:43Z</time>
      </trkpt>
      <trkpt lat="46.72574" lon="5.70636">
        <ele>543.4</ele>
        <time>2015-07-12T06:52:45Z</time>
      </trkpt>
      <trkpt lat="46.7257" lon="5.7066">
        <ele>543.1</ele>
        <time>2015-07-12T06:52:47Z</time>
      </trkpt>
      <trkpt lat="46.72565" lon="5.70682">
        <ele>542.7</ele>
        <time>2015-07-12T06:52:49Z</time>
      </trkpt>
      <trkpt lat="46.72563" lon="5.70703">
        <ele>542.4</ele>
        <time>2015-07-12T06:52:51Z</time>
      </trkpt>
      <trkpt lat="46.72562" lon="5.70724">
        <ele>542.1</ele>
        <time>2015-07-12T06:52:53Z</time>
      </trkpt>
      <trkpt lat="46.72565" lon="5.70743">
        <ele>541.8</ele>
        <time>2015-07-12T06:52:55Z</time>
      </trkpt>
      <trkpt lat="46.72569" lon="5.70758">
        <ele>541.6</ele>
        <time>2015-07-12T06:52:57Z</time>
      </trkpt>
      <trkpt lat="46.72575" lon="5.7077">
        <ele>541.3</ele>
        <time>2015-07-12T06:52:59Z</time>
      </trkpt>
      <trkpt lat="46.72585" lon="5.70776">
        <ele>541.2</ele>
        <time>2015-07-12T06:53:01Z</time>
      </trkpt>
      <trkpt lat="46.72596" lon="5.70779">
        <ele>541</ele>
        <time>2015-07-12T06:53:03Z</time>
      </trkpt>
      <trkpt lat="46.72609" lon="5.7078">
        <ele>540.9</ele>
        <time>2015-07-12T06:53:05Z</time>
      </trkpt>
      <trkpt lat="46.72621" lon="5.70781">
        <ele>540.8</ele>
        <time>2015-07-12T06:53:07Z</time>
      </trkpt>
      <trkpt lat="46.72634" lon="5.70782">
        <ele>540.8</ele>
        <time>2015-07-12T06:53:09Z</time>
      </trkpt>
      <trkpt lat="46.72647" lon="5.70782">
        <ele>540.7</ele>
        <time>2015-07-12T06:53:11Z</time>
      </trkpt>
      <trkpt lat="46.72659" lon="5.7078">
        <ele>540.7</ele>
        <time>2015-07-12T06:53:13Z</time>
      </trkpt>
      <trkpt lat="46.72671" lon="5.70777">
        <ele>540.7</ele>
        <time>2015-07-12T06:53:15Z</time>
      </trkpt>
      <trkpt lat="46.72683" lon="5.70775">
        <ele>540.6</ele>
        <time>2015-07-12T06:53:17Z</time>
      </trkpt>
      <trkpt lat="46.72694" lon="5.70773">
        <ele>540.6</ele>
        <time>2015-07-12T06:53:19Z</time>
      </trkpt>
      <trkpt lat="46.72705" lon="5.70772">
        <ele>540.6</ele>
        <time>2015-07-12T06:53:21Z</time>
      </trkpt>
      <trkpt lat="46.72714" lon="5.7077">
        <ele>540.6</ele>
        <time>2015-07-12T06:53:23Z</time>
      </trkpt>
      <trkpt lat="46.72724" lon="5.7077">
        <ele>540.7</ele>
        <time>2015-07-12T06:53:25Z</time>
      </trkpt>
      <trkpt lat="46.72733" lon="5.70771">
        <ele>540.7</ele>
        <time>2015-07-12T06:53:27Z</time>
      </trkpt>
      <trkpt lat="46.72745" lon="5.70779">
        <ele>540.9</ele>
        <time>2015-07-12T06:53:30Z</time>
      </trkpt>
      <trkpt lat="46.72755" lon="5.70792">
        <ele>541.4</ele>
        <time>2015-07-12T06:53:33Z</time>
      </trkpt>
      <trkpt lat="46.72761" lon="5.70803">
        <ele>541.8</ele>
        <time>2015-07-12T06:53:35Z</time>
      </trkpt>
      <trkpt lat="46.72766" lon="5.70816">
        <ele>542.1</ele>
        <time>2015-07-12T06:53:37Z</time>
      </trkpt>
      <trkpt lat="46.72771" lon="5.70829">
        <ele>542.3</ele>
        <time>2015-07-12T06:53:39Z</time>
      </trkpt>
      <trkpt lat="46.72776" lon="5.70842">
        <ele>542.5</ele>
        <time>2015-07-12T06:53:41Z</time>
      </trkpt>
      <trkpt lat="46.72781" lon="5.70857">
        <ele>542.7</ele>
        <time>2015-07-12T06:53:43Z</time>
      </trkpt>
      <trkpt lat="46.72787" lon="5.70871">
        <ele>542.8</ele>
        <time>2015-07-12T06:53:45Z</time>
      </trkpt>
      <trkpt lat="46.72794" lon="5.70884">
        <ele>542.9</ele>
        <time>2015-07-12T06:53:47Z</time>
      </trkpt>
      <trkpt lat="46.72801" lon="5.70898">
        <ele>543</ele>
        <time>2015-07-12T06:53:49Z</time>
      </trkpt>
      <trkpt lat="46.72809" lon="5.70912">
        <ele>543.1</ele>
        <time>2015-07-12T06:53:51Z</time>
      </trkpt>
      <trkpt lat="46.72819" lon="5.70924">
        <ele>543.1</ele>
        <time>2015-07-12T06:53:53Z</time>
      </trkpt>
      <trkpt lat="46.7283" lon="5.70934">
        <ele>543</ele>
        <time>2015-07-12T06:53:55Z</time>
      </trkpt>
      <trkpt lat="46.72839" lon="5.70938">
        <ele>542.8</ele>
        <time>2015-07-12T06:53:57Z</time>
      </trkpt>
      <trkpt lat="46.72842" lon="5.70952">
        <ele>542.5</ele>
        <time>2015-07-12T06:54:02Z</time>
      </trkpt>
      <trkpt lat="46.72834" lon="5.70962">
        <ele>542.4</ele>
        <time>2015-07-12T06:54:05Z</time>
      </trkpt>
      <trkpt lat="46.72823" lon="5.70974">
        <ele>542.3</ele>
        <time>2015-07-12T06:54:08Z</time>
      </trkpt>
      <trkpt lat="46.72816" lon="5.70983">
        <ele>542.2</ele>
        <time>2015-07-12T06:54:10Z</time>
      </trkpt>
      <trkpt lat="46.72808" lon="5.70991">
        <ele>542.2</ele>
        <time>2015-07-12T06:54:12Z</time>
      </trkpt>
      <trkpt lat="46.728" lon="5.71">
        <ele>542.3</ele>
        <time>2015-07-12T06:54:14Z</time>
      </trkpt>
      <trkpt lat="46.72791" lon="5.71009">
        <ele>542.3</ele>
        <time>2015-07-12T06:54:16Z</time>
      </trkpt>
      <trkpt lat="46.72783" lon="5.71018">
        <ele>542.3</ele>
        <time>2015-07-12T06:54:18Z</time>
      </trkpt>
      <trkpt lat="46.72775" lon="5.71027">
        <ele>542.3</ele>
        <time>2015-07-12T06:54:20Z</time>
      </trkpt>
      <trkpt lat="46.72768" lon="5.71035">
        <ele>542.3</ele>
        <time>2015-07-12T06:54:22Z</time>
      </trkpt>
      <trkpt lat="46.72757" lon="5.71047">
        <ele>542.4</ele>
        <time>2015-07-12T06:54:25Z</time>
      </trkpt>
      <trkpt lat="46.72747" lon="5.71059">
        <ele>542.6</ele>
        <time>2015-07-12T06:54:28Z</time>
      </trkpt>
      <trkpt lat="46.72736" lon="5.71071">
        <ele>542.8</ele>
        <time>2015-07-12T06:54:31Z</time>
      </trkpt>
      <trkpt lat="46.72726" lon="5.71083">
        <ele>543.2</ele>
        <time>2015-07-12T06:54:34Z</time>
      </trkpt>
      <trkpt lat="46.72716" lon="5.71096">
        <ele>543.6</ele>
        <time>2015-07-12T06:54:37Z</time>
      </trkpt>
      <trkpt lat="46.72706" lon="5.71107">
        <ele>544.1</ele>
        <time>2015-07-12T06:54:40Z</time>
      </trkpt>
      <trkpt lat="46.72696" lon="5.71119">
        <ele>544.4</ele>
        <time>2015-07-12T06:54:43Z</time>
      </trkpt>
      <trkpt lat="46.72686" lon="5.7113">
        <ele>544.7</ele>
        <time>2015-07-12T06:54:46Z</time>
      </trkpt>
      <trkpt lat="46.72678" lon="5.7114">
        <ele>545</ele>
        <time>2015-07-12T06:54:49Z</time>
      </trkpt>
      <trkpt lat="46.72669" lon="5.71152">
        <ele>545.5</ele>
        <time>2015-07-12T06:54:52Z</time>
      </trkpt>
      <trkpt lat="46.7266" lon="5.71164">
        <ele>545.8</ele>
        <time>2015-07-12T06:54:55Z</time>
      </trkpt>
      <trkpt lat="46.72653" lon="5.71179">
        <ele>546.1</ele>
        <time>2015-07-12T06:54:58Z</time>
      </trkpt>
      <trkpt lat="46.72646" lon="5.71193">
        <ele>546.4</ele>
        <time>2015-07-12T06:55:01Z</time>
      </trkpt>
      <trkpt lat="46.72641" lon="5.71204">
        <ele>546.7</ele>
        <time>2015-07-12T06:55:04Z</time>
      </trkpt>
      <trkpt lat="46.72635" lon="5.71216">
        <ele>547</ele>
        <time>2015-07-12T06:55:07Z</time>
      </trkpt>
      <trkpt lat="46.72629" lon="5.71226">
        <ele>547.3</ele>
        <time>2015-07-12T06:55:10Z</time>
      </trkpt>
      <trkpt lat="46.72621" lon="5.71239">
        <ele>547.9</ele>
        <time>2015-07-12T06:55:14Z</time>
      </trkpt>
      <trkpt lat="46.72615" lon="5.71249">
        <ele>548.3</ele>
        <time>2015-07-12T06:55:17Z</time>
      </trkpt>
      <trkpt lat="46.72609" lon="5.71259">
        <ele>548.8</ele>
        <time>2015-07-12T06:55:20Z</time>
      </trkpt>
      <trkpt lat="46.72603" lon="5.71271">
        <ele>549.2</ele>
        <time>2015-07-12T06:55:23Z</time>
      </trkpt>
      <trkpt lat="46.72597" lon="5.71282">
        <ele>549.7</ele>
        <time>2015-07-12T06:55:26Z</time>
      </trkpt>
      <trkpt lat="46.72594" lon="5.71295">
        <ele>550.2</ele>
        <time>2015-07-12T06:55:29Z</time>
      </trkpt>
      <trkpt lat="46.72589" lon="5.71309">
        <ele>550.8</ele>
        <time>2015-07-12T06:55:33Z</time>
      </trkpt>
      <trkpt lat="46.72582" lon="5.71319">
        <ele>551.7</ele>
        <time>2015-07-12T06:55:38Z</time>
      </trkpt>
      <trkpt lat="46.72573" lon="5.71331">
        <ele>552.6</ele>
        <time>2015-07-12T06:55:42Z</time>
      </trkpt>
      <trkpt lat="46.72566" lon="5.7134">
        <ele>553.3</ele>
        <time>2015-07-12T06:55:45Z</time>
      </trkpt>
      <trkpt lat="46.72557" lon="5.71349">
        <ele>554.2</ele>
        <time>2015-07-12T06:55:49Z</time>
      </trkpt>
      <trkpt lat="46.72549" lon="5.71359">
        <ele>554.7</ele>
        <time>2015-07-12T06:55:52Z</time>
      </trkpt>
      <trkpt lat="46.72541" lon="5.7137">
        <ele>555.3</ele>
        <time>2015-07-12T06:55:55Z</time>
      </trkpt>
      <trkpt lat="46.72531" lon="5.71379">
        <ele>556.2</ele>
        <time>2015-07-12T06:55:59Z</time>
      </trkpt>
      <trkpt lat="46.72523" lon="5.71386">
        <ele>556.8</ele>
        <time>2015-07-12T06:56:03Z</time>
      </trkpt>
      <trkpt lat="46.72514" lon="5.71392">
        <ele>557.7</ele>
        <time>2015-07-12T06:56:07Z</time>
      </trkpt>
      <trkpt lat="46.72505" lon="5.71401">
        <ele>558.4</ele>
        <time>2015-07-12T06:56:11Z</time>
      </trkpt>
      <trkpt lat="46.72496" lon="5.71409">
        <ele>559</ele>
        <time>2015-07-12T06:56:15Z</time>
      </trkpt>
      <trkpt lat="46.72488" lon="5.71414">
        <ele>559.4</ele>
        <time>2015-07-12T06:56:18Z</time>
      </trkpt>
      <trkpt lat="46.72478" lon="5.7142">
        <ele>559.8</ele>
        <time>2015-07-12T06:56:21Z</time>
      </trkpt>
      <trkpt lat="46.72469" lon="5.71427">
        <ele>560.1</ele>
        <time>2015-07-12T06:56:24Z</time>
      </trkpt>
      <trkpt lat="46.7246" lon="5.71435">
        <ele>560.4</ele>
        <time>2015-07-12T06:56:27Z</time>
      </trkpt>
      <trkpt lat="46.7245" lon="5.71443">
        <ele>560.6</ele>
        <time>2015-07-12T06:56:30Z</time>
      </trkpt>
      <trkpt lat="46.7244" lon="5.71454">
        <ele>560.8</ele>
        <time>2015-07-12T06:56:33Z</time>
      </trkpt>
      <trkpt lat="46.72431" lon="5.71465">
        <ele>561</ele>
        <time>2015-07-12T06:56:36Z</time>
      </trkpt>
      <trkpt lat="46.72424" lon="5.71475">
        <ele>561</ele>
        <time>2015-07-12T06:56:39Z</time>
      </trkpt>
      <trkpt lat="46.72414" lon="5.71484">
        <ele>561.2</ele>
        <time>2015-07-12T06:56:42Z</time>
      </trkpt>
      <trkpt lat="46.72402" lon="5.71489">
        <ele>561.4</ele>
        <time>2015-07-12T06:56:45Z</time>
      </trkpt>
      <trkpt lat="46.72391" lon="5.71495">
        <ele>561.4</ele>
        <time>2015-07-12T06:56:47Z</time>
      </trkpt>
      <trkpt lat="46.72381" lon="5.71503">
        <ele>561.4</ele>
        <time>2015-07-12T06:56:49Z</time>
      </trkpt>
      <trkpt lat="46.72373" lon="5.71513">
        <ele>561.4</ele>
        <time>2015-07-12T06:56:51Z</time>
      </trkpt>
      <trkpt lat="46.72366" lon="5.71523">
        <ele>561.5</ele>
        <time>2015-07-12T06:56:53Z</time>
      </trkpt>
      <trkpt lat="46.72359" lon="5.71533">
        <ele>561.2</ele>
        <time>2015-07-12T06:56:55Z</time>
      </trkpt>
      <trkpt lat="46.72351" lon="5.71542">
        <ele>561</ele>
        <time>2015-07-12T06:56:57Z</time>
      </trkpt>
      <trkpt lat="46.72344" lon="5.71552">
        <ele>560.8</ele>
        <time>2015-07-12T06:56:59Z</time>
      </trkpt>
      <trkpt lat="46.72339" lon="5.71564">
        <ele>560.7</ele>
        <time>2015-07-12T06:57:01Z</time>
      </trkpt>
      <trkpt lat="46.72334" lon="5.71575">
        <ele>560.5</ele>
        <time>2015-07-12T06:57:03Z</time>
      </trkpt>
      <trkpt lat="46.72329" lon="5.71587">
        <ele>560.5</ele>
        <time>2015-07-12T06:57:05Z</time>
      </trkpt>
      <trkpt lat="46.72325" lon="5.716">
        <ele>560.4</ele>
        <time>2015-07-12T06:57:07Z</time>
      </trkpt>
      <trkpt lat="46.7232" lon="5.71613">
        <ele>560.4</ele>
        <time>2015-07-12T06:57:09Z</time>
      </trkpt>
      <trkpt lat="46.72313" lon="5.71624">
        <ele>560.2</ele>
        <time>2015-07-12T06:57:12Z</time>
      </trkpt>
      <trkpt lat="46.72301" lon="5.71619">
        <ele>559.8</ele>
        <time>2015-07-12T06:57:16Z</time>
      </trkpt>
      <trkpt lat="46.72291" lon="5.71613">
        <ele>559.3</ele>
        <time>2015-07-12T06:57:19Z</time>
      </trkpt>
      <trkpt lat="46.7228" lon="5.71609">
        <ele>558.8</ele>
        <time>2015-07-12T06:57:23Z</time>
      </trkpt>
      <trkpt lat="46.72276" lon="5.71626">
        <ele>558.2</ele>
        <time>2015-07-12T06:57:27Z</time>
      </trkpt>
      <trkpt lat="46.72274" lon="5.71641">
        <ele>557.9</ele>
        <time>2015-07-12T06:57:30Z</time>
      </trkpt>
      <trkpt lat="46.72272" lon="5.7166">
        <ele>557.6</ele>
        <time>2015-07-12T06:57:33Z</time>
      </trkpt>
      <trkpt lat="46.72268" lon="5.71679">
        <ele>557.4</ele>
        <time>2015-07-12T06:57:36Z</time>
      </trkpt>
      <trkpt lat="46.72264" lon="5.71691">
        <ele>557.3</ele>
        <time>2015-07-12T06:57:38Z</time>
      </trkpt>
      <trkpt lat="46.72263" lon="5.71704">
        <ele>557.3</ele>
        <time>2015-07-12T06:57:40Z</time>
      </trkpt>
      <trkpt lat="46.72261" lon="5.71722">
        <ele>557.2</ele>
        <time>2015-07-12T06:57:43Z</time>
      </trkpt>
      <trkpt lat="46.72258" lon="5.71735">
        <ele>557.2</ele>
        <time>2015-07-12T06:57:45Z</time>
      </trkpt>
      <trkpt lat="46.72253" lon="5.71753">
        <ele>557.3</ele>
        <time>2015-07-12T06:57:48Z</time>
      </trkpt>
      <trkpt lat="46.7225" lon="5.71769">
        <ele>557.3</ele>
        <time>2015-07-12T06:57:50Z</time>
      </trkpt>
      <trkpt lat="46.72246" lon="5.71782">
        <ele>557.3</ele>
        <time>2015-07-12T06:57:52Z</time>
      </trkpt>
      <trkpt lat="46.72241" lon="5.71793">
        <ele>557.4</ele>
        <time>2015-07-12T06:57:54Z</time>
      </trkpt>
      <trkpt lat="46.72236" lon="5.71808">
        <ele>557.5</ele>
        <time>2015-07-12T06:57:57Z</time>
      </trkpt>
      <trkpt lat="46.7223" lon="5.71823">
        <ele>557.8</ele>
        <time>2015-07-12T06:58:00Z</time>
      </trkpt>
      <trkpt lat="46.72225" lon="5.71838">
        <ele>558</ele>
        <time>2015-07-12T06:58:03Z</time>
      </trkpt>
      <trkpt lat="46.72231" lon="5.71849">
        <ele>558.3</ele>
        <time>2015-07-12T06:58:08Z</time>
      </trkpt>
      <trkpt lat="46.72238" lon="5.71857">
        <ele>558.7</ele>
        <time>2015-07-12T06:58:12Z</time>
      </trkpt>
      <trkpt lat="46.72247" lon="5.71866">
        <ele>559.4</ele>
        <time>2015-07-12T06:58:18Z</time>
      </trkpt>
      <trkpt lat="46.72255" lon="5.71871">
        <ele>560</ele>
        <time>2015-07-12T06:58:24Z</time>
      </trkpt>
      <trkpt lat="46.72264" lon="5.71877">
        <ele>561.7</ele>
        <time>2015-07-12T06:58:34Z</time>
      </trkpt>
      <trkpt lat="46.72272" lon="5.71883">
        <ele>562.6</ele>
        <time>2015-07-12T06:58:39Z</time>
      </trkpt>
      <trkpt lat="46.72282" lon="5.7189">
        <ele>563.4</ele>
        <time>2015-07-12T06:58:45Z</time>
      </trkpt>
      <trkpt lat="46.72292" lon="5.71899">
        <ele>564</ele>
        <time>2015-07-12T06:58:50Z</time>
      </trkpt>
      <trkpt lat="46.72302" lon="5.71904">
        <ele>564.4</ele>
        <time>2015-07-12T06:58:54Z</time>
      </trkpt>
      <trkpt lat="46.72311" lon="5.71909">
        <ele>564.4</ele>
        <time>2015-07-12T06:58:56Z</time>
      </trkpt>
      <trkpt lat="46.72323" lon="5.71917">
        <ele>564.4</ele>
        <time>2015-07-12T06:58:59Z</time>
      </trkpt>
      <trkpt lat="46.72333" lon="5.71924">
        <ele>564.2</ele>
        <time>2015-07-12T06:59:02Z</time>
      </trkpt>
      <trkpt lat="46.72342" lon="5.71929">
        <ele>563.9</ele>
        <time>2015-07-12T06:59:05Z</time>
      </trkpt>
      <trkpt lat="46.72352" lon="5.71935">
        <ele>563.5</ele>
        <time>2015-07-12T06:59:10Z</time>
      </trkpt>
      <trkpt lat="46.72361" lon="5.71939">
        <ele>563.2</ele>
        <time>2015-07-12T06:59:14Z</time>
      </trkpt>
      <trkpt lat="46.72372" lon="5.71944">
        <ele>563</ele>
        <time>2015-07-12T06:59:19Z</time>
      </trkpt>
      <trkpt lat="46.72384" lon="5.71951">
        <ele>562.9</ele>
        <time>2015-07-12T06:59:22Z</time>
      </trkpt>
      <trkpt lat="46.72393" lon="5.71958">
        <ele>562.7</ele>
        <time>2015-07-12T06:59:26Z</time>
      </trkpt>
      <trkpt lat="46.72404" lon="5.71963">
        <ele>562.5</ele>
        <time>2015-07-12T06:59:30Z</time>
      </trkpt>
      <trkpt lat="46.72412" lon="5.71968">
        <ele>562</ele>
        <time>2015-07-12T06:59:33Z</time>
      </trkpt>
      <trkpt lat="46.72421" lon="5.71973">
        <ele>561.5</ele>
        <time>2015-07-12T06:59:36Z</time>
      </trkpt>
      <trkpt lat="46.72433" lon="5.7198">
        <ele>560.9</ele>
        <time>2015-07-12T06:59:39Z</time>
      </trkpt>
      <trkpt lat="46.72441" lon="5.71987">
        <ele>560.4</ele>
        <time>2015-07-12T06:59:42Z</time>
      </trkpt>
      <trkpt lat="46.72451" lon="5.71991">
        <ele>559.9</ele>
        <time>2015-07-12T06:59:47Z</time>
      </trkpt>
      <trkpt lat="46.72462" lon="5.71996">
        <ele>559.7</ele>
        <time>2015-07-12T06:59:52Z</time>
      </trkpt>
      <trkpt lat="46.72472" lon="5.71998">
        <ele>559.9</ele>
        <time>2015-07-12T06:59:56Z</time>
      </trkpt>
      <trkpt lat="46.72481" lon="5.72001">
        <ele>560.2</ele>
        <time>2015-07-12T06:59:59Z</time>
      </trkpt>
      <trkpt lat="46.7249" lon="5.72006">
        <ele>560.4</ele>
        <time>2015-07-12T07:00:01Z</time>
      </trkpt>
      <trkpt lat="46.72498" lon="5.72011">
        <ele>560.7</ele>
        <time>2015-07-12T07:00:04Z</time>
      </trkpt>
      <trkpt lat="46.72507" lon="5.72016">
        <ele>561</ele>
        <time>2015-07-12T07:00:07Z</time>
      </trkpt>
      <trkpt lat="46.72515" lon="5.72021">
        <ele>561.4</ele>
        <time>2015-07-12T07:00:11Z</time>
      </trkpt>
      <trkpt lat="46.72525" lon="5.72029">
        <ele>561.7</ele>
        <time>2015-07-12T07:00:15Z</time>
      </trkpt>
      <trkpt lat="46.72534" lon="5.72034">
        <ele>561.9</ele>
        <time>2015-07-12T07:00:19Z</time>
      </trkpt>
      <trkpt lat="46.72546" lon="5.7204">
        <ele>562</ele>
        <time>2015-07-12T07:00:23Z</time>
      </trkpt>
      <trkpt lat="46.72555" lon="5.72049">
        <ele>562.3</ele>
        <time>2015-07-12T07:00:26Z</time>
      </trkpt>
      <trkpt lat="46.72565" lon="5.72055">
        <ele>562.6</ele>
        <time>2015-07-12T07:00:30Z</time>
      </trkpt>
      <trkpt lat="46.72575" lon="5.72059">
        <ele>562.6</ele>
        <time>2015-07-12T07:00:34Z</time>
      </trkpt>
      <trkpt lat="46.72584" lon="5.72063">
        <ele>562.7</ele>
        <time>2015-07-12T07:00:37Z</time>
      </trkpt>
      <trkpt lat="46.72594" lon="5.72069">
        <ele>562.5</ele>
        <time>2015-07-12T07:00:41Z</time>
      </trkpt>
      <trkpt lat="46.72603" lon="5.72075">
        <ele>562.5</ele>
        <time>2015-07-12T07:00:46Z</time>
      </trkpt>
      <trkpt lat="46.72614" lon="5.72079">
        <ele>562.9</ele>
        <time>2015-07-12T07:00:50Z</time>
      </trkpt>
      <trkpt lat="46.72627" lon="5.72085">
        <ele>563.1</ele>
        <time>2015-07-12T07:00:53Z</time>
      </trkpt>
      <trkpt lat="46.72636" lon="5.72091">
        <ele>563.1</ele>
        <time>2015-07-12T07:00:55Z</time>
      </trkpt>
      <trkpt lat="46.72647" lon="5.72098">
        <ele>563</ele>
        <time>2015-07-12T07:00:57Z</time>
      </trkpt>
      <trkpt lat="46.72658" lon="5.72102">
        <ele>562.7</ele>
        <time>2015-07-12T07:01:00Z</time>
      </trkpt>
      <trkpt lat="46.72667" lon="5.7211">
        <ele>562.2</ele>
        <time>2015-07-12T07:01:04Z</time>
      </trkpt>
      <trkpt lat="46.72675" lon="5.72116">
        <ele>562.1</ele>
        <time>2015-07-12T07:01:07Z</time>
      </trkpt>
      <trkpt lat="46.72687" lon="5.72121">
        <ele>561.9</ele>
        <time>2015-07-12T07:01:10Z</time>
      </trkpt>
      <trkpt lat="46.72697" lon="5.72125">
        <ele>561.5</ele>
        <time>2015-07-12T07:01:13Z</time>
      </trkpt>
      <trkpt lat="46.72706" lon="5.72129">
        <ele>561.3</ele>
        <time>2015-07-12T07:01:16Z</time>
      </trkpt>
      <trkpt lat="46.72715" lon="5.72132">
        <ele>560.9</ele>
        <time>2015-07-12T07:01:19Z</time>
      </trkpt>
      <trkpt lat="46.72722" lon="5.72141">
        <ele>560.2</ele>
        <time>2015-07-12T07:01:22Z</time>
      </trkpt>
      <trkpt lat="46.72725" lon="5.72156">
        <ele>558.6</ele>
        <time>2015-07-12T07:01:31Z</time>
      </trkpt>
      <trkpt lat="46.72722" lon="5.7217">
        <ele>558.1</ele>
        <time>2015-07-12T07:01:35Z</time>
      </trkpt>
      <trkpt lat="46.72717" lon="5.72185">
        <ele>557.7</ele>
        <time>2015-07-12T07:01:39Z</time>
      </trkpt>
      <trkpt lat="46.72713" lon="5.72197">
        <ele>557.6</ele>
        <time>2015-07-12T07:01:42Z</time>
      </trkpt>
      <trkpt lat="46.72712" lon="5.72211">
        <ele>557.7</ele>
        <time>2015-07-12T07:01:45Z</time>
      </trkpt>
      <trkpt lat="46.72712" lon="5.72226">
        <ele>557.9</ele>
        <time>2015-07-12T07:01:49Z</time>
      </trkpt>
      <trkpt lat="46.7271" lon="5.72243">
        <ele>558.3</ele>
        <time>2015-07-12T07:01:53Z</time>
      </trkpt>
      <trkpt lat="46.72707" lon="5.72256">
        <ele>558.8</ele>
        <time>2015-07-12T07:01:57Z</time>
      </trkpt>
      <trkpt lat="46.72703" lon="5.72272">
        <ele>559.4</ele>
        <time>2015-07-12T07:02:01Z</time>
      </trkpt>
      <trkpt lat="46.72701" lon="5.72288">
        <ele>560.1</ele>
        <time>2015-07-12T07:02:05Z</time>
      </trkpt>
      <trkpt lat="46.72698" lon="5.72301">
        <ele>560.7</ele>
        <time>2015-07-12T07:02:09Z</time>
      </trkpt>
      <trkpt lat="46.72695" lon="5.72316">
        <ele>561.4</ele>
        <time>2015-07-12T07:02:13Z</time>
      </trkpt>
      <trkpt lat="46.72693" lon="5.72329">
        <ele>561.8</ele>
        <time>2015-07-12T07:02:17Z</time>
      </trkpt>
      <trkpt lat="46.72689" lon="5.72343">
        <ele>562.6</ele>
        <time>2015-07-12T07:02:22Z</time>
      </trkpt>
      <trkpt lat="46.72684" lon="5.72356">
        <ele>563.2</ele>
        <time>2015-07-12T07:02:26Z</time>
      </trkpt>
      <trkpt lat="46.72679" lon="5.72371">
        <ele>563.7</ele>
        <time>2015-07-12T07:02:30Z</time>
      </trkpt>
      <trkpt lat="46.72675" lon="5.72385">
        <ele>564.1</ele>
        <time>2015-07-12T07:02:33Z</time>
      </trkpt>
      <trkpt lat="46.7267" lon="5.72398">
        <ele>564.3</ele>
        <time>2015-07-12T07:02:36Z</time>
      </trkpt>
      <trkpt lat="46.72665" lon="5.72413">
        <ele>564</ele>
        <time>2015-07-12T07:02:40Z</time>
      </trkpt>
      <trkpt lat="46.7266" lon="5.72425">
        <ele>564.2</ele>
        <time>2015-07-12T07:02:43Z</time>
      </trkpt>
      <trkpt lat="46.72656" lon="5.72439">
        <ele>564.4</ele>
        <time>2015-07-12T07:02:46Z</time>
      </trkpt>
      <trkpt lat="46.72653" lon="5.72458">
        <ele>564.4</ele>
        <time>2015-07-12T07:02:49Z</time>
      </trkpt>
      <trkpt lat="46.72649" lon="5.72473">
        <ele>564.4</ele>
        <time>2015-07-12T07:02:52Z</time>
      </trkpt>
      <trkpt lat="46.72645" lon="5.72487">
        <ele>564.3</ele>
        <time>2015-07-12T07:02:56Z</time>
      </trkpt>
      <trkpt lat="46.72641" lon="5.72499">
        <ele>564.6</ele>
        <time>2015-07-12T07:03:01Z</time>
      </trkpt>
      <trkpt lat="46.72638" lon="5.72512">
        <ele>565.1</ele>
        <time>2015-07-12T07:03:06Z</time>
      </trkpt>
      <trkpt lat="46.72633" lon="5.72525">
        <ele>565.8</ele>
        <time>2015-07-12T07:03:11Z</time>
      </trkpt>
      <trkpt lat="46.72629" lon="5.72537">
        <ele>566.6</ele>
        <time>2015-07-12T07:03:16Z</time>
      </trkpt>
      <trkpt lat="46.72626" lon="5.72551">
        <ele>567.7</ele>
        <time>2015-07-12T07:03:22Z</time>
      </trkpt>
      <trkpt lat="46.72622" lon="5.72564">
        <ele>568.8</ele>
        <time>2015-07-12T07:03:27Z</time>
      </trkpt>
      <trkpt lat="46.72619" lon="5.72577">
        <ele>569.7</ele>
        <time>2015-07-12T07:03:31Z</time>
      </trkpt>
      <trkpt lat="46.72617" lon="5.72591">
        <ele>570.7</ele>
        <time>2015-07-12T07:03:35Z</time>
      </trkpt>
      <trkpt lat="46.72613" lon="5.72606">
        <ele>571.8</ele>
        <time>2015-07-12T07:03:40Z</time>
      </trkpt>
      <trkpt lat="46.72611" lon="5.7262">
        <ele>572.8</ele>
        <time>2015-07-12T07:03:45Z</time>
      </trkpt>
      <trkpt lat="46.72608" lon="5.72635">
        <ele>573.8</ele>
        <time>2015-07-12T07:03:50Z</time>
      </trkpt>
      <trkpt lat="46.72604" lon="5.7265">
        <ele>574.6</ele>
        <time>2015-07-12T07:03:54Z</time>
      </trkpt>
      <trkpt lat="46.72599" lon="5.72665">
        <ele>575.4</ele>
        <time>2015-07-12T07:03:58Z</time>
      </trkpt>
      <trkpt lat="46.72597" lon="5.72679">
        <ele>575.8</ele>
        <time>2015-07-12T07:04:01Z</time>
      </trkpt>
      <trkpt lat="46.72595" lon="5.72696">
        <ele>576.2</ele>
        <time>2015-07-12T07:04:04Z</time>
      </trkpt>
      <trkpt lat="46.7259" lon="5.72714">
        <ele>576.4</ele>
        <time>2015-07-12T07:04:07Z</time>
      </trkpt>
      <trkpt lat="46.72586" lon="5.72731">
        <ele>576.7</ele>
        <time>2015-07-12T07:04:10Z</time>
      </trkpt>
      <trkpt lat="46.72583" lon="5.72744">
        <ele>576.7</ele>
        <time>2015-07-12T07:04:12Z</time>
      </trkpt>
      <trkpt lat="46.72578" lon="5.7276">
        <ele>576.7</ele>
        <time>2015-07-12T07:04:14Z</time>
      </trkpt>
      <trkpt lat="46.72574" lon="5.72777">
        <ele>576.4</ele>
        <time>2015-07-12T07:04:16Z</time>
      </trkpt>
      <trkpt lat="46.7257" lon="5.72793">
        <ele>576.2</ele>
        <time>2015-07-12T07:04:18Z</time>
      </trkpt>
      <trkpt lat="46.72566" lon="5.72808">
        <ele>576</ele>
        <time>2015-07-12T07:04:20Z</time>
      </trkpt>
      <trkpt lat="46.72562" lon="5.72822">
        <ele>575.9</ele>
        <time>2015-07-12T07:04:22Z</time>
      </trkpt>
      <trkpt lat="46.72557" lon="5.72838">
        <ele>575.7</ele>
        <time>2015-07-12T07:04:25Z</time>
      </trkpt>
      <trkpt lat="46.72561" lon="5.72853">
        <ele>575.6</ele>
        <time>2015-07-12T07:04:29Z</time>
      </trkpt>
      <trkpt lat="46.72571" lon="5.72858">
        <ele>575.5</ele>
        <time>2015-07-12T07:04:32Z</time>
      </trkpt>
      <trkpt lat="46.72581" lon="5.72865">
        <ele>575.4</ele>
        <time>2015-07-12T07:04:35Z</time>
      </trkpt>
      <trkpt lat="46.72594" lon="5.72874">
        <ele>575.4</ele>
        <time>2015-07-12T07:04:38Z</time>
      </trkpt>
      <trkpt lat="46.72603" lon="5.7288">
        <ele>575.4</ele>
        <time>2015-07-12T07:04:40Z</time>
      </trkpt>
      <trkpt lat="46.72613" lon="5.72887">
        <ele>575.3</ele>
        <time>2015-07-12T07:04:42Z</time>
      </trkpt>
      <trkpt lat="46.72623" lon="5.72894">
        <ele>575.3</ele>
        <time>2015-07-12T07:04:44Z</time>
      </trkpt>
      <trkpt lat="46.72633" lon="5.729">
        <ele>575.2</ele>
        <time>2015-07-12T07:04:46Z</time>
      </trkpt>
      <trkpt lat="46.72645" lon="5.72907">
        <ele>575.1</ele>
        <time>2015-07-12T07:04:48Z</time>
      </trkpt>
      <trkpt lat="46.72655" lon="5.72912">
        <ele>575.1</ele>
        <time>2015-07-12T07:04:50Z</time>
      </trkpt>
      <trkpt lat="46.72666" lon="5.72917">
        <ele>575</ele>
        <time>2015-07-12T07:04:52Z</time>
      </trkpt>
      <trkpt lat="46.72679" lon="5.72924">
        <ele>574.7</ele>
        <time>2015-07-12T07:04:54Z</time>
      </trkpt>
      <trkpt lat="46.72693" lon="5.72933">
        <ele>574.5</ele>
        <time>2015-07-12T07:04:56Z</time>
      </trkpt>
      <trkpt lat="46.72708" lon="5.72941">
        <ele>574.2</ele>
        <time>2015-07-12T07:04:58Z</time>
      </trkpt>
      <trkpt lat="46.72722" lon="5.72949">
        <ele>573.9</ele>
        <time>2015-07-12T07:05:00Z</time>
      </trkpt>
      <trkpt lat="46.72738" lon="5.72957">
        <ele>573.5</ele>
        <time>2015-07-12T07:05:02Z</time>
      </trkpt>
      <trkpt lat="46.72753" lon="5.72965">
        <ele>573.1</ele>
        <time>2015-07-12T07:05:04Z</time>
      </trkpt>
      <trkpt lat="46.72767" lon="5.72971">
        <ele>572.8</ele>
        <time>2015-07-12T07:05:06Z</time>
      </trkpt>
      <trkpt lat="46.72778" lon="5.72977">
        <ele>572.5</ele>
        <time>2015-07-12T07:05:08Z</time>
      </trkpt>
      <trkpt lat="46.72788" lon="5.72984">
        <ele>572.3</ele>
        <time>2015-07-12T07:05:10Z</time>
      </trkpt>
      <trkpt lat="46.72798" lon="5.7299">
        <ele>572.4</ele>
        <time>2015-07-12T07:05:12Z</time>
      </trkpt>
      <trkpt lat="46.72807" lon="5.72996">
        <ele>572.4</ele>
        <time>2015-07-12T07:05:14Z</time>
      </trkpt>
      <trkpt lat="46.72815" lon="5.73001">
        <ele>572.4</ele>
        <time>2015-07-12T07:05:16Z</time>
      </trkpt>
      <trkpt lat="46.72824" lon="5.73006">
        <ele>572.4</ele>
        <time>2015-07-12T07:05:18Z</time>
      </trkpt>
      <trkpt lat="46.72833" lon="5.73011">
        <ele>572.5</ele>
        <time>2015-07-12T07:05:20Z</time>
      </trkpt>
      <trkpt lat="46.72842" lon="5.73015">
        <ele>572.5</ele>
        <time>2015-07-12T07:05:22Z</time>
      </trkpt>
      <trkpt lat="46.72852" lon="5.73019">
        <ele>572.5</ele>
        <time>2015-07-12T07:05:24Z</time>
      </trkpt>
      <trkpt lat="46.72861" lon="5.73023">
        <ele>572.6</ele>
        <time>2015-07-12T07:05:26Z</time>
      </trkpt>
      <trkpt lat="46.7287" lon="5.73028">
        <ele>572.7</ele>
        <time>2015-07-12T07:05:28Z</time>
      </trkpt>
      <trkpt lat="46.72878" lon="5.73033">
        <ele>572.8</ele>
        <time>2015-07-12T07:05:30Z</time>
      </trkpt>
      <trkpt lat="46.72887" lon="5.73037">
        <ele>572.9</ele>
        <time>2015-07-12T07:05:32Z</time>
      </trkpt>
      <trkpt lat="46.72896" lon="5.73042">
        <ele>573.1</ele>
        <time>2015-07-12T07:05:34Z</time>
      </trkpt>
      <trkpt lat="46.72905" lon="5.73047">
        <ele>573.3</ele>
        <time>2015-07-12T07:05:36Z</time>
      </trkpt>
      <trkpt lat="46.72914" lon="5.73053">
        <ele>573.4</ele>
        <time>2015-07-12T07:05:38Z</time>
      </trkpt>
      <trkpt lat="46.72924" lon="5.73058">
        <ele>573.6</ele>
        <time>2015-07-12T07:05:40Z</time>
      </trkpt>
      <trkpt lat="46.72934" lon="5.73064">
        <ele>573.7</ele>
        <time>2015-07-12T07:05:42Z</time>
      </trkpt>
      <trkpt lat="46.72945" lon="5.73069">
        <ele>573.8</ele>
        <time>2015-07-12T07:05:44Z</time>
      </trkpt>
      <trkpt lat="46.72957" lon="5.73074">
        <ele>573.9</ele>
        <time>2015-07-12T07:05:46Z</time>
      </trkpt>
      <trkpt lat="46.72968" lon="5.73079">
        <ele>574</ele>
        <time>2015-07-12T07:05:48Z</time>
      </trkpt>
      <trkpt lat="46.72978" lon="5.73086">
        <ele>574.1</ele>
        <time>2015-07-12T07:05:50Z</time>
      </trkpt>
      <trkpt lat="46.72988" lon="5.73091">
        <ele>574.1</ele>
        <time>2015-07-12T07:05:52Z</time>
      </trkpt>
      <trkpt lat="46.72997" lon="5.73097">
        <ele>574.2</ele>
        <time>2015-07-12T07:05:54Z</time>
      </trkpt>
      <trkpt lat="46.73006" lon="5.73104">
        <ele>574.2</ele>
        <time>2015-07-12T07:05:56Z</time>
      </trkpt>
      <trkpt lat="46.73015" lon="5.7311">
        <ele>574.2</ele>
        <time>2015-07-12T07:05:58Z</time>
      </trkpt>
      <trkpt lat="46.73025" lon="5.73116">
        <ele>574.3</ele>
        <time>2015-07-12T07:06:00Z</time>
      </trkpt>
      <trkpt lat="46.73036" lon="5.73123">
        <ele>574.4</ele>
        <time>2015-07-12T07:06:03Z</time>
      </trkpt>
      <trkpt lat="46.73046" lon="5.73132">
        <ele>574.6</ele>
        <time>2015-07-12T07:06:06Z</time>
      </trkpt>
      <trkpt lat="46.73055" lon="5.73141">
        <ele>574.8</ele>
        <time>2015-07-12T07:06:09Z</time>
      </trkpt>
      <trkpt lat="46.73067" lon="5.73149">
        <ele>575.1</ele>
        <time>2015-07-12T07:06:12Z</time>
      </trkpt>
      <trkpt lat="46.73077" lon="5.73158">
        <ele>575.3</ele>
        <time>2015-07-12T07:06:15Z</time>
      </trkpt>
      <trkpt lat="46.73085" lon="5.73171">
        <ele>575.6</ele>
        <time>2015-07-12T07:06:18Z</time>
      </trkpt>
      <trkpt lat="46.73091" lon="5.73181">
        <ele>575.7</ele>
        <time>2015-07-12T07:06:20Z</time>
      </trkpt>
      <trkpt lat="46.73096" lon="5.73194">
        <ele>575.8</ele>
        <time>2015-07-12T07:06:22Z</time>
      </trkpt>
      <trkpt lat="46.73102" lon="5.73206">
        <ele>575.9</ele>
        <time>2015-07-12T07:06:24Z</time>
      </trkpt>
      <trkpt lat="46.73109" lon="5.73218">
        <ele>576</ele>
        <time>2015-07-12T07:06:26Z</time>
      </trkpt>
      <trkpt lat="46.73117" lon="5.73229">
        <ele>576.1</ele>
        <time>2015-07-12T07:06:28Z</time>
      </trkpt>
      <trkpt lat="46.73123" lon="5.7324">
        <ele>576.2</ele>
        <time>2015-07-12T07:06:30Z</time>
      </trkpt>
      <trkpt lat="46.73132" lon="5.73251">
        <ele>576.2</ele>
        <time>2015-07-12T07:06:32Z</time>
      </trkpt>
      <trkpt lat="46.73138" lon="5.73265">
        <ele>576.3</ele>
        <time>2015-07-12T07:06:34Z</time>
      </trkpt>
      <trkpt lat="46.73143" lon="5.7328">
        <ele>576.3</ele>
        <time>2015-07-12T07:06:36Z</time>
      </trkpt>
      <trkpt lat="46.7315" lon="5.73295">
        <ele>576.4</ele>
        <time>2015-07-12T07:06:38Z</time>
      </trkpt>
      <trkpt lat="46.73157" lon="5.73311">
        <ele>576.3</ele>
        <time>2015-07-12T07:06:40Z</time>
      </trkpt>
      <trkpt lat="46.73163" lon="5.73328">
        <ele>576.2</ele>
        <time>2015-07-12T07:06:42Z</time>
      </trkpt>
      <trkpt lat="46.73166" lon="5.73345">
        <ele>576</ele>
        <time>2015-07-12T07:06:44Z</time>
      </trkpt>
      <trkpt lat="46.7317" lon="5.73362">
        <ele>575.8</ele>
        <time>2015-07-12T07:06:46Z</time>
      </trkpt>
      <trkpt lat="46.73173" lon="5.73377">
        <ele>575.7</ele>
        <time>2015-07-12T07:06:48Z</time>
      </trkpt>
      <trkpt lat="46.73176" lon="5.73391">
        <ele>575.5</ele>
        <time>2015-07-12T07:06:50Z</time>
      </trkpt>
      <trkpt lat="46.73178" lon="5.73406">
        <ele>575.4</ele>
        <time>2015-07-12T07:06:52Z</time>
      </trkpt>
      <trkpt lat="46.73179" lon="5.73421">
        <ele>575.2</ele>
        <time>2015-07-12T07:06:54Z</time>
      </trkpt>
      <trkpt lat="46.7318" lon="5.73437">
        <ele>575.1</ele>
        <time>2015-07-12T07:06:56Z</time>
      </trkpt>
      <trkpt lat="46.73181" lon="5.73452">
        <ele>575</ele>
        <time>2015-07-12T07:06:58Z</time>
      </trkpt>
      <trkpt lat="46.73182" lon="5.73466">
        <ele>574.9</ele>
        <time>2015-07-12T07:07:00Z</time>
      </trkpt>
      <trkpt lat="46.73183" lon="5.73479">
        <ele>574.8</ele>
        <time>2015-07-12T07:07:02Z</time>
      </trkpt>
      <trkpt lat="46.73185" lon="5.73493">
        <ele>574.8</ele>
        <time>2015-07-12T07:07:04Z</time>
      </trkpt>
      <trkpt lat="46.73187" lon="5.73507">
        <ele>574.7</ele>
        <time>2015-07-12T07:07:06Z</time>
      </trkpt>
      <trkpt lat="46.7319" lon="5.73519">
        <ele>574.7</ele>
        <time>2015-07-12T07:07:08Z</time>
      </trkpt>
      <trkpt lat="46.73194" lon="5.73535">
        <ele>574.7</ele>
        <time>2015-07-12T07:07:11Z</time>
      </trkpt>
      <trkpt lat="46.73195" lon="5.73553">
        <ele>574.8</ele>
        <time>2015-07-12T07:07:14Z</time>
      </trkpt>
      <trkpt lat="46.73193" lon="5.73568">
        <ele>574.9</ele>
        <time>2015-07-12T07:07:16Z</time>
      </trkpt>
      <trkpt lat="46.73191" lon="5.73583">
        <ele>574.9</ele>
        <time>2015-07-12T07:07:18Z</time>
      </trkpt>
      <trkpt lat="46.73189" lon="5.73596">
        <ele>575</ele>
        <time>2015-07-12T07:07:20Z</time>
      </trkpt>
      <trkpt lat="46.73183" lon="5.73613">
        <ele>575</ele>
        <time>2015-07-12T07:07:23Z</time>
      </trkpt>
      <trkpt lat="46.73178" lon="5.73625">
        <ele>575.1</ele>
        <time>2015-07-12T07:07:25Z</time>
      </trkpt>
      <trkpt lat="46.73174" lon="5.73637">
        <ele>575.2</ele>
        <time>2015-07-12T07:07:27Z</time>
      </trkpt>
      <trkpt lat="46.73168" lon="5.73655">
        <ele>575.3</ele>
        <time>2015-07-12T07:07:30Z</time>
      </trkpt>
      <trkpt lat="46.73164" lon="5.73669">
        <ele>575.4</ele>
        <time>2015-07-12T07:07:32Z</time>
      </trkpt>
      <trkpt lat="46.7316" lon="5.73682">
        <ele>575.5</ele>
        <time>2015-07-12T07:07:34Z</time>
      </trkpt>
      <trkpt lat="46.73156" lon="5.73695">
        <ele>575.6</ele>
        <time>2015-07-12T07:07:36Z</time>
      </trkpt>
      <trkpt lat="46.73151" lon="5.73708">
        <ele>575.7</ele>
        <time>2015-07-12T07:07:38Z</time>
      </trkpt>
      <trkpt lat="46.73147" lon="5.73722">
        <ele>575.9</ele>
        <time>2015-07-12T07:07:40Z</time>
      </trkpt>
      <trkpt lat="46.73144" lon="5.73736">
        <ele>576</ele>
        <time>2015-07-12T07:07:42Z</time>
      </trkpt>
      <trkpt lat="46.7314" lon="5.7375">
        <ele>576.1</ele>
        <time>2015-07-12T07:07:44Z</time>
      </trkpt>
      <trkpt lat="46.73137" lon="5.73765">
        <ele>576.3</ele>
        <time>2015-07-12T07:07:46Z</time>
      </trkpt>
      <trkpt lat="46.73134" lon="5.73778">
        <ele>576.4</ele>
        <time>2015-07-12T07:07:48Z</time>
      </trkpt>
      <trkpt lat="46.73131" lon="5.73793">
        <ele>576.5</ele>
        <time>2015-07-12T07:07:50Z</time>
      </trkpt>
      <trkpt lat="46.73128" lon="5.73808">
        <ele>576.6</ele>
        <time>2015-07-12T07:07:52Z</time>
      </trkpt>
      <trkpt lat="46.73126" lon="5.73824">
        <ele>576.7</ele>
        <time>2015-07-12T07:07:54Z</time>
      </trkpt>
      <trkpt lat="46.73124" lon="5.73839">
        <ele>576.8</ele>
        <time>2015-07-12T07:07:56Z</time>
      </trkpt>
      <trkpt lat="46.73121" lon="5.73855">
        <ele>576.9</ele>
        <time>2015-07-12T07:07:58Z</time>
      </trkpt>
      <trkpt lat="46.73119" lon="5.73871">
        <ele>577</ele>
        <time>2015-07-12T07:08:00Z</time>
      </trkpt>
      <trkpt lat="46.73116" lon="5.73887">
        <ele>577</ele>
        <time>2015-07-12T07:08:02Z</time>
      </trkpt>
      <trkpt lat="46.73113" lon="5.73902">
        <ele>577.1</ele>
        <time>2015-07-12T07:08:04Z</time>
      </trkpt>
      <trkpt lat="46.7311" lon="5.73915">
        <ele>577.2</ele>
        <time>2015-07-12T07:08:06Z</time>
      </trkpt>
      <trkpt lat="46.73107" lon="5.7393">
        <ele>577.3</ele>
        <time>2015-07-12T07:08:08Z</time>
      </trkpt>
      <trkpt lat="46.73103" lon="5.73943">
        <ele>577.4</ele>
        <time>2015-07-12T07:08:10Z</time>
      </trkpt>
      <trkpt lat="46.731" lon="5.73957">
        <ele>577.5</ele>
        <time>2015-07-12T07:08:12Z</time>
      </trkpt>
      <trkpt lat="46.73097" lon="5.7397">
        <ele>577.7</ele>
        <time>2015-07-12T07:08:14Z</time>
      </trkpt>
      <trkpt lat="46.73094" lon="5.73983">
        <ele>578</ele>
        <time>2015-07-12T07:08:16Z</time>
      </trkpt>
      <trkpt lat="46.7309" lon="5.74">
        <ele>578.4</ele>
        <time>2015-07-12T07:08:19Z</time>
      </trkpt>
      <trkpt lat="46.73086" lon="5.74014">
        <ele>578.8</ele>
        <time>2015-07-12T07:08:22Z</time>
      </trkpt>
      <trkpt lat="46.73083" lon="5.74027">
        <ele>579.2</ele>
        <time>2015-07-12T07:08:26Z</time>
      </trkpt>
      <trkpt lat="46.73085" lon="5.7404">
        <ele>579.9</ele>
        <time>2015-07-12T07:08:34Z</time>
      </trkpt>
      <trkpt lat="46.73095" lon="5.74035">
        <ele>581</ele>
        <time>2015-07-12T07:09:29Z</time>
      </trkpt>
      <trkpt lat="46.73088" lon="5.74045">
        <ele>581.1</ele>
        <time>2015-07-12T07:14:02Z</time>
      </trkpt>
      <trkpt lat="46.73079" lon="5.74052">
        <ele>581.1</ele>
        <time>2015-07-12T07:14:07Z</time>
      </trkpt>
      <trkpt lat="46.73074" lon="5.74063">
        <ele>581.2</ele>
        <time>2015-07-12T07:14:11Z</time>
      </trkpt>
      <trkpt lat="46.73068" lon="5.74076">
        <ele>581.4</ele>
        <time>2015-07-12T07:14:16Z</time>
      </trkpt>
      <trkpt lat="46.73063" lon="5.74089">
        <ele>581.6</ele>
        <time>2015-07-12T07:14:20Z</time>
      </trkpt>
      <trkpt lat="46.73058" lon="5.74102">
        <ele>581.9</ele>
        <time>2015-07-12T07:14:24Z</time>
      </trkpt>
      <trkpt lat="46.73051" lon="5.74114">
        <ele>582.4</ele>
        <time>2015-07-12T07:14:28Z</time>
      </trkpt>
      <trkpt lat="46.73042" lon="5.74124">
        <ele>582.9</ele>
        <time>2015-07-12T07:14:32Z</time>
      </trkpt>
      <trkpt lat="46.73034" lon="5.74132">
        <ele>583.3</ele>
        <time>2015-07-12T07:14:36Z</time>
      </trkpt>
      <trkpt lat="46.73022" lon="5.7413">
        <ele>583.8</ele>
        <time>2015-07-12T07:14:40Z</time>
      </trkpt>
      <trkpt lat="46.73012" lon="5.74128">
        <ele>584.1</ele>
        <time>2015-07-12T07:14:43Z</time>
      </trkpt>
      <trkpt lat="46.73002" lon="5.74128">
        <ele>584.3</ele>
        <time>2015-07-12T07:14:46Z</time>
      </trkpt>
      <trkpt lat="46.7299" lon="5.74125">
        <ele>584.5</ele>
        <time>2015-07-12T07:14:49Z</time>
      </trkpt>
      <trkpt lat="46.72979" lon="5.7412">
        <ele>584.7</ele>
        <time>2015-07-12T07:14:52Z</time>
      </trkpt>
      <trkpt lat="46.72968" lon="5.74122">
        <ele>584.8</ele>
        <time>2015-07-12T07:14:55Z</time>
      </trkpt>
      <trkpt lat="46.7296" lon="5.7413">
        <ele>584.9</ele>
        <time>2015-07-12T07:14:58Z</time>
      </trkpt>
      <trkpt lat="46.72952" lon="5.7414">
        <ele>585.1</ele>
        <time>2015-07-12T07:15:01Z</time>
      </trkpt>
      <trkpt lat="46.72945" lon="5.74148">
        <ele>585.3</ele>
        <time>2015-07-12T07:15:04Z</time>
      </trkpt>
      <trkpt lat="46.72937" lon="5.74155">
        <ele>585.6</ele>
        <time>2015-07-12T07:15:07Z</time>
      </trkpt>
      <trkpt lat="46.72928" lon="5.74162">
        <ele>586</ele>
        <time>2015-07-12T07:15:11Z</time>
      </trkpt>
      <trkpt lat="46.7292" lon="5.7417">
        <ele>586.5</ele>
        <time>2015-07-12T07:15:16Z</time>
      </trkpt>
      <trkpt lat="46.72913" lon="5.74179">
        <ele>587.2</ele>
        <time>2015-07-12T07:15:24Z</time>
      </trkpt>
      <trkpt lat="46.72921" lon="5.74169">
        <ele>587.6</ele>
        <time>2015-07-12T07:15:39Z</time>
      </trkpt>
      <trkpt lat="46.72929" lon="5.74161">
        <ele>587.6</ele>
        <time>2015-07-12T07:15:43Z</time>
      </trkpt>
      <trkpt lat="46.7292" lon="5.74169">
        <ele>587.6</ele>
        <time>2015-07-12T07:15:57Z</time>
      </trkpt>
      <trkpt lat="46.72912" lon="5.7418">
        <ele>587.9</ele>
        <time>2015-07-12T07:16:01Z</time>
      </trkpt>
      <trkpt lat="46.72905" lon="5.7419">
        <ele>588.2</ele>
        <time>2015-07-12T07:16:05Z</time>
      </trkpt>
      <trkpt lat="46.72898" lon="5.74203">
        <ele>588.5</ele>
        <time>2015-07-12T07:16:09Z</time>
      </trkpt>
      <trkpt lat="46.72891" lon="5.74214">
        <ele>588.7</ele>
        <time>2015-07-12T07:16:12Z</time>
      </trkpt>
      <trkpt lat="46.72885" lon="5.74227">
        <ele>589.2</ele>
        <time>2015-07-12T07:16:16Z</time>
      </trkpt>
      <trkpt lat="46.72878" lon="5.74238">
        <ele>589.6</ele>
        <time>2015-07-12T07:16:20Z</time>
      </trkpt>
      <trkpt lat="46.7287" lon="5.7425">
        <ele>589.9</ele>
        <time>2015-07-12T07:16:24Z</time>
      </trkpt>
      <trkpt lat="46.72865" lon="5.74261">
        <ele>590.2</ele>
        <time>2015-07-12T07:16:27Z</time>
      </trkpt>
      <trkpt lat="46.72861" lon="5.74273">
        <ele>590.4</ele>
        <time>2015-07-12T07:16:30Z</time>
      </trkpt>
      <trkpt lat="46.72856" lon="5.74286">
        <ele>590.6</ele>
        <time>2015-07-12T07:16:33Z</time>
      </trkpt>
      <trkpt lat="46.72849" lon="5.74298">
        <ele>590.8</ele>
        <time>2015-07-12T07:16:36Z</time>
      </trkpt>
      <trkpt lat="46.72841" lon="5.74312">
        <ele>591</ele>
        <time>2015-07-12T07:16:39Z</time>
      </trkpt>
      <trkpt lat="46.72834" lon="5.74326">
        <ele>591.2</ele>
        <time>2015-07-12T07:16:42Z</time>
      </trkpt>
      <trkpt lat="46.72826" lon="5.7434">
        <ele>591.4</ele>
        <time>2015-07-12T07:16:45Z</time>
      </trkpt>
      <trkpt lat="46.72819" lon="5.74352">
        <ele>591.6</ele>
        <time>2015-07-12T07:16:48Z</time>
      </trkpt>
      <trkpt lat="46.72812" lon="5.74364">
        <ele>591.8</ele>
        <time>2015-07-12T07:16:51Z</time>
      </trkpt>
      <trkpt lat="46.72807" lon="5.74377">
        <ele>592.1</ele>
        <time>2015-07-12T07:16:54Z</time>
      </trkpt>
      <trkpt lat="46.72801" lon="5.7439">
        <ele>592.3</ele>
        <time>2015-07-12T07:16:57Z</time>
      </trkpt>
      <trkpt lat="46.72797" lon="5.74402">
        <ele>592.6</ele>
        <time>2015-07-12T07:17:00Z</time>
      </trkpt>
      <trkpt lat="46.72791" lon="5.74418">
        <ele>592.9</ele>
        <time>2015-07-12T07:17:04Z</time>
      </trkpt>
      <trkpt lat="46.72789" lon="5.74431">
        <ele>593.1</ele>
        <time>2015-07-12T07:17:07Z</time>
      </trkpt>
      <trkpt lat="46.72788" lon="5.74445">
        <ele>593.4</ele>
        <time>2015-07-12T07:17:10Z</time>
      </trkpt>
      <trkpt lat="46.72792" lon="5.74459">
        <ele>593.6</ele>
        <time>2015-07-12T07:17:13Z</time>
      </trkpt>
      <trkpt lat="46.72801" lon="5.74467">
        <ele>593.8</ele>
        <time>2015-07-12T07:17:16Z</time>
      </trkpt>
      <trkpt lat="46.72812" lon="5.74473">
        <ele>593.9</ele>
        <time>2015-07-12T07:17:19Z</time>
      </trkpt>
      <trkpt lat="46.72822" lon="5.74476">
        <ele>594</ele>
        <time>2015-07-12T07:17:22Z</time>
      </trkpt>
      <trkpt lat="46.72819" lon="5.74489">
        <ele>594.2</ele>
        <time>2015-07-12T07:17:28Z</time>
      </trkpt>
      <trkpt lat="46.72815" lon="5.74504">
        <ele>594.3</ele>
        <time>2015-07-12T07:17:32Z</time>
      </trkpt>
      <trkpt lat="46.72813" lon="5.74519">
        <ele>594.4</ele>
        <time>2015-07-12T07:17:36Z</time>
      </trkpt>
      <trkpt lat="46.72812" lon="5.74535">
        <ele>594.7</ele>
        <time>2015-07-12T07:17:40Z</time>
      </trkpt>
      <trkpt lat="46.7281" lon="5.74551">
        <ele>594.9</ele>
        <time>2015-07-12T07:17:44Z</time>
      </trkpt>
      <trkpt lat="46.72808" lon="5.74567">
        <ele>595.2</ele>
        <time>2015-07-12T07:17:48Z</time>
      </trkpt>
      <trkpt lat="46.72807" lon="5.74583">
        <ele>595.6</ele>
        <time>2015-07-12T07:17:52Z</time>
      </trkpt>
      <trkpt lat="46.72805" lon="5.746">
        <ele>595.9</ele>
        <time>2015-07-12T07:17:56Z</time>
      </trkpt>
      <trkpt lat="46.72803" lon="5.74616">
        <ele>596.3</ele>
        <time>2015-07-12T07:18:00Z</time>
      </trkpt>
      <trkpt lat="46.7281" lon="5.74625">
        <ele>596.6</ele>
        <time>2015-07-12T07:18:04Z</time>
      </trkpt>
      <trkpt lat="46.72819" lon="5.74633">
        <ele>596.9</ele>
        <time>2015-07-12T07:18:07Z</time>
      </trkpt>
      <trkpt lat="46.72827" lon="5.74647">
        <ele>597</ele>
        <time>2015-07-12T07:18:10Z</time>
      </trkpt>
      <trkpt lat="46.72833" lon="5.74665">
        <ele>597.2</ele>
        <time>2015-07-12T07:18:13Z</time>
      </trkpt>
      <trkpt lat="46.72838" lon="5.7468">
        <ele>597.3</ele>
        <time>2015-07-12T07:18:16Z</time>
      </trkpt>
      <trkpt lat="46.72845" lon="5.74693">
        <ele>597.5</ele>
        <time>2015-07-12T07:18:20Z</time>
      </trkpt>
      <trkpt lat="46.72855" lon="5.74688">
        <ele>597.5</ele>
        <time>2015-07-12T07:18:23Z</time>
      </trkpt>
      <trkpt lat="46.72866" lon="5.74679">
        <ele>597.6</ele>
        <time>2015-07-12T07:18:26Z</time>
      </trkpt>
      <trkpt lat="46.72874" lon="5.74665">
        <ele>597.7</ele>
        <time>2015-07-12T07:18:29Z</time>
      </trkpt>
      <trkpt lat="46.72882" lon="5.74651">
        <ele>597.7</ele>
        <time>2015-07-12T07:18:32Z</time>
      </trkpt>
      <trkpt lat="46.72887" lon="5.74637">
        <ele>597.7</ele>
        <time>2015-07-12T07:18:35Z</time>
      </trkpt>
      <trkpt lat="46.72892" lon="5.74625">
        <ele>597.8</ele>
        <time>2015-07-12T07:18:38Z</time>
      </trkpt>
      <trkpt lat="46.72895" lon="5.74612">
        <ele>597.8</ele>
        <time>2015-07-12T07:18:42Z</time>
      </trkpt>
      <trkpt lat="46.72906" lon="5.74609">
        <ele>597.7</ele>
        <time>2015-07-12T07:19:26Z</time>
      </trkpt>
      <trkpt lat="46.72915" lon="5.74604">
        <ele>597.7</ele>
        <time>2015-07-12T07:19:29Z</time>
      </trkpt>
      <trkpt lat="46.72928" lon="5.74602">
        <ele>597.7</ele>
        <time>2015-07-12T07:19:32Z</time>
      </trkpt>
      <trkpt lat="46.72937" lon="5.74599">
        <ele>597.7</ele>
        <time>2015-07-12T07:19:34Z</time>
      </trkpt>
      <trkpt lat="46.72949" lon="5.74601">
        <ele>597.6</ele>
        <time>2015-07-12T07:19:37Z</time>
      </trkpt>
      <trkpt lat="46.72957" lon="5.74614">
        <ele>597.3</ele>
        <time>2015-07-12T07:19:40Z</time>
      </trkpt>
      <trkpt lat="46.72959" lon="5.74632">
        <ele>597</ele>
        <time>2015-07-12T07:19:43Z</time>
      </trkpt>
      <trkpt lat="46.72964" lon="5.74648">
        <ele>596.7</ele>
        <time>2015-07-12T07:19:46Z</time>
      </trkpt>
      <trkpt lat="46.72969" lon="5.74666">
        <ele>596.6</ele>
        <time>2015-07-12T07:19:49Z</time>
      </trkpt>
      <trkpt lat="46.72972" lon="5.74679">
        <ele>596.6</ele>
        <time>2015-07-12T07:19:51Z</time>
      </trkpt>
      <trkpt lat="46.72974" lon="5.74694">
        <ele>596.5</ele>
        <time>2015-07-12T07:19:53Z</time>
      </trkpt>
      <trkpt lat="46.72978" lon="5.74708">
        <ele>596.4</ele>
        <time>2015-07-12T07:19:55Z</time>
      </trkpt>
      <trkpt lat="46.72983" lon="5.74723">
        <ele>596.4</ele>
        <time>2015-07-12T07:19:57Z</time>
      </trkpt>
      <trkpt lat="46.72988" lon="5.74738">
        <ele>596.4</ele>
        <time>2015-07-12T07:19:59Z</time>
      </trkpt>
      <trkpt lat="46.72993" lon="5.74752">
        <ele>596.4</ele>
        <time>2015-07-12T07:20:01Z</time>
      </trkpt>
      <trkpt lat="46.72998" lon="5.74767">
        <ele>596.3</ele>
        <time>2015-07-12T07:20:03Z</time>
      </trkpt>
      <trkpt lat="46.73003" lon="5.74782">
        <ele>596.3</ele>
        <time>2015-07-12T07:20:05Z</time>
      </trkpt>
      <trkpt lat="46.73007" lon="5.74798">
        <ele>596.3</ele>
        <time>2015-07-12T07:20:07Z</time>
      </trkpt>
      <trkpt lat="46.73013" lon="5.74813">
        <ele>596.3</ele>
        <time>2015-07-12T07:20:09Z</time>
      </trkpt>
      <trkpt lat="46.73019" lon="5.74825">
        <ele>596.3</ele>
        <time>2015-07-12T07:20:11Z</time>
      </trkpt>
      <trkpt lat="46.73024" lon="5.74836">
        <ele>596.3</ele>
        <time>2015-07-12T07:20:13Z</time>
      </trkpt>
      <trkpt lat="46.73031" lon="5.74853">
        <ele>596.2</ele>
        <time>2015-07-12T07:20:16Z</time>
      </trkpt>
      <trkpt lat="46.73036" lon="5.74871">
        <ele>596.3</ele>
        <time>2015-07-12T07:20:19Z</time>
      </trkpt>
      <trkpt lat="46.73038" lon="5.74884">
        <ele>596.3</ele>
        <time>2015-07-12T07:20:21Z</time>
      </trkpt>
      <trkpt lat="46.7304" lon="5.74898">
        <ele>596.3</ele>
        <time>2015-07-12T07:20:23Z</time>
      </trkpt>
      <trkpt lat="46.73043" lon="5.74911">
        <ele>596.3</ele>
        <time>2015-07-12T07:20:25Z</time>
      </trkpt>
      <trkpt lat="46.73049" lon="5.74928">
        <ele>596.6</ele>
        <time>2015-07-12T07:20:28Z</time>
      </trkpt>
      <trkpt lat="46.73054" lon="5.74943">
        <ele>596.8</ele>
        <time>2015-07-12T07:20:31Z</time>
      </trkpt>
      <trkpt lat="46.7306" lon="5.74958">
        <ele>597.1</ele>
        <time>2015-07-12T07:20:34Z</time>
      </trkpt>
      <trkpt lat="46.73067" lon="5.74967">
        <ele>597.2</ele>
        <time>2015-07-12T07:20:36Z</time>
      </trkpt>
      <trkpt lat="46.73075" lon="5.74974">
        <ele>597.3</ele>
        <time>2015-07-12T07:20:38Z</time>
      </trkpt>
      <trkpt lat="46.73083" lon="5.74981">
        <ele>597.4</ele>
        <time>2015-07-12T07:20:40Z</time>
      </trkpt>
      <trkpt lat="46.73093" lon="5.74989">
        <ele>597.5</ele>
        <time>2015-07-12T07:20:42Z</time>
      </trkpt>
      <trkpt lat="46.73101" lon="5.74998">
        <ele>597.6</ele>
        <time>2015-07-12T07:20:44Z</time>
      </trkpt>
      <trkpt lat="46.73109" lon="5.75005">
        <ele>597.8</ele>
        <time>2015-07-12T07:20:46Z</time>
      </trkpt>
      <trkpt lat="46.73117" lon="5.75014">
        <ele>598</ele>
        <time>2015-07-12T07:20:48Z</time>
      </trkpt>
      <trkpt lat="46.73123" lon="5.75025">
        <ele>598.1</ele>
        <time>2015-07-12T07:20:50Z</time>
      </trkpt>
      <trkpt lat="46.73128" lon="5.75038">
        <ele>598.2</ele>
        <time>2015-07-12T07:20:52Z</time>
      </trkpt>
      <trkpt lat="46.73133" lon="5.7505">
        <ele>598.3</ele>
        <time>2015-07-12T07:20:54Z</time>
      </trkpt>
      <trkpt lat="46.73138" lon="5.75067">
        <ele>598.4</ele>
        <time>2015-07-12T07:20:57Z</time>
      </trkpt>
      <trkpt lat="46.73142" lon="5.7508">
        <ele>598.5</ele>
        <time>2015-07-12T07:20:59Z</time>
      </trkpt>
      <trkpt lat="46.73147" lon="5.75092">
        <ele>598.6</ele>
        <time>2015-07-12T07:21:01Z</time>
      </trkpt>
      <trkpt lat="46.73152" lon="5.75104">
        <ele>598.7</ele>
        <time>2015-07-12T07:21:03Z</time>
      </trkpt>
      <trkpt lat="46.73157" lon="5.75116">
        <ele>598.8</ele>
        <time>2015-07-12T07:21:05Z</time>
      </trkpt>
      <trkpt lat="46.73165" lon="5.75131">
        <ele>598.9</ele>
        <time>2015-07-12T07:21:08Z</time>
      </trkpt>
      <trkpt lat="46.73173" lon="5.75141">
        <ele>599</ele>
        <time>2015-07-12T07:21:10Z</time>
      </trkpt>
      <trkpt lat="46.7318" lon="5.75151">
        <ele>599</ele>
        <time>2015-07-12T07:21:12Z</time>
      </trkpt>
      <trkpt lat="46.73189" lon="5.75164">
        <ele>599.1</ele>
        <time>2015-07-12T07:21:15Z</time>
      </trkpt>
      <trkpt lat="46.73196" lon="5.75174">
        <ele>599.3</ele>
        <time>2015-07-12T07:21:18Z</time>
      </trkpt>
      <trkpt lat="46.73203" lon="5.75185">
        <ele>599.6</ele>
        <time>2015-07-12T07:21:21Z</time>
      </trkpt>
      <trkpt lat="46.7321" lon="5.75195">
        <ele>600</ele>
        <time>2015-07-12T07:21:24Z</time>
      </trkpt>
      <trkpt lat="46.73218" lon="5.75207">
        <ele>600.4</ele>
        <time>2015-07-12T07:21:27Z</time>
      </trkpt>
      <trkpt lat="46.73225" lon="5.7522">
        <ele>600.7</ele>
        <time>2015-07-12T07:21:30Z</time>
      </trkpt>
      <trkpt lat="46.7323" lon="5.75235">
        <ele>601</ele>
        <time>2015-07-12T07:21:33Z</time>
      </trkpt>
      <trkpt lat="46.73234" lon="5.75248">
        <ele>601.2</ele>
        <time>2015-07-12T07:21:36Z</time>
      </trkpt>
      <trkpt lat="46.73241" lon="5.75261">
        <ele>601.4</ele>
        <time>2015-07-12T07:21:39Z</time>
      </trkpt>
      <trkpt lat="46.73247" lon="5.75274">
        <ele>601.6</ele>
        <time>2015-07-12T07:21:42Z</time>
      </trkpt>
      <trkpt lat="46.73255" lon="5.75285">
        <ele>601.7</ele>
        <time>2015-07-12T07:21:45Z</time>
      </trkpt>
      <trkpt lat="46.73264" lon="5.75289">
        <ele>601.8</ele>
        <time>2015-07-12T07:21:47Z</time>
      </trkpt>
      <trkpt lat="46.73274" lon="5.75294">
        <ele>601.9</ele>
        <time>2015-07-12T07:21:49Z</time>
      </trkpt>
      <trkpt lat="46.73282" lon="5.75301">
        <ele>602</ele>
        <time>2015-07-12T07:21:51Z</time>
      </trkpt>
      <trkpt lat="46.73294" lon="5.75309">
        <ele>602.2</ele>
        <time>2015-07-12T07:21:54Z</time>
      </trkpt>
      <trkpt lat="46.73304" lon="5.75319">
        <ele>602.4</ele>
        <time>2015-07-12T07:21:57Z</time>
      </trkpt>
      <trkpt lat="46.73316" lon="5.7533">
        <ele>602.6</ele>
        <time>2015-07-12T07:22:00Z</time>
      </trkpt>
      <trkpt lat="46.73323" lon="5.75339">
        <ele>602.7</ele>
        <time>2015-07-12T07:22:02Z</time>
      </trkpt>
      <trkpt lat="46.7333" lon="5.75348">
        <ele>602.8</ele>
        <time>2015-07-12T07:22:04Z</time>
      </trkpt>
      <trkpt lat="46.73338" lon="5.75358">
        <ele>602.9</ele>
        <time>2015-07-12T07:22:06Z</time>
      </trkpt>
      <trkpt lat="46.73346" lon="5.75366">
        <ele>603</ele>
        <time>2015-07-12T07:22:08Z</time>
      </trkpt>
      <trkpt lat="46.73355" lon="5.75373">
        <ele>603</ele>
        <time>2015-07-12T07:22:10Z</time>
      </trkpt>
      <trkpt lat="46.73366" lon="5.75381">
        <ele>603</ele>
        <time>2015-07-12T07:22:12Z</time>
      </trkpt>
      <trkpt lat="46.73375" lon="5.75388">
        <ele>603</ele>
        <time>2015-07-12T07:22:14Z</time>
      </trkpt>
      <trkpt lat="46.73383" lon="5.75395">
        <ele>603</ele>
        <time>2015-07-12T07:22:16Z</time>
      </trkpt>
      <trkpt lat="46.73392" lon="5.75402">
        <ele>603</ele>
        <time>2015-07-12T07:22:18Z</time>
      </trkpt>
      <trkpt lat="46.734" lon="5.7541">
        <ele>603</ele>
        <time>2015-07-12T07:22:20Z</time>
      </trkpt>
      <trkpt lat="46.73408" lon="5.75419">
        <ele>603</ele>
        <time>2015-07-12T07:22:22Z</time>
      </trkpt>
      <trkpt lat="46.73416" lon="5.75427">
        <ele>603</ele>
        <time>2015-07-12T07:22:24Z</time>
      </trkpt>
      <trkpt lat="46.73424" lon="5.75437">
        <ele>603</ele>
        <time>2015-07-12T07:22:26Z</time>
      </trkpt>
      <trkpt lat="46.73432" lon="5.75448">
        <ele>602.9</ele>
        <time>2015-07-12T07:22:28Z</time>
      </trkpt>
      <trkpt lat="46.7344" lon="5.75458">
        <ele>602.9</ele>
        <time>2015-07-12T07:22:30Z</time>
      </trkpt>
      <trkpt lat="46.73446" lon="5.75468">
        <ele>602.8</ele>
        <time>2015-07-12T07:22:32Z</time>
      </trkpt>
      <trkpt lat="46.73448" lon="5.75482">
        <ele>602.8</ele>
        <time>2015-07-12T07:22:35Z</time>
      </trkpt>
      <trkpt lat="46.73451" lon="5.75496">
        <ele>603.1</ele>
        <time>2015-07-12T07:22:39Z</time>
      </trkpt>
      <trkpt lat="46.73455" lon="5.7551">
        <ele>603.3</ele>
        <time>2015-07-12T07:22:43Z</time>
      </trkpt>
      <trkpt lat="46.7346" lon="5.75525">
        <ele>603.7</ele>
        <time>2015-07-12T07:22:47Z</time>
      </trkpt>
      <trkpt lat="46.73464" lon="5.75538">
        <ele>604</ele>
        <time>2015-07-12T07:22:50Z</time>
      </trkpt>
      <trkpt lat="46.7347" lon="5.7555">
        <ele>604.3</ele>
        <time>2015-07-12T07:22:54Z</time>
      </trkpt>
      <trkpt lat="46.73477" lon="5.75562">
        <ele>604.8</ele>
        <time>2015-07-12T07:22:58Z</time>
      </trkpt>
      <trkpt lat="46.73483" lon="5.75577">
        <ele>605.5</ele>
        <time>2015-07-12T07:23:02Z</time>
      </trkpt>
      <trkpt lat="46.73489" lon="5.75591">
        <ele>605.9</ele>
        <time>2015-07-12T07:23:05Z</time>
      </trkpt>
      <trkpt lat="46.73497" lon="5.75602">
        <ele>606.2</ele>
        <time>2015-07-12T07:23:08Z</time>
      </trkpt>
      <trkpt lat="46.73505" lon="5.75612">
        <ele>606.5</ele>
        <time>2015-07-12T07:23:11Z</time>
      </trkpt>
      <trkpt lat="46.73511" lon="5.75623">
        <ele>606.7</ele>
        <time>2015-07-12T07:23:14Z</time>
      </trkpt>
      <trkpt lat="46.73518" lon="5.75633">
        <ele>606.9</ele>
        <time>2015-07-12T07:23:17Z</time>
      </trkpt>
      <trkpt lat="46.73523" lon="5.75644">
        <ele>607.1</ele>
        <time>2015-07-12T07:23:20Z</time>
      </trkpt>
      <trkpt lat="46.73533" lon="5.75655">
        <ele>607.6</ele>
        <time>2015-07-12T07:23:24Z</time>
      </trkpt>
      <trkpt lat="46.73541" lon="5.75664">
        <ele>607.9</ele>
        <time>2015-07-12T07:23:27Z</time>
      </trkpt>
      <trkpt lat="46.7355" lon="5.7567">
        <ele>608.3</ele>
        <time>2015-07-12T07:23:30Z</time>
      </trkpt>
      <trkpt lat="46.73561" lon="5.7568">
        <ele>608.9</ele>
        <time>2015-07-12T07:23:33Z</time>
      </trkpt>
      <trkpt lat="46.7357" lon="5.75687">
        <ele>609.1</ele>
        <time>2015-07-12T07:23:35Z</time>
      </trkpt>
      <trkpt lat="46.7358" lon="5.75696">
        <ele>609.5</ele>
        <time>2015-07-12T07:23:38Z</time>
      </trkpt>
      <trkpt lat="46.73589" lon="5.75706">
        <ele>609.8</ele>
        <time>2015-07-12T07:23:41Z</time>
      </trkpt>
      <trkpt lat="46.73597" lon="5.75715">
        <ele>610</ele>
        <time>2015-07-12T07:23:44Z</time>
      </trkpt>
      <trkpt lat="46.73606" lon="5.75726">
        <ele>610.1</ele>
        <time>2015-07-12T07:23:47Z</time>
      </trkpt>
      <trkpt lat="46.73613" lon="5.75735">
        <ele>610.1</ele>
        <time>2015-07-12T07:23:50Z</time>
      </trkpt>
      <trkpt lat="46.73621" lon="5.75746">
        <ele>610.3</ele>
        <time>2015-07-12T07:23:53Z</time>
      </trkpt>
      <trkpt lat="46.73628" lon="5.7576">
        <ele>610.4</ele>
        <time>2015-07-12T07:23:56Z</time>
      </trkpt>
      <trkpt lat="46.73636" lon="5.75774">
        <ele>610.5</ele>
        <time>2015-07-12T07:23:59Z</time>
      </trkpt>
      <trkpt lat="46.73645" lon="5.75785">
        <ele>610.6</ele>
        <time>2015-07-12T07:24:02Z</time>
      </trkpt>
      <trkpt lat="46.73655" lon="5.75795">
        <ele>610.6</ele>
        <time>2015-07-12T07:24:05Z</time>
      </trkpt>
      <trkpt lat="46.73667" lon="5.75807">
        <ele>610.7</ele>
        <time>2015-07-12T07:24:08Z</time>
      </trkpt>
      <trkpt lat="46.73676" lon="5.7582">
        <ele>610.7</ele>
        <time>2015-07-12T07:24:11Z</time>
      </trkpt>
      <trkpt lat="46.73686" lon="5.75832">
        <ele>610.6</ele>
        <time>2015-07-12T07:24:14Z</time>
      </trkpt>
      <trkpt lat="46.73691" lon="5.75844">
        <ele>610.5</ele>
        <time>2015-07-12T07:24:18Z</time>
      </trkpt>
      <trkpt lat="46.73694" lon="5.75857">
        <ele>610.6</ele>
        <time>2015-07-12T07:24:23Z</time>
      </trkpt>
      <trkpt lat="46.73698" lon="5.75869">
        <ele>610.9</ele>
        <time>2015-07-12T07:24:27Z</time>
      </trkpt>
      <trkpt lat="46.73704" lon="5.75881">
        <ele>611.2</ele>
        <time>2015-07-12T07:24:32Z</time>
      </trkpt>
      <trkpt lat="46.73711" lon="5.75896">
        <ele>611.7</ele>
        <time>2015-07-12T07:24:36Z</time>
      </trkpt>
      <trkpt lat="46.73718" lon="5.75907">
        <ele>612.2</ele>
        <time>2015-07-12T07:24:39Z</time>
      </trkpt>
      <trkpt lat="46.73727" lon="5.75919">
        <ele>612.7</ele>
        <time>2015-07-12T07:24:43Z</time>
      </trkpt>
      <trkpt lat="46.73735" lon="5.75928">
        <ele>612.7</ele>
        <time>2015-07-12T07:24:46Z</time>
      </trkpt>
      <trkpt lat="46.73742" lon="5.75939">
        <ele>612.8</ele>
        <time>2015-07-12T07:24:49Z</time>
      </trkpt>
      <trkpt lat="46.7375" lon="5.75951">
        <ele>612.9</ele>
        <time>2015-07-12T07:24:53Z</time>
      </trkpt>
      <trkpt lat="46.73754" lon="5.75963">
        <ele>613</ele>
        <time>2015-07-12T07:24:57Z</time>
      </trkpt>
      <trkpt lat="46.73761" lon="5.75975">
        <ele>613.6</ele>
        <time>2015-07-12T07:25:02Z</time>
      </trkpt>
      <trkpt lat="46.73769" lon="5.75985">
        <ele>613.8</ele>
        <time>2015-07-12T07:25:05Z</time>
      </trkpt>
      <trkpt lat="46.73778" lon="5.75999">
        <ele>614</ele>
        <time>2015-07-12T07:25:08Z</time>
      </trkpt>
      <trkpt lat="46.73782" lon="5.76011">
        <ele>614.2</ele>
        <time>2015-07-12T07:25:11Z</time>
      </trkpt>
      <trkpt lat="46.73787" lon="5.76025">
        <ele>614.4</ele>
        <time>2015-07-12T07:25:15Z</time>
      </trkpt>
      <trkpt lat="46.73791" lon="5.76038">
        <ele>614.5</ele>
        <time>2015-07-12T07:25:18Z</time>
      </trkpt>
      <trkpt lat="46.73795" lon="5.76051">
        <ele>614.6</ele>
        <time>2015-07-12T07:25:21Z</time>
      </trkpt>
      <trkpt lat="46.738" lon="5.76067">
        <ele>614.7</ele>
        <time>2015-07-12T07:25:25Z</time>
      </trkpt>
      <trkpt lat="46.73805" lon="5.7608">
        <ele>614.6</ele>
        <time>2015-07-12T07:25:29Z</time>
      </trkpt>
      <trkpt lat="46.73809" lon="5.76095">
        <ele>614.7</ele>
        <time>2015-07-12T07:25:33Z</time>
      </trkpt>
      <trkpt lat="46.73812" lon="5.76109">
        <ele>615</ele>
        <time>2015-07-12T07:25:37Z</time>
      </trkpt>
      <trkpt lat="46.73812" lon="5.76124">
        <ele>615.3</ele>
        <time>2015-07-12T07:25:41Z</time>
      </trkpt>
      <trkpt lat="46.73813" lon="5.76139">
        <ele>615.8</ele>
        <time>2015-07-12T07:25:45Z</time>
      </trkpt>
      <trkpt lat="46.73812" lon="5.76153">
        <ele>616.4</ele>
        <time>2015-07-12T07:25:50Z</time>
      </trkpt>
      <trkpt lat="46.73813" lon="5.76168">
        <ele>617</ele>
        <time>2015-07-12T07:25:56Z</time>
      </trkpt>
      <trkpt lat="46.73813" lon="5.76182">
        <ele>617.5</ele>
        <time>2015-07-12T07:26:01Z</time>
      </trkpt>
      <trkpt lat="46.73811" lon="5.76198">
        <ele>618</ele>
        <time>2015-07-12T07:26:06Z</time>
      </trkpt>
      <trkpt lat="46.73815" lon="5.76213">
        <ele>618.1</ele>
        <time>2015-07-12T07:26:10Z</time>
      </trkpt>
      <trkpt lat="46.73819" lon="5.76225">
        <ele>618.3</ele>
        <time>2015-07-12T07:26:13Z</time>
      </trkpt>
      <trkpt lat="46.73821" lon="5.7624">
        <ele>618.5</ele>
        <time>2015-07-12T07:26:17Z</time>
      </trkpt>
      <trkpt lat="46.73821" lon="5.76254">
        <ele>618.7</ele>
        <time>2015-07-12T07:26:21Z</time>
      </trkpt>
      <trkpt lat="46.73822" lon="5.76271">
        <ele>618.7</ele>
        <time>2015-07-12T07:26:26Z</time>
      </trkpt>
      <trkpt lat="46.73823" lon="5.76286">
        <ele>618.8</ele>
        <time>2015-07-12T07:26:31Z</time>
      </trkpt>
      <trkpt lat="46.73829" lon="5.763">
        <ele>619</ele>
        <time>2015-07-12T07:26:35Z</time>
      </trkpt>
      <trkpt lat="46.73834" lon="5.76314">
        <ele>619.2</ele>
        <time>2015-07-12T07:26:39Z</time>
      </trkpt>
      <trkpt lat="46.73839" lon="5.76327">
        <ele>619.5</ele>
        <time>2015-07-12T07:26:42Z</time>
      </trkpt>
      <trkpt lat="46.73844" lon="5.76341">
        <ele>619.8</ele>
        <time>2015-07-12T07:26:46Z</time>
      </trkpt>
      <trkpt lat="46.73848" lon="5.76355">
        <ele>619.9</ele>
        <time>2015-07-12T07:26:51Z</time>
      </trkpt>
      <trkpt lat="46.73852" lon="5.76368">
        <ele>620.1</ele>
        <time>2015-07-12T07:26:56Z</time>
      </trkpt>
      <trkpt lat="46.73856" lon="5.76381">
        <ele>620.7</ele>
        <time>2015-07-12T07:27:01Z</time>
      </trkpt>
      <trkpt lat="46.73862" lon="5.76391">
        <ele>620.9</ele>
        <time>2015-07-12T07:27:05Z</time>
      </trkpt>
      <trkpt lat="46.73866" lon="5.76405">
        <ele>621.2</ele>
        <time>2015-07-12T07:27:11Z</time>
      </trkpt>
      <trkpt lat="46.7387" lon="5.76417">
        <ele>621.3</ele>
        <time>2015-07-12T07:27:15Z</time>
      </trkpt>
      <trkpt lat="46.73878" lon="5.76431">
        <ele>621.4</ele>
        <time>2015-07-12T07:27:19Z</time>
      </trkpt>
      <trkpt lat="46.73885" lon="5.7644">
        <ele>621.5</ele>
        <time>2015-07-12T07:27:22Z</time>
      </trkpt>
      <trkpt lat="46.73895" lon="5.76446">
        <ele>621.3</ele>
        <time>2015-07-12T07:27:27Z</time>
      </trkpt>
      <trkpt lat="46.73903" lon="5.76453">
        <ele>621.5</ele>
        <time>2015-07-12T07:27:34Z</time>
      </trkpt>
      <trkpt lat="46.7391" lon="5.76465">
        <ele>621.7</ele>
        <time>2015-07-12T07:27:40Z</time>
      </trkpt>
      <trkpt lat="46.73917" lon="5.76476">
        <ele>621.9</ele>
        <time>2015-07-12T07:27:45Z</time>
      </trkpt>
      <trkpt lat="46.73924" lon="5.76488">
        <ele>622.2</ele>
        <time>2015-07-12T07:27:49Z</time>
      </trkpt>
      <trkpt lat="46.73935" lon="5.76497">
        <ele>622.3</ele>
        <time>2015-07-12T07:27:53Z</time>
      </trkpt>
      <trkpt lat="46.73944" lon="5.76503">
        <ele>622.2</ele>
        <time>2015-07-12T07:27:57Z</time>
      </trkpt>
      <trkpt lat="46.73953" lon="5.76508">
        <ele>622.2</ele>
        <time>2015-07-12T07:28:03Z</time>
      </trkpt>
      <trkpt lat="46.73964" lon="5.76513">
        <ele>622.4</ele>
        <time>2015-07-12T07:28:08Z</time>
      </trkpt>
      <trkpt lat="46.73975" lon="5.76521">
        <ele>622.4</ele>
        <time>2015-07-12T07:28:12Z</time>
      </trkpt>
      <trkpt lat="46.73984" lon="5.76527">
        <ele>622.4</ele>
        <time>2015-07-12T07:28:15Z</time>
      </trkpt>
      <trkpt lat="46.73994" lon="5.76534">
        <ele>622.4</ele>
        <time>2015-07-12T07:28:18Z</time>
      </trkpt>
      <trkpt lat="46.74004" lon="5.76542">
        <ele>622.4</ele>
        <time>2015-07-12T07:28:21Z</time>
      </trkpt>
      <trkpt lat="46.74013" lon="5.76547">
        <ele>622.3</ele>
        <time>2015-07-12T07:28:24Z</time>
      </trkpt>
      <trkpt lat="46.74024" lon="5.76554">
        <ele>622.2</ele>
        <time>2015-07-12T07:28:28Z</time>
      </trkpt>
      <trkpt lat="46.74033" lon="5.7656">
        <ele>622.1</ele>
        <time>2015-07-12T07:28:32Z</time>
      </trkpt>
      <trkpt lat="46.74042" lon="5.76566">
        <ele>621.8</ele>
        <time>2015-07-12T07:28:35Z</time>
      </trkpt>
      <trkpt lat="46.74049" lon="5.76574">
        <ele>621.7</ele>
        <time>2015-07-12T07:28:38Z</time>
      </trkpt>
      <trkpt lat="46.74057" lon="5.76582">
        <ele>621.7</ele>
        <time>2015-07-12T07:28:41Z</time>
      </trkpt>
      <trkpt lat="46.74066" lon="5.76591">
        <ele>621.6</ele>
        <time>2015-07-12T07:28:44Z</time>
      </trkpt>
      <trkpt lat="46.74072" lon="5.76603">
        <ele>621.6</ele>
        <time>2015-07-12T07:28:48Z</time>
      </trkpt>
      <trkpt lat="46.74076" lon="5.76617">
        <ele>621.5</ele>
        <time>2015-07-12T07:28:52Z</time>
      </trkpt>
      <trkpt lat="46.74081" lon="5.76628">
        <ele>621.5</ele>
        <time>2015-07-12T07:28:55Z</time>
      </trkpt>
      <trkpt lat="46.74086" lon="5.7664">
        <ele>621.5</ele>
        <time>2015-07-12T07:28:58Z</time>
      </trkpt>
      <trkpt lat="46.74092" lon="5.76649">
        <ele>621.8</ele>
        <time>2015-07-12T07:29:01Z</time>
      </trkpt>
      <trkpt lat="46.741" lon="5.76662">
        <ele>622</ele>
        <time>2015-07-12T07:29:05Z</time>
      </trkpt>
      <trkpt lat="46.74107" lon="5.76674">
        <ele>622.3</ele>
        <time>2015-07-12T07:29:09Z</time>
      </trkpt>
      <trkpt lat="46.74114" lon="5.76686">
        <ele>622.6</ele>
        <time>2015-07-12T07:29:13Z</time>
      </trkpt>
      <trkpt lat="46.74116" lon="5.76701">
        <ele>623</ele>
        <time>2015-07-12T07:29:17Z</time>
      </trkpt>
      <trkpt lat="46.74115" lon="5.76716">
        <ele>623.4</ele>
        <time>2015-07-12T07:29:21Z</time>
      </trkpt>
      <trkpt lat="46.74114" lon="5.76732">
        <ele>623.8</ele>
        <time>2015-07-12T07:29:25Z</time>
      </trkpt>
      <trkpt lat="46.74112" lon="5.76747">
        <ele>624.3</ele>
        <time>2015-07-12T07:29:29Z</time>
      </trkpt>
      <trkpt lat="46.7411" lon="5.76761">
        <ele>624.8</ele>
        <time>2015-07-12T07:29:33Z</time>
      </trkpt>
      <trkpt lat="46.74108" lon="5.76776">
        <ele>625.6</ele>
        <time>2015-07-12T07:29:38Z</time>
      </trkpt>
      <trkpt lat="46.74107" lon="5.76792">
        <ele>626</ele>
        <time>2015-07-12T07:29:42Z</time>
      </trkpt>
      <trkpt lat="46.74104" lon="5.76808">
        <ele>626.5</ele>
        <time>2015-07-12T07:29:46Z</time>
      </trkpt>
      <trkpt lat="46.74108" lon="5.76822">
        <ele>627</ele>
        <time>2015-07-12T07:29:50Z</time>
      </trkpt>
      <trkpt lat="46.74115" lon="5.76833">
        <ele>627.3</ele>
        <time>2015-07-12T07:29:53Z</time>
      </trkpt>
      <trkpt lat="46.74125" lon="5.76846">
        <ele>627.5</ele>
        <time>2015-07-12T07:29:56Z</time>
      </trkpt>
      <trkpt lat="46.74135" lon="5.76855">
        <ele>627.5</ele>
        <time>2015-07-12T07:29:59Z</time>
      </trkpt>
      <trkpt lat="46.74142" lon="5.76865">
        <ele>627</ele>
        <time>2015-07-12T07:30:02Z</time>
      </trkpt>
      <trkpt lat="46.74149" lon="5.76875">
        <ele>626.6</ele>
        <time>2015-07-12T07:30:06Z</time>
      </trkpt>
      <trkpt lat="46.74154" lon="5.7689">
        <ele>626.5</ele>
        <time>2015-07-12T07:30:10Z</time>
      </trkpt>
      <trkpt lat="46.74154" lon="5.76905">
        <ele>626.5</ele>
        <time>2015-07-12T07:30:15Z</time>
      </trkpt>
      <trkpt lat="46.74157" lon="5.76921">
        <ele>626.7</ele>
        <time>2015-07-12T07:30:19Z</time>
      </trkpt>
      <trkpt lat="46.74157" lon="5.76935">
        <ele>626.9</ele>
        <time>2015-07-12T07:30:23Z</time>
      </trkpt>
      <trkpt lat="46.74159" lon="5.76948">
        <ele>627.4</ele>
        <time>2015-07-12T07:30:27Z</time>
      </trkpt>
      <trkpt lat="46.74159" lon="5.76962">
        <ele>627.9</ele>
        <time>2015-07-12T07:30:31Z</time>
      </trkpt>
      <trkpt lat="46.74159" lon="5.76976">
        <ele>628.3</ele>
        <time>2015-07-12T07:30:35Z</time>
      </trkpt>
      <trkpt lat="46.74162" lon="5.76989">
        <ele>628.6</ele>
        <time>2015-07-12T07:30:39Z</time>
      </trkpt>
      <trkpt lat="46.74167" lon="5.77007">
        <ele>629</ele>
        <time>2015-07-12T07:30:44Z</time>
      </trkpt>
      <trkpt lat="46.74173" lon="5.77028">
        <ele>629.1</ele>
        <time>2015-07-12T07:30:47Z</time>
      </trkpt>
      <trkpt lat="46.74175" lon="5.77041">
        <ele>629.2</ele>
        <time>2015-07-12T07:30:49Z</time>
      </trkpt>
      <trkpt lat="46.74179" lon="5.77055">
        <ele>629.3</ele>
        <time>2015-07-12T07:30:51Z</time>
      </trkpt>
      <trkpt lat="46.74185" lon="5.77071">
        <ele>629.4</ele>
        <time>2015-07-12T07:30:54Z</time>
      </trkpt>
      <trkpt lat="46.74193" lon="5.77088">
        <ele>629.4</ele>
        <time>2015-07-12T07:30:57Z</time>
      </trkpt>
      <trkpt lat="46.742" lon="5.77097">
        <ele>629.4</ele>
        <time>2015-07-12T07:30:59Z</time>
      </trkpt>
      <trkpt lat="46.74206" lon="5.77107">
        <ele>629.4</ele>
        <time>2015-07-12T07:31:01Z</time>
      </trkpt>
      <trkpt lat="46.74213" lon="5.7712">
        <ele>629.3</ele>
        <time>2015-07-12T07:31:04Z</time>
      </trkpt>
      <trkpt lat="46.74218" lon="5.77133">
        <ele>629.2</ele>
        <time>2015-07-12T07:31:07Z</time>
      </trkpt>
      <trkpt lat="46.74222" lon="5.77146">
        <ele>629.2</ele>
        <time>2015-07-12T07:31:11Z</time>
      </trkpt>
      <trkpt lat="46.74224" lon="5.77159">
        <ele>629.2</ele>
        <time>2015-07-12T07:31:15Z</time>
      </trkpt>
      <trkpt lat="46.74233" lon="5.77169">
        <ele>629.2</ele>
        <time>2015-07-12T07:31:19Z</time>
      </trkpt>
      <trkpt lat="46.74237" lon="5.77181">
        <ele>629.5</ele>
        <time>2015-07-12T07:31:24Z</time>
      </trkpt>
      <trkpt lat="46.74237" lon="5.77196">
        <ele>629.6</ele>
        <time>2015-07-12T07:31:29Z</time>
      </trkpt>
      <trkpt lat="46.74239" lon="5.7721">
        <ele>629.6</ele>
        <time>2015-07-12T07:31:33Z</time>
      </trkpt>
      <trkpt lat="46.7424" lon="5.77227">
        <ele>629.2</ele>
        <time>2015-07-12T07:31:37Z</time>
      </trkpt>
      <trkpt lat="46.74245" lon="5.77241">
        <ele>629.1</ele>
        <time>2015-07-12T07:31:40Z</time>
      </trkpt>
      <trkpt lat="46.74248" lon="5.77254">
        <ele>628.9</ele>
        <time>2015-07-12T07:31:44Z</time>
      </trkpt>
      <trkpt lat="46.74251" lon="5.77269">
        <ele>628.7</ele>
        <time>2015-07-12T07:31:49Z</time>
      </trkpt>
      <trkpt lat="46.74249" lon="5.77287">
        <ele>628.6</ele>
        <time>2015-07-12T07:31:53Z</time>
      </trkpt>
      <trkpt lat="46.74249" lon="5.77301">
        <ele>628.5</ele>
        <time>2015-07-12T07:31:56Z</time>
      </trkpt>
      <trkpt lat="46.7425" lon="5.77314">
        <ele>628.4</ele>
        <time>2015-07-12T07:31:59Z</time>
      </trkpt>
      <trkpt lat="46.74252" lon="5.77328">
        <ele>628.4</ele>
        <time>2015-07-12T07:32:02Z</time>
      </trkpt>
      <trkpt lat="46.74253" lon="5.77343">
        <ele>628.3</ele>
        <time>2015-07-12T07:32:06Z</time>
      </trkpt>
      <trkpt lat="46.74254" lon="5.77358">
        <ele>628.3</ele>
        <time>2015-07-12T07:32:10Z</time>
      </trkpt>
      <trkpt lat="46.74255" lon="5.77373">
        <ele>628.3</ele>
        <time>2015-07-12T07:32:14Z</time>
      </trkpt>
      <trkpt lat="46.74256" lon="5.77387">
        <ele>628.3</ele>
        <time>2015-07-12T07:32:17Z</time>
      </trkpt>
      <trkpt lat="46.74257" lon="5.77401">
        <ele>628.4</ele>
        <time>2015-07-12T07:32:20Z</time>
      </trkpt>
      <trkpt lat="46.74259" lon="5.77418">
        <ele>628.5</ele>
        <time>2015-07-12T07:32:23Z</time>
      </trkpt>
      <trkpt lat="46.7426" lon="5.77433">
        <ele>628.6</ele>
        <time>2015-07-12T07:32:26Z</time>
      </trkpt>
      <trkpt lat="46.74261" lon="5.7745">
        <ele>628.8</ele>
        <time>2015-07-12T07:32:30Z</time>
      </trkpt>
      <trkpt lat="46.74262" lon="5.77463">
        <ele>629</ele>
        <time>2015-07-12T07:32:33Z</time>
      </trkpt>
      <trkpt lat="46.74263" lon="5.77479">
        <ele>629.3</ele>
        <time>2015-07-12T07:32:37Z</time>
      </trkpt>
      <trkpt lat="46.74264" lon="5.77494">
        <ele>629.6</ele>
        <time>2015-07-12T07:32:42Z</time>
      </trkpt>
      <trkpt lat="46.74267" lon="5.7751">
        <ele>629.8</ele>
        <time>2015-07-12T07:32:46Z</time>
      </trkpt>
      <trkpt lat="46.74268" lon="5.77526">
        <ele>630.1</ele>
        <time>2015-07-12T07:32:50Z</time>
      </trkpt>
      <trkpt lat="46.74269" lon="5.77541">
        <ele>630.3</ele>
        <time>2015-07-12T07:32:53Z</time>
      </trkpt>
      <trkpt lat="46.74267" lon="5.77555">
        <ele>630.7</ele>
        <time>2015-07-12T07:32:57Z</time>
      </trkpt>
      <trkpt lat="46.74266" lon="5.77569">
        <ele>631.3</ele>
        <time>2015-07-12T07:33:02Z</time>
      </trkpt>
      <trkpt lat="46.74264" lon="5.77585">
        <ele>631.9</ele>
        <time>2015-07-12T07:33:07Z</time>
      </trkpt>
      <trkpt lat="46.74262" lon="5.77598">
        <ele>632.7</ele>
        <time>2015-07-12T07:33:12Z</time>
      </trkpt>
      <trkpt lat="46.74257" lon="5.77611">
        <ele>633.7</ele>
        <time>2015-07-12T07:33:18Z</time>
      </trkpt>
      <trkpt lat="46.74253" lon="5.77626">
        <ele>634.7</ele>
        <time>2015-07-12T07:33:23Z</time>
      </trkpt>
      <trkpt lat="46.74245" lon="5.77637">
        <ele>635.7</ele>
        <time>2015-07-12T07:33:29Z</time>
      </trkpt>
      <trkpt lat="46.74239" lon="5.77647">
        <ele>637</ele>
        <time>2015-07-12T07:33:36Z</time>
      </trkpt>
      <trkpt lat="46.74232" lon="5.77655">
        <ele>638.5</ele>
        <time>2015-07-12T07:33:44Z</time>
      </trkpt>
      <trkpt lat="46.74234" lon="5.77668">
        <ele>640.3</ele>
        <time>2015-07-12T07:33:55Z</time>
      </trkpt>
      <trkpt lat="46.74243" lon="5.77671">
        <ele>643.4</ele>
        <time>2015-07-12T07:34:29Z</time>
      </trkpt>
      <trkpt lat="46.74251" lon="5.7768">
        <ele>643.5</ele>
        <time>2015-07-12T07:34:31Z</time>
      </trkpt>
      <trkpt lat="46.7426" lon="5.77689">
        <ele>643.9</ele>
        <time>2015-07-12T07:34:35Z</time>
      </trkpt>
      <trkpt lat="46.74268" lon="5.77695">
        <ele>644.5</ele>
        <time>2015-07-12T07:34:40Z</time>
      </trkpt>
      <trkpt lat="46.74276" lon="5.77702">
        <ele>645.2</ele>
        <time>2015-07-12T07:34:45Z</time>
      </trkpt>
      <trkpt lat="46.74284" lon="5.77712">
        <ele>645.7</ele>
        <time>2015-07-12T07:34:51Z</time>
      </trkpt>
      <trkpt lat="46.7429" lon="5.77723">
        <ele>646.4</ele>
        <time>2015-07-12T07:34:57Z</time>
      </trkpt>
      <trkpt lat="46.74297" lon="5.77733">
        <ele>647.3</ele>
        <time>2015-07-12T07:35:02Z</time>
      </trkpt>
      <trkpt lat="46.74305" lon="5.77741">
        <ele>648.3</ele>
        <time>2015-07-12T07:35:08Z</time>
      </trkpt>
      <trkpt lat="46.74312" lon="5.77751">
        <ele>649</ele>
        <time>2015-07-12T07:35:15Z</time>
      </trkpt>
      <trkpt lat="46.74317" lon="5.77763">
        <ele>649.9</ele>
        <time>2015-07-12T07:35:22Z</time>
      </trkpt>
      <trkpt lat="46.74325" lon="5.77771">
        <ele>650.6</ele>
        <time>2015-07-12T07:35:28Z</time>
      </trkpt>
      <trkpt lat="46.74333" lon="5.7778">
        <ele>651.2</ele>
        <time>2015-07-12T07:35:33Z</time>
      </trkpt>
      <trkpt lat="46.74343" lon="5.77785">
        <ele>651.5</ele>
        <time>2015-07-12T07:35:37Z</time>
      </trkpt>
      <trkpt lat="46.74353" lon="5.7779">
        <ele>652</ele>
        <time>2015-07-12T07:35:41Z</time>
      </trkpt>
      <trkpt lat="46.74362" lon="5.77795">
        <ele>652.5</ele>
        <time>2015-07-12T07:35:45Z</time>
      </trkpt>
      <trkpt lat="46.7437" lon="5.77798">
        <ele>653</ele>
        <time>2015-07-12T07:35:49Z</time>
      </trkpt>
      <trkpt lat="46.7438" lon="5.77804">
        <ele>653.6</ele>
        <time>2015-07-12T07:35:54Z</time>
      </trkpt>
      <trkpt lat="46.74391" lon="5.77805">
        <ele>654.1</ele>
        <time>2015-07-12T07:35:58Z</time>
      </trkpt>
      <trkpt lat="46.744" lon="5.7781">
        <ele>654.5</ele>
        <time>2015-07-12T07:36:02Z</time>
      </trkpt>
      <trkpt lat="46.74409" lon="5.77817">
        <ele>654.9</ele>
        <time>2015-07-12T07:36:06Z</time>
      </trkpt>
      <trkpt lat="46.74419" lon="5.77827">
        <ele>655.1</ele>
        <time>2015-07-12T07:36:10Z</time>
      </trkpt>
      <trkpt lat="46.74427" lon="5.77834">
        <ele>655.3</ele>
        <time>2015-07-12T07:36:13Z</time>
      </trkpt>
      <trkpt lat="46.74437" lon="5.77842">
        <ele>655.3</ele>
        <time>2015-07-12T07:36:16Z</time>
      </trkpt>
      <trkpt lat="46.74446" lon="5.77848">
        <ele>655.2</ele>
        <time>2015-07-12T07:36:19Z</time>
      </trkpt>
      <trkpt lat="46.74459" lon="5.77854">
        <ele>655.1</ele>
        <time>2015-07-12T07:36:22Z</time>
      </trkpt>
      <trkpt lat="46.74467" lon="5.77863">
        <ele>654.9</ele>
        <time>2015-07-12T07:36:24Z</time>
      </trkpt>
      <trkpt lat="46.74475" lon="5.77873">
        <ele>654.6</ele>
        <time>2015-07-12T07:36:26Z</time>
      </trkpt>
      <trkpt lat="46.74483" lon="5.77885">
        <ele>654.2</ele>
        <time>2015-07-12T07:36:28Z</time>
      </trkpt>
      <trkpt lat="46.7449" lon="5.77896">
        <ele>653.7</ele>
        <time>2015-07-12T07:36:30Z</time>
      </trkpt>
      <trkpt lat="46.74497" lon="5.77906">
        <ele>653</ele>
        <time>2015-07-12T07:36:32Z</time>
      </trkpt>
      <trkpt lat="46.74505" lon="5.7792">
        <ele>652.2</ele>
        <time>2015-07-12T07:36:34Z</time>
      </trkpt>
      <trkpt lat="46.74514" lon="5.77934">
        <ele>651.6</ele>
        <time>2015-07-12T07:36:36Z</time>
      </trkpt>
      <trkpt lat="46.74522" lon="5.77946">
        <ele>650.8</ele>
        <time>2015-07-12T07:36:38Z</time>
      </trkpt>
      <trkpt lat="46.7453" lon="5.77955">
        <ele>649.9</ele>
        <time>2015-07-12T07:36:40Z</time>
      </trkpt>
      <trkpt lat="46.74538" lon="5.77967">
        <ele>648.6</ele>
        <time>2015-07-12T07:36:43Z</time>
      </trkpt>
      <trkpt lat="46.74546" lon="5.77981">
        <ele>647.4</ele>
        <time>2015-07-12T07:36:46Z</time>
      </trkpt>
      <trkpt lat="46.74553" lon="5.77993">
        <ele>646.4</ele>
        <time>2015-07-12T07:36:49Z</time>
      </trkpt>
      <trkpt lat="46.74559" lon="5.78005">
        <ele>645.5</ele>
        <time>2015-07-12T07:36:52Z</time>
      </trkpt>
      <trkpt lat="46.74567" lon="5.78014">
        <ele>644.3</ele>
        <time>2015-07-12T07:36:56Z</time>
      </trkpt>
      <trkpt lat="46.74575" lon="5.7802">
        <ele>643.5</ele>
        <time>2015-07-12T07:36:59Z</time>
      </trkpt>
      <trkpt lat="46.74584" lon="5.78031">
        <ele>642.6</ele>
        <time>2015-07-12T07:37:02Z</time>
      </trkpt>
      <trkpt lat="46.74592" lon="5.78037">
        <ele>642</ele>
        <time>2015-07-12T07:37:04Z</time>
      </trkpt>
      <trkpt lat="46.74602" lon="5.78044">
        <ele>641.4</ele>
        <time>2015-07-12T07:37:06Z</time>
      </trkpt>
      <trkpt lat="46.74608" lon="5.78056">
        <ele>640.5</ele>
        <time>2015-07-12T07:37:09Z</time>
      </trkpt>
      <trkpt lat="46.74617" lon="5.78063">
        <ele>637.2</ele>
        <time>2015-07-12T07:37:21Z</time>
      </trkpt>
      <trkpt lat="46.74626" lon="5.78069">
        <ele>636.2</ele>
        <time>2015-07-12T07:37:26Z</time>
      </trkpt>
      <trkpt lat="46.74636" lon="5.78076">
        <ele>635.6</ele>
        <time>2015-07-12T07:37:29Z</time>
      </trkpt>
      <trkpt lat="46.74645" lon="5.78084">
        <ele>635</ele>
        <time>2015-07-12T07:37:32Z</time>
      </trkpt>
      <trkpt lat="46.74653" lon="5.78093">
        <ele>634.5</ele>
        <time>2015-07-12T07:37:35Z</time>
      </trkpt>
      <trkpt lat="46.74659" lon="5.78104">
        <ele>634.1</ele>
        <time>2015-07-12T07:37:38Z</time>
      </trkpt>
      <trkpt lat="46.74666" lon="5.78114">
        <ele>633.6</ele>
        <time>2015-07-12T07:37:41Z</time>
      </trkpt>
      <trkpt lat="46.74675" lon="5.78121">
        <ele>633.1</ele>
        <time>2015-07-12T07:37:45Z</time>
      </trkpt>
      <trkpt lat="46.74685" lon="5.78127">
        <ele>632.5</ele>
        <time>2015-07-12T07:37:48Z</time>
      </trkpt>
      <trkpt lat="46.74696" lon="5.78136">
        <ele>631.8</ele>
        <time>2015-07-12T07:37:52Z</time>
      </trkpt>
      <trkpt lat="46.74707" lon="5.78145">
        <ele>631.3</ele>
        <time>2015-07-12T07:37:55Z</time>
      </trkpt>
      <trkpt lat="46.74717" lon="5.78153">
        <ele>630.8</ele>
        <time>2015-07-12T07:37:58Z</time>
      </trkpt>
      <trkpt lat="46.7473" lon="5.7816">
        <ele>630.3</ele>
        <time>2015-07-12T07:38:01Z</time>
      </trkpt>
      <trkpt lat="46.74741" lon="5.78165">
        <ele>629.8</ele>
        <time>2015-07-12T07:38:04Z</time>
      </trkpt>
      <trkpt lat="46.74751" lon="5.78173">
        <ele>628.9</ele>
        <time>2015-07-12T07:38:08Z</time>
      </trkpt>
      <trkpt lat="46.74761" lon="5.78174">
        <ele>628.4</ele>
        <time>2015-07-12T07:38:11Z</time>
      </trkpt>
      <trkpt lat="46.74771" lon="5.78178">
        <ele>627.7</ele>
        <time>2015-07-12T07:38:16Z</time>
      </trkpt>
      <trkpt lat="46.7478" lon="5.78185">
        <ele>627.4</ele>
        <time>2015-07-12T07:38:19Z</time>
      </trkpt>
      <trkpt lat="46.74788" lon="5.78194">
        <ele>626.9</ele>
        <time>2015-07-12T07:38:22Z</time>
      </trkpt>
      <trkpt lat="46.74796" lon="5.78202">
        <ele>626.5</ele>
        <time>2015-07-12T07:38:25Z</time>
      </trkpt>
      <trkpt lat="46.74802" lon="5.78213">
        <ele>626</ele>
        <time>2015-07-12T07:38:28Z</time>
      </trkpt>
      <trkpt lat="46.74812" lon="5.78221">
        <ele>625.1</ele>
        <time>2015-07-12T07:38:33Z</time>
      </trkpt>
      <trkpt lat="46.74821" lon="5.7823">
        <ele>624.5</ele>
        <time>2015-07-12T07:38:37Z</time>
      </trkpt>
      <trkpt lat="46.74829" lon="5.7824">
        <ele>624.2</ele>
        <time>2015-07-12T07:38:40Z</time>
      </trkpt>
      <trkpt lat="46.74836" lon="5.78249">
        <ele>623.9</ele>
        <time>2015-07-12T07:38:43Z</time>
      </trkpt>
      <trkpt lat="46.74844" lon="5.78261">
        <ele>623.5</ele>
        <time>2015-07-12T07:38:46Z</time>
      </trkpt>
      <trkpt lat="46.74853" lon="5.78272">
        <ele>623.2</ele>
        <time>2015-07-12T07:38:49Z</time>
      </trkpt>
      <trkpt lat="46.74862" lon="5.78281">
        <ele>622.9</ele>
        <time>2015-07-12T07:38:52Z</time>
      </trkpt>
      <trkpt lat="46.7487" lon="5.78289">
        <ele>622.7</ele>
        <time>2015-07-12T07:38:54Z</time>
      </trkpt>
      <trkpt lat="46.7488" lon="5.78297">
        <ele>622.5</ele>
        <time>2015-07-12T07:38:57Z</time>
      </trkpt>
      <trkpt lat="46.74889" lon="5.78304">
        <ele>622.3</ele>
        <time>2015-07-12T07:39:00Z</time>
      </trkpt>
      <trkpt lat="46.74898" lon="5.78312">
        <ele>622.1</ele>
        <time>2015-07-12T07:39:04Z</time>
      </trkpt>
      <trkpt lat="46.74909" lon="5.78309">
        <ele>621.6</ele>
        <time>2015-07-12T07:39:10Z</time>
      </trkpt>
      <trkpt lat="46.74918" lon="5.78312">
        <ele>621.2</ele>
        <time>2015-07-12T07:39:15Z</time>
      </trkpt>
      <trkpt lat="46.74929" lon="5.78312">
        <ele>621</ele>
        <time>2015-07-12T07:39:19Z</time>
      </trkpt>
      <trkpt lat="46.74938" lon="5.7831">
        <ele>620.8</ele>
        <time>2015-07-12T07:39:22Z</time>
      </trkpt>
      <trkpt lat="46.74948" lon="5.78311">
        <ele>620.7</ele>
        <time>2015-07-12T07:39:25Z</time>
      </trkpt>
      <trkpt lat="46.74959" lon="5.78318">
        <ele>620.5</ele>
        <time>2015-07-12T07:39:29Z</time>
      </trkpt>
      <trkpt lat="46.74967" lon="5.78327">
        <ele>620.4</ele>
        <time>2015-07-12T07:39:32Z</time>
      </trkpt>
      <trkpt lat="46.74975" lon="5.78336">
        <ele>620.3</ele>
        <time>2015-07-12T07:39:35Z</time>
      </trkpt>
      <trkpt lat="46.74985" lon="5.78344">
        <ele>620.3</ele>
        <time>2015-07-12T07:39:38Z</time>
      </trkpt>
      <trkpt lat="46.74996" lon="5.78352">
        <ele>620.2</ele>
        <time>2015-07-12T07:39:41Z</time>
      </trkpt>
      <trkpt lat="46.75006" lon="5.78363">
        <ele>620.1</ele>
        <time>2015-07-12T07:39:44Z</time>
      </trkpt>
      <trkpt lat="46.75014" lon="5.78378">
        <ele>620</ele>
        <time>2015-07-12T07:39:47Z</time>
      </trkpt>
      <trkpt lat="46.75019" lon="5.78393">
        <ele>619.9</ele>
        <time>2015-07-12T07:39:50Z</time>
      </trkpt>
      <trkpt lat="46.75024" lon="5.78409">
        <ele>619.8</ele>
        <time>2015-07-12T07:39:53Z</time>
      </trkpt>
      <trkpt lat="46.75027" lon="5.78424">
        <ele>619.7</ele>
        <time>2015-07-12T07:39:58Z</time>
      </trkpt>
      <trkpt lat="46.7503" lon="5.78439">
        <ele>620</ele>
        <time>2015-07-12T07:40:04Z</time>
      </trkpt>
      <trkpt lat="46.75041" lon="5.7844">
        <ele>620.3</ele>
        <time>2015-07-12T07:40:08Z</time>
      </trkpt>
      <trkpt lat="46.75052" lon="5.78438">
        <ele>620.4</ele>
        <time>2015-07-12T07:40:11Z</time>
      </trkpt>
      <trkpt lat="46.75064" lon="5.78435">
        <ele>620.5</ele>
        <time>2015-07-12T07:40:14Z</time>
      </trkpt>
      <trkpt lat="46.75076" lon="5.78429">
        <ele>620.6</ele>
        <time>2015-07-12T07:40:17Z</time>
      </trkpt>
      <trkpt lat="46.75085" lon="5.78422">
        <ele>620.6</ele>
        <time>2015-07-12T07:40:19Z</time>
      </trkpt>
      <trkpt lat="46.75093" lon="5.78415">
        <ele>620.7</ele>
        <time>2015-07-12T07:40:21Z</time>
      </trkpt>
      <trkpt lat="46.75101" lon="5.78408">
        <ele>620.7</ele>
        <time>2015-07-12T07:40:23Z</time>
      </trkpt>
      <trkpt lat="46.75111" lon="5.784">
        <ele>620.7</ele>
        <time>2015-07-12T07:40:26Z</time>
      </trkpt>
      <trkpt lat="46.7512" lon="5.78407">
        <ele>620.5</ele>
        <time>2015-07-12T07:40:31Z</time>
      </trkpt>
      <trkpt lat="46.75127" lon="5.78417">
        <ele>620.4</ele>
        <time>2015-07-12T07:40:36Z</time>
      </trkpt>
      <trkpt lat="46.75136" lon="5.78426">
        <ele>620.3</ele>
        <time>2015-07-12T07:40:40Z</time>
      </trkpt>
      <trkpt lat="46.75143" lon="5.78436">
        <ele>620.3</ele>
        <time>2015-07-12T07:40:43Z</time>
      </trkpt>
      <trkpt lat="46.7515" lon="5.78445">
        <ele>620.3</ele>
        <time>2015-07-12T07:40:46Z</time>
      </trkpt>
      <trkpt lat="46.75158" lon="5.78453">
        <ele>620.3</ele>
        <time>2015-07-12T07:40:49Z</time>
      </trkpt>
      <trkpt lat="46.75165" lon="5.78464">
        <ele>620.1</ele>
        <time>2015-07-12T07:40:52Z</time>
      </trkpt>
      <trkpt lat="46.75173" lon="5.78475">
        <ele>620.1</ele>
        <time>2015-07-12T07:40:56Z</time>
      </trkpt>
      <trkpt lat="46.7518" lon="5.78484">
        <ele>620.1</ele>
        <time>2015-07-12T07:41:00Z</time>
      </trkpt>
      <trkpt lat="46.7519" lon="5.78489">
        <ele>620.4</ele>
        <time>2015-07-12T07:41:04Z</time>
      </trkpt>
      <trkpt lat="46.75201" lon="5.78493">
        <ele>620.8</ele>
        <time>2015-07-12T07:41:08Z</time>
      </trkpt>
      <trkpt lat="46.75212" lon="5.78497">
        <ele>620.9</ele>
        <time>2015-07-12T07:41:12Z</time>
      </trkpt>
      <trkpt lat="46.75221" lon="5.78503">
        <ele>621.2</ele>
        <time>2015-07-12T07:41:15Z</time>
      </trkpt>
      <trkpt lat="46.7523" lon="5.78507">
        <ele>621.6</ele>
        <time>2015-07-12T07:41:19Z</time>
      </trkpt>
      <trkpt lat="46.7524" lon="5.7851">
        <ele>622</ele>
        <time>2015-07-12T07:41:24Z</time>
      </trkpt>
      <trkpt lat="46.75251" lon="5.78513">
        <ele>622.4</ele>
        <time>2015-07-12T07:41:30Z</time>
      </trkpt>
      <trkpt lat="46.75259" lon="5.78515">
        <ele>623</ele>
        <time>2015-07-12T07:41:34Z</time>
      </trkpt>
      <trkpt lat="46.75268" lon="5.78522">
        <ele>623.5</ele>
        <time>2015-07-12T07:41:38Z</time>
      </trkpt>
      <trkpt lat="46.75277" lon="5.78526">
        <ele>624</ele>
        <time>2015-07-12T07:41:42Z</time>
      </trkpt>
      <trkpt lat="46.75286" lon="5.78535">
        <ele>624.5</ele>
        <time>2015-07-12T07:41:46Z</time>
      </trkpt>
      <trkpt lat="46.75294" lon="5.78543">
        <ele>625.1</ele>
        <time>2015-07-12T07:41:50Z</time>
      </trkpt>
      <trkpt lat="46.75303" lon="5.78551">
        <ele>625.5</ele>
        <time>2015-07-12T07:41:54Z</time>
      </trkpt>
      <trkpt lat="46.75313" lon="5.78556">
        <ele>626</ele>
        <time>2015-07-12T07:41:58Z</time>
      </trkpt>
      <trkpt lat="46.75324" lon="5.7856">
        <ele>626.5</ele>
        <time>2015-07-12T07:42:02Z</time>
      </trkpt>
      <trkpt lat="46.75335" lon="5.78565">
        <ele>626.8</ele>
        <time>2015-07-12T07:42:06Z</time>
      </trkpt>
      <trkpt lat="46.75344" lon="5.7857">
        <ele>627</ele>
        <time>2015-07-12T07:42:09Z</time>
      </trkpt>
      <trkpt lat="46.75352" lon="5.78577">
        <ele>627.1</ele>
        <time>2015-07-12T07:42:11Z</time>
      </trkpt>
      <trkpt lat="46.75361" lon="5.78584">
        <ele>626.9</ele>
        <time>2015-07-12T07:42:13Z</time>
      </trkpt>
      <trkpt lat="46.75374" lon="5.78597">
        <ele>626.8</ele>
        <time>2015-07-12T07:42:15Z</time>
      </trkpt>
      <trkpt lat="46.75383" lon="5.78604">
        <ele>626.5</ele>
        <time>2015-07-12T07:42:17Z</time>
      </trkpt>
      <trkpt lat="46.75393" lon="5.78613">
        <ele>626</ele>
        <time>2015-07-12T07:42:19Z</time>
      </trkpt>
      <trkpt lat="46.75401" lon="5.78619">
        <ele>625.3</ele>
        <time>2015-07-12T07:42:21Z</time>
      </trkpt>
      <trkpt lat="46.7541" lon="5.78626">
        <ele>624.8</ele>
        <time>2015-07-12T07:42:23Z</time>
      </trkpt>
      <trkpt lat="46.75419" lon="5.78631">
        <ele>624.4</ele>
        <time>2015-07-12T07:42:25Z</time>
      </trkpt>
      <trkpt lat="46.75428" lon="5.78636">
        <ele>623.9</ele>
        <time>2015-07-12T07:42:27Z</time>
      </trkpt>
      <trkpt lat="46.75438" lon="5.78641">
        <ele>623.5</ele>
        <time>2015-07-12T07:42:29Z</time>
      </trkpt>
      <trkpt lat="46.75448" lon="5.78647">
        <ele>623.1</ele>
        <time>2015-07-12T07:42:31Z</time>
      </trkpt>
      <trkpt lat="46.75457" lon="5.7865">
        <ele>622.7</ele>
        <time>2015-07-12T07:42:33Z</time>
      </trkpt>
      <trkpt lat="46.75468" lon="5.78652">
        <ele>622</ele>
        <time>2015-07-12T07:42:35Z</time>
      </trkpt>
      <trkpt lat="46.75479" lon="5.78654">
        <ele>621.4</ele>
        <time>2015-07-12T07:42:37Z</time>
      </trkpt>
      <trkpt lat="46.75489" lon="5.78659">
        <ele>620.8</ele>
        <time>2015-07-12T07:42:39Z</time>
      </trkpt>
      <trkpt lat="46.755" lon="5.78666">
        <ele>619.9</ele>
        <time>2015-07-12T07:42:42Z</time>
      </trkpt>
      <trkpt lat="46.75507" lon="5.78674">
        <ele>618.2</ele>
        <time>2015-07-12T07:42:47Z</time>
      </trkpt>
      <trkpt lat="46.7551" lon="5.78687">
        <ele>616.2</ele>
        <time>2015-07-12T07:42:57Z</time>
      </trkpt>
      <trkpt lat="46.75518" lon="5.78694">
        <ele>615.7</ele>
        <time>2015-07-12T07:43:03Z</time>
      </trkpt>
      <trkpt lat="46.75524" lon="5.78703">
        <ele>615.5</ele>
        <time>2015-07-12T07:43:09Z</time>
      </trkpt>
      <trkpt lat="46.75521" lon="5.78715">
        <ele>615.5</ele>
        <time>2015-07-12T07:43:15Z</time>
      </trkpt>
      <trkpt lat="46.75518" lon="5.78731">
        <ele>615.8</ele>
        <time>2015-07-12T07:43:21Z</time>
      </trkpt>
      <trkpt lat="46.75518" lon="5.78744">
        <ele>616.4</ele>
        <time>2015-07-12T07:43:27Z</time>
      </trkpt>
      <trkpt lat="46.75515" lon="5.78757">
        <ele>617.2</ele>
        <time>2015-07-12T07:43:33Z</time>
      </trkpt>
      <trkpt lat="46.7551" lon="5.78772">
        <ele>618.1</ele>
        <time>2015-07-12T07:43:39Z</time>
      </trkpt>
      <trkpt lat="46.75502" lon="5.78779">
        <ele>619.5</ele>
        <time>2015-07-12T07:43:47Z</time>
      </trkpt>
      <trkpt lat="46.75495" lon="5.78788">
        <ele>622.5</ele>
        <time>2015-07-12T07:44:02Z</time>
      </trkpt>
      <trkpt lat="46.75491" lon="5.78801">
        <ele>624.2</ele>
        <time>2015-07-12T07:44:10Z</time>
      </trkpt>
      <trkpt lat="46.75488" lon="5.78814">
        <ele>625.8</ele>
        <time>2015-07-12T07:44:17Z</time>
      </trkpt>
      <trkpt lat="46.75485" lon="5.78827">
        <ele>627</ele>
        <time>2015-07-12T07:44:23Z</time>
      </trkpt>
      <trkpt lat="46.75483" lon="5.7884">
        <ele>628.8</ele>
        <time>2015-07-12T07:44:32Z</time>
      </trkpt>
      <trkpt lat="46.75479" lon="5.78853">
        <ele>630.2</ele>
        <time>2015-07-12T07:44:39Z</time>
      </trkpt>
      <trkpt lat="46.75472" lon="5.78863">
        <ele>631.2</ele>
        <time>2015-07-12T07:44:47Z</time>
      </trkpt>
      <trkpt lat="46.75472" lon="5.78877">
        <ele>632.3</ele>
        <time>2015-07-12T07:44:58Z</time>
      </trkpt>
      <trkpt lat="46.75471" lon="5.7889">
        <ele>632.5</ele>
        <time>2015-07-12T07:45:04Z</time>
      </trkpt>
      <trkpt lat="46.75471" lon="5.78903">
        <ele>632.5</ele>
        <time>2015-07-12T07:45:08Z</time>
      </trkpt>
      <trkpt lat="46.75468" lon="5.78916">
        <ele>632.7</ele>
        <time>2015-07-12T07:45:12Z</time>
      </trkpt>
      <trkpt lat="46.75466" lon="5.78932">
        <ele>632.7</ele>
        <time>2015-07-12T07:45:17Z</time>
      </trkpt>
      <trkpt lat="46.75462" lon="5.78945">
        <ele>632.7</ele>
        <time>2015-07-12T07:45:23Z</time>
      </trkpt>
      <trkpt lat="46.75451" lon="5.78948">
        <ele>632.7</ele>
        <time>2015-07-12T07:45:29Z</time>
      </trkpt>
      <trkpt lat="46.75441" lon="5.78949">
        <ele>631.7</ele>
        <time>2015-07-12T07:46:57Z</time>
      </trkpt>
      <trkpt lat="46.75432" lon="5.78942">
        <ele>631.8</ele>
        <time>2015-07-12T07:47:03Z</time>
      </trkpt>
      <trkpt lat="46.75423" lon="5.78938">
        <ele>632.4</ele>
        <time>2015-07-12T07:47:08Z</time>
      </trkpt>
      <trkpt lat="46.75415" lon="5.78929">
        <ele>632.8</ele>
        <time>2015-07-12T07:47:13Z</time>
      </trkpt>
      <trkpt lat="46.75409" lon="5.7892">
        <ele>633.3</ele>
        <time>2015-07-12T07:47:22Z</time>
      </trkpt>
      <trkpt lat="46.75401" lon="5.78909">
        <ele>633.7</ele>
        <time>2015-07-12T07:47:27Z</time>
      </trkpt>
      <trkpt lat="46.75392" lon="5.78898">
        <ele>634</ele>
        <time>2015-07-12T07:47:31Z</time>
      </trkpt>
      <trkpt lat="46.75383" lon="5.7889">
        <ele>634.4</ele>
        <time>2015-07-12T07:47:37Z</time>
      </trkpt>
      <trkpt lat="46.75375" lon="5.7888">
        <ele>634.8</ele>
        <time>2015-07-12T07:47:41Z</time>
      </trkpt>
      <trkpt lat="46.75369" lon="5.7887">
        <ele>635.2</ele>
        <time>2015-07-12T07:47:45Z</time>
      </trkpt>
      <trkpt lat="46.75361" lon="5.78861">
        <ele>635.7</ele>
        <time>2015-07-12T07:47:50Z</time>
      </trkpt>
      <trkpt lat="46.75352" lon="5.78853">
        <ele>636.3</ele>
        <time>2015-07-12T07:47:55Z</time>
      </trkpt>
      <trkpt lat="46.75344" lon="5.78844">
        <ele>636.8</ele>
        <time>2015-07-12T07:47:59Z</time>
      </trkpt>
      <trkpt lat="46.75335" lon="5.78835">
        <ele>637.1</ele>
        <time>2015-07-12T07:48:02Z</time>
      </trkpt>
      <trkpt lat="46.75327" lon="5.78828">
        <ele>637.3</ele>
        <time>2015-07-12T07:48:05Z</time>
      </trkpt>
      <trkpt lat="46.75319" lon="5.7882">
        <ele>637.5</ele>
        <time>2015-07-12T07:48:08Z</time>
      </trkpt>
      <trkpt lat="46.75311" lon="5.78813">
        <ele>637.7</ele>
        <time>2015-07-12T07:48:11Z</time>
      </trkpt>
      <trkpt lat="46.75303" lon="5.78802">
        <ele>637.9</ele>
        <time>2015-07-12T07:48:15Z</time>
      </trkpt>
      <trkpt lat="46.75297" lon="5.78793">
        <ele>638.1</ele>
        <time>2015-07-12T07:48:18Z</time>
      </trkpt>
      <trkpt lat="46.75287" lon="5.78788">
        <ele>638.2</ele>
        <time>2015-07-12T07:48:21Z</time>
      </trkpt>
      <trkpt lat="46.75277" lon="5.78783">
        <ele>638.4</ele>
        <time>2015-07-12T07:48:24Z</time>
      </trkpt>
      <trkpt lat="46.75266" lon="5.78773">
        <ele>638.5</ele>
        <time>2015-07-12T07:48:27Z</time>
      </trkpt>
      <trkpt lat="46.75255" lon="5.78761">
        <ele>638.6</ele>
        <time>2015-07-12T07:48:30Z</time>
      </trkpt>
      <trkpt lat="46.75247" lon="5.78755">
        <ele>638.6</ele>
        <time>2015-07-12T07:48:32Z</time>
      </trkpt>
      <trkpt lat="46.75237" lon="5.78747">
        <ele>638.8</ele>
        <time>2015-07-12T07:48:35Z</time>
      </trkpt>
      <trkpt lat="46.75229" lon="5.78738">
        <ele>639</ele>
        <time>2015-07-12T07:48:38Z</time>
      </trkpt>
      <trkpt lat="46.75219" lon="5.78733">
        <ele>639</ele>
        <time>2015-07-12T07:48:41Z</time>
      </trkpt>
      <trkpt lat="46.7521" lon="5.78729">
        <ele>638.9</ele>
        <time>2015-07-12T07:48:43Z</time>
      </trkpt>
      <trkpt lat="46.75202" lon="5.78717">
        <ele>638.8</ele>
        <time>2015-07-12T07:48:45Z</time>
      </trkpt>
      <trkpt lat="46.75194" lon="5.78705">
        <ele>638.5</ele>
        <time>2015-07-12T07:48:47Z</time>
      </trkpt>
      <trkpt lat="46.75185" lon="5.78694">
        <ele>638.2</ele>
        <time>2015-07-12T07:48:49Z</time>
      </trkpt>
      <trkpt lat="46.75175" lon="5.78684">
        <ele>637.9</ele>
        <time>2015-07-12T07:48:51Z</time>
      </trkpt>
      <trkpt lat="46.75164" lon="5.78679">
        <ele>637.6</ele>
        <time>2015-07-12T07:48:53Z</time>
      </trkpt>
      <trkpt lat="46.75154" lon="5.78676">
        <ele>637.4</ele>
        <time>2015-07-12T07:48:55Z</time>
      </trkpt>
      <trkpt lat="46.75144" lon="5.7867">
        <ele>637.1</ele>
        <time>2015-07-12T07:48:57Z</time>
      </trkpt>
      <trkpt lat="46.75136" lon="5.78663">
        <ele>636.9</ele>
        <time>2015-07-12T07:48:59Z</time>
      </trkpt>
      <trkpt lat="46.75127" lon="5.78658">
        <ele>636.8</ele>
        <time>2015-07-12T07:49:01Z</time>
      </trkpt>
      <trkpt lat="46.75118" lon="5.78652">
        <ele>636.5</ele>
        <time>2015-07-12T07:49:04Z</time>
      </trkpt>
      <trkpt lat="46.75109" lon="5.7865">
        <ele>636.4</ele>
        <time>2015-07-12T07:49:07Z</time>
      </trkpt>
      <trkpt lat="46.75101" lon="5.78642">
        <ele>636.3</ele>
        <time>2015-07-12T07:49:10Z</time>
      </trkpt>
      <trkpt lat="46.75089" lon="5.78635">
        <ele>636.1</ele>
        <time>2015-07-12T07:49:14Z</time>
      </trkpt>
      <trkpt lat="46.75081" lon="5.78622">
        <ele>636.1</ele>
        <time>2015-07-12T07:49:17Z</time>
      </trkpt>
      <trkpt lat="46.75075" lon="5.78613">
        <ele>636.1</ele>
        <time>2015-07-12T07:49:19Z</time>
      </trkpt>
      <trkpt lat="46.75064" lon="5.78604">
        <ele>636.1</ele>
        <time>2015-07-12T07:49:22Z</time>
      </trkpt>
      <trkpt lat="46.75055" lon="5.78595">
        <ele>636.1</ele>
        <time>2015-07-12T07:49:25Z</time>
      </trkpt>
      <trkpt lat="46.75043" lon="5.78588">
        <ele>635.8</ele>
        <time>2015-07-12T07:49:28Z</time>
      </trkpt>
      <trkpt lat="46.75033" lon="5.78585">
        <ele>635.6</ele>
        <time>2015-07-12T07:49:30Z</time>
      </trkpt>
      <trkpt lat="46.75021" lon="5.78578">
        <ele>635.2</ele>
        <time>2015-07-12T07:49:32Z</time>
      </trkpt>
      <trkpt lat="46.75008" lon="5.78571">
        <ele>634.6</ele>
        <time>2015-07-12T07:49:34Z</time>
      </trkpt>
      <trkpt lat="46.74996" lon="5.78566">
        <ele>633.9</ele>
        <time>2015-07-12T07:49:36Z</time>
      </trkpt>
      <trkpt lat="46.74987" lon="5.78558">
        <ele>633.2</ele>
        <time>2015-07-12T07:49:38Z</time>
      </trkpt>
      <trkpt lat="46.74976" lon="5.78554">
        <ele>632.2</ele>
        <time>2015-07-12T07:49:41Z</time>
      </trkpt>
      <trkpt lat="46.74965" lon="5.78557">
        <ele>631.2</ele>
        <time>2015-07-12T07:49:44Z</time>
      </trkpt>
      <trkpt lat="46.74956" lon="5.78564">
        <ele>630.1</ele>
        <time>2015-07-12T07:49:47Z</time>
      </trkpt>
      <trkpt lat="46.74947" lon="5.78572">
        <ele>628.9</ele>
        <time>2015-07-12T07:49:50Z</time>
      </trkpt>
      <trkpt lat="46.74937" lon="5.7858">
        <ele>627.6</ele>
        <time>2015-07-12T07:49:53Z</time>
      </trkpt>
      <trkpt lat="46.74926" lon="5.78589">
        <ele>626.3</ele>
        <time>2015-07-12T07:49:56Z</time>
      </trkpt>
      <trkpt lat="46.74913" lon="5.78595">
        <ele>625</ele>
        <time>2015-07-12T07:49:59Z</time>
      </trkpt>
      <trkpt lat="46.74904" lon="5.78593">
        <ele>623.9</ele>
        <time>2015-07-12T07:50:02Z</time>
      </trkpt>
      <trkpt lat="46.74895" lon="5.78588">
        <ele>622.8</ele>
        <time>2015-07-12T07:50:05Z</time>
      </trkpt>
      <trkpt lat="46.74886" lon="5.78583">
        <ele>621.9</ele>
        <time>2015-07-12T07:50:08Z</time>
      </trkpt>
      <trkpt lat="46.74875" lon="5.78576">
        <ele>621.2</ele>
        <time>2015-07-12T07:50:11Z</time>
      </trkpt>
      <trkpt lat="46.74866" lon="5.78568">
        <ele>620.6</ele>
        <time>2015-07-12T07:50:14Z</time>
      </trkpt>
      <trkpt lat="46.74856" lon="5.78565">
        <ele>620.1</ele>
        <time>2015-07-12T07:50:17Z</time>
      </trkpt>
      <trkpt lat="46.74843" lon="5.78559">
        <ele>619.7</ele>
        <time>2015-07-12T07:50:20Z</time>
      </trkpt>
      <trkpt lat="46.74834" lon="5.78554">
        <ele>619.5</ele>
        <time>2015-07-12T07:50:22Z</time>
      </trkpt>
      <trkpt lat="46.74824" lon="5.78547">
        <ele>619.3</ele>
        <time>2015-07-12T07:50:24Z</time>
      </trkpt>
      <trkpt lat="46.74815" lon="5.78541">
        <ele>619.1</ele>
        <time>2015-07-12T07:50:26Z</time>
      </trkpt>
      <trkpt lat="46.74805" lon="5.78536">
        <ele>619</ele>
        <time>2015-07-12T07:50:28Z</time>
      </trkpt>
      <trkpt lat="46.74794" lon="5.78531">
        <ele>618.8</ele>
        <time>2015-07-12T07:50:30Z</time>
      </trkpt>
      <trkpt lat="46.74785" lon="5.78526">
        <ele>618.7</ele>
        <time>2015-07-12T07:50:32Z</time>
      </trkpt>
      <trkpt lat="46.74774" lon="5.7852">
        <ele>618.6</ele>
        <time>2015-07-12T07:50:34Z</time>
      </trkpt>
      <trkpt lat="46.74763" lon="5.78515">
        <ele>618.5</ele>
        <time>2015-07-12T07:50:36Z</time>
      </trkpt>
      <trkpt lat="46.74753" lon="5.78509">
        <ele>618.4</ele>
        <time>2015-07-12T07:50:38Z</time>
      </trkpt>
      <trkpt lat="46.74745" lon="5.78504">
        <ele>618.2</ele>
        <time>2015-07-12T07:50:40Z</time>
      </trkpt>
      <trkpt lat="46.74736" lon="5.78499">
        <ele>618.1</ele>
        <time>2015-07-12T07:50:42Z</time>
      </trkpt>
      <trkpt lat="46.74728" lon="5.78493">
        <ele>618</ele>
        <time>2015-07-12T07:50:44Z</time>
      </trkpt>
      <trkpt lat="46.74719" lon="5.78487">
        <ele>617.9</ele>
        <time>2015-07-12T07:50:46Z</time>
      </trkpt>
      <trkpt lat="46.7471" lon="5.78482">
        <ele>617.7</ele>
        <time>2015-07-12T07:50:48Z</time>
      </trkpt>
      <trkpt lat="46.74701" lon="5.78476">
        <ele>617.5</ele>
        <time>2015-07-12T07:50:50Z</time>
      </trkpt>
      <trkpt lat="46.74692" lon="5.78471">
        <ele>617.4</ele>
        <time>2015-07-12T07:50:52Z</time>
      </trkpt>
      <trkpt lat="46.74682" lon="5.78466">
        <ele>617.2</ele>
        <time>2015-07-12T07:50:55Z</time>
      </trkpt>
      <trkpt lat="46.74672" lon="5.78459">
        <ele>617</ele>
        <time>2015-07-12T07:50:59Z</time>
      </trkpt>
      <trkpt lat="46.74663" lon="5.78452">
        <ele>616.8</ele>
        <time>2015-07-12T07:51:02Z</time>
      </trkpt>
      <trkpt lat="46.74651" lon="5.78444">
        <ele>616.7</ele>
        <time>2015-07-12T07:51:05Z</time>
      </trkpt>
      <trkpt lat="46.74643" lon="5.78439">
        <ele>616.6</ele>
        <time>2015-07-12T07:51:07Z</time>
      </trkpt>
      <trkpt lat="46.74633" lon="5.78435">
        <ele>616.6</ele>
        <time>2015-07-12T07:51:09Z</time>
      </trkpt>
      <trkpt lat="46.74623" lon="5.7843">
        <ele>616.5</ele>
        <time>2015-07-12T07:51:11Z</time>
      </trkpt>
      <trkpt lat="46.74612" lon="5.78425">
        <ele>616.4</ele>
        <time>2015-07-12T07:51:13Z</time>
      </trkpt>
      <trkpt lat="46.74601" lon="5.7842">
        <ele>616.3</ele>
        <time>2015-07-12T07:51:15Z</time>
      </trkpt>
      <trkpt lat="46.7459" lon="5.78415">
        <ele>616.2</ele>
        <time>2015-07-12T07:51:17Z</time>
      </trkpt>
      <trkpt lat="46.74579" lon="5.78409">
        <ele>616</ele>
        <time>2015-07-12T07:51:19Z</time>
      </trkpt>
      <trkpt lat="46.74568" lon="5.78403">
        <ele>615.9</ele>
        <time>2015-07-12T07:51:21Z</time>
      </trkpt>
      <trkpt lat="46.74556" lon="5.78396">
        <ele>615.7</ele>
        <time>2015-07-12T07:51:23Z</time>
      </trkpt>
      <trkpt lat="46.74545" lon="5.78388">
        <ele>615.5</ele>
        <time>2015-07-12T07:51:25Z</time>
      </trkpt>
      <trkpt lat="46.74535" lon="5.78381">
        <ele>615.2</ele>
        <time>2015-07-12T07:51:27Z</time>
      </trkpt>
      <trkpt lat="46.74526" lon="5.78374">
        <ele>615</ele>
        <time>2015-07-12T07:51:29Z</time>
      </trkpt>
      <trkpt lat="46.74517" lon="5.78367">
        <ele>614.9</ele>
        <time>2015-07-12T07:51:31Z</time>
      </trkpt>
      <trkpt lat="46.7451" lon="5.78358">
        <ele>614.8</ele>
        <time>2015-07-12T07:51:33Z</time>
      </trkpt>
      <trkpt lat="46.74503" lon="5.78343">
        <ele>614.8</ele>
        <time>2015-07-12T07:51:36Z</time>
      </trkpt>
      <trkpt lat="46.74496" lon="5.78328">
        <ele>614.9</ele>
        <time>2015-07-12T07:51:39Z</time>
      </trkpt>
      <trkpt lat="46.74487" lon="5.78315">
        <ele>615.1</ele>
        <time>2015-07-12T07:51:42Z</time>
      </trkpt>
      <trkpt lat="46.74476" lon="5.78305">
        <ele>615.3</ele>
        <time>2015-07-12T07:51:45Z</time>
      </trkpt>
      <trkpt lat="46.74465" lon="5.78296">
        <ele>615.4</ele>
        <time>2015-07-12T07:51:48Z</time>
      </trkpt>
      <trkpt lat="46.74457" lon="5.7829">
        <ele>615.5</ele>
        <time>2015-07-12T07:51:50Z</time>
      </trkpt>
      <trkpt lat="46.74448" lon="5.78284">
        <ele>615.6</ele>
        <time>2015-07-12T07:51:52Z</time>
      </trkpt>
      <trkpt lat="46.74438" lon="5.78277">
        <ele>615.7</ele>
        <time>2015-07-12T07:51:54Z</time>
      </trkpt>
      <trkpt lat="46.74429" lon="5.7827">
        <ele>615.7</ele>
        <time>2015-07-12T07:51:56Z</time>
      </trkpt>
      <trkpt lat="46.74419" lon="5.78262">
        <ele>615.8</ele>
        <time>2015-07-12T07:51:58Z</time>
      </trkpt>
      <trkpt lat="46.74411" lon="5.78254">
        <ele>615.8</ele>
        <time>2015-07-12T07:52:00Z</time>
      </trkpt>
      <trkpt lat="46.74402" lon="5.78246">
        <ele>615.9</ele>
        <time>2015-07-12T07:52:02Z</time>
      </trkpt>
      <trkpt lat="46.74394" lon="5.78239">
        <ele>615.9</ele>
        <time>2015-07-12T07:52:04Z</time>
      </trkpt>
      <trkpt lat="46.74386" lon="5.78231">
        <ele>616</ele>
        <time>2015-07-12T07:52:06Z</time>
      </trkpt>
      <trkpt lat="46.74376" lon="5.78219">
        <ele>616.2</ele>
        <time>2015-07-12T07:52:09Z</time>
      </trkpt>
      <trkpt lat="46.74365" lon="5.78206">
        <ele>616.3</ele>
        <time>2015-07-12T07:52:12Z</time>
      </trkpt>
      <trkpt lat="46.74355" lon="5.78194">
        <ele>616.4</ele>
        <time>2015-07-12T07:52:15Z</time>
      </trkpt>
      <trkpt lat="46.74349" lon="5.78184">
        <ele>616.4</ele>
        <time>2015-07-12T07:52:17Z</time>
      </trkpt>
      <trkpt lat="46.74343" lon="5.78173">
        <ele>616.5</ele>
        <time>2015-07-12T07:52:19Z</time>
      </trkpt>
      <trkpt lat="46.74339" lon="5.7816">
        <ele>616.5</ele>
        <time>2015-07-12T07:52:21Z</time>
      </trkpt>
      <trkpt lat="46.74334" lon="5.78148">
        <ele>616.6</ele>
        <time>2015-07-12T07:52:23Z</time>
      </trkpt>
      <trkpt lat="46.74329" lon="5.78138">
        <ele>616.6</ele>
        <time>2015-07-12T07:52:25Z</time>
      </trkpt>
      <trkpt lat="46.74321" lon="5.78126">
        <ele>616.7</ele>
        <time>2015-07-12T07:52:28Z</time>
      </trkpt>
      <trkpt lat="46.74313" lon="5.78114">
        <ele>616.8</ele>
        <time>2015-07-12T07:52:32Z</time>
      </trkpt>
      <trkpt lat="46.74304" lon="5.78105">
        <ele>617.3</ele>
        <time>2015-07-12T07:52:36Z</time>
      </trkpt>
      <trkpt lat="46.74296" lon="5.78097">
        <ele>617.8</ele>
        <time>2015-07-12T07:52:40Z</time>
      </trkpt>
      <trkpt lat="46.74287" lon="5.78089">
        <ele>618.4</ele>
        <time>2015-07-12T07:52:44Z</time>
      </trkpt>
      <trkpt lat="46.74278" lon="5.78081">
        <ele>618.9</ele>
        <time>2015-07-12T07:52:48Z</time>
      </trkpt>
      <trkpt lat="46.74269" lon="5.78072">
        <ele>619.5</ele>
        <time>2015-07-12T07:52:52Z</time>
      </trkpt>
      <trkpt lat="46.7426" lon="5.78063">
        <ele>620.3</ele>
        <time>2015-07-12T07:52:57Z</time>
      </trkpt>
      <trkpt lat="46.74251" lon="5.78054">
        <ele>621.2</ele>
        <time>2015-07-12T07:53:02Z</time>
      </trkpt>
      <trkpt lat="46.74244" lon="5.78046">
        <ele>622</ele>
        <time>2015-07-12T07:53:07Z</time>
      </trkpt>
      <trkpt lat="46.74236" lon="5.78039">
        <ele>622.7</ele>
        <time>2015-07-12T07:53:11Z</time>
      </trkpt>
      <trkpt lat="46.74228" lon="5.78031">
        <ele>623.4</ele>
        <time>2015-07-12T07:53:16Z</time>
      </trkpt>
      <trkpt lat="46.74222" lon="5.78018">
        <ele>624</ele>
        <time>2015-07-12T07:53:21Z</time>
      </trkpt>
      <trkpt lat="46.74215" lon="5.78006">
        <ele>624.8</ele>
        <time>2015-07-12T07:53:26Z</time>
      </trkpt>
      <trkpt lat="46.74208" lon="5.77994">
        <ele>625.3</ele>
        <time>2015-07-12T07:53:30Z</time>
      </trkpt>
      <trkpt lat="46.74202" lon="5.77983">
        <ele>625.7</ele>
        <time>2015-07-12T07:53:34Z</time>
      </trkpt>
      <trkpt lat="46.74195" lon="5.7797">
        <ele>626.1</ele>
        <time>2015-07-12T07:53:38Z</time>
      </trkpt>
      <trkpt lat="46.74189" lon="5.77958">
        <ele>626.5</ele>
        <time>2015-07-12T07:53:42Z</time>
      </trkpt>
      <trkpt lat="46.74183" lon="5.77945">
        <ele>626.9</ele>
        <time>2015-07-12T07:53:46Z</time>
      </trkpt>
      <trkpt lat="46.74177" lon="5.77933">
        <ele>627.3</ele>
        <time>2015-07-12T07:53:50Z</time>
      </trkpt>
      <trkpt lat="46.7417" lon="5.77922">
        <ele>627.7</ele>
        <time>2015-07-12T07:53:54Z</time>
      </trkpt>
      <trkpt lat="46.74165" lon="5.77912">
        <ele>628.3</ele>
        <time>2015-07-12T07:53:58Z</time>
      </trkpt>
      <trkpt lat="46.74159" lon="5.779">
        <ele>628.8</ele>
        <time>2015-07-12T07:54:02Z</time>
      </trkpt>
      <trkpt lat="46.74152" lon="5.77888">
        <ele>629.3</ele>
        <time>2015-07-12T07:54:06Z</time>
      </trkpt>
      <trkpt lat="46.74147" lon="5.77876">
        <ele>629.8</ele>
        <time>2015-07-12T07:54:10Z</time>
      </trkpt>
      <trkpt lat="46.74141" lon="5.77863">
        <ele>630.5</ele>
        <time>2015-07-12T07:54:14Z</time>
      </trkpt>
      <trkpt lat="46.74135" lon="5.77852">
        <ele>631.1</ele>
        <time>2015-07-12T07:54:18Z</time>
      </trkpt>
      <trkpt lat="46.74129" lon="5.7784">
        <ele>631.9</ele>
        <time>2015-07-12T07:54:23Z</time>
      </trkpt>
      <trkpt lat="46.74123" lon="5.77826">
        <ele>632.7</ele>
        <time>2015-07-12T07:54:28Z</time>
      </trkpt>
      <trkpt lat="46.74119" lon="5.77812">
        <ele>633.8</ele>
        <time>2015-07-12T07:54:34Z</time>
      </trkpt>
      <trkpt lat="46.74116" lon="5.77798">
        <ele>634.9</ele>
        <time>2015-07-12T07:54:40Z</time>
      </trkpt>
      <trkpt lat="46.74115" lon="5.77784">
        <ele>635.8</ele>
        <time>2015-07-12T07:54:45Z</time>
      </trkpt>
      <trkpt lat="46.74113" lon="5.7777">
        <ele>636.7</ele>
        <time>2015-07-12T07:54:51Z</time>
      </trkpt>
      <trkpt lat="46.74109" lon="5.77757">
        <ele>637.6</ele>
        <time>2015-07-12T07:54:57Z</time>
      </trkpt>
      <trkpt lat="46.74104" lon="5.77746">
        <ele>638.4</ele>
        <time>2015-07-12T07:55:03Z</time>
      </trkpt>
      <trkpt lat="46.74095" lon="5.77739">
        <ele>639.2</ele>
        <time>2015-07-12T07:55:09Z</time>
      </trkpt>
      <trkpt lat="46.74085" lon="5.77735">
        <ele>639.7</ele>
        <time>2015-07-12T07:55:14Z</time>
      </trkpt>
      <trkpt lat="46.74076" lon="5.77733">
        <ele>640.2</ele>
        <time>2015-07-12T07:55:20Z</time>
      </trkpt>
      <trkpt lat="46.74066" lon="5.77733">
        <ele>640.5</ele>
        <time>2015-07-12T07:55:26Z</time>
      </trkpt>
      <trkpt lat="46.74057" lon="5.77734">
        <ele>640.4</ele>
        <time>2015-07-12T07:55:29Z</time>
      </trkpt>
      <trkpt lat="46.74048" lon="5.77736">
        <ele>640.4</ele>
        <time>2015-07-12T07:55:31Z</time>
      </trkpt>
      <trkpt lat="46.74037" lon="5.77739">
        <ele>640.2</ele>
        <time>2015-07-12T07:55:33Z</time>
      </trkpt>
      <trkpt lat="46.74024" lon="5.77743">
        <ele>640</ele>
        <time>2015-07-12T07:55:35Z</time>
      </trkpt>
      <trkpt lat="46.74011" lon="5.7775">
        <ele>639.7</ele>
        <time>2015-07-12T07:55:37Z</time>
      </trkpt>
      <trkpt lat="46.73998" lon="5.77758">
        <ele>639.5</ele>
        <time>2015-07-12T07:55:39Z</time>
      </trkpt>
      <trkpt lat="46.73987" lon="5.77765">
        <ele>638.9</ele>
        <time>2015-07-12T07:55:41Z</time>
      </trkpt>
      <trkpt lat="46.73977" lon="5.7777">
        <ele>638.2</ele>
        <time>2015-07-12T07:55:43Z</time>
      </trkpt>
      <trkpt lat="46.73964" lon="5.77776">
        <ele>637.4</ele>
        <time>2015-07-12T07:55:45Z</time>
      </trkpt>
      <trkpt lat="46.73952" lon="5.77782">
        <ele>636.4</ele>
        <time>2015-07-12T07:55:47Z</time>
      </trkpt>
      <trkpt lat="46.7394" lon="5.77789">
        <ele>635.4</ele>
        <time>2015-07-12T07:55:49Z</time>
      </trkpt>
      <trkpt lat="46.73929" lon="5.77794">
        <ele>634.5</ele>
        <time>2015-07-12T07:55:51Z</time>
      </trkpt>
      <trkpt lat="46.7392" lon="5.77796">
        <ele>633.4</ele>
        <time>2015-07-12T07:55:53Z</time>
      </trkpt>
      <trkpt lat="46.7391" lon="5.77804">
        <ele>631.7</ele>
        <time>2015-07-12T07:55:56Z</time>
      </trkpt>
      <trkpt lat="46.73901" lon="5.77808">
        <ele>630.6</ele>
        <time>2015-07-12T07:55:58Z</time>
      </trkpt>
      <trkpt lat="46.7389" lon="5.77811">
        <ele>629.5</ele>
        <time>2015-07-12T07:56:00Z</time>
      </trkpt>
      <trkpt lat="46.73879" lon="5.77814">
        <ele>628.5</ele>
        <time>2015-07-12T07:56:02Z</time>
      </trkpt>
      <trkpt lat="46.73868" lon="5.77816">
        <ele>627.5</ele>
        <time>2015-07-12T07:56:04Z</time>
      </trkpt>
      <trkpt lat="46.73857" lon="5.77815">
        <ele>626.5</ele>
        <time>2015-07-12T07:56:06Z</time>
      </trkpt>
      <trkpt lat="46.73845" lon="5.77816">
        <ele>625.5</ele>
        <time>2015-07-12T07:56:08Z</time>
      </trkpt>
      <trkpt lat="46.73834" lon="5.77816">
        <ele>624.6</ele>
        <time>2015-07-12T07:56:10Z</time>
      </trkpt>
      <trkpt lat="46.73822" lon="5.77815">
        <ele>623.6</ele>
        <time>2015-07-12T07:56:12Z</time>
      </trkpt>
      <trkpt lat="46.73811" lon="5.77814">
        <ele>622.6</ele>
        <time>2015-07-12T07:56:14Z</time>
      </trkpt>
      <trkpt lat="46.73797" lon="5.77812">
        <ele>621.7</ele>
        <time>2015-07-12T07:56:16Z</time>
      </trkpt>
      <trkpt lat="46.73786" lon="5.77813">
        <ele>620.7</ele>
        <time>2015-07-12T07:56:18Z</time>
      </trkpt>
      <trkpt lat="46.73774" lon="5.77813">
        <ele>619.7</ele>
        <time>2015-07-12T07:56:20Z</time>
      </trkpt>
      <trkpt lat="46.73763" lon="5.77813">
        <ele>618.6</ele>
        <time>2015-07-12T07:56:22Z</time>
      </trkpt>
      <trkpt lat="46.73751" lon="5.77815">
        <ele>617.5</ele>
        <time>2015-07-12T07:56:24Z</time>
      </trkpt>
      <trkpt lat="46.73737" lon="5.77817">
        <ele>616.5</ele>
        <time>2015-07-12T07:56:26Z</time>
      </trkpt>
      <trkpt lat="46.73723" lon="5.77819">
        <ele>615.5</ele>
        <time>2015-07-12T07:56:28Z</time>
      </trkpt>
      <trkpt lat="46.73711" lon="5.77822">
        <ele>614.6</ele>
        <time>2015-07-12T07:56:30Z</time>
      </trkpt>
      <trkpt lat="46.737" lon="5.77823">
        <ele>613.1</ele>
        <time>2015-07-12T07:56:33Z</time>
      </trkpt>
      <trkpt lat="46.73688" lon="5.77824">
        <ele>611.3</ele>
        <time>2015-07-12T07:56:37Z</time>
      </trkpt>
      <trkpt lat="46.73677" lon="5.77826">
        <ele>610</ele>
        <time>2015-07-12T07:56:40Z</time>
      </trkpt>
      <trkpt lat="46.73666" lon="5.77824">
        <ele>608.7</ele>
        <time>2015-07-12T07:56:43Z</time>
      </trkpt>
      <trkpt lat="46.73654" lon="5.77824">
        <ele>607.3</ele>
        <time>2015-07-12T07:56:46Z</time>
      </trkpt>
      <trkpt lat="46.73642" lon="5.77825">
        <ele>606</ele>
        <time>2015-07-12T07:56:49Z</time>
      </trkpt>
      <trkpt lat="46.7363" lon="5.77827">
        <ele>604.4</ele>
        <time>2015-07-12T07:56:52Z</time>
      </trkpt>
      <trkpt lat="46.7362" lon="5.77828">
        <ele>603.3</ele>
        <time>2015-07-12T07:56:54Z</time>
      </trkpt>
      <trkpt lat="46.73608" lon="5.7783">
        <ele>601.4</ele>
        <time>2015-07-12T07:56:57Z</time>
      </trkpt>
      <trkpt lat="46.73597" lon="5.77832">
        <ele>599.7</ele>
        <time>2015-07-12T07:57:00Z</time>
      </trkpt>
      <trkpt lat="46.73586" lon="5.77833">
        <ele>597.9</ele>
        <time>2015-07-12T07:57:03Z</time>
      </trkpt>
      <trkpt lat="46.73575" lon="5.77835">
        <ele>595.6</ele>
        <time>2015-07-12T07:57:07Z</time>
      </trkpt>
      <trkpt lat="46.73563" lon="5.77837">
        <ele>593.9</ele>
        <time>2015-07-12T07:57:10Z</time>
      </trkpt>
      <trkpt lat="46.7355" lon="5.77836">
        <ele>592.2</ele>
        <time>2015-07-12T07:57:13Z</time>
      </trkpt>
      <trkpt lat="46.73538" lon="5.77837">
        <ele>590.6</ele>
        <time>2015-07-12T07:57:16Z</time>
      </trkpt>
      <trkpt lat="46.73529" lon="5.77839">
        <ele>589.5</ele>
        <time>2015-07-12T07:57:18Z</time>
      </trkpt>
      <trkpt lat="46.73517" lon="5.7784">
        <ele>587.8</ele>
        <time>2015-07-12T07:57:21Z</time>
      </trkpt>
      <trkpt lat="46.73504" lon="5.77841">
        <ele>586.1</ele>
        <time>2015-07-12T07:57:24Z</time>
      </trkpt>
      <trkpt lat="46.73494" lon="5.77841">
        <ele>584.9</ele>
        <time>2015-07-12T07:57:26Z</time>
      </trkpt>
      <trkpt lat="46.73485" lon="5.77841">
        <ele>583.7</ele>
        <time>2015-07-12T07:57:28Z</time>
      </trkpt>
      <trkpt lat="46.73474" lon="5.77845">
        <ele>581.9</ele>
        <time>2015-07-12T07:57:31Z</time>
      </trkpt>
      <trkpt lat="46.73462" lon="5.77848">
        <ele>579.4</ele>
        <time>2015-07-12T07:57:35Z</time>
      </trkpt>
      <trkpt lat="46.73451" lon="5.77847">
        <ele>577.5</ele>
        <time>2015-07-12T07:57:38Z</time>
      </trkpt>
      <trkpt lat="46.73443" lon="5.77842">
        <ele>575.2</ele>
        <time>2015-07-12T07:57:42Z</time>
      </trkpt>
      <trkpt lat="46.73433" lon="5.77846">
        <ele>573</ele>
        <time>2015-07-12T07:57:46Z</time>
      </trkpt>
      <trkpt lat="46.73423" lon="5.77849">
        <ele>571.6</ele>
        <time>2015-07-12T07:57:49Z</time>
      </trkpt>
      <trkpt lat="46.73414" lon="5.77847">
        <ele>570.5</ele>
        <time>2015-07-12T07:57:51Z</time>
      </trkpt>
      <trkpt lat="46.73405" lon="5.77845">
        <ele>569.6</ele>
        <time>2015-07-12T07:57:53Z</time>
      </trkpt>
      <trkpt lat="46.73392" lon="5.77848">
        <ele>568.4</ele>
        <time>2015-07-12T07:57:56Z</time>
      </trkpt>
      <trkpt lat="46.73381" lon="5.77851">
        <ele>567.2</ele>
        <time>2015-07-12T07:57:59Z</time>
      </trkpt>
      <trkpt lat="46.73371" lon="5.77851">
        <ele>566.4</ele>
        <time>2015-07-12T07:58:01Z</time>
      </trkpt>
      <trkpt lat="46.73362" lon="5.77852">
        <ele>565.7</ele>
        <time>2015-07-12T07:58:03Z</time>
      </trkpt>
      <trkpt lat="46.73352" lon="5.77853">
        <ele>564.9</ele>
        <time>2015-07-12T07:58:05Z</time>
      </trkpt>
      <trkpt lat="46.73343" lon="5.77854">
        <ele>564.1</ele>
        <time>2015-07-12T07:58:07Z</time>
      </trkpt>
      <trkpt lat="46.73334" lon="5.77855">
        <ele>563</ele>
        <time>2015-07-12T07:58:09Z</time>
      </trkpt>
      <trkpt lat="46.73324" lon="5.77855">
        <ele>561.9</ele>
        <time>2015-07-12T07:58:11Z</time>
      </trkpt>
      <trkpt lat="46.73311" lon="5.77858">
        <ele>560.4</ele>
        <time>2015-07-12T07:58:14Z</time>
      </trkpt>
      <trkpt lat="46.73301" lon="5.77857">
        <ele>559.3</ele>
        <time>2015-07-12T07:58:16Z</time>
      </trkpt>
      <trkpt lat="46.73288" lon="5.77859">
        <ele>557.6</ele>
        <time>2015-07-12T07:58:19Z</time>
      </trkpt>
      <trkpt lat="46.73278" lon="5.77861">
        <ele>556.6</ele>
        <time>2015-07-12T07:58:21Z</time>
      </trkpt>
      <trkpt lat="46.73269" lon="5.77864">
        <ele>555.5</ele>
        <time>2015-07-12T07:58:23Z</time>
      </trkpt>
      <trkpt lat="46.7326" lon="5.77864">
        <ele>554.4</ele>
        <time>2015-07-12T07:58:25Z</time>
      </trkpt>
      <trkpt lat="46.7325" lon="5.77866">
        <ele>553.3</ele>
        <time>2015-07-12T07:58:27Z</time>
      </trkpt>
      <trkpt lat="46.73239" lon="5.77868">
        <ele>552</ele>
        <time>2015-07-12T07:58:29Z</time>
      </trkpt>
      <trkpt lat="46.73227" lon="5.7787">
        <ele>550.9</ele>
        <time>2015-07-12T07:58:31Z</time>
      </trkpt>
      <trkpt lat="46.73215" lon="5.77871">
        <ele>549.9</ele>
        <time>2015-07-12T07:58:33Z</time>
      </trkpt>
      <trkpt lat="46.73203" lon="5.77871">
        <ele>549</ele>
        <time>2015-07-12T07:58:35Z</time>
      </trkpt>
      <trkpt lat="46.73193" lon="5.77872">
        <ele>548.1</ele>
        <time>2015-07-12T07:58:37Z</time>
      </trkpt>
      <trkpt lat="46.73183" lon="5.77872">
        <ele>547.3</ele>
        <time>2015-07-12T07:58:39Z</time>
      </trkpt>
      <trkpt lat="46.73172" lon="5.77872">
        <ele>546.5</ele>
        <time>2015-07-12T07:58:41Z</time>
      </trkpt>
      <trkpt lat="46.73161" lon="5.77874">
        <ele>545.5</ele>
        <time>2015-07-12T07:58:43Z</time>
      </trkpt>
      <trkpt lat="46.73148" lon="5.77875">
        <ele>544.6</ele>
        <time>2015-07-12T07:58:45Z</time>
      </trkpt>
      <trkpt lat="46.73135" lon="5.77876">
        <ele>543.6</ele>
        <time>2015-07-12T07:58:47Z</time>
      </trkpt>
      <trkpt lat="46.73123" lon="5.77877">
        <ele>542.7</ele>
        <time>2015-07-12T07:58:49Z</time>
      </trkpt>
      <trkpt lat="46.73113" lon="5.77877">
        <ele>541.8</ele>
        <time>2015-07-12T07:58:51Z</time>
      </trkpt>
      <trkpt lat="46.731" lon="5.77879">
        <ele>540.9</ele>
        <time>2015-07-12T07:58:53Z</time>
      </trkpt>
      <trkpt lat="46.73088" lon="5.77882">
        <ele>539.9</ele>
        <time>2015-07-12T07:58:55Z</time>
      </trkpt>
      <trkpt lat="46.73077" lon="5.77883">
        <ele>539</ele>
        <time>2015-07-12T07:58:57Z</time>
      </trkpt>
      <trkpt lat="46.73064" lon="5.77885">
        <ele>537.3</ele>
        <time>2015-07-12T07:59:00Z</time>
      </trkpt>
      <trkpt lat="46.73055" lon="5.77886">
        <ele>535.7</ele>
        <time>2015-07-12T07:59:03Z</time>
      </trkpt>
      <trkpt lat="46.73043" lon="5.77887">
        <ele>534.3</ele>
        <time>2015-07-12T07:59:06Z</time>
      </trkpt>
      <trkpt lat="46.73034" lon="5.77889">
        <ele>533.1</ele>
        <time>2015-07-12T07:59:08Z</time>
      </trkpt>
      <trkpt lat="46.7302" lon="5.77891">
        <ele>531.6</ele>
        <time>2015-07-12T07:59:11Z</time>
      </trkpt>
      <trkpt lat="46.73011" lon="5.77891">
        <ele>530.7</ele>
        <time>2015-07-12T07:59:13Z</time>
      </trkpt>
      <trkpt lat="46.73001" lon="5.77892">
        <ele>529.9</ele>
        <time>2015-07-12T07:59:15Z</time>
      </trkpt>
      <trkpt lat="46.7299" lon="5.77891">
        <ele>528.9</ele>
        <time>2015-07-12T07:59:17Z</time>
      </trkpt>
      <trkpt lat="46.72979" lon="5.77893">
        <ele>528</ele>
        <time>2015-07-12T07:59:19Z</time>
      </trkpt>
      <trkpt lat="46.72968" lon="5.77894">
        <ele>527.1</ele>
        <time>2015-07-12T07:59:21Z</time>
      </trkpt>
      <trkpt lat="46.72954" lon="5.77892">
        <ele>525.9</ele>
        <time>2015-07-12T07:59:24Z</time>
      </trkpt>
      <trkpt lat="46.72944" lon="5.77892">
        <ele>524.9</ele>
        <time>2015-07-12T07:59:26Z</time>
      </trkpt>
      <trkpt lat="46.72933" lon="5.77897">
        <ele>523.8</ele>
        <time>2015-07-12T07:59:28Z</time>
      </trkpt>
      <trkpt lat="46.72923" lon="5.77903">
        <ele>522.8</ele>
        <time>2015-07-12T07:59:30Z</time>
      </trkpt>
      <trkpt lat="46.72914" lon="5.77905">
        <ele>521.8</ele>
        <time>2015-07-12T07:59:32Z</time>
      </trkpt>
      <trkpt lat="46.72904" lon="5.77907">
        <ele>520.8</ele>
        <time>2015-07-12T07:59:34Z</time>
      </trkpt>
      <trkpt lat="46.72894" lon="5.77909">
        <ele>519.8</ele>
        <time>2015-07-12T07:59:36Z</time>
      </trkpt>
      <trkpt lat="46.72884" lon="5.77912">
        <ele>518.7</ele>
        <time>2015-07-12T07:59:38Z</time>
      </trkpt>
      <trkpt lat="46.72874" lon="5.77915">
        <ele>517.6</ele>
        <time>2015-07-12T07:59:40Z</time>
      </trkpt>
      <trkpt lat="46.7286" lon="5.77919">
        <ele>516.1</ele>
        <time>2015-07-12T07:59:43Z</time>
      </trkpt>
      <trkpt lat="46.7285" lon="5.77923">
        <ele>515.1</ele>
        <time>2015-07-12T07:59:45Z</time>
      </trkpt>
      <trkpt lat="46.72841" lon="5.77926">
        <ele>514.2</ele>
        <time>2015-07-12T07:59:47Z</time>
      </trkpt>
      <trkpt lat="46.72831" lon="5.7793">
        <ele>512.6</ele>
        <time>2015-07-12T07:59:51Z</time>
      </trkpt>
      <trkpt lat="46.7282" lon="5.77937">
        <ele>511.3</ele>
        <time>2015-07-12T07:59:55Z</time>
      </trkpt>
      <trkpt lat="46.72811" lon="5.7795">
        <ele>510.5</ele>
        <time>2015-07-12T07:59:58Z</time>
      </trkpt>
      <trkpt lat="46.72805" lon="5.77961">
        <ele>509.9</ele>
        <time>2015-07-12T08:00:00Z</time>
      </trkpt>
      <trkpt lat="46.72798" lon="5.77971">
        <ele>509.4</ele>
        <time>2015-07-12T08:00:02Z</time>
      </trkpt>
      <trkpt lat="46.7279" lon="5.77985">
        <ele>508.6</ele>
        <time>2015-07-12T08:00:05Z</time>
      </trkpt>
      <trkpt lat="46.7279" lon="5.78">
        <ele>507.2</ele>
        <time>2015-07-12T08:00:10Z</time>
      </trkpt>
      <trkpt lat="46.72799" lon="5.78004">
        <ele>506.6</ele>
        <time>2015-07-12T08:00:13Z</time>
      </trkpt>
      <trkpt lat="46.72812" lon="5.78004">
        <ele>506</ele>
        <time>2015-07-12T08:00:16Z</time>
      </trkpt>
      <trkpt lat="46.72821" lon="5.78004">
        <ele>505.6</ele>
        <time>2015-07-12T08:00:18Z</time>
      </trkpt>
      <trkpt lat="46.72831" lon="5.78006">
        <ele>505.2</ele>
        <time>2015-07-12T08:00:20Z</time>
      </trkpt>
      <trkpt lat="46.7284" lon="5.78011">
        <ele>504.7</ele>
        <time>2015-07-12T08:00:22Z</time>
      </trkpt>
      <trkpt lat="46.72844" lon="5.78023">
        <ele>503.7</ele>
        <time>2015-07-12T08:00:26Z</time>
      </trkpt>
      <trkpt lat="46.72843" lon="5.78037">
        <ele>502.7</ele>
        <time>2015-07-12T08:00:31Z</time>
      </trkpt>
      <trkpt lat="46.72834" lon="5.78042">
        <ele>500</ele>
        <time>2015-07-12T08:01:01Z</time>
      </trkpt>
      <trkpt lat="46.72827" lon="5.78051">
        <ele>499.9</ele>
        <time>2015-07-12T08:01:04Z</time>
      </trkpt>
      <trkpt lat="46.72818" lon="5.78065">
        <ele>499.8</ele>
        <time>2015-07-12T08:01:07Z</time>
      </trkpt>
      <trkpt lat="46.72809" lon="5.78075">
        <ele>499.6</ele>
        <time>2015-07-12T08:01:09Z</time>
      </trkpt>
      <trkpt lat="46.728" lon="5.78085">
        <ele>499.5</ele>
        <time>2015-07-12T08:01:11Z</time>
      </trkpt>
      <trkpt lat="46.72789" lon="5.78091">
        <ele>499.2</ele>
        <time>2015-07-12T08:01:13Z</time>
      </trkpt>
      <trkpt lat="46.72777" lon="5.78094">
        <ele>498.9</ele>
        <time>2015-07-12T08:01:15Z</time>
      </trkpt>
      <trkpt lat="46.72763" lon="5.78091">
        <ele>498.6</ele>
        <time>2015-07-12T08:01:17Z</time>
      </trkpt>
      <trkpt lat="46.72748" lon="5.78082">
        <ele>498.2</ele>
        <time>2015-07-12T08:01:19Z</time>
      </trkpt>
      <trkpt lat="46.72733" lon="5.78073">
        <ele>497.7</ele>
        <time>2015-07-12T08:01:21Z</time>
      </trkpt>
      <trkpt lat="46.72718" lon="5.78065">
        <ele>497.3</ele>
        <time>2015-07-12T08:01:23Z</time>
      </trkpt>
      <trkpt lat="46.72704" lon="5.7806">
        <ele>496.8</ele>
        <time>2015-07-12T08:01:25Z</time>
      </trkpt>
      <trkpt lat="46.72694" lon="5.78061">
        <ele>496.1</ele>
        <time>2015-07-12T08:01:27Z</time>
      </trkpt>
      <trkpt lat="46.72686" lon="5.78067">
        <ele>495.1</ele>
        <time>2015-07-12T08:01:30Z</time>
      </trkpt>
      <trkpt lat="46.72686" lon="5.78084">
        <ele>493.8</ele>
        <time>2015-07-12T08:01:35Z</time>
      </trkpt>
      <trkpt lat="46.72689" lon="5.78097">
        <ele>493.4</ele>
        <time>2015-07-12T08:01:37Z</time>
      </trkpt>
      <trkpt lat="46.72695" lon="5.78109">
        <ele>493</ele>
        <time>2015-07-12T08:01:39Z</time>
      </trkpt>
      <trkpt lat="46.727" lon="5.78123">
        <ele>492.7</ele>
        <time>2015-07-12T08:01:41Z</time>
      </trkpt>
      <trkpt lat="46.72705" lon="5.78137">
        <ele>492.3</ele>
        <time>2015-07-12T08:01:43Z</time>
      </trkpt>
      <trkpt lat="46.7271" lon="5.78153">
        <ele>492</ele>
        <time>2015-07-12T08:01:45Z</time>
      </trkpt>
      <trkpt lat="46.72716" lon="5.78169">
        <ele>491.6</ele>
        <time>2015-07-12T08:01:47Z</time>
      </trkpt>
      <trkpt lat="46.72722" lon="5.78186">
        <ele>491.3</ele>
        <time>2015-07-12T08:01:49Z</time>
      </trkpt>
      <trkpt lat="46.72729" lon="5.78204">
        <ele>491</ele>
        <time>2015-07-12T08:01:51Z</time>
      </trkpt>
      <trkpt lat="46.72734" lon="5.78222">
        <ele>490.6</ele>
        <time>2015-07-12T08:01:53Z</time>
      </trkpt>
      <trkpt lat="46.72738" lon="5.78241">
        <ele>490.3</ele>
        <time>2015-07-12T08:01:55Z</time>
      </trkpt>
      <trkpt lat="46.72739" lon="5.7826">
        <ele>490.1</ele>
        <time>2015-07-12T08:01:57Z</time>
      </trkpt>
      <trkpt lat="46.72739" lon="5.7828">
        <ele>489.8</ele>
        <time>2015-07-12T08:01:59Z</time>
      </trkpt>
      <trkpt lat="46.72738" lon="5.78301">
        <ele>489.5</ele>
        <time>2015-07-12T08:02:01Z</time>
      </trkpt>
      <trkpt lat="46.72735" lon="5.7832">
        <ele>489.3</ele>
        <time>2015-07-12T08:02:03Z</time>
      </trkpt>
      <trkpt lat="46.7273" lon="5.78335">
        <ele>489.1</ele>
        <time>2015-07-12T08:02:05Z</time>
      </trkpt>
      <trkpt lat="46.72723" lon="5.78348">
        <ele>488.9</ele>
        <time>2015-07-12T08:02:07Z</time>
      </trkpt>
      <trkpt lat="46.72716" lon="5.7836">
        <ele>488.8</ele>
        <time>2015-07-12T08:02:09Z</time>
      </trkpt>
      <trkpt lat="46.72711" lon="5.78372">
        <ele>488.7</ele>
        <time>2015-07-12T08:02:11Z</time>
      </trkpt>
      <trkpt lat="46.72705" lon="5.78384">
        <ele>488.6</ele>
        <time>2015-07-12T08:02:13Z</time>
      </trkpt>
      <trkpt lat="46.72699" lon="5.78397">
        <ele>488.5</ele>
        <time>2015-07-12T08:02:15Z</time>
      </trkpt>
      <trkpt lat="46.72693" lon="5.7841">
        <ele>488.4</ele>
        <time>2015-07-12T08:02:17Z</time>
      </trkpt>
      <trkpt lat="46.72686" lon="5.78426">
        <ele>488.3</ele>
        <time>2015-07-12T08:02:19Z</time>
      </trkpt>
      <trkpt lat="46.7268" lon="5.78442">
        <ele>488.2</ele>
        <time>2015-07-12T08:02:21Z</time>
      </trkpt>
      <trkpt lat="46.72674" lon="5.7846">
        <ele>488</ele>
        <time>2015-07-12T08:02:23Z</time>
      </trkpt>
      <trkpt lat="46.72669" lon="5.78479">
        <ele>487.9</ele>
        <time>2015-07-12T08:02:25Z</time>
      </trkpt>
      <trkpt lat="46.72664" lon="5.78497">
        <ele>487.7</ele>
        <time>2015-07-12T08:02:27Z</time>
      </trkpt>
      <trkpt lat="46.7266" lon="5.78515">
        <ele>487.6</ele>
        <time>2015-07-12T08:02:29Z</time>
      </trkpt>
      <trkpt lat="46.72656" lon="5.78532">
        <ele>487.5</ele>
        <time>2015-07-12T08:02:31Z</time>
      </trkpt>
      <trkpt lat="46.72651" lon="5.78549">
        <ele>487.4</ele>
        <time>2015-07-12T08:02:33Z</time>
      </trkpt>
      <trkpt lat="46.72647" lon="5.78566">
        <ele>487.3</ele>
        <time>2015-07-12T08:02:35Z</time>
      </trkpt>
      <trkpt lat="46.72643" lon="5.78582">
        <ele>487.2</ele>
        <time>2015-07-12T08:02:37Z</time>
      </trkpt>
      <trkpt lat="46.72639" lon="5.78598">
        <ele>487.2</ele>
        <time>2015-07-12T08:02:39Z</time>
      </trkpt>
      <trkpt lat="46.72632" lon="5.78611">
        <ele>487.1</ele>
        <time>2015-07-12T08:02:41Z</time>
      </trkpt>
      <trkpt lat="46.72622" lon="5.78616">
        <ele>487.2</ele>
        <time>2015-07-12T08:02:43Z</time>
      </trkpt>
      <trkpt lat="46.7261" lon="5.78617">
        <ele>487.2</ele>
        <time>2015-07-12T08:02:45Z</time>
      </trkpt>
      <trkpt lat="46.72599" lon="5.78618">
        <ele>487.3</ele>
        <time>2015-07-12T08:02:47Z</time>
      </trkpt>
      <trkpt lat="46.72587" lon="5.78621">
        <ele>487.4</ele>
        <time>2015-07-12T08:02:49Z</time>
      </trkpt>
      <trkpt lat="46.72577" lon="5.78626">
        <ele>487.5</ele>
        <time>2015-07-12T08:02:51Z</time>
      </trkpt>
      <trkpt lat="46.72566" lon="5.78632">
        <ele>487.6</ele>
        <time>2015-07-12T08:02:53Z</time>
      </trkpt>
      <trkpt lat="46.72556" lon="5.7864">
        <ele>487.7</ele>
        <time>2015-07-12T08:02:55Z</time>
      </trkpt>
      <trkpt lat="46.72547" lon="5.78648">
        <ele>487.8</ele>
        <time>2015-07-12T08:02:57Z</time>
      </trkpt>
      <trkpt lat="46.72536" lon="5.78656">
        <ele>488</ele>
        <time>2015-07-12T08:02:59Z</time>
      </trkpt>
      <trkpt lat="46.72526" lon="5.78665">
        <ele>488.1</ele>
        <time>2015-07-12T08:03:01Z</time>
      </trkpt>
      <trkpt lat="46.72516" lon="5.78673">
        <ele>488.2</ele>
        <time>2015-07-12T08:03:03Z</time>
      </trkpt>
      <trkpt lat="46.72506" lon="5.78682">
        <ele>488.4</ele>
        <time>2015-07-12T08:03:05Z</time>
      </trkpt>
      <trkpt lat="46.72495" lon="5.78691">
        <ele>488.4</ele>
        <time>2015-07-12T08:03:07Z</time>
      </trkpt>
      <trkpt lat="46.72484" lon="5.78699">
        <ele>488.5</ele>
        <time>2015-07-12T08:03:09Z</time>
      </trkpt>
      <trkpt lat="46.72474" lon="5.78708">
        <ele>488.6</ele>
        <time>2015-07-12T08:03:11Z</time>
      </trkpt>
      <trkpt lat="46.72463" lon="5.78714">
        <ele>488.7</ele>
        <time>2015-07-12T08:03:13Z</time>
      </trkpt>
      <trkpt lat="46.72452" lon="5.78721">
        <ele>488.7</ele>
        <time>2015-07-12T08:03:15Z</time>
      </trkpt>
      <trkpt lat="46.72441" lon="5.78727">
        <ele>488.8</ele>
        <time>2015-07-12T08:03:17Z</time>
      </trkpt>
      <trkpt lat="46.7243" lon="5.78733">
        <ele>488.8</ele>
        <time>2015-07-12T08:03:19Z</time>
      </trkpt>
      <trkpt lat="46.7242" lon="5.7874">
        <ele>488.8</ele>
        <time>2015-07-12T08:03:21Z</time>
      </trkpt>
      <trkpt lat="46.7241" lon="5.78747">
        <ele>488.9</ele>
        <time>2015-07-12T08:03:23Z</time>
      </trkpt>
      <trkpt lat="46.72401" lon="5.78753">
        <ele>489</ele>
        <time>2015-07-12T08:03:25Z</time>
      </trkpt>
      <trkpt lat="46.72391" lon="5.78759">
        <ele>489.1</ele>
        <time>2015-07-12T08:03:27Z</time>
      </trkpt>
      <trkpt lat="46.72382" lon="5.78765">
        <ele>489.2</ele>
        <time>2015-07-12T08:03:29Z</time>
      </trkpt>
      <trkpt lat="46.72373" lon="5.78771">
        <ele>489.3</ele>
        <time>2015-07-12T08:03:31Z</time>
      </trkpt>
      <trkpt lat="46.72364" lon="5.78776">
        <ele>489.4</ele>
        <time>2015-07-12T08:03:33Z</time>
      </trkpt>
      <trkpt lat="46.72356" lon="5.78781">
        <ele>489.6</ele>
        <time>2015-07-12T08:03:35Z</time>
      </trkpt>
      <trkpt lat="46.72344" lon="5.78788">
        <ele>489.9</ele>
        <time>2015-07-12T08:03:38Z</time>
      </trkpt>
      <trkpt lat="46.72335" lon="5.78794">
        <ele>490.1</ele>
        <time>2015-07-12T08:03:40Z</time>
      </trkpt>
      <trkpt lat="46.72322" lon="5.78801">
        <ele>490.7</ele>
        <time>2015-07-12T08:03:43Z</time>
      </trkpt>
      <trkpt lat="46.7231" lon="5.78809">
        <ele>491.1</ele>
        <time>2015-07-12T08:03:46Z</time>
      </trkpt>
      <trkpt lat="46.72298" lon="5.78819">
        <ele>491.6</ele>
        <time>2015-07-12T08:03:49Z</time>
      </trkpt>
      <trkpt lat="46.72288" lon="5.78828">
        <ele>492.2</ele>
        <time>2015-07-12T08:03:52Z</time>
      </trkpt>
      <trkpt lat="46.7228" lon="5.78838">
        <ele>492.7</ele>
        <time>2015-07-12T08:03:55Z</time>
      </trkpt>
      <trkpt lat="46.72272" lon="5.78849">
        <ele>493.2</ele>
        <time>2015-07-12T08:03:58Z</time>
      </trkpt>
      <trkpt lat="46.72265" lon="5.78859">
        <ele>493.7</ele>
        <time>2015-07-12T08:04:01Z</time>
      </trkpt>
      <trkpt lat="46.7226" lon="5.7887">
        <ele>494.2</ele>
        <time>2015-07-12T08:04:04Z</time>
      </trkpt>
      <trkpt lat="46.72257" lon="5.78884">
        <ele>494.9</ele>
        <time>2015-07-12T08:04:08Z</time>
      </trkpt>
      <trkpt lat="46.72254" lon="5.78899">
        <ele>495.6</ele>
        <time>2015-07-12T08:04:12Z</time>
      </trkpt>
      <trkpt lat="46.72251" lon="5.78913">
        <ele>496</ele>
        <time>2015-07-12T08:04:15Z</time>
      </trkpt>
      <trkpt lat="46.72249" lon="5.78926">
        <ele>496.5</ele>
        <time>2015-07-12T08:04:18Z</time>
      </trkpt>
      <trkpt lat="46.72247" lon="5.7894">
        <ele>497</ele>
        <time>2015-07-12T08:04:21Z</time>
      </trkpt>
      <trkpt lat="46.72245" lon="5.78953">
        <ele>497.4</ele>
        <time>2015-07-12T08:04:24Z</time>
      </trkpt>
      <trkpt lat="46.72242" lon="5.78966">
        <ele>497.8</ele>
        <time>2015-07-12T08:04:27Z</time>
      </trkpt>
      <trkpt lat="46.72238" lon="5.78979">
        <ele>498.3</ele>
        <time>2015-07-12T08:04:30Z</time>
      </trkpt>
      <trkpt lat="46.72233" lon="5.78992">
        <ele>498.6</ele>
        <time>2015-07-12T08:04:33Z</time>
      </trkpt>
      <trkpt lat="46.72227" lon="5.79004">
        <ele>499.1</ele>
        <time>2015-07-12T08:04:36Z</time>
      </trkpt>
      <trkpt lat="46.7222" lon="5.79015">
        <ele>499.6</ele>
        <time>2015-07-12T08:04:39Z</time>
      </trkpt>
      <trkpt lat="46.72214" lon="5.79026">
        <ele>500.1</ele>
        <time>2015-07-12T08:04:42Z</time>
      </trkpt>
      <trkpt lat="46.72206" lon="5.79039">
        <ele>500.8</ele>
        <time>2015-07-12T08:04:46Z</time>
      </trkpt>
      <trkpt lat="46.72199" lon="5.7905">
        <ele>501.3</ele>
        <time>2015-07-12T08:04:49Z</time>
      </trkpt>
      <trkpt lat="46.72192" lon="5.7906">
        <ele>501.9</ele>
        <time>2015-07-12T08:04:52Z</time>
      </trkpt>
      <trkpt lat="46.72185" lon="5.79071">
        <ele>502.4</ele>
        <time>2015-07-12T08:04:55Z</time>
      </trkpt>
      <trkpt lat="46.72177" lon="5.79082">
        <ele>502.9</ele>
        <time>2015-07-12T08:04:58Z</time>
      </trkpt>
      <trkpt lat="46.72171" lon="5.79092">
        <ele>503.4</ele>
        <time>2015-07-12T08:05:01Z</time>
      </trkpt>
      <trkpt lat="46.72164" lon="5.79102">
        <ele>503.9</ele>
        <time>2015-07-12T08:05:04Z</time>
      </trkpt>
      <trkpt lat="46.72157" lon="5.79111">
        <ele>504.5</ele>
        <time>2015-07-12T08:05:07Z</time>
      </trkpt>
      <trkpt lat="46.72151" lon="5.79121">
        <ele>505</ele>
        <time>2015-07-12T08:05:10Z</time>
      </trkpt>
      <trkpt lat="46.72144" lon="5.7913">
        <ele>505.5</ele>
        <time>2015-07-12T08:05:13Z</time>
      </trkpt>
      <trkpt lat="46.72138" lon="5.7914">
        <ele>506.1</ele>
        <time>2015-07-12T08:05:16Z</time>
      </trkpt>
      <trkpt lat="46.72132" lon="5.79149">
        <ele>506.6</ele>
        <time>2015-07-12T08:05:19Z</time>
      </trkpt>
      <trkpt lat="46.72125" lon="5.79159">
        <ele>507.1</ele>
        <time>2015-07-12T08:05:22Z</time>
      </trkpt>
      <trkpt lat="46.72119" lon="5.7917">
        <ele>507.6</ele>
        <time>2015-07-12T08:05:25Z</time>
      </trkpt>
      <trkpt lat="46.72114" lon="5.79181">
        <ele>508</ele>
        <time>2015-07-12T08:05:28Z</time>
      </trkpt>
      <trkpt lat="46.72109" lon="5.79194">
        <ele>508.4</ele>
        <time>2015-07-12T08:05:31Z</time>
      </trkpt>
      <trkpt lat="46.72103" lon="5.79208">
        <ele>508.8</ele>
        <time>2015-07-12T08:05:34Z</time>
      </trkpt>
      <trkpt lat="46.72097" lon="5.79223">
        <ele>509.1</ele>
        <time>2015-07-12T08:05:37Z</time>
      </trkpt>
      <trkpt lat="46.7209" lon="5.79238">
        <ele>509.5</ele>
        <time>2015-07-12T08:05:40Z</time>
      </trkpt>
      <trkpt lat="46.72084" lon="5.79254">
        <ele>509.8</ele>
        <time>2015-07-12T08:05:43Z</time>
      </trkpt>
      <trkpt lat="46.7208" lon="5.79266">
        <ele>510</ele>
        <time>2015-07-12T08:05:45Z</time>
      </trkpt>
      <trkpt lat="46.72075" lon="5.79278">
        <ele>510.2</ele>
        <time>2015-07-12T08:05:47Z</time>
      </trkpt>
      <trkpt lat="46.7207" lon="5.7929">
        <ele>510.5</ele>
        <time>2015-07-12T08:05:49Z</time>
      </trkpt>
      <trkpt lat="46.72065" lon="5.79301">
        <ele>510.7</ele>
        <time>2015-07-12T08:05:51Z</time>
      </trkpt>
      <trkpt lat="46.7206" lon="5.79313">
        <ele>510.9</ele>
        <time>2015-07-12T08:05:53Z</time>
      </trkpt>
      <trkpt lat="46.72055" lon="5.79325">
        <ele>511.1</ele>
        <time>2015-07-12T08:05:55Z</time>
      </trkpt>
      <trkpt lat="46.7205" lon="5.79338">
        <ele>511.3</ele>
        <time>2015-07-12T08:05:57Z</time>
      </trkpt>
      <trkpt lat="46.72045" lon="5.7935">
        <ele>511.4</ele>
        <time>2015-07-12T08:05:59Z</time>
      </trkpt>
      <trkpt lat="46.7204" lon="5.79362">
        <ele>511.5</ele>
        <time>2015-07-12T08:06:01Z</time>
      </trkpt>
      <trkpt lat="46.72035" lon="5.79374">
        <ele>511.6</ele>
        <time>2015-07-12T08:06:03Z</time>
      </trkpt>
      <trkpt lat="46.7203" lon="5.79387">
        <ele>511.7</ele>
        <time>2015-07-12T08:06:05Z</time>
      </trkpt>
      <trkpt lat="46.72025" lon="5.79399">
        <ele>511.8</ele>
        <time>2015-07-12T08:06:07Z</time>
      </trkpt>
      <trkpt lat="46.72021" lon="5.79411">
        <ele>511.9</ele>
        <time>2015-07-12T08:06:09Z</time>
      </trkpt>
      <trkpt lat="46.72015" lon="5.79423">
        <ele>512</ele>
        <time>2015-07-12T08:06:11Z</time>
      </trkpt>
      <trkpt lat="46.7201" lon="5.79435">
        <ele>512.1</ele>
        <time>2015-07-12T08:06:13Z</time>
      </trkpt>
      <trkpt lat="46.72005" lon="5.79447">
        <ele>512.1</ele>
        <time>2015-07-12T08:06:15Z</time>
      </trkpt>
      <trkpt lat="46.72" lon="5.7946">
        <ele>512.2</ele>
        <time>2015-07-12T08:06:17Z</time>
      </trkpt>
      <trkpt lat="46.71995" lon="5.79472">
        <ele>512.3</ele>
        <time>2015-07-12T08:06:19Z</time>
      </trkpt>
      <trkpt lat="46.7199" lon="5.79485">
        <ele>512.5</ele>
        <time>2015-07-12T08:06:21Z</time>
      </trkpt>
      <trkpt lat="46.71985" lon="5.79497">
        <ele>512.6</ele>
        <time>2015-07-12T08:06:23Z</time>
      </trkpt>
      <trkpt lat="46.71979" lon="5.7951">
        <ele>512.7</ele>
        <time>2015-07-12T08:06:25Z</time>
      </trkpt>
      <trkpt lat="46.71974" lon="5.79522">
        <ele>512.7</ele>
        <time>2015-07-12T08:06:27Z</time>
      </trkpt>
      <trkpt lat="46.71969" lon="5.79534">
        <ele>512.8</ele>
        <time>2015-07-12T08:06:29Z</time>
      </trkpt>
      <trkpt lat="46.71964" lon="5.79546">
        <ele>512.9</ele>
        <time>2015-07-12T08:06:31Z</time>
      </trkpt>
      <trkpt lat="46.71959" lon="5.79558">
        <ele>512.9</ele>
        <time>2015-07-12T08:06:33Z</time>
      </trkpt>
      <trkpt lat="46.71954" lon="5.79571">
        <ele>513</ele>
        <time>2015-07-12T08:06:35Z</time>
      </trkpt>
      <trkpt lat="46.71948" lon="5.79582">
        <ele>513</ele>
        <time>2015-07-12T08:06:37Z</time>
      </trkpt>
      <trkpt lat="46.71938" lon="5.7959">
        <ele>513</ele>
        <time>2015-07-12T08:06:40Z</time>
      </trkpt>
      <trkpt lat="46.71929" lon="5.79592">
        <ele>513.1</ele>
        <time>2015-07-12T08:06:43Z</time>
      </trkpt>
      <trkpt lat="46.7192" lon="5.79589">
        <ele>513.1</ele>
        <time>2015-07-12T08:06:45Z</time>
      </trkpt>
      <trkpt lat="46.71911" lon="5.79585">
        <ele>513.1</ele>
        <time>2015-07-12T08:06:47Z</time>
      </trkpt>
      <trkpt lat="46.71902" lon="5.79581">
        <ele>513.1</ele>
        <time>2015-07-12T08:06:49Z</time>
      </trkpt>
      <trkpt lat="46.71893" lon="5.79576">
        <ele>513.1</ele>
        <time>2015-07-12T08:06:51Z</time>
      </trkpt>
      <trkpt lat="46.71884" lon="5.7957">
        <ele>513.1</ele>
        <time>2015-07-12T08:06:53Z</time>
      </trkpt>
      <trkpt lat="46.71874" lon="5.79565">
        <ele>513.1</ele>
        <time>2015-07-12T08:06:55Z</time>
      </trkpt>
      <trkpt lat="46.71866" lon="5.7956">
        <ele>513.1</ele>
        <time>2015-07-12T08:06:57Z</time>
      </trkpt>
      <trkpt lat="46.71857" lon="5.79555">
        <ele>513.1</ele>
        <time>2015-07-12T08:06:59Z</time>
      </trkpt>
      <trkpt lat="46.71848" lon="5.79549">
        <ele>513.1</ele>
        <time>2015-07-12T08:07:01Z</time>
      </trkpt>
      <trkpt lat="46.71838" lon="5.79544">
        <ele>513.1</ele>
        <time>2015-07-12T08:07:03Z</time>
      </trkpt>
      <trkpt lat="46.71829" lon="5.7954">
        <ele>513.1</ele>
        <time>2015-07-12T08:07:05Z</time>
      </trkpt>
      <trkpt lat="46.71821" lon="5.79535">
        <ele>513.1</ele>
        <time>2015-07-12T08:07:07Z</time>
      </trkpt>
      <trkpt lat="46.71812" lon="5.79531">
        <ele>513.1</ele>
        <time>2015-07-12T08:07:09Z</time>
      </trkpt>
      <trkpt lat="46.718" lon="5.79532">
        <ele>513.1</ele>
        <time>2015-07-12T08:07:12Z</time>
      </trkpt>
      <trkpt lat="46.71791" lon="5.79542">
        <ele>513.1</ele>
        <time>2015-07-12T08:07:15Z</time>
      </trkpt>
      <trkpt lat="46.71783" lon="5.79555">
        <ele>513.1</ele>
        <time>2015-07-12T08:07:18Z</time>
      </trkpt>
      <trkpt lat="46.71775" lon="5.79561">
        <ele>513.1</ele>
        <time>2015-07-12T08:07:20Z</time>
      </trkpt>
      <trkpt lat="46.71766" lon="5.79566">
        <ele>513.1</ele>
        <time>2015-07-12T08:07:22Z</time>
      </trkpt>
      <trkpt lat="46.71754" lon="5.79574">
        <ele>513.1</ele>
        <time>2015-07-12T08:07:25Z</time>
      </trkpt>
      <trkpt lat="46.71746" lon="5.79579">
        <ele>513.1</ele>
        <time>2015-07-12T08:07:27Z</time>
      </trkpt>
      <trkpt lat="46.71734" lon="5.79588">
        <ele>513.1</ele>
        <time>2015-07-12T08:07:30Z</time>
      </trkpt>
      <trkpt lat="46.71725" lon="5.79593">
        <ele>513.2</ele>
        <time>2015-07-12T08:07:32Z</time>
      </trkpt>
      <trkpt lat="46.71717" lon="5.79598">
        <ele>513.2</ele>
        <time>2015-07-12T08:07:34Z</time>
      </trkpt>
      <trkpt lat="46.71709" lon="5.79603">
        <ele>513.2</ele>
        <time>2015-07-12T08:07:36Z</time>
      </trkpt>
      <trkpt lat="46.717" lon="5.79609">
        <ele>513.4</ele>
        <time>2015-07-12T08:07:38Z</time>
      </trkpt>
      <trkpt lat="46.71692" lon="5.79615">
        <ele>513.5</ele>
        <time>2015-07-12T08:07:40Z</time>
      </trkpt>
      <trkpt lat="46.7168" lon="5.79622">
        <ele>513.7</ele>
        <time>2015-07-12T08:07:43Z</time>
      </trkpt>
      <trkpt lat="46.71667" lon="5.79629">
        <ele>514</ele>
        <time>2015-07-12T08:07:46Z</time>
      </trkpt>
      <trkpt lat="46.71658" lon="5.79632">
        <ele>514.1</ele>
        <time>2015-07-12T08:07:48Z</time>
      </trkpt>
      <trkpt lat="46.71648" lon="5.79635">
        <ele>514.3</ele>
        <time>2015-07-12T08:07:50Z</time>
      </trkpt>
      <trkpt lat="46.71639" lon="5.79638">
        <ele>514.5</ele>
        <time>2015-07-12T08:07:52Z</time>
      </trkpt>
      <trkpt lat="46.71629" lon="5.79641">
        <ele>514.7</ele>
        <time>2015-07-12T08:07:54Z</time>
      </trkpt>
      <trkpt lat="46.7162" lon="5.79641">
        <ele>514.9</ele>
        <time>2015-07-12T08:07:56Z</time>
      </trkpt>
      <trkpt lat="46.7161" lon="5.79642">
        <ele>515.1</ele>
        <time>2015-07-12T08:07:58Z</time>
      </trkpt>
      <trkpt lat="46.71597" lon="5.79643">
        <ele>515.3</ele>
        <time>2015-07-12T08:08:01Z</time>
      </trkpt>
      <trkpt lat="46.71584" lon="5.79644">
        <ele>515.5</ele>
        <time>2015-07-12T08:08:04Z</time>
      </trkpt>
      <trkpt lat="46.71574" lon="5.79645">
        <ele>515.7</ele>
        <time>2015-07-12T08:08:06Z</time>
      </trkpt>
      <trkpt lat="46.71565" lon="5.79646">
        <ele>515.8</ele>
        <time>2015-07-12T08:08:08Z</time>
      </trkpt>
      <trkpt lat="46.71556" lon="5.79648">
        <ele>516</ele>
        <time>2015-07-12T08:08:10Z</time>
      </trkpt>
      <trkpt lat="46.71543" lon="5.79652">
        <ele>516.3</ele>
        <time>2015-07-12T08:08:13Z</time>
      </trkpt>
      <trkpt lat="46.71532" lon="5.79658">
        <ele>516.6</ele>
        <time>2015-07-12T08:08:16Z</time>
      </trkpt>
      <trkpt lat="46.71522" lon="5.79666">
        <ele>516.9</ele>
        <time>2015-07-12T08:08:19Z</time>
      </trkpt>
      <trkpt lat="46.71514" lon="5.79676">
        <ele>517.2</ele>
        <time>2015-07-12T08:08:22Z</time>
      </trkpt>
      <trkpt lat="46.71505" lon="5.79685">
        <ele>517.5</ele>
        <time>2015-07-12T08:08:25Z</time>
      </trkpt>
      <trkpt lat="46.71496" lon="5.79694">
        <ele>517.9</ele>
        <time>2015-07-12T08:08:28Z</time>
      </trkpt>
      <trkpt lat="46.71487" lon="5.79703">
        <ele>518.2</ele>
        <time>2015-07-12T08:08:31Z</time>
      </trkpt>
      <trkpt lat="46.71478" lon="5.79713">
        <ele>518.5</ele>
        <time>2015-07-12T08:08:34Z</time>
      </trkpt>
      <trkpt lat="46.7147" lon="5.79723">
        <ele>518.8</ele>
        <time>2015-07-12T08:08:37Z</time>
      </trkpt>
      <trkpt lat="46.71463" lon="5.79732">
        <ele>519.2</ele>
        <time>2015-07-12T08:08:40Z</time>
      </trkpt>
      <trkpt lat="46.71455" lon="5.79741">
        <ele>519.6</ele>
        <time>2015-07-12T08:08:43Z</time>
      </trkpt>
      <trkpt lat="46.71447" lon="5.7975">
        <ele>519.9</ele>
        <time>2015-07-12T08:08:46Z</time>
      </trkpt>
      <trkpt lat="46.71439" lon="5.79757">
        <ele>520.3</ele>
        <time>2015-07-12T08:08:49Z</time>
      </trkpt>
      <trkpt lat="46.71431" lon="5.79765">
        <ele>520.8</ele>
        <time>2015-07-12T08:08:52Z</time>
      </trkpt>
      <trkpt lat="46.71423" lon="5.79773">
        <ele>521.2</ele>
        <time>2015-07-12T08:08:55Z</time>
      </trkpt>
      <trkpt lat="46.71417" lon="5.79782">
        <ele>521.7</ele>
        <time>2015-07-12T08:08:59Z</time>
      </trkpt>
      <trkpt lat="46.71426" lon="5.79777">
        <ele>522.4</ele>
        <time>2015-07-12T08:09:05Z</time>
      </trkpt>
      <trkpt lat="46.71436" lon="5.79772">
        <ele>522.8</ele>
        <time>2015-07-12T08:09:10Z</time>
      </trkpt>
      <trkpt lat="46.71427" lon="5.79768">
        <ele>523.2</ele>
        <time>2015-07-12T08:09:18Z</time>
      </trkpt>
      <trkpt lat="46.71418" lon="5.79778">
        <ele>523.3</ele>
        <time>2015-07-12T08:09:22Z</time>
      </trkpt>
      <trkpt lat="46.71408" lon="5.79787">
        <ele>523.4</ele>
        <time>2015-07-12T08:09:26Z</time>
      </trkpt>
      <trkpt lat="46.71399" lon="5.79796">
        <ele>523.7</ele>
        <time>2015-07-12T08:09:30Z</time>
      </trkpt>
      <trkpt lat="46.7139" lon="5.79805">
        <ele>524.1</ele>
        <time>2015-07-12T08:09:34Z</time>
      </trkpt>
      <trkpt lat="46.71381" lon="5.79814">
        <ele>524.5</ele>
        <time>2015-07-12T08:09:38Z</time>
      </trkpt>
      <trkpt lat="46.71372" lon="5.79823">
        <ele>525.1</ele>
        <time>2015-07-12T08:09:42Z</time>
      </trkpt>
      <trkpt lat="46.71363" lon="5.79832">
        <ele>525.7</ele>
        <time>2015-07-12T08:09:46Z</time>
      </trkpt>
      <trkpt lat="46.71355" lon="5.79841">
        <ele>526.3</ele>
        <time>2015-07-12T08:09:50Z</time>
      </trkpt>
      <trkpt lat="46.71346" lon="5.7985">
        <ele>526.9</ele>
        <time>2015-07-12T08:09:54Z</time>
      </trkpt>
      <trkpt lat="46.71338" lon="5.79859">
        <ele>527.6</ele>
        <time>2015-07-12T08:09:58Z</time>
      </trkpt>
      <trkpt lat="46.7133" lon="5.79868">
        <ele>528.2</ele>
        <time>2015-07-12T08:10:02Z</time>
      </trkpt>
      <trkpt lat="46.71322" lon="5.79877">
        <ele>528.8</ele>
        <time>2015-07-12T08:10:06Z</time>
      </trkpt>
      <trkpt lat="46.71312" lon="5.79883">
        <ele>529.4</ele>
        <time>2015-07-12T08:10:10Z</time>
      </trkpt>
      <trkpt lat="46.71301" lon="5.79884">
        <ele>529.9</ele>
        <time>2015-07-12T08:10:14Z</time>
      </trkpt>
      <trkpt lat="46.71291" lon="5.79884">
        <ele>530.4</ele>
        <time>2015-07-12T08:10:17Z</time>
      </trkpt>
      <trkpt lat="46.71282" lon="5.79884">
        <ele>530.7</ele>
        <time>2015-07-12T08:10:20Z</time>
      </trkpt>
      <trkpt lat="46.71272" lon="5.79883">
        <ele>531</ele>
        <time>2015-07-12T08:10:23Z</time>
      </trkpt>
      <trkpt lat="46.7126" lon="5.7988">
        <ele>531.3</ele>
        <time>2015-07-12T08:10:26Z</time>
      </trkpt>
      <trkpt lat="46.71251" lon="5.79876">
        <ele>531.4</ele>
        <time>2015-07-12T08:10:28Z</time>
      </trkpt>
      <trkpt lat="46.71243" lon="5.79871">
        <ele>531.6</ele>
        <time>2015-07-12T08:10:30Z</time>
      </trkpt>
      <trkpt lat="46.71235" lon="5.79864">
        <ele>531.7</ele>
        <time>2015-07-12T08:10:32Z</time>
      </trkpt>
      <trkpt lat="46.71225" lon="5.79851">
        <ele>531.8</ele>
        <time>2015-07-12T08:10:35Z</time>
      </trkpt>
      <trkpt lat="46.71219" lon="5.79836">
        <ele>532</ele>
        <time>2015-07-12T08:10:38Z</time>
      </trkpt>
      <trkpt lat="46.71217" lon="5.79821">
        <ele>532.1</ele>
        <time>2015-07-12T08:10:41Z</time>
      </trkpt>
      <trkpt lat="46.71216" lon="5.79807">
        <ele>532.3</ele>
        <time>2015-07-12T08:10:44Z</time>
      </trkpt>
      <trkpt lat="46.71218" lon="5.79793">
        <ele>532.5</ele>
        <time>2015-07-12T08:10:47Z</time>
      </trkpt>
      <trkpt lat="46.71221" lon="5.79779">
        <ele>532.9</ele>
        <time>2015-07-12T08:10:50Z</time>
      </trkpt>
      <trkpt lat="46.71222" lon="5.79765">
        <ele>533.2</ele>
        <time>2015-07-12T08:10:53Z</time>
      </trkpt>
      <trkpt lat="46.71219" lon="5.79751">
        <ele>533.5</ele>
        <time>2015-07-12T08:10:57Z</time>
      </trkpt>
      <trkpt lat="46.71211" lon="5.79743">
        <ele>533.8</ele>
        <time>2015-07-12T08:11:02Z</time>
      </trkpt>
      <trkpt lat="46.71205" lon="5.7973">
        <ele>534.2</ele>
        <time>2015-07-12T08:11:08Z</time>
      </trkpt>
      <trkpt lat="46.71198" lon="5.79717">
        <ele>534.6</ele>
        <time>2015-07-12T08:11:12Z</time>
      </trkpt>
      <trkpt lat="46.71194" lon="5.79701">
        <ele>534.9</ele>
        <time>2015-07-12T08:11:16Z</time>
      </trkpt>
      <trkpt lat="46.71191" lon="5.79686">
        <ele>535.1</ele>
        <time>2015-07-12T08:11:19Z</time>
      </trkpt>
      <trkpt lat="46.71187" lon="5.79671">
        <ele>535.3</ele>
        <time>2015-07-12T08:11:22Z</time>
      </trkpt>
      <trkpt lat="46.71182" lon="5.79654">
        <ele>535.5</ele>
        <time>2015-07-12T08:11:25Z</time>
      </trkpt>
      <trkpt lat="46.71178" lon="5.79642">
        <ele>535.6</ele>
        <time>2015-07-12T08:11:27Z</time>
      </trkpt>
      <trkpt lat="46.71173" lon="5.7963">
        <ele>535.6</ele>
        <time>2015-07-12T08:11:29Z</time>
      </trkpt>
      <trkpt lat="46.71166" lon="5.79619">
        <ele>535.7</ele>
        <time>2015-07-12T08:11:31Z</time>
      </trkpt>
      <trkpt lat="46.71156" lon="5.79609">
        <ele>535.7</ele>
        <time>2015-07-12T08:11:33Z</time>
      </trkpt>
      <trkpt lat="46.71145" lon="5.79598">
        <ele>535.6</ele>
        <time>2015-07-12T08:11:35Z</time>
      </trkpt>
      <trkpt lat="46.71133" lon="5.79587">
        <ele>535.4</ele>
        <time>2015-07-12T08:11:37Z</time>
      </trkpt>
      <trkpt lat="46.71121" lon="5.79575">
        <ele>535.2</ele>
        <time>2015-07-12T08:11:39Z</time>
      </trkpt>
      <trkpt lat="46.71108" lon="5.79564">
        <ele>535</ele>
        <time>2015-07-12T08:11:41Z</time>
      </trkpt>
      <trkpt lat="46.71096" lon="5.79552">
        <ele>534.8</ele>
        <time>2015-07-12T08:11:43Z</time>
      </trkpt>
      <trkpt lat="46.71083" lon="5.7954">
        <ele>534.6</ele>
        <time>2015-07-12T08:11:45Z</time>
      </trkpt>
      <trkpt lat="46.71069" lon="5.79529">
        <ele>534.3</ele>
        <time>2015-07-12T08:11:47Z</time>
      </trkpt>
      <trkpt lat="46.71054" lon="5.79519">
        <ele>533.9</ele>
        <time>2015-07-12T08:11:49Z</time>
      </trkpt>
      <trkpt lat="46.71038" lon="5.79512">
        <ele>533.4</ele>
        <time>2015-07-12T08:11:51Z</time>
      </trkpt>
      <trkpt lat="46.71023" lon="5.79506">
        <ele>533</ele>
        <time>2015-07-12T08:11:53Z</time>
      </trkpt>
      <trkpt lat="46.71008" lon="5.79501">
        <ele>532.6</ele>
        <time>2015-07-12T08:11:55Z</time>
      </trkpt>
      <trkpt lat="46.70994" lon="5.79496">
        <ele>532.2</ele>
        <time>2015-07-12T08:11:57Z</time>
      </trkpt>
      <trkpt lat="46.70981" lon="5.7949">
        <ele>531.8</ele>
        <time>2015-07-12T08:11:59Z</time>
      </trkpt>
      <trkpt lat="46.70968" lon="5.79485">
        <ele>531.5</ele>
        <time>2015-07-12T08:12:01Z</time>
      </trkpt>
      <trkpt lat="46.70954" lon="5.79481">
        <ele>531.2</ele>
        <time>2015-07-12T08:12:03Z</time>
      </trkpt>
      <trkpt lat="46.70941" lon="5.7948">
        <ele>530.9</ele>
        <time>2015-07-12T08:12:05Z</time>
      </trkpt>
      <trkpt lat="46.70929" lon="5.7948">
        <ele>530.7</ele>
        <time>2015-07-12T08:12:07Z</time>
      </trkpt>
      <trkpt lat="46.70916" lon="5.79478">
        <ele>530.5</ele>
        <time>2015-07-12T08:12:09Z</time>
      </trkpt>
      <trkpt lat="46.70906" lon="5.79477">
        <ele>530.3</ele>
        <time>2015-07-12T08:12:11Z</time>
      </trkpt>
      <trkpt lat="46.70895" lon="5.79476">
        <ele>530.1</ele>
        <time>2015-07-12T08:12:13Z</time>
      </trkpt>
      <trkpt lat="46.70885" lon="5.79473">
        <ele>530</ele>
        <time>2015-07-12T08:12:15Z</time>
      </trkpt>
      <trkpt lat="46.70875" lon="5.79471">
        <ele>529.9</ele>
        <time>2015-07-12T08:12:17Z</time>
      </trkpt>
      <trkpt lat="46.70864" lon="5.7947">
        <ele>529.8</ele>
        <time>2015-07-12T08:12:19Z</time>
      </trkpt>
      <trkpt lat="46.70854" lon="5.79471">
        <ele>529.7</ele>
        <time>2015-07-12T08:12:21Z</time>
      </trkpt>
      <trkpt lat="46.70844" lon="5.79471">
        <ele>529.7</ele>
        <time>2015-07-12T08:12:23Z</time>
      </trkpt>
      <trkpt lat="46.70834" lon="5.7947">
        <ele>529.7</ele>
        <time>2015-07-12T08:12:25Z</time>
      </trkpt>
      <trkpt lat="46.70825" lon="5.7947">
        <ele>529.7</ele>
        <time>2015-07-12T08:12:27Z</time>
      </trkpt>
      <trkpt lat="46.70816" lon="5.79468">
        <ele>529.7</ele>
        <time>2015-07-12T08:12:29Z</time>
      </trkpt>
      <trkpt lat="46.70807" lon="5.79466">
        <ele>529.8</ele>
        <time>2015-07-12T08:12:31Z</time>
      </trkpt>
      <trkpt lat="46.70794" lon="5.79467">
        <ele>530</ele>
        <time>2015-07-12T08:12:34Z</time>
      </trkpt>
      <trkpt lat="46.70781" lon="5.7947">
        <ele>530.2</ele>
        <time>2015-07-12T08:12:37Z</time>
      </trkpt>
      <trkpt lat="46.70772" lon="5.79473">
        <ele>530.3</ele>
        <time>2015-07-12T08:12:39Z</time>
      </trkpt>
      <trkpt lat="46.70763" lon="5.79474">
        <ele>530.5</ele>
        <time>2015-07-12T08:12:41Z</time>
      </trkpt>
      <trkpt lat="46.70754" lon="5.79476">
        <ele>530.6</ele>
        <time>2015-07-12T08:12:43Z</time>
      </trkpt>
      <trkpt lat="46.70744" lon="5.79476">
        <ele>530.8</ele>
        <time>2015-07-12T08:12:45Z</time>
      </trkpt>
      <trkpt lat="46.70735" lon="5.79475">
        <ele>531</ele>
        <time>2015-07-12T08:12:47Z</time>
      </trkpt>
      <trkpt lat="46.70725" lon="5.79475">
        <ele>531.2</ele>
        <time>2015-07-12T08:12:49Z</time>
      </trkpt>
      <trkpt lat="46.70715" lon="5.79475">
        <ele>531.4</ele>
        <time>2015-07-12T08:12:51Z</time>
      </trkpt>
      <trkpt lat="46.70706" lon="5.79475">
        <ele>531.5</ele>
        <time>2015-07-12T08:12:53Z</time>
      </trkpt>
      <trkpt lat="46.70697" lon="5.79474">
        <ele>531.7</ele>
        <time>2015-07-12T08:12:55Z</time>
      </trkpt>
      <trkpt lat="46.70687" lon="5.79472">
        <ele>531.8</ele>
        <time>2015-07-12T08:12:57Z</time>
      </trkpt>
      <trkpt lat="46.70677" lon="5.79467">
        <ele>531.8</ele>
        <time>2015-07-12T08:12:59Z</time>
      </trkpt>
      <trkpt lat="46.70667" lon="5.79461">
        <ele>531.9</ele>
        <time>2015-07-12T08:13:01Z</time>
      </trkpt>
      <trkpt lat="46.70656" lon="5.7946">
        <ele>532</ele>
        <time>2015-07-12T08:13:03Z</time>
      </trkpt>
      <trkpt lat="46.70645" lon="5.79464">
        <ele>532</ele>
        <time>2015-07-12T08:13:05Z</time>
      </trkpt>
      <trkpt lat="46.70633" lon="5.79471">
        <ele>532</ele>
        <time>2015-07-12T08:13:07Z</time>
      </trkpt>
      <trkpt lat="46.70621" lon="5.7948">
        <ele>531.9</ele>
        <time>2015-07-12T08:13:09Z</time>
      </trkpt>
      <trkpt lat="46.7061" lon="5.79491">
        <ele>531.7</ele>
        <time>2015-07-12T08:13:11Z</time>
      </trkpt>
      <trkpt lat="46.70598" lon="5.79496">
        <ele>531.5</ele>
        <time>2015-07-12T08:13:13Z</time>
      </trkpt>
      <trkpt lat="46.70585" lon="5.79496">
        <ele>531.1</ele>
        <time>2015-07-12T08:13:15Z</time>
      </trkpt>
      <trkpt lat="46.70573" lon="5.79489">
        <ele>530.7</ele>
        <time>2015-07-12T08:13:17Z</time>
      </trkpt>
      <trkpt lat="46.70563" lon="5.7948">
        <ele>530.5</ele>
        <time>2015-07-12T08:13:19Z</time>
      </trkpt>
      <trkpt lat="46.70554" lon="5.79473">
        <ele>530.2</ele>
        <time>2015-07-12T08:13:21Z</time>
      </trkpt>
      <trkpt lat="46.70545" lon="5.79469">
        <ele>529.9</ele>
        <time>2015-07-12T08:13:25Z</time>
      </trkpt>
      <trkpt lat="46.70552" lon="5.79481">
        <ele>529.5</ele>
        <time>2015-07-12T08:13:33Z</time>
      </trkpt>
      <trkpt lat="46.70545" lon="5.79489">
        <ele>529.4</ele>
        <time>2015-07-12T08:13:40Z</time>
      </trkpt>
      <trkpt lat="46.70539" lon="5.795">
        <ele>529.4</ele>
        <time>2015-07-12T08:13:44Z</time>
      </trkpt>
      <trkpt lat="46.70532" lon="5.79511">
        <ele>529.6</ele>
        <time>2015-07-12T08:13:48Z</time>
      </trkpt>
      <trkpt lat="46.70525" lon="5.79523">
        <ele>529.9</ele>
        <time>2015-07-12T08:13:52Z</time>
      </trkpt>
      <trkpt lat="46.70519" lon="5.79538">
        <ele>530.4</ele>
        <time>2015-07-12T08:13:56Z</time>
      </trkpt>
      <trkpt lat="46.70513" lon="5.79552">
        <ele>530.7</ele>
        <time>2015-07-12T08:14:00Z</time>
      </trkpt>
      <trkpt lat="46.70508" lon="5.79565">
        <ele>531</ele>
        <time>2015-07-12T08:14:03Z</time>
      </trkpt>
      <trkpt lat="46.70504" lon="5.79582">
        <ele>531.3</ele>
        <time>2015-07-12T08:14:07Z</time>
      </trkpt>
      <trkpt lat="46.70501" lon="5.79598">
        <ele>531.5</ele>
        <time>2015-07-12T08:14:11Z</time>
      </trkpt>
      <trkpt lat="46.70497" lon="5.79611">
        <ele>531.8</ele>
        <time>2015-07-12T08:14:14Z</time>
      </trkpt>
      <trkpt lat="46.70494" lon="5.79624">
        <ele>532.1</ele>
        <time>2015-07-12T08:14:17Z</time>
      </trkpt>
      <trkpt lat="46.7049" lon="5.79637">
        <ele>532.5</ele>
        <time>2015-07-12T08:14:20Z</time>
      </trkpt>
      <trkpt lat="46.70485" lon="5.79652">
        <ele>533</ele>
        <time>2015-07-12T08:14:24Z</time>
      </trkpt>
      <trkpt lat="46.70479" lon="5.79663">
        <ele>533.5</ele>
        <time>2015-07-12T08:14:28Z</time>
      </trkpt>
      <trkpt lat="46.70471" lon="5.79674">
        <ele>534</ele>
        <time>2015-07-12T08:14:32Z</time>
      </trkpt>
      <trkpt lat="46.70465" lon="5.79684">
        <ele>534.7</ele>
        <time>2015-07-12T08:14:36Z</time>
      </trkpt>
      <trkpt lat="46.70459" lon="5.79697">
        <ele>535.5</ele>
        <time>2015-07-12T08:14:41Z</time>
      </trkpt>
      <trkpt lat="46.70452" lon="5.79708">
        <ele>536.3</ele>
        <time>2015-07-12T08:14:47Z</time>
      </trkpt>
      <trkpt lat="46.70442" lon="5.79715">
        <ele>537.1</ele>
        <time>2015-07-12T08:14:52Z</time>
      </trkpt>
      <trkpt lat="46.70434" lon="5.79722">
        <ele>538</ele>
        <time>2015-07-12T08:14:57Z</time>
      </trkpt>
      <trkpt lat="46.70425" lon="5.79727">
        <ele>539</ele>
        <time>2015-07-12T08:15:02Z</time>
      </trkpt>
      <trkpt lat="46.70416" lon="5.79731">
        <ele>540.2</ele>
        <time>2015-07-12T08:15:09Z</time>
      </trkpt>
      <trkpt lat="46.70408" lon="5.79739">
        <ele>541.7</ele>
        <time>2015-07-12T08:15:16Z</time>
      </trkpt>
      <trkpt lat="46.704" lon="5.79748">
        <ele>543</ele>
        <time>2015-07-12T08:15:23Z</time>
      </trkpt>
      <trkpt lat="46.70393" lon="5.79758">
        <ele>544.2</ele>
        <time>2015-07-12T08:15:29Z</time>
      </trkpt>
      <trkpt lat="46.70385" lon="5.79768">
        <ele>545.3</ele>
        <time>2015-07-12T08:15:35Z</time>
      </trkpt>
      <trkpt lat="46.70379" lon="5.79778">
        <ele>546.3</ele>
        <time>2015-07-12T08:15:41Z</time>
      </trkpt>
      <trkpt lat="46.70371" lon="5.79788">
        <ele>547.4</ele>
        <time>2015-07-12T08:15:48Z</time>
      </trkpt>
      <trkpt lat="46.70364" lon="5.79797">
        <ele>548.5</ele>
        <time>2015-07-12T08:15:55Z</time>
      </trkpt>
      <trkpt lat="46.70358" lon="5.79809">
        <ele>549.7</ele>
        <time>2015-07-12T08:16:02Z</time>
      </trkpt>
      <trkpt lat="46.70351" lon="5.79818">
        <ele>550.9</ele>
        <time>2015-07-12T08:16:11Z</time>
      </trkpt>
      <trkpt lat="46.70344" lon="5.79829">
        <ele>551.7</ele>
        <time>2015-07-12T08:16:17Z</time>
      </trkpt>
      <trkpt lat="46.70337" lon="5.7984">
        <ele>552.8</ele>
        <time>2015-07-12T08:16:25Z</time>
      </trkpt>
      <trkpt lat="46.70331" lon="5.79851">
        <ele>553.9</ele>
        <time>2015-07-12T08:16:33Z</time>
      </trkpt>
      <trkpt lat="46.70327" lon="5.79865">
        <ele>554.8</ele>
        <time>2015-07-12T08:16:39Z</time>
      </trkpt>
      <trkpt lat="46.70323" lon="5.79878">
        <ele>555.8</ele>
        <time>2015-07-12T08:16:46Z</time>
      </trkpt>
      <trkpt lat="46.7032" lon="5.79892">
        <ele>557.2</ele>
        <time>2015-07-12T08:16:54Z</time>
      </trkpt>
      <trkpt lat="46.70319" lon="5.79905">
        <ele>558.5</ele>
        <time>2015-07-12T08:17:01Z</time>
      </trkpt>
      <trkpt lat="46.70316" lon="5.79918">
        <ele>560.1</ele>
        <time>2015-07-12T08:17:10Z</time>
      </trkpt>
      <trkpt lat="46.70314" lon="5.79932">
        <ele>561.4</ele>
        <time>2015-07-12T08:17:18Z</time>
      </trkpt>
      <trkpt lat="46.70313" lon="5.79945">
        <ele>562.8</ele>
        <time>2015-07-12T08:17:25Z</time>
      </trkpt>
      <trkpt lat="46.70313" lon="5.79959">
        <ele>564</ele>
        <time>2015-07-12T08:17:32Z</time>
      </trkpt>
      <trkpt lat="46.70312" lon="5.79972">
        <ele>565.4</ele>
        <time>2015-07-12T08:17:39Z</time>
      </trkpt>
      <trkpt lat="46.7031" lon="5.79986">
        <ele>567.5</ele>
        <time>2015-07-12T08:17:50Z</time>
      </trkpt>
      <trkpt lat="46.70308" lon="5.8">
        <ele>569.1</ele>
        <time>2015-07-12T08:17:59Z</time>
      </trkpt>
      <trkpt lat="46.7031" lon="5.80012">
        <ele>570.4</ele>
        <time>2015-07-12T08:18:06Z</time>
      </trkpt>
      <trkpt lat="46.7031" lon="5.80027">
        <ele>571.7</ele>
        <time>2015-07-12T08:18:14Z</time>
      </trkpt>
      <trkpt lat="46.7031" lon="5.8004">
        <ele>572.8</ele>
        <time>2015-07-12T08:18:21Z</time>
      </trkpt>
      <trkpt lat="46.70308" lon="5.80053">
        <ele>573.9</ele>
        <time>2015-07-12T08:18:28Z</time>
      </trkpt>
      <trkpt lat="46.70306" lon="5.80067">
        <ele>575.2</ele>
        <time>2015-07-12T08:18:34Z</time>
      </trkpt>
      <trkpt lat="46.70307" lon="5.80083">
        <ele>575.9</ele>
        <time>2015-07-12T08:18:39Z</time>
      </trkpt>
      <trkpt lat="46.70306" lon="5.80096">
        <ele>576.8</ele>
        <time>2015-07-12T08:18:45Z</time>
      </trkpt>
      <trkpt lat="46.70307" lon="5.80111">
        <ele>577.7</ele>
        <time>2015-07-12T08:18:52Z</time>
      </trkpt>
      <trkpt lat="46.70307" lon="5.80124">
        <ele>578.5</ele>
        <time>2015-07-12T08:18:59Z</time>
      </trkpt>
      <trkpt lat="46.70307" lon="5.80138">
        <ele>579.5</ele>
        <time>2015-07-12T08:19:06Z</time>
      </trkpt>
      <trkpt lat="46.70308" lon="5.80152">
        <ele>580.6</ele>
        <time>2015-07-12T08:19:13Z</time>
      </trkpt>
      <trkpt lat="46.70307" lon="5.80167">
        <ele>581.6</ele>
        <time>2015-07-12T08:19:20Z</time>
      </trkpt>
      <trkpt lat="46.70306" lon="5.80181">
        <ele>582.6</ele>
        <time>2015-07-12T08:19:27Z</time>
      </trkpt>
      <trkpt lat="46.70303" lon="5.80195">
        <ele>583.9</ele>
        <time>2015-07-12T08:19:35Z</time>
      </trkpt>
      <trkpt lat="46.70297" lon="5.80206">
        <ele>584.7</ele>
        <time>2015-07-12T08:19:40Z</time>
      </trkpt>
      <trkpt lat="46.70293" lon="5.80219">
        <ele>585.8</ele>
        <time>2015-07-12T08:19:47Z</time>
      </trkpt>
      <trkpt lat="46.70288" lon="5.80231">
        <ele>586.6</ele>
        <time>2015-07-12T08:19:53Z</time>
      </trkpt>
      <trkpt lat="46.70281" lon="5.8024">
        <ele>587.5</ele>
        <time>2015-07-12T08:19:59Z</time>
      </trkpt>
      <trkpt lat="46.70275" lon="5.80251">
        <ele>588.6</ele>
        <time>2015-07-12T08:20:07Z</time>
      </trkpt>
      <trkpt lat="46.70269" lon="5.80261">
        <ele>589.6</ele>
        <time>2015-07-12T08:20:12Z</time>
      </trkpt>
      <trkpt lat="46.70263" lon="5.80273">
        <ele>591</ele>
        <time>2015-07-12T08:20:19Z</time>
      </trkpt>
      <trkpt lat="46.70255" lon="5.80281">
        <ele>592.5</ele>
        <time>2015-07-12T08:20:27Z</time>
      </trkpt>
      <trkpt lat="46.70249" lon="5.8029">
        <ele>593.8</ele>
        <time>2015-07-12T08:20:35Z</time>
      </trkpt>
      <trkpt lat="46.70242" lon="5.803">
        <ele>594.8</ele>
        <time>2015-07-12T08:20:42Z</time>
      </trkpt>
      <trkpt lat="46.70235" lon="5.8031">
        <ele>596.1</ele>
        <time>2015-07-12T08:20:50Z</time>
      </trkpt>
      <trkpt lat="46.70228" lon="5.80319">
        <ele>597.5</ele>
        <time>2015-07-12T08:20:59Z</time>
      </trkpt>
      <trkpt lat="46.70222" lon="5.80328">
        <ele>599</ele>
        <time>2015-07-12T08:21:09Z</time>
      </trkpt>
      <trkpt lat="46.70214" lon="5.80336">
        <ele>600.3</ele>
        <time>2015-07-12T08:21:17Z</time>
      </trkpt>
      <trkpt lat="46.70205" lon="5.80343">
        <ele>602.1</ele>
        <time>2015-07-12T08:21:28Z</time>
      </trkpt>
      <trkpt lat="46.70197" lon="5.80349">
        <ele>603.4</ele>
        <time>2015-07-12T08:21:36Z</time>
      </trkpt>
      <trkpt lat="46.70188" lon="5.80356">
        <ele>604.8</ele>
        <time>2015-07-12T08:21:44Z</time>
      </trkpt>
      <trkpt lat="46.7018" lon="5.80364">
        <ele>606.2</ele>
        <time>2015-07-12T08:21:52Z</time>
      </trkpt>
      <trkpt lat="46.70172" lon="5.80375">
        <ele>607.4</ele>
        <time>2015-07-12T08:21:59Z</time>
      </trkpt>
      <trkpt lat="46.70165" lon="5.80384">
        <ele>609</ele>
        <time>2015-07-12T08:22:09Z</time>
      </trkpt>
      <trkpt lat="46.70157" lon="5.80394">
        <ele>610.1</ele>
        <time>2015-07-12T08:22:15Z</time>
      </trkpt>
      <trkpt lat="46.70148" lon="5.80401">
        <ele>611.1</ele>
        <time>2015-07-12T08:22:21Z</time>
      </trkpt>
      <trkpt lat="46.70141" lon="5.80411">
        <ele>612</ele>
        <time>2015-07-12T08:22:28Z</time>
      </trkpt>
      <trkpt lat="46.70134" lon="5.80421">
        <ele>612.9</ele>
        <time>2015-07-12T08:22:34Z</time>
      </trkpt>
      <trkpt lat="46.70127" lon="5.8043">
        <ele>613.6</ele>
        <time>2015-07-12T08:22:39Z</time>
      </trkpt>
      <trkpt lat="46.70121" lon="5.80442">
        <ele>614.4</ele>
        <time>2015-07-12T08:22:45Z</time>
      </trkpt>
      <trkpt lat="46.70115" lon="5.80454">
        <ele>615</ele>
        <time>2015-07-12T08:22:50Z</time>
      </trkpt>
      <trkpt lat="46.70109" lon="5.80464">
        <ele>615.4</ele>
        <time>2015-07-12T08:22:54Z</time>
      </trkpt>
      <trkpt lat="46.70101" lon="5.80474">
        <ele>615.9</ele>
        <time>2015-07-12T08:22:59Z</time>
      </trkpt>
      <trkpt lat="46.70093" lon="5.80484">
        <ele>616.3</ele>
        <time>2015-07-12T08:23:04Z</time>
      </trkpt>
      <trkpt lat="46.70086" lon="5.80494">
        <ele>616.6</ele>
        <time>2015-07-12T08:23:09Z</time>
      </trkpt>
      <trkpt lat="46.70076" lon="5.80499">
        <ele>616.9</ele>
        <time>2015-07-12T08:23:15Z</time>
      </trkpt>
      <trkpt lat="46.7007" lon="5.8051">
        <ele>617.2</ele>
        <time>2015-07-12T08:23:20Z</time>
      </trkpt>
      <trkpt lat="46.70061" lon="5.8052">
        <ele>617.7</ele>
        <time>2015-07-12T08:23:45Z</time>
      </trkpt>
      <trkpt lat="46.70055" lon="5.80533">
        <ele>618</ele>
        <time>2015-07-12T08:23:49Z</time>
      </trkpt>
      <trkpt lat="46.70047" lon="5.80546">
        <ele>618.3</ele>
        <time>2015-07-12T08:23:53Z</time>
      </trkpt>
      <trkpt lat="46.70041" lon="5.80558">
        <ele>618.5</ele>
        <time>2015-07-12T08:23:56Z</time>
      </trkpt>
      <trkpt lat="46.70035" lon="5.80568">
        <ele>618.6</ele>
        <time>2015-07-12T08:23:59Z</time>
      </trkpt>
      <trkpt lat="46.70028" lon="5.80578">
        <ele>618.7</ele>
        <time>2015-07-12T08:24:02Z</time>
      </trkpt>
      <trkpt lat="46.70019" lon="5.80589">
        <ele>618.9</ele>
        <time>2015-07-12T08:24:06Z</time>
      </trkpt>
      <trkpt lat="46.70011" lon="5.806">
        <ele>619.1</ele>
        <time>2015-07-12T08:24:10Z</time>
      </trkpt>
      <trkpt lat="46.70003" lon="5.8061">
        <ele>619.4</ele>
        <time>2015-07-12T08:24:14Z</time>
      </trkpt>
      <trkpt lat="46.69995" lon="5.80619">
        <ele>619.8</ele>
        <time>2015-07-12T08:24:18Z</time>
      </trkpt>
      <trkpt lat="46.69986" lon="5.80623">
        <ele>620</ele>
        <time>2015-07-12T08:24:21Z</time>
      </trkpt>
      <trkpt lat="46.69977" lon="5.80629">
        <ele>620.5</ele>
        <time>2015-07-12T08:24:25Z</time>
      </trkpt>
      <trkpt lat="46.69971" lon="5.80642">
        <ele>621.3</ele>
        <time>2015-07-12T08:24:30Z</time>
      </trkpt>
      <trkpt lat="46.69965" lon="5.80653">
        <ele>622</ele>
        <time>2015-07-12T08:24:35Z</time>
      </trkpt>
      <trkpt lat="46.69959" lon="5.80666">
        <ele>622.7</ele>
        <time>2015-07-12T08:24:40Z</time>
      </trkpt>
      <trkpt lat="46.69953" lon="5.80676">
        <ele>623.2</ele>
        <time>2015-07-12T08:24:44Z</time>
      </trkpt>
      <trkpt lat="46.69946" lon="5.8069">
        <ele>623.8</ele>
        <time>2015-07-12T08:24:49Z</time>
      </trkpt>
      <trkpt lat="46.69941" lon="5.80704">
        <ele>624.5</ele>
        <time>2015-07-12T08:24:54Z</time>
      </trkpt>
      <trkpt lat="46.69936" lon="5.80716">
        <ele>625</ele>
        <time>2015-07-12T08:24:58Z</time>
      </trkpt>
      <trkpt lat="46.69931" lon="5.80729">
        <ele>625.5</ele>
        <time>2015-07-12T08:25:02Z</time>
      </trkpt>
      <trkpt lat="46.69926" lon="5.80742">
        <ele>625.8</ele>
        <time>2015-07-12T08:25:05Z</time>
      </trkpt>
      <trkpt lat="46.69921" lon="5.80754">
        <ele>626.1</ele>
        <time>2015-07-12T08:25:08Z</time>
      </trkpt>
      <trkpt lat="46.69918" lon="5.80768">
        <ele>626.4</ele>
        <time>2015-07-12T08:25:11Z</time>
      </trkpt>
      <trkpt lat="46.69913" lon="5.8078">
        <ele>626.6</ele>
        <time>2015-07-12T08:25:14Z</time>
      </trkpt>
      <trkpt lat="46.69908" lon="5.80793">
        <ele>626.9</ele>
        <time>2015-07-12T08:25:17Z</time>
      </trkpt>
      <trkpt lat="46.69902" lon="5.80807">
        <ele>627.2</ele>
        <time>2015-07-12T08:25:20Z</time>
      </trkpt>
      <trkpt lat="46.69896" lon="5.80821">
        <ele>627.4</ele>
        <time>2015-07-12T08:25:23Z</time>
      </trkpt>
      <trkpt lat="46.6989" lon="5.80836">
        <ele>627.6</ele>
        <time>2015-07-12T08:25:26Z</time>
      </trkpt>
      <trkpt lat="46.69883" lon="5.80849">
        <ele>627.7</ele>
        <time>2015-07-12T08:25:29Z</time>
      </trkpt>
      <trkpt lat="46.69877" lon="5.80862">
        <ele>627.8</ele>
        <time>2015-07-12T08:25:32Z</time>
      </trkpt>
      <trkpt lat="46.69871" lon="5.80875">
        <ele>627.9</ele>
        <time>2015-07-12T08:25:35Z</time>
      </trkpt>
      <trkpt lat="46.69865" lon="5.80886">
        <ele>628</ele>
        <time>2015-07-12T08:25:38Z</time>
      </trkpt>
      <trkpt lat="46.69859" lon="5.80897">
        <ele>628.2</ele>
        <time>2015-07-12T08:25:41Z</time>
      </trkpt>
      <trkpt lat="46.69853" lon="5.80907">
        <ele>628.4</ele>
        <time>2015-07-12T08:25:44Z</time>
      </trkpt>
      <trkpt lat="46.69848" lon="5.80918">
        <ele>628.6</ele>
        <time>2015-07-12T08:25:47Z</time>
      </trkpt>
      <trkpt lat="46.69842" lon="5.80929">
        <ele>628.7</ele>
        <time>2015-07-12T08:25:50Z</time>
      </trkpt>
      <trkpt lat="46.69836" lon="5.80939">
        <ele>629</ele>
        <time>2015-07-12T08:25:53Z</time>
      </trkpt>
      <trkpt lat="46.69829" lon="5.80949">
        <ele>629.3</ele>
        <time>2015-07-12T08:25:56Z</time>
      </trkpt>
      <trkpt lat="46.69822" lon="5.80958">
        <ele>629.6</ele>
        <time>2015-07-12T08:25:59Z</time>
      </trkpt>
      <trkpt lat="46.69814" lon="5.80968">
        <ele>629.8</ele>
        <time>2015-07-12T08:26:02Z</time>
      </trkpt>
      <trkpt lat="46.69805" lon="5.80978">
        <ele>630</ele>
        <time>2015-07-12T08:26:05Z</time>
      </trkpt>
      <trkpt lat="46.69796" lon="5.80989">
        <ele>630.2</ele>
        <time>2015-07-12T08:26:08Z</time>
      </trkpt>
      <trkpt lat="46.69785" lon="5.81">
        <ele>630.4</ele>
        <time>2015-07-12T08:26:11Z</time>
      </trkpt>
      <trkpt lat="46.69778" lon="5.81009">
        <ele>630.5</ele>
        <time>2015-07-12T08:26:13Z</time>
      </trkpt>
      <trkpt lat="46.6977" lon="5.81018">
        <ele>630.5</ele>
        <time>2015-07-12T08:26:15Z</time>
      </trkpt>
      <trkpt lat="46.6976" lon="5.81028">
        <ele>630.6</ele>
        <time>2015-07-12T08:26:17Z</time>
      </trkpt>
      <trkpt lat="46.69749" lon="5.81038">
        <ele>630.5</ele>
        <time>2015-07-12T08:26:19Z</time>
      </trkpt>
      <trkpt lat="46.69739" lon="5.81048">
        <ele>630.5</ele>
        <time>2015-07-12T08:26:21Z</time>
      </trkpt>
      <trkpt lat="46.69727" lon="5.81058">
        <ele>630.3</ele>
        <time>2015-07-12T08:26:23Z</time>
      </trkpt>
      <trkpt lat="46.69717" lon="5.81067">
        <ele>630.2</ele>
        <time>2015-07-12T08:26:25Z</time>
      </trkpt>
      <trkpt lat="46.69707" lon="5.81075">
        <ele>630.1</ele>
        <time>2015-07-12T08:26:27Z</time>
      </trkpt>
      <trkpt lat="46.69697" lon="5.81081">
        <ele>630</ele>
        <time>2015-07-12T08:26:29Z</time>
      </trkpt>
      <trkpt lat="46.69687" lon="5.81082">
        <ele>629.9</ele>
        <time>2015-07-12T08:26:31Z</time>
      </trkpt>
      <trkpt lat="46.69676" lon="5.81077">
        <ele>629.9</ele>
        <time>2015-07-12T08:26:33Z</time>
      </trkpt>
      <trkpt lat="46.69667" lon="5.81071">
        <ele>629.8</ele>
        <time>2015-07-12T08:26:35Z</time>
      </trkpt>
      <trkpt lat="46.69658" lon="5.81066">
        <ele>629.7</ele>
        <time>2015-07-12T08:26:37Z</time>
      </trkpt>
      <trkpt lat="46.6965" lon="5.8106">
        <ele>629.7</ele>
        <time>2015-07-12T08:26:39Z</time>
      </trkpt>
      <trkpt lat="46.69639" lon="5.81053">
        <ele>629.6</ele>
        <time>2015-07-12T08:26:42Z</time>
      </trkpt>
      <trkpt lat="46.69628" lon="5.81046">
        <ele>629.6</ele>
        <time>2015-07-12T08:26:45Z</time>
      </trkpt>
      <trkpt lat="46.69616" lon="5.81041">
        <ele>629.5</ele>
        <time>2015-07-12T08:26:48Z</time>
      </trkpt>
      <trkpt lat="46.69604" lon="5.81036">
        <ele>629.5</ele>
        <time>2015-07-12T08:26:51Z</time>
      </trkpt>
      <trkpt lat="46.69593" lon="5.81032">
        <ele>629.5</ele>
        <time>2015-07-12T08:26:54Z</time>
      </trkpt>
      <trkpt lat="46.69582" lon="5.81026">
        <ele>629.6</ele>
        <time>2015-07-12T08:26:57Z</time>
      </trkpt>
      <trkpt lat="46.69571" lon="5.81021">
        <ele>629.7</ele>
        <time>2015-07-12T08:27:01Z</time>
      </trkpt>
      <trkpt lat="46.69559" lon="5.81016">
        <ele>629.9</ele>
        <time>2015-07-12T08:27:04Z</time>
      </trkpt>
      <trkpt lat="46.69548" lon="5.81011">
        <ele>630.1</ele>
        <time>2015-07-12T08:27:07Z</time>
      </trkpt>
      <trkpt lat="46.69537" lon="5.81008">
        <ele>630.3</ele>
        <time>2015-07-12T08:27:10Z</time>
      </trkpt>
      <trkpt lat="46.69524" lon="5.81005">
        <ele>630.5</ele>
        <time>2015-07-12T08:27:13Z</time>
      </trkpt>
      <trkpt lat="46.69511" lon="5.81">
        <ele>630.7</ele>
        <time>2015-07-12T08:27:16Z</time>
      </trkpt>
      <trkpt lat="46.69499" lon="5.80996">
        <ele>630.9</ele>
        <time>2015-07-12T08:27:19Z</time>
      </trkpt>
      <trkpt lat="46.69489" lon="5.80995">
        <ele>631</ele>
        <time>2015-07-12T08:27:21Z</time>
      </trkpt>
      <trkpt lat="46.69477" lon="5.8099">
        <ele>631.1</ele>
        <time>2015-07-12T08:27:24Z</time>
      </trkpt>
      <trkpt lat="46.69467" lon="5.80987">
        <ele>631.2</ele>
        <time>2015-07-12T08:27:26Z</time>
      </trkpt>
      <trkpt lat="46.69456" lon="5.80984">
        <ele>631.4</ele>
        <time>2015-07-12T08:27:29Z</time>
      </trkpt>
      <trkpt lat="46.69444" lon="5.80981">
        <ele>631.6</ele>
        <time>2015-07-12T08:27:32Z</time>
      </trkpt>
      <trkpt lat="46.69433" lon="5.80978">
        <ele>631.8</ele>
        <time>2015-07-12T08:27:35Z</time>
      </trkpt>
      <trkpt lat="46.69422" lon="5.80977">
        <ele>632</ele>
        <time>2015-07-12T08:27:38Z</time>
      </trkpt>
      <trkpt lat="46.69411" lon="5.80973">
        <ele>632.2</ele>
        <time>2015-07-12T08:27:41Z</time>
      </trkpt>
      <trkpt lat="46.69399" lon="5.80972">
        <ele>632.4</ele>
        <time>2015-07-12T08:27:44Z</time>
      </trkpt>
      <trkpt lat="46.69389" lon="5.80968">
        <ele>632.6</ele>
        <time>2015-07-12T08:27:47Z</time>
      </trkpt>
      <trkpt lat="46.69378" lon="5.80964">
        <ele>632.7</ele>
        <time>2015-07-12T08:27:50Z</time>
      </trkpt>
      <trkpt lat="46.69367" lon="5.8096">
        <ele>632.9</ele>
        <time>2015-07-12T08:27:53Z</time>
      </trkpt>
      <trkpt lat="46.69356" lon="5.80957">
        <ele>633</ele>
        <time>2015-07-12T08:27:56Z</time>
      </trkpt>
      <trkpt lat="46.69346" lon="5.80956">
        <ele>633.1</ele>
        <time>2015-07-12T08:27:58Z</time>
      </trkpt>
      <trkpt lat="46.69337" lon="5.80955">
        <ele>633.2</ele>
        <time>2015-07-12T08:28:00Z</time>
      </trkpt>
      <trkpt lat="46.69328" lon="5.80953">
        <ele>633.3</ele>
        <time>2015-07-12T08:28:02Z</time>
      </trkpt>
      <trkpt lat="46.69317" lon="5.80953">
        <ele>633.4</ele>
        <time>2015-07-12T08:28:04Z</time>
      </trkpt>
      <trkpt lat="46.69306" lon="5.80951">
        <ele>633.4</ele>
        <time>2015-07-12T08:28:06Z</time>
      </trkpt>
      <trkpt lat="46.69294" lon="5.8095">
        <ele>633.5</ele>
        <time>2015-07-12T08:28:08Z</time>
      </trkpt>
      <trkpt lat="46.69284" lon="5.80948">
        <ele>633.5</ele>
        <time>2015-07-12T08:28:10Z</time>
      </trkpt>
      <trkpt lat="46.69274" lon="5.80946">
        <ele>633.5</ele>
        <time>2015-07-12T08:28:12Z</time>
      </trkpt>
      <trkpt lat="46.69263" lon="5.80946">
        <ele>633.6</ele>
        <time>2015-07-12T08:28:14Z</time>
      </trkpt>
      <trkpt lat="46.69253" lon="5.80944">
        <ele>633.6</ele>
        <time>2015-07-12T08:28:16Z</time>
      </trkpt>
      <trkpt lat="46.6924" lon="5.80942">
        <ele>633.6</ele>
        <time>2015-07-12T08:28:19Z</time>
      </trkpt>
      <trkpt lat="46.69227" lon="5.80943">
        <ele>633.6</ele>
        <time>2015-07-12T08:28:22Z</time>
      </trkpt>
      <trkpt lat="46.69214" lon="5.80944">
        <ele>633.6</ele>
        <time>2015-07-12T08:28:25Z</time>
      </trkpt>
      <trkpt lat="46.69202" lon="5.80949">
        <ele>633.6</ele>
        <time>2015-07-12T08:28:28Z</time>
      </trkpt>
      <trkpt lat="46.69192" lon="5.80951">
        <ele>633.6</ele>
        <time>2015-07-12T08:28:30Z</time>
      </trkpt>
      <trkpt lat="46.69182" lon="5.80955">
        <ele>633.6</ele>
        <time>2015-07-12T08:28:32Z</time>
      </trkpt>
      <trkpt lat="46.69172" lon="5.80957">
        <ele>633.6</ele>
        <time>2015-07-12T08:28:34Z</time>
      </trkpt>
      <trkpt lat="46.69159" lon="5.8096">
        <ele>633.4</ele>
        <time>2015-07-12T08:28:37Z</time>
      </trkpt>
      <trkpt lat="46.69147" lon="5.80963">
        <ele>633.2</ele>
        <time>2015-07-12T08:28:39Z</time>
      </trkpt>
      <trkpt lat="46.69133" lon="5.80966">
        <ele>632.9</ele>
        <time>2015-07-12T08:28:41Z</time>
      </trkpt>
      <trkpt lat="46.69122" lon="5.8097">
        <ele>632.5</ele>
        <time>2015-07-12T08:28:43Z</time>
      </trkpt>
      <trkpt lat="46.6911" lon="5.80973">
        <ele>632</ele>
        <time>2015-07-12T08:28:45Z</time>
      </trkpt>
      <trkpt lat="46.69097" lon="5.80979">
        <ele>631.6</ele>
        <time>2015-07-12T08:28:47Z</time>
      </trkpt>
      <trkpt lat="46.69083" lon="5.80984">
        <ele>631.3</ele>
        <time>2015-07-12T08:28:49Z</time>
      </trkpt>
      <trkpt lat="46.69069" lon="5.80989">
        <ele>630.9</ele>
        <time>2015-07-12T08:28:51Z</time>
      </trkpt>
      <trkpt lat="46.69055" lon="5.80993">
        <ele>630.6</ele>
        <time>2015-07-12T08:28:53Z</time>
      </trkpt>
      <trkpt lat="46.69042" lon="5.80996">
        <ele>630.4</ele>
        <time>2015-07-12T08:28:55Z</time>
      </trkpt>
      <trkpt lat="46.6903" lon="5.80997">
        <ele>630.1</ele>
        <time>2015-07-12T08:28:57Z</time>
      </trkpt>
      <trkpt lat="46.69015" lon="5.80996">
        <ele>629.9</ele>
        <time>2015-07-12T08:28:59Z</time>
      </trkpt>
      <trkpt lat="46.69004" lon="5.80992">
        <ele>629.7</ele>
        <time>2015-07-12T08:29:01Z</time>
      </trkpt>
      <trkpt lat="46.68993" lon="5.80985">
        <ele>629.4</ele>
        <time>2015-07-12T08:29:04Z</time>
      </trkpt>
      <trkpt lat="46.68984" lon="5.80976">
        <ele>629.2</ele>
        <time>2015-07-12T08:29:07Z</time>
      </trkpt>
      <trkpt lat="46.68974" lon="5.80969">
        <ele>629</ele>
        <time>2015-07-12T08:29:10Z</time>
      </trkpt>
      <trkpt lat="46.68964" lon="5.80964">
        <ele>628.9</ele>
        <time>2015-07-12T08:29:13Z</time>
      </trkpt>
      <trkpt lat="46.68952" lon="5.8096">
        <ele>628.8</ele>
        <time>2015-07-12T08:29:16Z</time>
      </trkpt>
      <trkpt lat="46.6894" lon="5.80954">
        <ele>628.8</ele>
        <time>2015-07-12T08:29:19Z</time>
      </trkpt>
      <trkpt lat="46.68931" lon="5.80948">
        <ele>628.7</ele>
        <time>2015-07-12T08:29:21Z</time>
      </trkpt>
      <trkpt lat="46.68923" lon="5.8094">
        <ele>628.7</ele>
        <time>2015-07-12T08:29:23Z</time>
      </trkpt>
      <trkpt lat="46.68916" lon="5.80933">
        <ele>628.7</ele>
        <time>2015-07-12T08:29:25Z</time>
      </trkpt>
      <trkpt lat="46.68906" lon="5.80921">
        <ele>628.7</ele>
        <time>2015-07-12T08:29:28Z</time>
      </trkpt>
      <trkpt lat="46.68898" lon="5.80913">
        <ele>628.8</ele>
        <time>2015-07-12T08:29:30Z</time>
      </trkpt>
      <trkpt lat="46.68891" lon="5.80904">
        <ele>628.9</ele>
        <time>2015-07-12T08:29:32Z</time>
      </trkpt>
      <trkpt lat="46.6888" lon="5.80895">
        <ele>629</ele>
        <time>2015-07-12T08:29:35Z</time>
      </trkpt>
      <trkpt lat="46.6887" lon="5.80885">
        <ele>629.1</ele>
        <time>2015-07-12T08:29:38Z</time>
      </trkpt>
      <trkpt lat="46.68858" lon="5.80874">
        <ele>629.2</ele>
        <time>2015-07-12T08:29:41Z</time>
      </trkpt>
      <trkpt lat="46.68851" lon="5.80866">
        <ele>629.3</ele>
        <time>2015-07-12T08:29:43Z</time>
      </trkpt>
      <trkpt lat="46.68843" lon="5.80858">
        <ele>629.3</ele>
        <time>2015-07-12T08:29:45Z</time>
      </trkpt>
      <trkpt lat="46.68834" lon="5.8085">
        <ele>629.4</ele>
        <time>2015-07-12T08:29:47Z</time>
      </trkpt>
      <trkpt lat="46.68825" lon="5.80843">
        <ele>629.4</ele>
        <time>2015-07-12T08:29:49Z</time>
      </trkpt>
      <trkpt lat="46.68815" lon="5.80837">
        <ele>629.4</ele>
        <time>2015-07-12T08:29:51Z</time>
      </trkpt>
      <trkpt lat="46.68806" lon="5.8083">
        <ele>629.3</ele>
        <time>2015-07-12T08:29:53Z</time>
      </trkpt>
      <trkpt lat="46.68797" lon="5.80821">
        <ele>629.1</ele>
        <time>2015-07-12T08:29:55Z</time>
      </trkpt>
      <trkpt lat="46.68788" lon="5.80811">
        <ele>629</ele>
        <time>2015-07-12T08:29:57Z</time>
      </trkpt>
      <trkpt lat="46.6878" lon="5.80801">
        <ele>628.9</ele>
        <time>2015-07-12T08:29:59Z</time>
      </trkpt>
      <trkpt lat="46.6877" lon="5.8079">
        <ele>628.7</ele>
        <time>2015-07-12T08:30:01Z</time>
      </trkpt>
      <trkpt lat="46.68762" lon="5.80779">
        <ele>628.5</ele>
        <time>2015-07-12T08:30:03Z</time>
      </trkpt>
      <trkpt lat="46.68754" lon="5.80767">
        <ele>628.3</ele>
        <time>2015-07-12T08:30:05Z</time>
      </trkpt>
      <trkpt lat="46.68748" lon="5.80753">
        <ele>628</ele>
        <time>2015-07-12T08:30:07Z</time>
      </trkpt>
      <trkpt lat="46.68742" lon="5.80741">
        <ele>627.8</ele>
        <time>2015-07-12T08:30:09Z</time>
      </trkpt>
      <trkpt lat="46.68738" lon="5.80729">
        <ele>627.4</ele>
        <time>2015-07-12T08:30:11Z</time>
      </trkpt>
      <trkpt lat="46.68733" lon="5.80715">
        <ele>626.9</ele>
        <time>2015-07-12T08:30:14Z</time>
      </trkpt>
      <trkpt lat="46.68728" lon="5.80704">
        <ele>626.5</ele>
        <time>2015-07-12T08:30:17Z</time>
      </trkpt>
      <trkpt lat="46.68718" lon="5.80697">
        <ele>626</ele>
        <time>2015-07-12T08:30:20Z</time>
      </trkpt>
      <trkpt lat="46.68708" lon="5.80694">
        <ele>625.6</ele>
        <time>2015-07-12T08:30:22Z</time>
      </trkpt>
      <trkpt lat="46.68698" lon="5.80691">
        <ele>625.1</ele>
        <time>2015-07-12T08:30:24Z</time>
      </trkpt>
      <trkpt lat="46.68684" lon="5.80687">
        <ele>624.6</ele>
        <time>2015-07-12T08:30:26Z</time>
      </trkpt>
      <trkpt lat="46.6867" lon="5.80684">
        <ele>624</ele>
        <time>2015-07-12T08:30:28Z</time>
      </trkpt>
      <trkpt lat="46.68657" lon="5.8068">
        <ele>623.1</ele>
        <time>2015-07-12T08:30:30Z</time>
      </trkpt>
      <trkpt lat="46.68644" lon="5.80678">
        <ele>622.4</ele>
        <time>2015-07-12T08:30:32Z</time>
      </trkpt>
      <trkpt lat="46.68629" lon="5.80673">
        <ele>621.7</ele>
        <time>2015-07-12T08:30:34Z</time>
      </trkpt>
      <trkpt lat="46.68614" lon="5.80669">
        <ele>620.8</ele>
        <time>2015-07-12T08:30:36Z</time>
      </trkpt>
      <trkpt lat="46.68599" lon="5.80661">
        <ele>619.8</ele>
        <time>2015-07-12T08:30:38Z</time>
      </trkpt>
      <trkpt lat="46.68585" lon="5.80651">
        <ele>618.8</ele>
        <time>2015-07-12T08:30:40Z</time>
      </trkpt>
      <trkpt lat="46.6857" lon="5.8064">
        <ele>617.8</ele>
        <time>2015-07-12T08:30:42Z</time>
      </trkpt>
      <trkpt lat="46.68554" lon="5.80631">
        <ele>616.7</ele>
        <time>2015-07-12T08:30:44Z</time>
      </trkpt>
      <trkpt lat="46.68537" lon="5.80625">
        <ele>615.5</ele>
        <time>2015-07-12T08:30:46Z</time>
      </trkpt>
      <trkpt lat="46.68521" lon="5.80622">
        <ele>614.3</ele>
        <time>2015-07-12T08:30:48Z</time>
      </trkpt>
      <trkpt lat="46.68508" lon="5.80621">
        <ele>613.1</ele>
        <time>2015-07-12T08:30:50Z</time>
      </trkpt>
      <trkpt lat="46.68498" lon="5.80623">
        <ele>611.8</ele>
        <time>2015-07-12T08:30:52Z</time>
      </trkpt>
      <trkpt lat="46.68487" lon="5.80625">
        <ele>609.6</ele>
        <time>2015-07-12T08:30:56Z</time>
      </trkpt>
      <trkpt lat="46.68482" lon="5.80639">
        <ele>607.8</ele>
        <time>2015-07-12T08:31:00Z</time>
      </trkpt>
      <trkpt lat="46.68481" lon="5.80652">
        <ele>606.7</ele>
        <time>2015-07-12T08:31:03Z</time>
      </trkpt>
      <trkpt lat="46.68478" lon="5.80668">
        <ele>605.5</ele>
        <time>2015-07-12T08:31:07Z</time>
      </trkpt>
      <trkpt lat="46.68478" lon="5.80685">
        <ele>604.6</ele>
        <time>2015-07-12T08:31:11Z</time>
      </trkpt>
      <trkpt lat="46.6848" lon="5.80702">
        <ele>604.2</ele>
        <time>2015-07-12T08:31:15Z</time>
      </trkpt>
      <trkpt lat="46.68482" lon="5.80719">
        <ele>603.9</ele>
        <time>2015-07-12T08:31:19Z</time>
      </trkpt>
      <trkpt lat="46.68482" lon="5.80735">
        <ele>603.7</ele>
        <time>2015-07-12T08:31:23Z</time>
      </trkpt>
      <trkpt lat="46.68483" lon="5.80748">
        <ele>604</ele>
        <time>2015-07-12T08:31:27Z</time>
      </trkpt>
      <trkpt lat="46.68484" lon="5.80762">
        <ele>604.4</ele>
        <time>2015-07-12T08:31:31Z</time>
      </trkpt>
      <trkpt lat="46.6848" lon="5.80775">
        <ele>604.8</ele>
        <time>2015-07-12T08:31:35Z</time>
      </trkpt>
      <trkpt lat="46.68475" lon="5.80789">
        <ele>605.1</ele>
        <time>2015-07-12T08:31:39Z</time>
      </trkpt>
      <trkpt lat="46.68471" lon="5.80802">
        <ele>605.3</ele>
        <time>2015-07-12T08:31:42Z</time>
      </trkpt>
      <trkpt lat="46.68466" lon="5.80817">
        <ele>605.5</ele>
        <time>2015-07-12T08:31:46Z</time>
      </trkpt>
      <trkpt lat="46.68461" lon="5.80831">
        <ele>605.6</ele>
        <time>2015-07-12T08:31:49Z</time>
      </trkpt>
      <trkpt lat="46.68455" lon="5.80847">
        <ele>605.7</ele>
        <time>2015-07-12T08:31:52Z</time>
      </trkpt>
      <trkpt lat="46.6845" lon="5.8086">
        <ele>605.8</ele>
        <time>2015-07-12T08:31:55Z</time>
      </trkpt>
      <trkpt lat="46.68445" lon="5.80873">
        <ele>605.9</ele>
        <time>2015-07-12T08:31:58Z</time>
      </trkpt>
      <trkpt lat="46.68438" lon="5.80887">
        <ele>606</ele>
        <time>2015-07-12T08:32:01Z</time>
      </trkpt>
      <trkpt lat="46.68431" lon="5.80901">
        <ele>606.1</ele>
        <time>2015-07-12T08:32:04Z</time>
      </trkpt>
      <trkpt lat="46.68425" lon="5.80917">
        <ele>606.1</ele>
        <time>2015-07-12T08:32:07Z</time>
      </trkpt>
      <trkpt lat="46.6842" lon="5.8093">
        <ele>606.1</ele>
        <time>2015-07-12T08:32:09Z</time>
      </trkpt>
      <trkpt lat="46.68417" lon="5.80943">
        <ele>606.1</ele>
        <time>2015-07-12T08:32:11Z</time>
      </trkpt>
      <trkpt lat="46.68413" lon="5.80957">
        <ele>606.1</ele>
        <time>2015-07-12T08:32:13Z</time>
      </trkpt>
      <trkpt lat="46.68409" lon="5.80973">
        <ele>606</ele>
        <time>2015-07-12T08:32:15Z</time>
      </trkpt>
      <trkpt lat="46.68405" lon="5.80988">
        <ele>605.8</ele>
        <time>2015-07-12T08:32:17Z</time>
      </trkpt>
      <trkpt lat="46.684" lon="5.81005">
        <ele>605.7</ele>
        <time>2015-07-12T08:32:19Z</time>
      </trkpt>
      <trkpt lat="46.68395" lon="5.81021">
        <ele>605.4</ele>
        <time>2015-07-12T08:32:21Z</time>
      </trkpt>
      <trkpt lat="46.6839" lon="5.81038">
        <ele>605.1</ele>
        <time>2015-07-12T08:32:23Z</time>
      </trkpt>
      <trkpt lat="46.68386" lon="5.81055">
        <ele>604.8</ele>
        <time>2015-07-12T08:32:25Z</time>
      </trkpt>
      <trkpt lat="46.6838" lon="5.81071">
        <ele>604.6</ele>
        <time>2015-07-12T08:32:27Z</time>
      </trkpt>
      <trkpt lat="46.68376" lon="5.81088">
        <ele>604.4</ele>
        <time>2015-07-12T08:32:29Z</time>
      </trkpt>
      <trkpt lat="46.68372" lon="5.81104">
        <ele>604.1</ele>
        <time>2015-07-12T08:32:31Z</time>
      </trkpt>
      <trkpt lat="46.68369" lon="5.81122">
        <ele>603.9</ele>
        <time>2015-07-12T08:32:33Z</time>
      </trkpt>
      <trkpt lat="46.68365" lon="5.81138">
        <ele>603.5</ele>
        <time>2015-07-12T08:32:35Z</time>
      </trkpt>
      <trkpt lat="46.68362" lon="5.81156">
        <ele>603.1</ele>
        <time>2015-07-12T08:32:37Z</time>
      </trkpt>
      <trkpt lat="46.68359" lon="5.81175">
        <ele>602.7</ele>
        <time>2015-07-12T08:32:39Z</time>
      </trkpt>
      <trkpt lat="46.68358" lon="5.81195">
        <ele>602.2</ele>
        <time>2015-07-12T08:32:41Z</time>
      </trkpt>
      <trkpt lat="46.68358" lon="5.81213">
        <ele>601.8</ele>
        <time>2015-07-12T08:32:43Z</time>
      </trkpt>
      <trkpt lat="46.68355" lon="5.81232">
        <ele>601.5</ele>
        <time>2015-07-12T08:32:45Z</time>
      </trkpt>
      <trkpt lat="46.68347" lon="5.81246">
        <ele>601.2</ele>
        <time>2015-07-12T08:32:47Z</time>
      </trkpt>
      <trkpt lat="46.68337" lon="5.81253">
        <ele>600.9</ele>
        <time>2015-07-12T08:32:49Z</time>
      </trkpt>
      <trkpt lat="46.68326" lon="5.81252">
        <ele>600.5</ele>
        <time>2015-07-12T08:32:52Z</time>
      </trkpt>
      <trkpt lat="46.68316" lon="5.81248">
        <ele>600.2</ele>
        <time>2015-07-12T08:32:55Z</time>
      </trkpt>
      <trkpt lat="46.68308" lon="5.81241">
        <ele>600.1</ele>
        <time>2015-07-12T08:32:59Z</time>
      </trkpt>
      <trkpt lat="46.68301" lon="5.81229">
        <ele>600</ele>
        <time>2015-07-12T08:33:04Z</time>
      </trkpt>
      <trkpt lat="46.68293" lon="5.81218">
        <ele>600.3</ele>
        <time>2015-07-12T08:33:09Z</time>
      </trkpt>
      <trkpt lat="46.68287" lon="5.81207">
        <ele>600.9</ele>
        <time>2015-07-12T08:33:14Z</time>
      </trkpt>
      <trkpt lat="46.68279" lon="5.81196">
        <ele>601.6</ele>
        <time>2015-07-12T08:33:19Z</time>
      </trkpt>
      <trkpt lat="46.68271" lon="5.81185">
        <ele>602.3</ele>
        <time>2015-07-12T08:33:24Z</time>
      </trkpt>
      <trkpt lat="46.68264" lon="5.81176">
        <ele>602.9</ele>
        <time>2015-07-12T08:33:28Z</time>
      </trkpt>
      <trkpt lat="46.68257" lon="5.81166">
        <ele>603.3</ele>
        <time>2015-07-12T08:33:32Z</time>
      </trkpt>
      <trkpt lat="46.6825" lon="5.81156">
        <ele>603.8</ele>
        <time>2015-07-12T08:33:36Z</time>
      </trkpt>
      <trkpt lat="46.68242" lon="5.81144">
        <ele>604.3</ele>
        <time>2015-07-12T08:33:40Z</time>
      </trkpt>
      <trkpt lat="46.68235" lon="5.81134">
        <ele>604.8</ele>
        <time>2015-07-12T08:33:44Z</time>
      </trkpt>
      <trkpt lat="46.6823" lon="5.81122">
        <ele>605.2</ele>
        <time>2015-07-12T08:33:48Z</time>
      </trkpt>
      <trkpt lat="46.68222" lon="5.81111">
        <ele>605.6</ele>
        <time>2015-07-12T08:33:52Z</time>
      </trkpt>
      <trkpt lat="46.68214" lon="5.81098">
        <ele>606</ele>
        <time>2015-07-12T08:33:56Z</time>
      </trkpt>
      <trkpt lat="46.68206" lon="5.81089">
        <ele>606.3</ele>
        <time>2015-07-12T08:33:59Z</time>
      </trkpt>
      <trkpt lat="46.68195" lon="5.81085">
        <ele>606.6</ele>
        <time>2015-07-12T08:34:02Z</time>
      </trkpt>
      <trkpt lat="46.68185" lon="5.81083">
        <ele>606.8</ele>
        <time>2015-07-12T08:34:05Z</time>
      </trkpt>
      <trkpt lat="46.68175" lon="5.8108">
        <ele>607.1</ele>
        <time>2015-07-12T08:34:08Z</time>
      </trkpt>
      <trkpt lat="46.68163" lon="5.81081">
        <ele>607.3</ele>
        <time>2015-07-12T08:34:11Z</time>
      </trkpt>
      <trkpt lat="46.6815" lon="5.81078">
        <ele>607.4</ele>
        <time>2015-07-12T08:34:14Z</time>
      </trkpt>
      <trkpt lat="46.68137" lon="5.81073">
        <ele>607.6</ele>
        <time>2015-07-12T08:34:17Z</time>
      </trkpt>
      <trkpt lat="46.68124" lon="5.81068">
        <ele>607.7</ele>
        <time>2015-07-12T08:34:20Z</time>
      </trkpt>
      <trkpt lat="46.68115" lon="5.81064">
        <ele>607.8</ele>
        <time>2015-07-12T08:34:22Z</time>
      </trkpt>
      <trkpt lat="46.68106" lon="5.8106">
        <ele>607.7</ele>
        <time>2015-07-12T08:34:24Z</time>
      </trkpt>
      <trkpt lat="46.68096" lon="5.81056">
        <ele>607.5</ele>
        <time>2015-07-12T08:34:26Z</time>
      </trkpt>
      <trkpt lat="46.68086" lon="5.81054">
        <ele>607.3</ele>
        <time>2015-07-12T08:34:28Z</time>
      </trkpt>
      <trkpt lat="46.68075" lon="5.81052">
        <ele>607</ele>
        <time>2015-07-12T08:34:30Z</time>
      </trkpt>
      <trkpt lat="46.68064" lon="5.8105">
        <ele>606.5</ele>
        <time>2015-07-12T08:34:32Z</time>
      </trkpt>
      <trkpt lat="46.68053" lon="5.81049">
        <ele>605.5</ele>
        <time>2015-07-12T08:34:34Z</time>
      </trkpt>
      <trkpt lat="46.68041" lon="5.81048">
        <ele>604.8</ele>
        <time>2015-07-12T08:34:36Z</time>
      </trkpt>
      <trkpt lat="46.68032" lon="5.81047">
        <ele>604</ele>
        <time>2015-07-12T08:34:38Z</time>
      </trkpt>
      <trkpt lat="46.68022" lon="5.81041">
        <ele>602.8</ele>
        <time>2015-07-12T08:34:41Z</time>
      </trkpt>
      <trkpt lat="46.68013" lon="5.81034">
        <ele>602.1</ele>
        <time>2015-07-12T08:34:43Z</time>
      </trkpt>
      <trkpt lat="46.68005" lon="5.81023">
        <ele>601.4</ele>
        <time>2015-07-12T08:34:45Z</time>
      </trkpt>
      <trkpt lat="46.67998" lon="5.81008">
        <ele>600.8</ele>
        <time>2015-07-12T08:34:47Z</time>
      </trkpt>
      <trkpt lat="46.67992" lon="5.80993">
        <ele>600.1</ele>
        <time>2015-07-12T08:34:49Z</time>
      </trkpt>
      <trkpt lat="46.67986" lon="5.80978">
        <ele>599.5</ele>
        <time>2015-07-12T08:34:51Z</time>
      </trkpt>
      <trkpt lat="46.6798" lon="5.80965">
        <ele>598.9</ele>
        <time>2015-07-12T08:34:53Z</time>
      </trkpt>
      <trkpt lat="46.67974" lon="5.80953">
        <ele>598.4</ele>
        <time>2015-07-12T08:34:55Z</time>
      </trkpt>
      <trkpt lat="46.67968" lon="5.80942">
        <ele>597.9</ele>
        <time>2015-07-12T08:34:57Z</time>
      </trkpt>
      <trkpt lat="46.67962" lon="5.80931">
        <ele>597.4</ele>
        <time>2015-07-12T08:34:59Z</time>
      </trkpt>
      <trkpt lat="46.67957" lon="5.80919">
        <ele>597</ele>
        <time>2015-07-12T08:35:01Z</time>
      </trkpt>
      <trkpt lat="46.6795" lon="5.80908">
        <ele>596.6</ele>
        <time>2015-07-12T08:35:03Z</time>
      </trkpt>
      <trkpt lat="46.67945" lon="5.80897">
        <ele>596.2</ele>
        <time>2015-07-12T08:35:05Z</time>
      </trkpt>
      <trkpt lat="46.67938" lon="5.80888">
        <ele>596</ele>
        <time>2015-07-12T08:35:07Z</time>
      </trkpt>
      <trkpt lat="46.67929" lon="5.80882">
        <ele>595.7</ele>
        <time>2015-07-12T08:35:09Z</time>
      </trkpt>
      <trkpt lat="46.67918" lon="5.80883">
        <ele>595.4</ele>
        <time>2015-07-12T08:35:11Z</time>
      </trkpt>
      <trkpt lat="46.67906" lon="5.80888">
        <ele>595.1</ele>
        <time>2015-07-12T08:35:13Z</time>
      </trkpt>
      <trkpt lat="46.67894" lon="5.80899">
        <ele>594.6</ele>
        <time>2015-07-12T08:35:15Z</time>
      </trkpt>
      <trkpt lat="46.67885" lon="5.80915">
        <ele>594.2</ele>
        <time>2015-07-12T08:35:17Z</time>
      </trkpt>
      <trkpt lat="46.67875" lon="5.80929">
        <ele>593.7</ele>
        <time>2015-07-12T08:35:19Z</time>
      </trkpt>
      <trkpt lat="46.67864" lon="5.80933">
        <ele>593.3</ele>
        <time>2015-07-12T08:35:21Z</time>
      </trkpt>
      <trkpt lat="46.67853" lon="5.80925">
        <ele>592.6</ele>
        <time>2015-07-12T08:35:24Z</time>
      </trkpt>
      <trkpt lat="46.67848" lon="5.80913">
        <ele>592.1</ele>
        <time>2015-07-12T08:35:27Z</time>
      </trkpt>
      <trkpt lat="46.67843" lon="5.80901">
        <ele>591.5</ele>
        <time>2015-07-12T08:35:32Z</time>
      </trkpt>
      <trkpt lat="46.6784" lon="5.80888">
        <ele>591.3</ele>
        <time>2015-07-12T08:35:37Z</time>
      </trkpt>
      <trkpt lat="46.67836" lon="5.80876">
        <ele>591.4</ele>
        <time>2015-07-12T08:35:42Z</time>
      </trkpt>
      <trkpt lat="46.67834" lon="5.80862">
        <ele>591.6</ele>
        <time>2015-07-12T08:35:47Z</time>
      </trkpt>
      <trkpt lat="46.67835" lon="5.80848">
        <ele>592.2</ele>
        <time>2015-07-12T08:35:52Z</time>
      </trkpt>
      <trkpt lat="46.67834" lon="5.80833">
        <ele>593.4</ele>
        <time>2015-07-12T08:35:59Z</time>
      </trkpt>
      <trkpt lat="46.67836" lon="5.80819">
        <ele>594.3</ele>
        <time>2015-07-12T08:36:05Z</time>
      </trkpt>
      <trkpt lat="46.67834" lon="5.80805">
        <ele>595.2</ele>
        <time>2015-07-12T08:36:11Z</time>
      </trkpt>
      <trkpt lat="46.67833" lon="5.80792">
        <ele>596.2</ele>
        <time>2015-07-12T08:36:17Z</time>
      </trkpt>
      <trkpt lat="46.6783" lon="5.80777">
        <ele>597.1</ele>
        <time>2015-07-12T08:36:24Z</time>
      </trkpt>
      <trkpt lat="46.67832" lon="5.80762">
        <ele>597.7</ele>
        <time>2015-07-12T08:36:29Z</time>
      </trkpt>
      <trkpt lat="46.6783" lon="5.80748">
        <ele>598.3</ele>
        <time>2015-07-12T08:36:34Z</time>
      </trkpt>
      <trkpt lat="46.67827" lon="5.80736">
        <ele>598.8</ele>
        <time>2015-07-12T08:36:39Z</time>
      </trkpt>
      <trkpt lat="46.6783" lon="5.80719">
        <ele>599.2</ele>
        <time>2015-07-12T08:36:43Z</time>
      </trkpt>
      <trkpt lat="46.6783" lon="5.80704">
        <ele>599.5</ele>
        <time>2015-07-12T08:36:47Z</time>
      </trkpt>
      <trkpt lat="46.6783" lon="5.80689">
        <ele>599.8</ele>
        <time>2015-07-12T08:36:51Z</time>
      </trkpt>
      <trkpt lat="46.67829" lon="5.80674">
        <ele>600</ele>
        <time>2015-07-12T08:36:55Z</time>
      </trkpt>
      <trkpt lat="46.6783" lon="5.8066">
        <ele>600.2</ele>
        <time>2015-07-12T08:36:58Z</time>
      </trkpt>
      <trkpt lat="46.6783" lon="5.80646">
        <ele>600.3</ele>
        <time>2015-07-12T08:37:01Z</time>
      </trkpt>
      <trkpt lat="46.67831" lon="5.80633">
        <ele>600.4</ele>
        <time>2015-07-12T08:37:04Z</time>
      </trkpt>
      <trkpt lat="46.67833" lon="5.80617">
        <ele>600.5</ele>
        <time>2015-07-12T08:37:07Z</time>
      </trkpt>
      <trkpt lat="46.67833" lon="5.80604">
        <ele>600.6</ele>
        <time>2015-07-12T08:37:10Z</time>
      </trkpt>
      <trkpt lat="46.67832" lon="5.80588">
        <ele>600.7</ele>
        <time>2015-07-12T08:37:13Z</time>
      </trkpt>
      <trkpt lat="46.67837" lon="5.80572">
        <ele>600.5</ele>
        <time>2015-07-12T08:37:15Z</time>
      </trkpt>
      <trkpt lat="46.67838" lon="5.80556">
        <ele>600.4</ele>
        <time>2015-07-12T08:37:17Z</time>
      </trkpt>
      <trkpt lat="46.6784" lon="5.80539">
        <ele>600.4</ele>
        <time>2015-07-12T08:37:19Z</time>
      </trkpt>
      <trkpt lat="46.67841" lon="5.80525">
        <ele>600.3</ele>
        <time>2015-07-12T08:37:21Z</time>
      </trkpt>
      <trkpt lat="46.6784" lon="5.80511">
        <ele>600.2</ele>
        <time>2015-07-12T08:37:23Z</time>
      </trkpt>
      <trkpt lat="46.67839" lon="5.80497">
        <ele>600.1</ele>
        <time>2015-07-12T08:37:26Z</time>
      </trkpt>
      <trkpt lat="46.67833" lon="5.80487">
        <ele>599.7</ele>
        <time>2015-07-12T08:37:35Z</time>
      </trkpt>
      <trkpt lat="46.67824" lon="5.8049">
        <ele>600.6</ele>
        <time>2015-07-12T08:42:04Z</time>
      </trkpt>
      <trkpt lat="46.67815" lon="5.80487">
        <ele>601.1</ele>
        <time>2015-07-12T08:42:09Z</time>
      </trkpt>
      <trkpt lat="46.67806" lon="5.80483">
        <ele>601.7</ele>
        <time>2015-07-12T08:42:14Z</time>
      </trkpt>
      <trkpt lat="46.67796" lon="5.80484">
        <ele>602.4</ele>
        <time>2015-07-12T08:42:20Z</time>
      </trkpt>
      <trkpt lat="46.67786" lon="5.80489">
        <ele>602.9</ele>
        <time>2015-07-12T08:42:25Z</time>
      </trkpt>
      <trkpt lat="46.67776" lon="5.80491">
        <ele>603.5</ele>
        <time>2015-07-12T08:42:30Z</time>
      </trkpt>
      <trkpt lat="46.67765" lon="5.80494">
        <ele>604</ele>
        <time>2015-07-12T08:42:34Z</time>
      </trkpt>
      <trkpt lat="46.67756" lon="5.80498">
        <ele>604.3</ele>
        <time>2015-07-12T08:42:37Z</time>
      </trkpt>
      <trkpt lat="46.67747" lon="5.80501">
        <ele>604.5</ele>
        <time>2015-07-12T08:42:40Z</time>
      </trkpt>
      <trkpt lat="46.67737" lon="5.80501">
        <ele>604.9</ele>
        <time>2015-07-12T08:42:44Z</time>
      </trkpt>
      <trkpt lat="46.67728" lon="5.80504">
        <ele>605.1</ele>
        <time>2015-07-12T08:42:47Z</time>
      </trkpt>
      <trkpt lat="46.67718" lon="5.80508">
        <ele>605.3</ele>
        <time>2015-07-12T08:42:50Z</time>
      </trkpt>
      <trkpt lat="46.67709" lon="5.80511">
        <ele>605.5</ele>
        <time>2015-07-12T08:42:53Z</time>
      </trkpt>
      <trkpt lat="46.67697" lon="5.80513">
        <ele>605.6</ele>
        <time>2015-07-12T08:42:56Z</time>
      </trkpt>
      <trkpt lat="46.67685" lon="5.80516">
        <ele>605.7</ele>
        <time>2015-07-12T08:42:59Z</time>
      </trkpt>
      <trkpt lat="46.67673" lon="5.80524">
        <ele>605.7</ele>
        <time>2015-07-12T08:43:02Z</time>
      </trkpt>
      <trkpt lat="46.67659" lon="5.80527">
        <ele>605.7</ele>
        <time>2015-07-12T08:43:05Z</time>
      </trkpt>
      <trkpt lat="46.67646" lon="5.80531">
        <ele>605.5</ele>
        <time>2015-07-12T08:43:07Z</time>
      </trkpt>
      <trkpt lat="46.67632" lon="5.80534">
        <ele>605.3</ele>
        <time>2015-07-12T08:43:09Z</time>
      </trkpt>
      <trkpt lat="46.6762" lon="5.80534">
        <ele>605.1</ele>
        <time>2015-07-12T08:43:12Z</time>
      </trkpt>
      <trkpt lat="46.67607" lon="5.80534">
        <ele>604.9</ele>
        <time>2015-07-12T08:43:15Z</time>
      </trkpt>
      <trkpt lat="46.67595" lon="5.80538">
        <ele>604.6</ele>
        <time>2015-07-12T08:43:18Z</time>
      </trkpt>
      <trkpt lat="46.67585" lon="5.8054">
        <ele>604.4</ele>
        <time>2015-07-12T08:43:21Z</time>
      </trkpt>
      <trkpt lat="46.67576" lon="5.80545">
        <ele>604.2</ele>
        <time>2015-07-12T08:43:24Z</time>
      </trkpt>
      <trkpt lat="46.67567" lon="5.8055">
        <ele>604.1</ele>
        <time>2015-07-12T08:43:27Z</time>
      </trkpt>
      <trkpt lat="46.67554" lon="5.80558">
        <ele>603.9</ele>
        <time>2015-07-12T08:43:30Z</time>
      </trkpt>
      <trkpt lat="46.67544" lon="5.80563">
        <ele>603.8</ele>
        <time>2015-07-12T08:43:32Z</time>
      </trkpt>
      <trkpt lat="46.67535" lon="5.80569">
        <ele>603.6</ele>
        <time>2015-07-12T08:43:34Z</time>
      </trkpt>
      <trkpt lat="46.67526" lon="5.80575">
        <ele>603.5</ele>
        <time>2015-07-12T08:43:36Z</time>
      </trkpt>
      <trkpt lat="46.67517" lon="5.80581">
        <ele>603.3</ele>
        <time>2015-07-12T08:43:38Z</time>
      </trkpt>
      <trkpt lat="46.67508" lon="5.80587">
        <ele>603</ele>
        <time>2015-07-12T08:43:40Z</time>
      </trkpt>
      <trkpt lat="46.67499" lon="5.80594">
        <ele>602.9</ele>
        <time>2015-07-12T08:43:42Z</time>
      </trkpt>
      <trkpt lat="46.67491" lon="5.806">
        <ele>602.7</ele>
        <time>2015-07-12T08:43:44Z</time>
      </trkpt>
      <trkpt lat="46.6748" lon="5.80603">
        <ele>602.4</ele>
        <time>2015-07-12T08:43:47Z</time>
      </trkpt>
      <trkpt lat="46.67471" lon="5.80607">
        <ele>602.1</ele>
        <time>2015-07-12T08:43:50Z</time>
      </trkpt>
      <trkpt lat="46.67461" lon="5.80612">
        <ele>601.8</ele>
        <time>2015-07-12T08:43:53Z</time>
      </trkpt>
      <trkpt lat="46.67449" lon="5.80621">
        <ele>601.6</ele>
        <time>2015-07-12T08:43:56Z</time>
      </trkpt>
      <trkpt lat="46.67439" lon="5.80632">
        <ele>601.4</ele>
        <time>2015-07-12T08:43:59Z</time>
      </trkpt>
      <trkpt lat="46.67428" lon="5.80636">
        <ele>601.2</ele>
        <time>2015-07-12T08:44:01Z</time>
      </trkpt>
      <trkpt lat="46.67418" lon="5.80635">
        <ele>601.1</ele>
        <time>2015-07-12T08:44:03Z</time>
      </trkpt>
      <trkpt lat="46.67407" lon="5.80632">
        <ele>601.1</ele>
        <time>2015-07-12T08:44:05Z</time>
      </trkpt>
      <trkpt lat="46.67394" lon="5.80628">
        <ele>600.8</ele>
        <time>2015-07-12T08:44:07Z</time>
      </trkpt>
      <trkpt lat="46.67384" lon="5.80623">
        <ele>600.6</ele>
        <time>2015-07-12T08:44:09Z</time>
      </trkpt>
      <trkpt lat="46.67375" lon="5.80617">
        <ele>600.4</ele>
        <time>2015-07-12T08:44:11Z</time>
      </trkpt>
      <trkpt lat="46.67364" lon="5.80619">
        <ele>600.1</ele>
        <time>2015-07-12T08:44:14Z</time>
      </trkpt>
      <trkpt lat="46.67359" lon="5.80637">
        <ele>599.9</ele>
        <time>2015-07-12T08:44:17Z</time>
      </trkpt>
      <trkpt lat="46.67357" lon="5.8065">
        <ele>599.8</ele>
        <time>2015-07-12T08:44:19Z</time>
      </trkpt>
      <trkpt lat="46.67353" lon="5.80664">
        <ele>599.6</ele>
        <time>2015-07-12T08:44:21Z</time>
      </trkpt>
      <trkpt lat="46.67348" lon="5.80675">
        <ele>599.5</ele>
        <time>2015-07-12T08:44:23Z</time>
      </trkpt>
      <trkpt lat="46.67339" lon="5.80689">
        <ele>599.3</ele>
        <time>2015-07-12T08:44:26Z</time>
      </trkpt>
      <trkpt lat="46.67332" lon="5.80703">
        <ele>599.2</ele>
        <time>2015-07-12T08:44:29Z</time>
      </trkpt>
      <trkpt lat="46.67326" lon="5.8072">
        <ele>599.1</ele>
        <time>2015-07-12T08:44:32Z</time>
      </trkpt>
      <trkpt lat="46.67323" lon="5.80738">
        <ele>599</ele>
        <time>2015-07-12T08:44:35Z</time>
      </trkpt>
      <trkpt lat="46.67316" lon="5.80753">
        <ele>598.9</ele>
        <time>2015-07-12T08:44:38Z</time>
      </trkpt>
      <trkpt lat="46.67307" lon="5.80753">
        <ele>598.8</ele>
        <time>2015-07-12T08:44:42Z</time>
      </trkpt>
      <trkpt lat="46.67299" lon="5.80747">
        <ele>598.7</ele>
        <time>2015-07-12T08:44:46Z</time>
      </trkpt>
      <trkpt lat="46.67305" lon="5.80757">
        <ele>597.2</ele>
        <time>2015-07-12T08:45:20Z</time>
      </trkpt>
      <trkpt lat="46.67305" lon="5.80772">
        <ele>597.1</ele>
        <time>2015-07-12T08:45:24Z</time>
      </trkpt>
      <trkpt lat="46.67299" lon="5.80785">
        <ele>597.1</ele>
        <time>2015-07-12T08:45:27Z</time>
      </trkpt>
      <trkpt lat="46.67292" lon="5.80801">
        <ele>597.1</ele>
        <time>2015-07-12T08:45:30Z</time>
      </trkpt>
      <trkpt lat="46.67287" lon="5.80817">
        <ele>597</ele>
        <time>2015-07-12T08:45:33Z</time>
      </trkpt>
      <trkpt lat="46.67284" lon="5.80832">
        <ele>597.1</ele>
        <time>2015-07-12T08:45:36Z</time>
      </trkpt>
      <trkpt lat="46.67282" lon="5.80848">
        <ele>597.2</ele>
        <time>2015-07-12T08:45:39Z</time>
      </trkpt>
      <trkpt lat="46.6728" lon="5.80865">
        <ele>597.3</ele>
        <time>2015-07-12T08:45:42Z</time>
      </trkpt>
      <trkpt lat="46.67279" lon="5.80883">
        <ele>597.4</ele>
        <time>2015-07-12T08:45:45Z</time>
      </trkpt>
      <trkpt lat="46.67279" lon="5.80902">
        <ele>597.4</ele>
        <time>2015-07-12T08:45:48Z</time>
      </trkpt>
      <trkpt lat="46.67279" lon="5.80921">
        <ele>597.4</ele>
        <time>2015-07-12T08:45:51Z</time>
      </trkpt>
      <trkpt lat="46.67278" lon="5.80934">
        <ele>597.4</ele>
        <time>2015-07-12T08:45:53Z</time>
      </trkpt>
      <trkpt lat="46.67274" lon="5.80946">
        <ele>597.3</ele>
        <time>2015-07-12T08:45:55Z</time>
      </trkpt>
      <trkpt lat="46.6727" lon="5.80958">
        <ele>597.3</ele>
        <time>2015-07-12T08:45:57Z</time>
      </trkpt>
      <trkpt lat="46.67266" lon="5.80971">
        <ele>597.3</ele>
        <time>2015-07-12T08:45:59Z</time>
      </trkpt>
      <trkpt lat="46.67261" lon="5.80984">
        <ele>597.3</ele>
        <time>2015-07-12T08:46:01Z</time>
      </trkpt>
      <trkpt lat="46.67257" lon="5.80998">
        <ele>597.2</ele>
        <time>2015-07-12T08:46:03Z</time>
      </trkpt>
      <trkpt lat="46.67253" lon="5.81014">
        <ele>597.2</ele>
        <time>2015-07-12T08:46:05Z</time>
      </trkpt>
      <trkpt lat="46.67248" lon="5.8103">
        <ele>597.1</ele>
        <time>2015-07-12T08:46:07Z</time>
      </trkpt>
      <trkpt lat="46.67243" lon="5.81047">
        <ele>597</ele>
        <time>2015-07-12T08:46:09Z</time>
      </trkpt>
      <trkpt lat="46.67238" lon="5.81062">
        <ele>596.9</ele>
        <time>2015-07-12T08:46:11Z</time>
      </trkpt>
      <trkpt lat="46.67234" lon="5.81074">
        <ele>596.7</ele>
        <time>2015-07-12T08:46:13Z</time>
      </trkpt>
      <trkpt lat="46.67228" lon="5.81091">
        <ele>596.6</ele>
        <time>2015-07-12T08:46:16Z</time>
      </trkpt>
      <trkpt lat="46.67222" lon="5.81108">
        <ele>596.4</ele>
        <time>2015-07-12T08:46:19Z</time>
      </trkpt>
      <trkpt lat="46.67217" lon="5.81122">
        <ele>596.3</ele>
        <time>2015-07-12T08:46:22Z</time>
      </trkpt>
      <trkpt lat="46.67214" lon="5.81136">
        <ele>596.3</ele>
        <time>2015-07-12T08:46:25Z</time>
      </trkpt>
      <trkpt lat="46.67209" lon="5.81151">
        <ele>596.3</ele>
        <time>2015-07-12T08:46:28Z</time>
      </trkpt>
      <trkpt lat="46.67203" lon="5.81167">
        <ele>596.5</ele>
        <time>2015-07-12T08:46:31Z</time>
      </trkpt>
      <trkpt lat="46.67198" lon="5.81178">
        <ele>596.6</ele>
        <time>2015-07-12T08:46:33Z</time>
      </trkpt>
      <trkpt lat="46.67193" lon="5.8119">
        <ele>596.7</ele>
        <time>2015-07-12T08:46:35Z</time>
      </trkpt>
      <trkpt lat="46.67187" lon="5.812">
        <ele>596.7</ele>
        <time>2015-07-12T08:46:37Z</time>
      </trkpt>
      <trkpt lat="46.6718" lon="5.81209">
        <ele>596.7</ele>
        <time>2015-07-12T08:46:39Z</time>
      </trkpt>
      <trkpt lat="46.67173" lon="5.81217">
        <ele>596.6</ele>
        <time>2015-07-12T08:46:41Z</time>
      </trkpt>
      <trkpt lat="46.67162" lon="5.81222">
        <ele>596.7</ele>
        <time>2015-07-12T08:46:44Z</time>
      </trkpt>
      <trkpt lat="46.67152" lon="5.81226">
        <ele>596.9</ele>
        <time>2015-07-12T08:46:49Z</time>
      </trkpt>
      <trkpt lat="46.67143" lon="5.81232">
        <ele>597.3</ele>
        <time>2015-07-12T08:46:55Z</time>
      </trkpt>
      <trkpt lat="46.67135" lon="5.8124">
        <ele>598</ele>
        <time>2015-07-12T08:47:01Z</time>
      </trkpt>
      <trkpt lat="46.67126" lon="5.81245">
        <ele>598.3</ele>
        <time>2015-07-12T08:47:05Z</time>
      </trkpt>
      <trkpt lat="46.67116" lon="5.81251">
        <ele>598.7</ele>
        <time>2015-07-12T08:47:09Z</time>
      </trkpt>
      <trkpt lat="46.67107" lon="5.81253">
        <ele>600.3</ele>
        <time>2015-07-12T08:47:20Z</time>
      </trkpt>
      <trkpt lat="46.67098" lon="5.81256">
        <ele>600.8</ele>
        <time>2015-07-12T08:47:23Z</time>
      </trkpt>
      <trkpt lat="46.67089" lon="5.81259">
        <ele>601.6</ele>
        <time>2015-07-12T08:47:27Z</time>
      </trkpt>
      <trkpt lat="46.6708" lon="5.81261">
        <ele>602.9</ele>
        <time>2015-07-12T08:47:33Z</time>
      </trkpt>
      <trkpt lat="46.6707" lon="5.81259">
        <ele>604.1</ele>
        <time>2015-07-12T08:47:39Z</time>
      </trkpt>
      <trkpt lat="46.67061" lon="5.81253">
        <ele>605.5</ele>
        <time>2015-07-12T08:47:46Z</time>
      </trkpt>
      <trkpt lat="46.67054" lon="5.8126">
        <ele>607.4</ele>
        <time>2015-07-12T08:50:51Z</time>
      </trkpt>
      <trkpt lat="46.67045" lon="5.8127">
        <ele>607.6</ele>
        <time>2015-07-12T08:50:56Z</time>
      </trkpt>
      <trkpt lat="46.67036" lon="5.81278">
        <ele>608</ele>
        <time>2015-07-12T08:51:02Z</time>
      </trkpt>
      <trkpt lat="46.67029" lon="5.8129">
        <ele>608.5</ele>
        <time>2015-07-12T08:51:08Z</time>
      </trkpt>
      <trkpt lat="46.67022" lon="5.813">
        <ele>608.7</ele>
        <time>2015-07-12T08:51:12Z</time>
      </trkpt>
      <trkpt lat="46.67017" lon="5.81312">
        <ele>609.1</ele>
        <time>2015-07-12T08:51:19Z</time>
      </trkpt>
      <trkpt lat="46.67014" lon="5.81325">
        <ele>608.6</ele>
        <time>2015-07-12T08:51:31Z</time>
      </trkpt>
      <trkpt lat="46.67009" lon="5.81339">
        <ele>608.6</ele>
        <time>2015-07-12T08:51:36Z</time>
      </trkpt>
      <trkpt lat="46.67006" lon="5.81352">
        <ele>608.6</ele>
        <time>2015-07-12T08:51:39Z</time>
      </trkpt>
      <trkpt lat="46.66997" lon="5.81365">
        <ele>608.4</ele>
        <time>2015-07-12T08:51:42Z</time>
      </trkpt>
      <trkpt lat="46.66988" lon="5.81379">
        <ele>608.3</ele>
        <time>2015-07-12T08:51:45Z</time>
      </trkpt>
      <trkpt lat="46.66981" lon="5.81392">
        <ele>608.1</ele>
        <time>2015-07-12T08:51:48Z</time>
      </trkpt>
      <trkpt lat="46.66976" lon="5.81406">
        <ele>608</ele>
        <time>2015-07-12T08:51:51Z</time>
      </trkpt>
      <trkpt lat="46.6697" lon="5.81419">
        <ele>607.8</ele>
        <time>2015-07-12T08:51:54Z</time>
      </trkpt>
      <trkpt lat="46.66964" lon="5.81435">
        <ele>607.3</ele>
        <time>2015-07-12T08:51:57Z</time>
      </trkpt>
      <trkpt lat="46.66962" lon="5.81448">
        <ele>606.9</ele>
        <time>2015-07-12T08:52:00Z</time>
      </trkpt>
      <trkpt lat="46.66961" lon="5.81462">
        <ele>606.8</ele>
        <time>2015-07-12T08:52:04Z</time>
      </trkpt>
      <trkpt lat="46.66957" lon="5.81476">
        <ele>606.8</ele>
        <time>2015-07-12T08:52:09Z</time>
      </trkpt>
      <trkpt lat="46.66952" lon="5.81489">
        <ele>607</ele>
        <time>2015-07-12T08:52:13Z</time>
      </trkpt>
      <trkpt lat="46.66945" lon="5.815">
        <ele>607.1</ele>
        <time>2015-07-12T08:52:16Z</time>
      </trkpt>
      <trkpt lat="46.66939" lon="5.81512">
        <ele>607.2</ele>
        <time>2015-07-12T08:52:19Z</time>
      </trkpt>
      <trkpt lat="46.66931" lon="5.81523">
        <ele>607.3</ele>
        <time>2015-07-12T08:52:22Z</time>
      </trkpt>
      <trkpt lat="46.66923" lon="5.81534">
        <ele>607.4</ele>
        <time>2015-07-12T08:52:25Z</time>
      </trkpt>
      <trkpt lat="46.66914" lon="5.81547">
        <ele>607.6</ele>
        <time>2015-07-12T08:52:28Z</time>
      </trkpt>
      <trkpt lat="46.66905" lon="5.8156">
        <ele>607.7</ele>
        <time>2015-07-12T08:52:31Z</time>
      </trkpt>
      <trkpt lat="46.66897" lon="5.81575">
        <ele>607.8</ele>
        <time>2015-07-12T08:52:34Z</time>
      </trkpt>
      <trkpt lat="46.66889" lon="5.8159">
        <ele>607.9</ele>
        <time>2015-07-12T08:52:37Z</time>
      </trkpt>
      <trkpt lat="46.66881" lon="5.81604">
        <ele>608</ele>
        <time>2015-07-12T08:52:40Z</time>
      </trkpt>
      <trkpt lat="46.66872" lon="5.81619">
        <ele>608</ele>
        <time>2015-07-12T08:52:43Z</time>
      </trkpt>
      <trkpt lat="46.66865" lon="5.81629">
        <ele>608.1</ele>
        <time>2015-07-12T08:52:45Z</time>
      </trkpt>
      <trkpt lat="46.66859" lon="5.81639">
        <ele>608.2</ele>
        <time>2015-07-12T08:52:47Z</time>
      </trkpt>
      <trkpt lat="46.66853" lon="5.8165">
        <ele>608.3</ele>
        <time>2015-07-12T08:52:49Z</time>
      </trkpt>
      <trkpt lat="46.66847" lon="5.8166">
        <ele>608.4</ele>
        <time>2015-07-12T08:52:51Z</time>
      </trkpt>
      <trkpt lat="46.66841" lon="5.8167">
        <ele>608.5</ele>
        <time>2015-07-12T08:52:53Z</time>
      </trkpt>
      <trkpt lat="46.66835" lon="5.81681">
        <ele>608.5</ele>
        <time>2015-07-12T08:52:55Z</time>
      </trkpt>
      <trkpt lat="46.66829" lon="5.81691">
        <ele>608.6</ele>
        <time>2015-07-12T08:52:57Z</time>
      </trkpt>
      <trkpt lat="46.66822" lon="5.81703">
        <ele>608.6</ele>
        <time>2015-07-12T08:52:59Z</time>
      </trkpt>
      <trkpt lat="46.66817" lon="5.81715">
        <ele>608.6</ele>
        <time>2015-07-12T08:53:01Z</time>
      </trkpt>
      <trkpt lat="46.66813" lon="5.81729">
        <ele>608.7</ele>
        <time>2015-07-12T08:53:03Z</time>
      </trkpt>
      <trkpt lat="46.66811" lon="5.81747">
        <ele>608.6</ele>
        <time>2015-07-12T08:53:05Z</time>
      </trkpt>
      <trkpt lat="46.6681" lon="5.81768">
        <ele>608.5</ele>
        <time>2015-07-12T08:53:07Z</time>
      </trkpt>
      <trkpt lat="46.66809" lon="5.81791">
        <ele>608.3</ele>
        <time>2015-07-12T08:53:09Z</time>
      </trkpt>
      <trkpt lat="46.66805" lon="5.81816">
        <ele>608</ele>
        <time>2015-07-12T08:53:11Z</time>
      </trkpt>
      <trkpt lat="46.66802" lon="5.81829">
        <ele>607.7</ele>
        <time>2015-07-12T08:53:12Z</time>
      </trkpt>
      <trkpt lat="46.66798" lon="5.81842">
        <ele>607.4</ele>
        <time>2015-07-12T08:53:13Z</time>
      </trkpt>
      <trkpt lat="46.66795" lon="5.81857">
        <ele>607.1</ele>
        <time>2015-07-12T08:53:14Z</time>
      </trkpt>
      <trkpt lat="46.66792" lon="5.81873">
        <ele>606.7</ele>
        <time>2015-07-12T08:53:15Z</time>
      </trkpt>
      <trkpt lat="46.66789" lon="5.8189">
        <ele>606.2</ele>
        <time>2015-07-12T08:53:16Z</time>
      </trkpt>
      <trkpt lat="46.66787" lon="5.81907">
        <ele>605.8</ele>
        <time>2015-07-12T08:53:17Z</time>
      </trkpt>
      <trkpt lat="46.66785" lon="5.81922">
        <ele>605.4</ele>
        <time>2015-07-12T08:53:18Z</time>
      </trkpt>
      <trkpt lat="46.66785" lon="5.81938">
        <ele>604.9</ele>
        <time>2015-07-12T08:53:19Z</time>
      </trkpt>
      <trkpt lat="46.66785" lon="5.81954">
        <ele>604.5</ele>
        <time>2015-07-12T08:53:20Z</time>
      </trkpt>
      <trkpt lat="46.66787" lon="5.81969">
        <ele>604.1</ele>
        <time>2015-07-12T08:53:21Z</time>
      </trkpt>
      <trkpt lat="46.66789" lon="5.81984">
        <ele>603.6</ele>
        <time>2015-07-12T08:53:22Z</time>
      </trkpt>
      <trkpt lat="46.66793" lon="5.81999">
        <ele>603.1</ele>
        <time>2015-07-12T08:53:23Z</time>
      </trkpt>
      <trkpt lat="46.66798" lon="5.82013">
        <ele>602.5</ele>
        <time>2015-07-12T08:53:24Z</time>
      </trkpt>
      <trkpt lat="46.66803" lon="5.82027">
        <ele>601.7</ele>
        <time>2015-07-12T08:53:25Z</time>
      </trkpt>
      <trkpt lat="46.66806" lon="5.82041">
        <ele>601</ele>
        <time>2015-07-12T08:53:26Z</time>
      </trkpt>
      <trkpt lat="46.66807" lon="5.82056">
        <ele>600.3</ele>
        <time>2015-07-12T08:53:27Z</time>
      </trkpt>
      <trkpt lat="46.66806" lon="5.82069">
        <ele>599.7</ele>
        <time>2015-07-12T08:53:28Z</time>
      </trkpt>
      <trkpt lat="46.66804" lon="5.82082">
        <ele>599.1</ele>
        <time>2015-07-12T08:53:29Z</time>
      </trkpt>
      <trkpt lat="46.66795" lon="5.82105">
        <ele>598</ele>
        <time>2015-07-12T08:53:31Z</time>
      </trkpt>
      <trkpt lat="46.66787" lon="5.82124">
        <ele>597</ele>
        <time>2015-07-12T08:53:33Z</time>
      </trkpt>
      <trkpt lat="46.66781" lon="5.82141">
        <ele>596.3</ele>
        <time>2015-07-12T08:53:35Z</time>
      </trkpt>
      <trkpt lat="46.66777" lon="5.82156">
        <ele>595.6</ele>
        <time>2015-07-12T08:53:37Z</time>
      </trkpt>
      <trkpt lat="46.66772" lon="5.82169">
        <ele>595</ele>
        <time>2015-07-12T08:53:39Z</time>
      </trkpt>
      <trkpt lat="46.66767" lon="5.82182">
        <ele>594.3</ele>
        <time>2015-07-12T08:53:42Z</time>
      </trkpt>
      <trkpt lat="46.66766" lon="5.82195">
        <ele>593.9</ele>
        <time>2015-07-12T08:53:46Z</time>
      </trkpt>
      <trkpt lat="46.66768" lon="5.8221">
        <ele>593.8</ele>
        <time>2015-07-12T08:53:51Z</time>
      </trkpt>
      <trkpt lat="46.66771" lon="5.82225">
        <ele>594.1</ele>
        <time>2015-07-12T08:53:56Z</time>
      </trkpt>
      <trkpt lat="46.66762" lon="5.82221">
        <ele>594.8</ele>
        <time>2015-07-12T08:54:02Z</time>
      </trkpt>
      <trkpt lat="46.66753" lon="5.82213">
        <ele>595.5</ele>
        <time>2015-07-12T08:54:07Z</time>
      </trkpt>
      <trkpt lat="46.6675" lon="5.82196">
        <ele>597.2</ele>
        <time>2015-07-12T08:54:24Z</time>
      </trkpt>
      <trkpt lat="46.66741" lon="5.82186">
        <ele>597.1</ele>
        <time>2015-07-12T08:54:27Z</time>
      </trkpt>
      <trkpt lat="46.6673" lon="5.82179">
        <ele>597</ele>
        <time>2015-07-12T08:54:30Z</time>
      </trkpt>
      <trkpt lat="46.6672" lon="5.82174">
        <ele>596.8</ele>
        <time>2015-07-12T08:54:33Z</time>
      </trkpt>
      <trkpt lat="46.66712" lon="5.82167">
        <ele>596.7</ele>
        <time>2015-07-12T08:54:35Z</time>
      </trkpt>
      <trkpt lat="46.667" lon="5.82165">
        <ele>596.3</ele>
        <time>2015-07-12T08:54:38Z</time>
      </trkpt>
      <trkpt lat="46.66687" lon="5.82171">
        <ele>595.9</ele>
        <time>2015-07-12T08:54:41Z</time>
      </trkpt>
      <trkpt lat="46.66679" lon="5.82182">
        <ele>595.6</ele>
        <time>2015-07-12T08:54:43Z</time>
      </trkpt>
      <trkpt lat="46.66674" lon="5.82194">
        <ele>595.2</ele>
        <time>2015-07-12T08:54:45Z</time>
      </trkpt>
      <trkpt lat="46.66667" lon="5.82209">
        <ele>594.7</ele>
        <time>2015-07-12T08:54:48Z</time>
      </trkpt>
      <trkpt lat="46.66658" lon="5.82223">
        <ele>594.2</ele>
        <time>2015-07-12T08:54:51Z</time>
      </trkpt>
      <trkpt lat="46.66651" lon="5.82237">
        <ele>593.8</ele>
        <time>2015-07-12T08:54:54Z</time>
      </trkpt>
      <trkpt lat="46.66643" lon="5.82253">
        <ele>593.4</ele>
        <time>2015-07-12T08:54:57Z</time>
      </trkpt>
      <trkpt lat="46.66636" lon="5.82266">
        <ele>592.6</ele>
        <time>2015-07-12T08:55:00Z</time>
      </trkpt>
      <trkpt lat="46.6663" lon="5.82277">
        <ele>592</ele>
        <time>2015-07-12T08:55:03Z</time>
      </trkpt>
      <trkpt lat="46.66628" lon="5.82294">
        <ele>591.6</ele>
        <time>2015-07-12T08:55:06Z</time>
      </trkpt>
      <trkpt lat="46.6663" lon="5.82312">
        <ele>591.2</ele>
        <time>2015-07-12T08:55:09Z</time>
      </trkpt>
      <trkpt lat="46.6663" lon="5.82328">
        <ele>591</ele>
        <time>2015-07-12T08:55:12Z</time>
      </trkpt>
      <trkpt lat="46.66631" lon="5.82341">
        <ele>590.7</ele>
        <time>2015-07-12T08:55:15Z</time>
      </trkpt>
      <trkpt lat="46.6663" lon="5.82357">
        <ele>590.7</ele>
        <time>2015-07-12T08:55:18Z</time>
      </trkpt>
      <trkpt lat="46.66629" lon="5.82373">
        <ele>590.8</ele>
        <time>2015-07-12T08:55:21Z</time>
      </trkpt>
      <trkpt lat="46.6663" lon="5.8239">
        <ele>591.1</ele>
        <time>2015-07-12T08:55:25Z</time>
      </trkpt>
      <trkpt lat="46.66632" lon="5.82402">
        <ele>591.4</ele>
        <time>2015-07-12T08:55:28Z</time>
      </trkpt>
      <trkpt lat="46.66635" lon="5.82416">
        <ele>591.8</ele>
        <time>2015-07-12T08:55:32Z</time>
      </trkpt>
      <trkpt lat="46.66637" lon="5.82433">
        <ele>592.5</ele>
        <time>2015-07-12T08:55:37Z</time>
      </trkpt>
      <trkpt lat="46.6664" lon="5.82448">
        <ele>593.1</ele>
        <time>2015-07-12T08:55:41Z</time>
      </trkpt>
      <trkpt lat="46.66637" lon="5.82462">
        <ele>593.7</ele>
        <time>2015-07-12T08:55:45Z</time>
      </trkpt>
      <trkpt lat="46.66628" lon="5.82472">
        <ele>594.3</ele>
        <time>2015-07-12T08:55:49Z</time>
      </trkpt>
      <trkpt lat="46.66619" lon="5.8248">
        <ele>594.8</ele>
        <time>2015-07-12T08:55:53Z</time>
      </trkpt>
      <trkpt lat="46.66608" lon="5.82487">
        <ele>595.2</ele>
        <time>2015-07-12T08:55:57Z</time>
      </trkpt>
      <trkpt lat="46.66598" lon="5.82492">
        <ele>595.7</ele>
        <time>2015-07-12T08:56:01Z</time>
      </trkpt>
      <trkpt lat="46.66587" lon="5.82495">
        <ele>596.1</ele>
        <time>2015-07-12T08:56:05Z</time>
      </trkpt>
      <trkpt lat="46.66579" lon="5.825">
        <ele>596.5</ele>
        <time>2015-07-12T08:56:09Z</time>
      </trkpt>
      <trkpt lat="46.66569" lon="5.8251">
        <ele>596.9</ele>
        <time>2015-07-12T08:56:15Z</time>
      </trkpt>
      <trkpt lat="46.66558" lon="5.82518">
        <ele>597</ele>
        <time>2015-07-12T08:56:18Z</time>
      </trkpt>
      <trkpt lat="46.66549" lon="5.82526">
        <ele>597.1</ele>
        <time>2015-07-12T08:56:20Z</time>
      </trkpt>
      <trkpt lat="46.6654" lon="5.82534">
        <ele>597.2</ele>
        <time>2015-07-12T08:56:22Z</time>
      </trkpt>
      <trkpt lat="46.66531" lon="5.82543">
        <ele>597.1</ele>
        <time>2015-07-12T08:56:24Z</time>
      </trkpt>
      <trkpt lat="46.66523" lon="5.82549">
        <ele>597.1</ele>
        <time>2015-07-12T08:56:26Z</time>
      </trkpt>
      <trkpt lat="46.66514" lon="5.82554">
        <ele>597.1</ele>
        <time>2015-07-12T08:56:29Z</time>
      </trkpt>
      <trkpt lat="46.66524" lon="5.82553">
        <ele>596.6</ele>
        <time>2015-07-12T08:56:45Z</time>
      </trkpt>
      <trkpt lat="46.66533" lon="5.82546">
        <ele>596.5</ele>
        <time>2015-07-12T08:56:49Z</time>
      </trkpt>
      <trkpt lat="46.66542" lon="5.82539">
        <ele>596.5</ele>
        <time>2015-07-12T08:56:53Z</time>
      </trkpt>
      <trkpt lat="46.66551" lon="5.82531">
        <ele>596.6</ele>
        <time>2015-07-12T08:56:57Z</time>
      </trkpt>
      <trkpt lat="46.6656" lon="5.82523">
        <ele>596.8</ele>
        <time>2015-07-12T08:57:01Z</time>
      </trkpt>
      <trkpt lat="46.6657" lon="5.82516">
        <ele>597</ele>
        <time>2015-07-12T08:57:05Z</time>
      </trkpt>
      <trkpt lat="46.6658" lon="5.8251">
        <ele>597.2</ele>
        <time>2015-07-12T08:57:09Z</time>
      </trkpt>
      <trkpt lat="46.66589" lon="5.82505">
        <ele>597.4</ele>
        <time>2015-07-12T08:57:12Z</time>
      </trkpt>
      <trkpt lat="46.66599" lon="5.82503">
        <ele>597.6</ele>
        <time>2015-07-12T08:57:16Z</time>
      </trkpt>
      <trkpt lat="46.6659" lon="5.825">
        <ele>597.9</ele>
        <time>2015-07-12T08:57:31Z</time>
      </trkpt>
      <trkpt lat="46.6658" lon="5.82504">
        <ele>598</ele>
        <time>2015-07-12T08:57:35Z</time>
      </trkpt>
      <trkpt lat="46.66569" lon="5.82511">
        <ele>598</ele>
        <time>2015-07-12T08:57:39Z</time>
      </trkpt>
      <trkpt lat="46.66558" lon="5.82519">
        <ele>598.1</ele>
        <time>2015-07-12T08:57:42Z</time>
      </trkpt>
      <trkpt lat="46.6655" lon="5.82527">
        <ele>598.1</ele>
        <time>2015-07-12T08:57:44Z</time>
      </trkpt>
      <trkpt lat="46.66541" lon="5.82535">
        <ele>598.1</ele>
        <time>2015-07-12T08:57:46Z</time>
      </trkpt>
      <trkpt lat="46.6653" lon="5.82542">
        <ele>598.1</ele>
        <time>2015-07-12T08:57:48Z</time>
      </trkpt>
      <trkpt lat="46.6652" lon="5.82549">
        <ele>598</ele>
        <time>2015-07-12T08:57:50Z</time>
      </trkpt>
      <trkpt lat="46.66508" lon="5.82556">
        <ele>597.9</ele>
        <time>2015-07-12T08:57:52Z</time>
      </trkpt>
      <trkpt lat="46.66497" lon="5.82562">
        <ele>597.8</ele>
        <time>2015-07-12T08:57:54Z</time>
      </trkpt>
      <trkpt lat="46.66485" lon="5.82567">
        <ele>597.7</ele>
        <time>2015-07-12T08:57:56Z</time>
      </trkpt>
      <trkpt lat="46.66473" lon="5.82571">
        <ele>597.5</ele>
        <time>2015-07-12T08:57:58Z</time>
      </trkpt>
      <trkpt lat="46.6646" lon="5.82572">
        <ele>597.3</ele>
        <time>2015-07-12T08:58:00Z</time>
      </trkpt>
      <trkpt lat="46.66447" lon="5.82573">
        <ele>597.2</ele>
        <time>2015-07-12T08:58:02Z</time>
      </trkpt>
      <trkpt lat="46.66434" lon="5.82574">
        <ele>597</ele>
        <time>2015-07-12T08:58:04Z</time>
      </trkpt>
      <trkpt lat="46.66421" lon="5.82576">
        <ele>596.8</ele>
        <time>2015-07-12T08:58:06Z</time>
      </trkpt>
      <trkpt lat="46.66408" lon="5.8258">
        <ele>596.4</ele>
        <time>2015-07-12T08:58:08Z</time>
      </trkpt>
      <trkpt lat="46.66395" lon="5.82588">
        <ele>596.1</ele>
        <time>2015-07-12T08:58:10Z</time>
      </trkpt>
      <trkpt lat="46.66383" lon="5.82599">
        <ele>595.7</ele>
        <time>2015-07-12T08:58:12Z</time>
      </trkpt>
      <trkpt lat="46.66377" lon="5.82611">
        <ele>595.2</ele>
        <time>2015-07-12T08:58:14Z</time>
      </trkpt>
      <trkpt lat="46.66372" lon="5.82628">
        <ele>594.4</ele>
        <time>2015-07-12T08:58:17Z</time>
      </trkpt>
      <trkpt lat="46.66369" lon="5.82644">
        <ele>593.5</ele>
        <time>2015-07-12T08:58:20Z</time>
      </trkpt>
      <trkpt lat="46.66369" lon="5.82658">
        <ele>592.5</ele>
        <time>2015-07-12T08:58:24Z</time>
      </trkpt>
      <trkpt lat="46.66371" lon="5.8267">
        <ele>589.7</ele>
        <time>2015-07-12T08:58:47Z</time>
      </trkpt>
      <trkpt lat="46.66377" lon="5.82682">
        <ele>589.2</ele>
        <time>2015-07-12T09:00:06Z</time>
      </trkpt>
      <trkpt lat="46.6637" lon="5.82673">
        <ele>589.2</ele>
        <time>2015-07-12T09:00:33Z</time>
      </trkpt>
      <trkpt lat="46.66378" lon="5.82665">
        <ele>589</ele>
        <time>2015-07-12T09:01:23Z</time>
      </trkpt>
      <trkpt lat="46.66372" lon="5.82654">
        <ele>588.9</ele>
        <time>2015-07-12T09:01:43Z</time>
      </trkpt>
      <trkpt lat="46.66369" lon="5.8264">
        <ele>588.9</ele>
        <time>2015-07-12T09:01:48Z</time>
      </trkpt>
      <trkpt lat="46.6637" lon="5.82625">
        <ele>588.9</ele>
        <time>2015-07-12T09:01:52Z</time>
      </trkpt>
      <trkpt lat="46.66372" lon="5.8261">
        <ele>588.9</ele>
        <time>2015-07-12T09:01:56Z</time>
      </trkpt>
      <trkpt lat="46.66372" lon="5.82595">
        <ele>588.9</ele>
        <time>2015-07-12T09:02:00Z</time>
      </trkpt>
      <trkpt lat="46.66373" lon="5.82578">
        <ele>588.9</ele>
        <time>2015-07-12T09:02:04Z</time>
      </trkpt>
      <trkpt lat="46.66373" lon="5.82564">
        <ele>588.9</ele>
        <time>2015-07-12T09:02:07Z</time>
      </trkpt>
      <trkpt lat="46.66374" lon="5.8255">
        <ele>588.9</ele>
        <time>2015-07-12T09:02:10Z</time>
      </trkpt>
      <trkpt lat="46.66376" lon="5.82535">
        <ele>588.9</ele>
        <time>2015-07-12T09:02:13Z</time>
      </trkpt>
      <trkpt lat="46.6638" lon="5.8252">
        <ele>588.9</ele>
        <time>2015-07-12T09:02:16Z</time>
      </trkpt>
      <trkpt lat="46.66383" lon="5.82504">
        <ele>588.9</ele>
        <time>2015-07-12T09:02:19Z</time>
      </trkpt>
      <trkpt lat="46.66385" lon="5.82488">
        <ele>589</ele>
        <time>2015-07-12T09:02:22Z</time>
      </trkpt>
      <trkpt lat="46.66386" lon="5.82472">
        <ele>589.1</ele>
        <time>2015-07-12T09:02:25Z</time>
      </trkpt>
      <trkpt lat="46.66386" lon="5.82457">
        <ele>589.2</ele>
        <time>2015-07-12T09:02:28Z</time>
      </trkpt>
      <trkpt lat="46.66386" lon="5.82441">
        <ele>589.3</ele>
        <time>2015-07-12T09:02:31Z</time>
      </trkpt>
      <trkpt lat="46.66385" lon="5.82426">
        <ele>589.3</ele>
        <time>2015-07-12T09:02:34Z</time>
      </trkpt>
      <trkpt lat="46.66385" lon="5.82412">
        <ele>589.4</ele>
        <time>2015-07-12T09:02:37Z</time>
      </trkpt>
      <trkpt lat="46.66383" lon="5.82398">
        <ele>589.5</ele>
        <time>2015-07-12T09:02:40Z</time>
      </trkpt>
      <trkpt lat="46.66382" lon="5.82385">
        <ele>589.6</ele>
        <time>2015-07-12T09:02:43Z</time>
      </trkpt>
      <trkpt lat="46.6638" lon="5.82369">
        <ele>589.7</ele>
        <time>2015-07-12T09:02:46Z</time>
      </trkpt>
      <trkpt lat="46.66378" lon="5.82356">
        <ele>589.8</ele>
        <time>2015-07-12T09:02:49Z</time>
      </trkpt>
      <trkpt lat="46.66377" lon="5.82339">
        <ele>589.8</ele>
        <time>2015-07-12T09:02:52Z</time>
      </trkpt>
      <trkpt lat="46.66374" lon="5.82324">
        <ele>589.9</ele>
        <time>2015-07-12T09:02:55Z</time>
      </trkpt>
      <trkpt lat="46.66376" lon="5.82307">
        <ele>590</ele>
        <time>2015-07-12T09:02:58Z</time>
      </trkpt>
      <trkpt lat="46.66376" lon="5.8229">
        <ele>590.3</ele>
        <time>2015-07-12T09:03:01Z</time>
      </trkpt>
      <trkpt lat="46.66376" lon="5.82273">
        <ele>590.4</ele>
        <time>2015-07-12T09:03:04Z</time>
      </trkpt>
      <trkpt lat="46.66375" lon="5.82255">
        <ele>590.6</ele>
        <time>2015-07-12T09:03:07Z</time>
      </trkpt>
      <trkpt lat="46.66373" lon="5.82241">
        <ele>590.7</ele>
        <time>2015-07-12T09:03:10Z</time>
      </trkpt>
      <trkpt lat="46.66369" lon="5.82227">
        <ele>590.8</ele>
        <time>2015-07-12T09:03:13Z</time>
      </trkpt>
      <trkpt lat="46.66368" lon="5.8221">
        <ele>590.9</ele>
        <time>2015-07-12T09:03:16Z</time>
      </trkpt>
      <trkpt lat="46.66368" lon="5.82196">
        <ele>590.9</ele>
        <time>2015-07-12T09:03:19Z</time>
      </trkpt>
      <trkpt lat="46.66375" lon="5.82184">
        <ele>590.6</ele>
        <time>2015-07-12T09:03:22Z</time>
      </trkpt>
      <trkpt lat="46.6638" lon="5.82167">
        <ele>590</ele>
        <time>2015-07-12T09:03:26Z</time>
      </trkpt>
      <trkpt lat="46.66381" lon="5.8215">
        <ele>589.7</ele>
        <time>2015-07-12T09:03:29Z</time>
      </trkpt>
      <trkpt lat="46.66384" lon="5.82135">
        <ele>589.4</ele>
        <time>2015-07-12T09:03:32Z</time>
      </trkpt>
      <trkpt lat="46.66381" lon="5.8212">
        <ele>589.1</ele>
        <time>2015-07-12T09:03:35Z</time>
      </trkpt>
      <trkpt lat="46.66381" lon="5.82105">
        <ele>588.9</ele>
        <time>2015-07-12T09:03:40Z</time>
      </trkpt>
      <trkpt lat="46.66377" lon="5.82092">
        <ele>588.4</ele>
        <time>2015-07-12T09:03:46Z</time>
      </trkpt>
      <trkpt lat="46.66376" lon="5.82079">
        <ele>587.8</ele>
        <time>2015-07-12T09:03:53Z</time>
      </trkpt>
      <trkpt lat="46.66373" lon="5.82066">
        <ele>587.5</ele>
        <time>2015-07-12T09:03:59Z</time>
      </trkpt>
      <trkpt lat="46.66367" lon="5.82054">
        <ele>587.2</ele>
        <time>2015-07-12T09:04:04Z</time>
      </trkpt>
      <trkpt lat="46.66358" lon="5.82052">
        <ele>587</ele>
        <time>2015-07-12T09:04:09Z</time>
      </trkpt>
      <trkpt lat="46.66349" lon="5.82049">
        <ele>586</ele>
        <time>2015-07-12T09:04:20Z</time>
      </trkpt>
      <trkpt lat="46.66348" lon="5.82034">
        <ele>585.7</ele>
        <time>2015-07-12T09:04:33Z</time>
      </trkpt>
      <trkpt lat="46.66349" lon="5.82019">
        <ele>585.7</ele>
        <time>2015-07-12T09:04:37Z</time>
      </trkpt>
      <trkpt lat="46.66349" lon="5.82003">
        <ele>585.8</ele>
        <time>2015-07-12T09:04:41Z</time>
      </trkpt>
      <trkpt lat="46.66349" lon="5.81988">
        <ele>585.9</ele>
        <time>2015-07-12T09:04:46Z</time>
      </trkpt>
      <trkpt lat="46.66353" lon="5.81975">
        <ele>586</ele>
        <time>2015-07-12T09:04:51Z</time>
      </trkpt>
      <trkpt lat="46.66353" lon="5.8196">
        <ele>586</ele>
        <time>2015-07-12T09:04:55Z</time>
      </trkpt>
      <trkpt lat="46.66355" lon="5.81946">
        <ele>586.7</ele>
        <time>2015-07-12T09:05:02Z</time>
      </trkpt>
      <trkpt lat="46.66352" lon="5.81932">
        <ele>587.8</ele>
        <time>2015-07-12T09:05:09Z</time>
      </trkpt>
      <trkpt lat="46.66349" lon="5.81919">
        <ele>588.7</ele>
        <time>2015-07-12T09:05:14Z</time>
      </trkpt>
      <trkpt lat="46.66347" lon="5.81905">
        <ele>589</ele>
        <time>2015-07-12T09:05:18Z</time>
      </trkpt>
      <trkpt lat="46.66342" lon="5.81893">
        <ele>589.1</ele>
        <time>2015-07-12T09:05:22Z</time>
      </trkpt>
      <trkpt lat="46.66336" lon="5.81882">
        <ele>589.1</ele>
        <time>2015-07-12T09:05:25Z</time>
      </trkpt>
      <trkpt lat="46.66331" lon="5.81871">
        <ele>588.8</ele>
        <time>2015-07-12T09:05:29Z</time>
      </trkpt>
      <trkpt lat="46.66323" lon="5.81859">
        <ele>588.3</ele>
        <time>2015-07-12T09:05:33Z</time>
      </trkpt>
      <trkpt lat="46.66315" lon="5.81848">
        <ele>587.5</ele>
        <time>2015-07-12T09:05:37Z</time>
      </trkpt>
      <trkpt lat="46.66308" lon="5.8184">
        <ele>586.8</ele>
        <time>2015-07-12T09:05:46Z</time>
      </trkpt>
      <trkpt lat="46.66299" lon="5.81836">
        <ele>586.7</ele>
        <time>2015-07-12T09:05:56Z</time>
      </trkpt>
      <trkpt lat="46.66291" lon="5.81829">
        <ele>586.8</ele>
        <time>2015-07-12T09:06:01Z</time>
      </trkpt>
      <trkpt lat="46.66285" lon="5.81817">
        <ele>587.2</ele>
        <time>2015-07-12T09:06:07Z</time>
      </trkpt>
      <trkpt lat="46.66281" lon="5.81805">
        <ele>588</ele>
        <time>2015-07-12T09:06:14Z</time>
      </trkpt>
      <trkpt lat="46.66281" lon="5.81791">
        <ele>589.5</ele>
        <time>2015-07-12T09:06:24Z</time>
      </trkpt>
      <trkpt lat="46.6628" lon="5.81778">
        <ele>590.9</ele>
        <time>2015-07-12T09:06:33Z</time>
      </trkpt>
      <trkpt lat="46.66275" lon="5.81766">
        <ele>591.9</ele>
        <time>2015-07-12T09:06:40Z</time>
      </trkpt>
      <trkpt lat="46.66279" lon="5.81753">
        <ele>593.3</ele>
        <time>2015-07-12T09:06:49Z</time>
      </trkpt>
      <trkpt lat="46.66285" lon="5.81742">
        <ele>594</ele>
        <time>2015-07-12T09:06:54Z</time>
      </trkpt>
      <trkpt lat="46.66291" lon="5.8173">
        <ele>594.5</ele>
        <time>2015-07-12T09:06:59Z</time>
      </trkpt>
      <trkpt lat="46.66297" lon="5.81717">
        <ele>595</ele>
        <time>2015-07-12T09:07:04Z</time>
      </trkpt>
      <trkpt lat="46.66297" lon="5.81702">
        <ele>595.6</ele>
        <time>2015-07-12T09:07:09Z</time>
      </trkpt>
      <trkpt lat="46.66293" lon="5.81688">
        <ele>596.2</ele>
        <time>2015-07-12T09:07:14Z</time>
      </trkpt>
      <trkpt lat="46.66285" lon="5.81679">
        <ele>596.9</ele>
        <time>2015-07-12T09:07:21Z</time>
      </trkpt>
      <trkpt lat="46.6629" lon="5.81665">
        <ele>597.6</ele>
        <time>2015-07-12T09:07:34Z</time>
      </trkpt>
      <trkpt lat="46.66298" lon="5.81657">
        <ele>597.7</ele>
        <time>2015-07-12T09:07:40Z</time>
      </trkpt>
      <trkpt lat="46.66291" lon="5.81648">
        <ele>596.2</ele>
        <time>2015-07-12T09:08:10Z</time>
      </trkpt>
      <trkpt lat="46.66281" lon="5.81647">
        <ele>596.3</ele>
        <time>2015-07-12T09:08:15Z</time>
      </trkpt>
      <trkpt lat="46.6627" lon="5.81646">
        <ele>596.1</ele>
        <time>2015-07-12T09:08:20Z</time>
      </trkpt>
      <trkpt lat="46.66261" lon="5.81644">
        <ele>596</ele>
        <time>2015-07-12T09:08:26Z</time>
      </trkpt>
      <trkpt lat="46.6625" lon="5.81643">
        <ele>595.9</ele>
        <time>2015-07-12T09:08:30Z</time>
      </trkpt>
      <trkpt lat="46.66239" lon="5.81638">
        <ele>595.9</ele>
        <time>2015-07-12T09:08:35Z</time>
      </trkpt>
      <trkpt lat="46.6623" lon="5.81631">
        <ele>595.8</ele>
        <time>2015-07-12T09:08:39Z</time>
      </trkpt>
      <trkpt lat="46.66221" lon="5.81627">
        <ele>595.8</ele>
        <time>2015-07-12T09:08:43Z</time>
      </trkpt>
      <trkpt lat="46.66213" lon="5.81617">
        <ele>595.8</ele>
        <time>2015-07-12T09:08:47Z</time>
      </trkpt>
      <trkpt lat="46.66205" lon="5.81609">
        <ele>595.7</ele>
        <time>2015-07-12T09:08:50Z</time>
      </trkpt>
      <trkpt lat="46.66196" lon="5.816">
        <ele>594.8</ele>
        <time>2015-07-12T09:08:54Z</time>
      </trkpt>
      <trkpt lat="46.66187" lon="5.81592">
        <ele>594.2</ele>
        <time>2015-07-12T09:08:58Z</time>
      </trkpt>
      <trkpt lat="46.6618" lon="5.81582">
        <ele>593.6</ele>
        <time>2015-07-12T09:09:02Z</time>
      </trkpt>
      <trkpt lat="46.66172" lon="5.81569">
        <ele>593.2</ele>
        <time>2015-07-12T09:09:06Z</time>
      </trkpt>
      <trkpt lat="46.66164" lon="5.81561">
        <ele>593</ele>
        <time>2015-07-12T09:09:09Z</time>
      </trkpt>
      <trkpt lat="46.6616" lon="5.81548">
        <ele>592.7</ele>
        <time>2015-07-12T09:09:12Z</time>
      </trkpt>
      <trkpt lat="46.66157" lon="5.81535">
        <ele>592.5</ele>
        <time>2015-07-12T09:09:15Z</time>
      </trkpt>
      <trkpt lat="46.66153" lon="5.81522">
        <ele>592.3</ele>
        <time>2015-07-12T09:09:19Z</time>
      </trkpt>
      <trkpt lat="46.66147" lon="5.81512">
        <ele>592.2</ele>
        <time>2015-07-12T09:09:22Z</time>
      </trkpt>
      <trkpt lat="46.66141" lon="5.815">
        <ele>592.1</ele>
        <time>2015-07-12T09:09:25Z</time>
      </trkpt>
      <trkpt lat="46.66138" lon="5.81486">
        <ele>592</ele>
        <time>2015-07-12T09:09:30Z</time>
      </trkpt>
      <trkpt lat="46.66132" lon="5.81472">
        <ele>592.7</ele>
        <time>2015-07-12T09:09:37Z</time>
      </trkpt>
      <trkpt lat="46.66132" lon="5.81459">
        <ele>593.7</ele>
        <time>2015-07-12T09:09:43Z</time>
      </trkpt>
      <trkpt lat="46.66128" lon="5.81446">
        <ele>594.9</ele>
        <time>2015-07-12T09:09:51Z</time>
      </trkpt>
      <trkpt lat="46.66132" lon="5.81431">
        <ele>595.5</ele>
        <time>2015-07-12T09:09:56Z</time>
      </trkpt>
      <trkpt lat="46.66136" lon="5.81419">
        <ele>595.4</ele>
        <time>2015-07-12T09:09:59Z</time>
      </trkpt>
      <trkpt lat="46.66138" lon="5.81402">
        <ele>595.2</ele>
        <time>2015-07-12T09:10:02Z</time>
      </trkpt>
      <trkpt lat="46.6614" lon="5.81385">
        <ele>594.9</ele>
        <time>2015-07-12T09:10:05Z</time>
      </trkpt>
      <trkpt lat="46.6614" lon="5.8137">
        <ele>594.6</ele>
        <time>2015-07-12T09:10:09Z</time>
      </trkpt>
      <trkpt lat="46.66142" lon="5.81355">
        <ele>594.4</ele>
        <time>2015-07-12T09:10:13Z</time>
      </trkpt>
      <trkpt lat="46.66144" lon="5.81342">
        <ele>594.3</ele>
        <time>2015-07-12T09:10:18Z</time>
      </trkpt>
      <trkpt lat="46.66146" lon="5.81327">
        <ele>594.3</ele>
        <time>2015-07-12T09:10:25Z</time>
      </trkpt>
      <trkpt lat="46.66149" lon="5.81312">
        <ele>594.5</ele>
        <time>2015-07-12T09:10:30Z</time>
      </trkpt>
      <trkpt lat="46.66153" lon="5.81299">
        <ele>594.9</ele>
        <time>2015-07-12T09:10:36Z</time>
      </trkpt>
      <trkpt lat="46.66157" lon="5.81285">
        <ele>595.5</ele>
        <time>2015-07-12T09:10:41Z</time>
      </trkpt>
      <trkpt lat="46.66161" lon="5.81272">
        <ele>595.9</ele>
        <time>2015-07-12T09:10:45Z</time>
      </trkpt>
      <trkpt lat="46.66165" lon="5.8126">
        <ele>596.4</ele>
        <time>2015-07-12T09:10:49Z</time>
      </trkpt>
      <trkpt lat="46.6617" lon="5.81246">
        <ele>596.8</ele>
        <time>2015-07-12T09:10:54Z</time>
      </trkpt>
      <trkpt lat="46.66163" lon="5.81236">
        <ele>597.1</ele>
        <time>2015-07-12T09:11:00Z</time>
      </trkpt>
      <trkpt lat="46.66169" lon="5.81223">
        <ele>597.2</ele>
        <time>2015-07-12T09:11:04Z</time>
      </trkpt>
      <trkpt lat="46.66178" lon="5.81212">
        <ele>596.8</ele>
        <time>2015-07-12T09:11:09Z</time>
      </trkpt>
      <trkpt lat="46.66182" lon="5.812">
        <ele>596.6</ele>
        <time>2015-07-12T09:11:15Z</time>
      </trkpt>
      <trkpt lat="46.66189" lon="5.81189">
        <ele>596.5</ele>
        <time>2015-07-12T09:11:21Z</time>
      </trkpt>
      <trkpt lat="46.66196" lon="5.81178">
        <ele>596.5</ele>
        <time>2015-07-12T09:11:25Z</time>
      </trkpt>
      <trkpt lat="46.66202" lon="5.81167">
        <ele>596.5</ele>
        <time>2015-07-12T09:11:29Z</time>
      </trkpt>
      <trkpt lat="46.66209" lon="5.81155">
        <ele>596.5</ele>
        <time>2015-07-12T09:11:33Z</time>
      </trkpt>
      <trkpt lat="46.66216" lon="5.81144">
        <ele>596.5</ele>
        <time>2015-07-12T09:11:39Z</time>
      </trkpt>
      <trkpt lat="46.66222" lon="5.81134">
        <ele>596.5</ele>
        <time>2015-07-12T09:11:47Z</time>
      </trkpt>
      <trkpt lat="46.6623" lon="5.81124">
        <ele>596.5</ele>
        <time>2015-07-12T09:11:52Z</time>
      </trkpt>
      <trkpt lat="46.66239" lon="5.81118">
        <ele>596.6</ele>
        <time>2015-07-12T09:11:56Z</time>
      </trkpt>
      <trkpt lat="46.66249" lon="5.81109">
        <ele>596.6</ele>
        <time>2015-07-12T09:12:00Z</time>
      </trkpt>
      <trkpt lat="46.66257" lon="5.811">
        <ele>596.6</ele>
        <time>2015-07-12T09:12:04Z</time>
      </trkpt>
      <trkpt lat="46.66265" lon="5.81092">
        <ele>596.6</ele>
        <time>2015-07-12T09:12:07Z</time>
      </trkpt>
      <trkpt lat="46.66272" lon="5.81083">
        <ele>596.9</ele>
        <time>2015-07-12T09:12:14Z</time>
      </trkpt>
      <trkpt lat="46.66278" lon="5.8107">
        <ele>597.7</ele>
        <time>2015-07-12T09:12:21Z</time>
      </trkpt>
      <trkpt lat="46.66288" lon="5.81056">
        <ele>597.8</ele>
        <time>2015-07-12T09:12:24Z</time>
      </trkpt>
      <trkpt lat="46.66295" lon="5.81048">
        <ele>597.8</ele>
        <time>2015-07-12T09:12:26Z</time>
      </trkpt>
      <trkpt lat="46.66306" lon="5.81036">
        <ele>597.7</ele>
        <time>2015-07-12T09:12:29Z</time>
      </trkpt>
      <trkpt lat="46.66315" lon="5.81027">
        <ele>597.6</ele>
        <time>2015-07-12T09:12:32Z</time>
      </trkpt>
      <trkpt lat="46.66327" lon="5.81022">
        <ele>597.5</ele>
        <time>2015-07-12T09:12:36Z</time>
      </trkpt>
      <trkpt lat="46.66331" lon="5.81009">
        <ele>597.5</ele>
        <time>2015-07-12T09:12:41Z</time>
      </trkpt>
      <trkpt lat="46.66335" lon="5.80995">
        <ele>598</ele>
        <time>2015-07-12T09:12:51Z</time>
      </trkpt>
      <trkpt lat="46.6634" lon="5.80982">
        <ele>598.4</ele>
        <time>2015-07-12T09:12:57Z</time>
      </trkpt>
      <trkpt lat="46.66345" lon="5.8097">
        <ele>598.9</ele>
        <time>2015-07-12T09:13:02Z</time>
      </trkpt>
      <trkpt lat="46.66351" lon="5.80958">
        <ele>599.3</ele>
        <time>2015-07-12T09:13:07Z</time>
      </trkpt>
      <trkpt lat="46.66353" lon="5.80944">
        <ele>599.9</ele>
        <time>2015-07-12T09:13:13Z</time>
      </trkpt>
      <trkpt lat="46.66359" lon="5.80933">
        <ele>600.3</ele>
        <time>2015-07-12T09:13:18Z</time>
      </trkpt>
      <trkpt lat="46.66364" lon="5.80921">
        <ele>600.5</ele>
        <time>2015-07-12T09:13:22Z</time>
      </trkpt>
      <trkpt lat="46.66372" lon="5.8091">
        <ele>600.3</ele>
        <time>2015-07-12T09:13:26Z</time>
      </trkpt>
      <trkpt lat="46.66382" lon="5.80896">
        <ele>600</ele>
        <time>2015-07-12T09:13:29Z</time>
      </trkpt>
      <trkpt lat="46.66389" lon="5.80883">
        <ele>599.6</ele>
        <time>2015-07-12T09:13:31Z</time>
      </trkpt>
      <trkpt lat="46.66396" lon="5.8087">
        <ele>599.1</ele>
        <time>2015-07-12T09:13:33Z</time>
      </trkpt>
      <trkpt lat="46.66402" lon="5.80859">
        <ele>598.8</ele>
        <time>2015-07-12T09:13:36Z</time>
      </trkpt>
      <trkpt lat="46.66407" lon="5.80847">
        <ele>598.6</ele>
        <time>2015-07-12T09:13:40Z</time>
      </trkpt>
      <trkpt lat="46.66412" lon="5.80836">
        <ele>598.5</ele>
        <time>2015-07-12T09:13:45Z</time>
      </trkpt>
      <trkpt lat="46.66415" lon="5.80823">
        <ele>598.8</ele>
        <time>2015-07-12T09:13:52Z</time>
      </trkpt>
      <trkpt lat="46.66421" lon="5.80809">
        <ele>599</ele>
        <time>2015-07-12T09:13:57Z</time>
      </trkpt>
      <trkpt lat="46.66427" lon="5.80794">
        <ele>599.1</ele>
        <time>2015-07-12T09:14:00Z</time>
      </trkpt>
      <trkpt lat="46.66432" lon="5.80782">
        <ele>599.2</ele>
        <time>2015-07-12T09:14:03Z</time>
      </trkpt>
      <trkpt lat="46.66439" lon="5.80775">
        <ele>599.1</ele>
        <time>2015-07-12T09:14:08Z</time>
      </trkpt>
      <trkpt lat="46.66447" lon="5.80763">
        <ele>598.8</ele>
        <time>2015-07-12T09:14:15Z</time>
      </trkpt>
      <trkpt lat="46.6645" lon="5.8075">
        <ele>598.7</ele>
        <time>2015-07-12T09:14:20Z</time>
      </trkpt>
      <trkpt lat="46.66453" lon="5.80733">
        <ele>598.5</ele>
        <time>2015-07-12T09:14:23Z</time>
      </trkpt>
      <trkpt lat="46.66457" lon="5.80719">
        <ele>598.1</ele>
        <time>2015-07-12T09:14:26Z</time>
      </trkpt>
      <trkpt lat="46.66464" lon="5.80707">
        <ele>597.5</ele>
        <time>2015-07-12T09:14:30Z</time>
      </trkpt>
      <trkpt lat="46.6647" lon="5.80692">
        <ele>596.7</ele>
        <time>2015-07-12T09:14:35Z</time>
      </trkpt>
      <trkpt lat="46.66474" lon="5.80678">
        <ele>596.2</ele>
        <time>2015-07-12T09:14:38Z</time>
      </trkpt>
      <trkpt lat="46.66482" lon="5.80664">
        <ele>595.7</ele>
        <time>2015-07-12T09:14:41Z</time>
      </trkpt>
      <trkpt lat="46.66486" lon="5.80649">
        <ele>594.9</ele>
        <time>2015-07-12T09:14:46Z</time>
      </trkpt>
      <trkpt lat="46.66488" lon="5.80635">
        <ele>594.3</ele>
        <time>2015-07-12T09:14:51Z</time>
      </trkpt>
      <trkpt lat="46.66489" lon="5.80621">
        <ele>593.9</ele>
        <time>2015-07-12T09:14:57Z</time>
      </trkpt>
      <trkpt lat="46.66485" lon="5.8061">
        <ele>593.5</ele>
        <time>2015-07-12T09:15:01Z</time>
      </trkpt>
      <trkpt lat="46.66478" lon="5.80597">
        <ele>592.9</ele>
        <time>2015-07-12T09:15:07Z</time>
      </trkpt>
      <trkpt lat="46.66479" lon="5.80583">
        <ele>593</ele>
        <time>2015-07-12T09:15:11Z</time>
      </trkpt>
      <trkpt lat="46.66476" lon="5.8057">
        <ele>592.8</ele>
        <time>2015-07-12T09:15:17Z</time>
      </trkpt>
      <trkpt lat="46.66471" lon="5.80558">
        <ele>592.8</ele>
        <time>2015-07-12T09:15:23Z</time>
      </trkpt>
      <trkpt lat="46.66472" lon="5.80544">
        <ele>593</ele>
        <time>2015-07-12T09:15:27Z</time>
      </trkpt>
      <trkpt lat="46.66465" lon="5.80532">
        <ele>593.5</ele>
        <time>2015-07-12T09:15:33Z</time>
      </trkpt>
      <trkpt lat="46.6646" lon="5.80518">
        <ele>593.8</ele>
        <time>2015-07-12T09:15:38Z</time>
      </trkpt>
      <trkpt lat="46.66455" lon="5.80506">
        <ele>593.9</ele>
        <time>2015-07-12T09:15:41Z</time>
      </trkpt>
      <trkpt lat="46.66449" lon="5.80494">
        <ele>594.1</ele>
        <time>2015-07-12T09:15:46Z</time>
      </trkpt>
      <trkpt lat="46.6644" lon="5.80483">
        <ele>594.3</ele>
        <time>2015-07-12T09:15:50Z</time>
      </trkpt>
      <trkpt lat="46.66434" lon="5.80471">
        <ele>594.4</ele>
        <time>2015-07-12T09:15:55Z</time>
      </trkpt>
      <trkpt lat="46.66429" lon="5.80459">
        <ele>594.8</ele>
        <time>2015-07-12T09:16:01Z</time>
      </trkpt>
      <trkpt lat="46.66427" lon="5.80445">
        <ele>595.1</ele>
        <time>2015-07-12T09:16:07Z</time>
      </trkpt>
      <trkpt lat="46.66428" lon="5.8043">
        <ele>595.3</ele>
        <time>2015-07-12T09:16:11Z</time>
      </trkpt>
      <trkpt lat="46.66433" lon="5.80414">
        <ele>595.5</ele>
        <time>2015-07-12T09:16:15Z</time>
      </trkpt>
      <trkpt lat="46.6644" lon="5.80404">
        <ele>595.8</ele>
        <time>2015-07-12T09:16:21Z</time>
      </trkpt>
      <trkpt lat="46.66449" lon="5.80393">
        <ele>596.3</ele>
        <time>2015-07-12T09:16:27Z</time>
      </trkpt>
      <trkpt lat="46.66456" lon="5.80383">
        <ele>596.6</ele>
        <time>2015-07-12T09:16:31Z</time>
      </trkpt>
      <trkpt lat="46.66462" lon="5.80372">
        <ele>596.9</ele>
        <time>2015-07-12T09:16:35Z</time>
      </trkpt>
      <trkpt lat="46.66467" lon="5.80361">
        <ele>597.2</ele>
        <time>2015-07-12T09:16:39Z</time>
      </trkpt>
      <trkpt lat="46.66474" lon="5.8035">
        <ele>597.4</ele>
        <time>2015-07-12T09:16:43Z</time>
      </trkpt>
      <trkpt lat="46.66482" lon="5.8034">
        <ele>597.7</ele>
        <time>2015-07-12T09:16:48Z</time>
      </trkpt>
      <trkpt lat="46.66489" lon="5.80331">
        <ele>597.9</ele>
        <time>2015-07-12T09:16:52Z</time>
      </trkpt>
      <trkpt lat="46.66495" lon="5.80321">
        <ele>598.3</ele>
        <time>2015-07-12T09:16:56Z</time>
      </trkpt>
      <trkpt lat="46.66499" lon="5.80308">
        <ele>598.6</ele>
        <time>2015-07-12T09:17:00Z</time>
      </trkpt>
      <trkpt lat="46.66503" lon="5.80295">
        <ele>598.8</ele>
        <time>2015-07-12T09:17:04Z</time>
      </trkpt>
      <trkpt lat="46.66508" lon="5.80281">
        <ele>599.1</ele>
        <time>2015-07-12T09:17:08Z</time>
      </trkpt>
      <trkpt lat="46.6651" lon="5.80263">
        <ele>599.3</ele>
        <time>2015-07-12T09:17:12Z</time>
      </trkpt>
      <trkpt lat="46.66512" lon="5.8025">
        <ele>599.6</ele>
        <time>2015-07-12T09:17:16Z</time>
      </trkpt>
      <trkpt lat="46.66517" lon="5.80236">
        <ele>600</ele>
        <time>2015-07-12T09:17:20Z</time>
      </trkpt>
      <trkpt lat="46.6652" lon="5.80222">
        <ele>600.3</ele>
        <time>2015-07-12T09:17:24Z</time>
      </trkpt>
      <trkpt lat="46.66521" lon="5.80206">
        <ele>600.6</ele>
        <time>2015-07-12T09:17:29Z</time>
      </trkpt>
      <trkpt lat="46.66523" lon="5.80193">
        <ele>600.9</ele>
        <time>2015-07-12T09:17:33Z</time>
      </trkpt>
      <trkpt lat="46.66526" lon="5.80179">
        <ele>601.1</ele>
        <time>2015-07-12T09:17:37Z</time>
      </trkpt>
      <trkpt lat="46.66525" lon="5.80164">
        <ele>601.4</ele>
        <time>2015-07-12T09:17:41Z</time>
      </trkpt>
      <trkpt lat="46.66523" lon="5.80149">
        <ele>601.6</ele>
        <time>2015-07-12T09:17:44Z</time>
      </trkpt>
      <trkpt lat="46.66519" lon="5.80137">
        <ele>602.1</ele>
        <time>2015-07-12T09:17:49Z</time>
      </trkpt>
      <trkpt lat="46.66514" lon="5.80125">
        <ele>601.8</ele>
        <time>2015-07-12T09:17:54Z</time>
      </trkpt>
      <trkpt lat="46.66512" lon="5.80112">
        <ele>601.8</ele>
        <time>2015-07-12T09:18:02Z</time>
      </trkpt>
      <trkpt lat="46.66508" lon="5.801">
        <ele>603.1</ele>
        <time>2015-07-12T09:18:23Z</time>
      </trkpt>
      <trkpt lat="46.66506" lon="5.80086">
        <ele>605.4</ele>
        <time>2015-07-12T09:18:50Z</time>
      </trkpt>
      <trkpt lat="46.66506" lon="5.80069">
        <ele>605.8</ele>
        <time>2015-07-12T09:18:54Z</time>
      </trkpt>
      <trkpt lat="46.66507" lon="5.80053">
        <ele>606.1</ele>
        <time>2015-07-12T09:18:58Z</time>
      </trkpt>
      <trkpt lat="46.66506" lon="5.8004">
        <ele>606.3</ele>
        <time>2015-07-12T09:19:01Z</time>
      </trkpt>
      <trkpt lat="46.66508" lon="5.80026">
        <ele>606.5</ele>
        <time>2015-07-12T09:19:05Z</time>
      </trkpt>
      <trkpt lat="46.66505" lon="5.80011">
        <ele>606.9</ele>
        <time>2015-07-12T09:19:15Z</time>
      </trkpt>
      <trkpt lat="46.66504" lon="5.79996">
        <ele>607.4</ele>
        <time>2015-07-12T09:19:22Z</time>
      </trkpt>
      <trkpt lat="46.66507" lon="5.79982">
        <ele>607.5</ele>
        <time>2015-07-12T09:19:27Z</time>
      </trkpt>
      <trkpt lat="46.66509" lon="5.79967">
        <ele>607.4</ele>
        <time>2015-07-12T09:19:30Z</time>
      </trkpt>
      <trkpt lat="46.6651" lon="5.79949">
        <ele>607.5</ele>
        <time>2015-07-12T09:19:34Z</time>
      </trkpt>
      <trkpt lat="46.66509" lon="5.79935">
        <ele>607.6</ele>
        <time>2015-07-12T09:19:38Z</time>
      </trkpt>
      <trkpt lat="46.66507" lon="5.7992">
        <ele>607.8</ele>
        <time>2015-07-12T09:19:42Z</time>
      </trkpt>
      <trkpt lat="46.66502" lon="5.79906">
        <ele>608</ele>
        <time>2015-07-12T09:19:46Z</time>
      </trkpt>
      <trkpt lat="46.66502" lon="5.7989">
        <ele>608</ele>
        <time>2015-07-12T09:19:50Z</time>
      </trkpt>
      <trkpt lat="46.66504" lon="5.79876">
        <ele>608.2</ele>
        <time>2015-07-12T09:19:54Z</time>
      </trkpt>
      <trkpt lat="46.66503" lon="5.79863">
        <ele>608.5</ele>
        <time>2015-07-12T09:19:59Z</time>
      </trkpt>
      <trkpt lat="46.66505" lon="5.79848">
        <ele>608.6</ele>
        <time>2015-07-12T09:20:02Z</time>
      </trkpt>
      <trkpt lat="46.66507" lon="5.79835">
        <ele>608.8</ele>
        <time>2015-07-12T09:20:07Z</time>
      </trkpt>
      <trkpt lat="46.66512" lon="5.79823">
        <ele>609.1</ele>
        <time>2015-07-12T09:20:11Z</time>
      </trkpt>
      <trkpt lat="46.66514" lon="5.79807">
        <ele>609.7</ele>
        <time>2015-07-12T09:20:17Z</time>
      </trkpt>
      <trkpt lat="46.66515" lon="5.79794">
        <ele>610.2</ele>
        <time>2015-07-12T09:20:21Z</time>
      </trkpt>
      <trkpt lat="46.66514" lon="5.79778">
        <ele>610.7</ele>
        <time>2015-07-12T09:20:25Z</time>
      </trkpt>
      <trkpt lat="46.66512" lon="5.79763">
        <ele>611.1</ele>
        <time>2015-07-12T09:20:29Z</time>
      </trkpt>
      <trkpt lat="46.66513" lon="5.79749">
        <ele>611.3</ele>
        <time>2015-07-12T09:20:31Z</time>
      </trkpt>
      <trkpt lat="46.66516" lon="5.79734">
        <ele>611.5</ele>
        <time>2015-07-12T09:20:34Z</time>
      </trkpt>
      <trkpt lat="46.66519" lon="5.7972">
        <ele>611.8</ele>
        <time>2015-07-12T09:20:40Z</time>
      </trkpt>
      <trkpt lat="46.66524" lon="5.79707">
        <ele>611.9</ele>
        <time>2015-07-12T09:20:44Z</time>
      </trkpt>
      <trkpt lat="46.66526" lon="5.79694">
        <ele>611.9</ele>
        <time>2015-07-12T09:20:48Z</time>
      </trkpt>
      <trkpt lat="46.66527" lon="5.79679">
        <ele>611.8</ele>
        <time>2015-07-12T09:20:52Z</time>
      </trkpt>
      <trkpt lat="46.66526" lon="5.79664">
        <ele>611.6</ele>
        <time>2015-07-12T09:20:56Z</time>
      </trkpt>
      <trkpt lat="46.66529" lon="5.79649">
        <ele>611.3</ele>
        <time>2015-07-12T09:21:00Z</time>
      </trkpt>
      <trkpt lat="46.66531" lon="5.79633">
        <ele>610.9</ele>
        <time>2015-07-12T09:21:03Z</time>
      </trkpt>
      <trkpt lat="46.66533" lon="5.79616">
        <ele>610.4</ele>
        <time>2015-07-12T09:21:06Z</time>
      </trkpt>
      <trkpt lat="46.66535" lon="5.79603">
        <ele>610</ele>
        <time>2015-07-12T09:21:08Z</time>
      </trkpt>
      <trkpt lat="46.66535" lon="5.7959">
        <ele>609.5</ele>
        <time>2015-07-12T09:21:10Z</time>
      </trkpt>
      <trkpt lat="46.66534" lon="5.79577">
        <ele>608.8</ele>
        <time>2015-07-12T09:21:12Z</time>
      </trkpt>
      <trkpt lat="46.66533" lon="5.79563">
        <ele>607.8</ele>
        <time>2015-07-12T09:21:16Z</time>
      </trkpt>
      <trkpt lat="46.66528" lon="5.79549">
        <ele>606.7</ele>
        <time>2015-07-12T09:21:23Z</time>
      </trkpt>
      <trkpt lat="46.66522" lon="5.79539">
        <ele>606.2</ele>
        <time>2015-07-12T09:21:26Z</time>
      </trkpt>
      <trkpt lat="46.66524" lon="5.79524">
        <ele>605.7</ele>
        <time>2015-07-12T09:21:30Z</time>
      </trkpt>
      <trkpt lat="46.66527" lon="5.79512">
        <ele>605.4</ele>
        <time>2015-07-12T09:21:34Z</time>
      </trkpt>
      <trkpt lat="46.6653" lon="5.79498">
        <ele>605.1</ele>
        <time>2015-07-12T09:21:37Z</time>
      </trkpt>
      <trkpt lat="46.66529" lon="5.79482">
        <ele>604.5</ele>
        <time>2015-07-12T09:21:41Z</time>
      </trkpt>
      <trkpt lat="46.66521" lon="5.79471">
        <ele>603.6</ele>
        <time>2015-07-12T09:21:45Z</time>
      </trkpt>
      <trkpt lat="46.66516" lon="5.79459">
        <ele>602.6</ele>
        <time>2015-07-12T09:21:49Z</time>
      </trkpt>
      <trkpt lat="46.66509" lon="5.79447">
        <ele>602.1</ele>
        <time>2015-07-12T09:21:52Z</time>
      </trkpt>
      <trkpt lat="46.66504" lon="5.79432">
        <ele>601.6</ele>
        <time>2015-07-12T09:21:55Z</time>
      </trkpt>
      <trkpt lat="46.66498" lon="5.79418">
        <ele>601.2</ele>
        <time>2015-07-12T09:21:59Z</time>
      </trkpt>
      <trkpt lat="46.66491" lon="5.79405">
        <ele>601</ele>
        <time>2015-07-12T09:22:03Z</time>
      </trkpt>
      <trkpt lat="46.66489" lon="5.7939">
        <ele>600.9</ele>
        <time>2015-07-12T09:22:07Z</time>
      </trkpt>
      <trkpt lat="46.66489" lon="5.79377">
        <ele>601.3</ele>
        <time>2015-07-12T09:22:12Z</time>
      </trkpt>
      <trkpt lat="46.66486" lon="5.79364">
        <ele>601.3</ele>
        <time>2015-07-12T09:22:16Z</time>
      </trkpt>
      <trkpt lat="46.66483" lon="5.7935">
        <ele>601.2</ele>
        <time>2015-07-12T09:22:21Z</time>
      </trkpt>
      <trkpt lat="46.66482" lon="5.79336">
        <ele>600.9</ele>
        <time>2015-07-12T09:22:26Z</time>
      </trkpt>
      <trkpt lat="46.66485" lon="5.7932">
        <ele>600.9</ele>
        <time>2015-07-12T09:22:30Z</time>
      </trkpt>
      <trkpt lat="46.66486" lon="5.79303">
        <ele>600.5</ele>
        <time>2015-07-12T09:22:33Z</time>
      </trkpt>
      <trkpt lat="46.66487" lon="5.79286">
        <ele>600.2</ele>
        <time>2015-07-12T09:22:36Z</time>
      </trkpt>
      <trkpt lat="46.6649" lon="5.79273">
        <ele>599.8</ele>
        <time>2015-07-12T09:22:40Z</time>
      </trkpt>
      <trkpt lat="46.6649" lon="5.79259">
        <ele>599.6</ele>
        <time>2015-07-12T09:22:44Z</time>
      </trkpt>
      <trkpt lat="46.66492" lon="5.79244">
        <ele>599.4</ele>
        <time>2015-07-12T09:22:48Z</time>
      </trkpt>
      <trkpt lat="46.66494" lon="5.79229">
        <ele>599.6</ele>
        <time>2015-07-12T09:22:52Z</time>
      </trkpt>
      <trkpt lat="46.66496" lon="5.79216">
        <ele>599.8</ele>
        <time>2015-07-12T09:22:56Z</time>
      </trkpt>
      <trkpt lat="46.66498" lon="5.79203">
        <ele>599.9</ele>
        <time>2015-07-12T09:22:59Z</time>
      </trkpt>
      <trkpt lat="46.66498" lon="5.79187">
        <ele>600.2</ele>
        <time>2015-07-12T09:23:03Z</time>
      </trkpt>
      <trkpt lat="46.66498" lon="5.79172">
        <ele>600.4</ele>
        <time>2015-07-12T09:23:06Z</time>
      </trkpt>
      <trkpt lat="46.66497" lon="5.79156">
        <ele>600.7</ele>
        <time>2015-07-12T09:23:09Z</time>
      </trkpt>
      <trkpt lat="46.66497" lon="5.79139">
        <ele>600.9</ele>
        <time>2015-07-12T09:23:12Z</time>
      </trkpt>
      <trkpt lat="46.66495" lon="5.79126">
        <ele>601.1</ele>
        <time>2015-07-12T09:23:15Z</time>
      </trkpt>
      <trkpt lat="46.66493" lon="5.79112">
        <ele>601.3</ele>
        <time>2015-07-12T09:23:18Z</time>
      </trkpt>
      <trkpt lat="46.6649" lon="5.79099">
        <ele>601.5</ele>
        <time>2015-07-12T09:23:21Z</time>
      </trkpt>
      <trkpt lat="46.66481" lon="5.79086">
        <ele>601.5</ele>
        <time>2015-07-12T09:23:24Z</time>
      </trkpt>
      <trkpt lat="46.66473" lon="5.79076">
        <ele>601.2</ele>
        <time>2015-07-12T09:23:27Z</time>
      </trkpt>
      <trkpt lat="46.66464" lon="5.79068">
        <ele>601</ele>
        <time>2015-07-12T09:23:30Z</time>
      </trkpt>
      <trkpt lat="46.66454" lon="5.79064">
        <ele>600.6</ele>
        <time>2015-07-12T09:23:34Z</time>
      </trkpt>
      <trkpt lat="46.66444" lon="5.79063">
        <ele>599.9</ele>
        <time>2015-07-12T09:23:38Z</time>
      </trkpt>
      <trkpt lat="46.66432" lon="5.79064">
        <ele>599.4</ele>
        <time>2015-07-12T09:23:41Z</time>
      </trkpt>
      <trkpt lat="46.66423" lon="5.79069">
        <ele>598.9</ele>
        <time>2015-07-12T09:23:43Z</time>
      </trkpt>
      <trkpt lat="46.66414" lon="5.79075">
        <ele>598.2</ele>
        <time>2015-07-12T09:23:46Z</time>
      </trkpt>
      <trkpt lat="46.66409" lon="5.79063">
        <ele>596.6</ele>
        <time>2015-07-12T09:23:53Z</time>
      </trkpt>
      <trkpt lat="46.66401" lon="5.79051">
        <ele>595.6</ele>
        <time>2015-07-12T09:23:58Z</time>
      </trkpt>
      <trkpt lat="46.66393" lon="5.79042">
        <ele>594.7</ele>
        <time>2015-07-12T09:24:02Z</time>
      </trkpt>
      <trkpt lat="46.66384" lon="5.79036">
        <ele>594</ele>
        <time>2015-07-12T09:24:05Z</time>
      </trkpt>
      <trkpt lat="46.66376" lon="5.79031">
        <ele>593.3</ele>
        <time>2015-07-12T09:24:08Z</time>
      </trkpt>
      <trkpt lat="46.66366" lon="5.7902">
        <ele>592.5</ele>
        <time>2015-07-12T09:24:11Z</time>
      </trkpt>
      <trkpt lat="46.66357" lon="5.79012">
        <ele>591.8</ele>
        <time>2015-07-12T09:24:13Z</time>
      </trkpt>
      <trkpt lat="46.66347" lon="5.79005">
        <ele>590.6</ele>
        <time>2015-07-12T09:24:16Z</time>
      </trkpt>
      <trkpt lat="46.66338" lon="5.78998">
        <ele>589.5</ele>
        <time>2015-07-12T09:24:19Z</time>
      </trkpt>
      <trkpt lat="46.6633" lon="5.78993">
        <ele>588.7</ele>
        <time>2015-07-12T09:24:21Z</time>
      </trkpt>
      <trkpt lat="46.66318" lon="5.7899">
        <ele>587.6</ele>
        <time>2015-07-12T09:24:24Z</time>
      </trkpt>
      <trkpt lat="46.66308" lon="5.78993">
        <ele>586.6</ele>
        <time>2015-07-12T09:24:27Z</time>
      </trkpt>
      <trkpt lat="46.66297" lon="5.78993">
        <ele>585.8</ele>
        <time>2015-07-12T09:24:30Z</time>
      </trkpt>
      <trkpt lat="46.66284" lon="5.78993">
        <ele>584.9</ele>
        <time>2015-07-12T09:24:33Z</time>
      </trkpt>
      <trkpt lat="46.66274" lon="5.78994">
        <ele>584.4</ele>
        <time>2015-07-12T09:24:35Z</time>
      </trkpt>
      <trkpt lat="46.66264" lon="5.78995">
        <ele>583.9</ele>
        <time>2015-07-12T09:24:37Z</time>
      </trkpt>
      <trkpt lat="46.66249" lon="5.78997">
        <ele>583.2</ele>
        <time>2015-07-12T09:24:40Z</time>
      </trkpt>
      <trkpt lat="46.66238" lon="5.78996">
        <ele>582.6</ele>
        <time>2015-07-12T09:24:43Z</time>
      </trkpt>
      <trkpt lat="46.66246" lon="5.78985">
        <ele>579.9</ele>
        <time>2015-07-12T09:25:16Z</time>
      </trkpt>
      <trkpt lat="46.66256" lon="5.78982">
        <ele>579.7</ele>
        <time>2015-07-12T09:25:20Z</time>
      </trkpt>
      <trkpt lat="46.66259" lon="5.78967">
        <ele>579</ele>
        <time>2015-07-12T09:25:26Z</time>
      </trkpt>
      <trkpt lat="46.66266" lon="5.78957">
        <ele>578.3</ele>
        <time>2015-07-12T09:25:31Z</time>
      </trkpt>
      <trkpt lat="46.66264" lon="5.78943">
        <ele>577.4</ele>
        <time>2015-07-12T09:25:36Z</time>
      </trkpt>
      <trkpt lat="46.66255" lon="5.78937">
        <ele>576.7</ele>
        <time>2015-07-12T09:25:39Z</time>
      </trkpt>
      <trkpt lat="46.66245" lon="5.78927">
        <ele>575.9</ele>
        <time>2015-07-12T09:25:42Z</time>
      </trkpt>
      <trkpt lat="46.66237" lon="5.78912">
        <ele>575.2</ele>
        <time>2015-07-12T09:25:45Z</time>
      </trkpt>
      <trkpt lat="46.6624" lon="5.78895">
        <ele>574.3</ele>
        <time>2015-07-12T09:25:48Z</time>
      </trkpt>
      <trkpt lat="46.66248" lon="5.78887">
        <ele>572.8</ele>
        <time>2015-07-12T09:25:53Z</time>
      </trkpt>
      <trkpt lat="46.66258" lon="5.78887">
        <ele>571</ele>
        <time>2015-07-12T09:25:58Z</time>
      </trkpt>
      <trkpt lat="46.66269" lon="5.78883">
        <ele>569.4</ele>
        <time>2015-07-12T09:26:02Z</time>
      </trkpt>
      <trkpt lat="46.66278" lon="5.78878">
        <ele>567.7</ele>
        <time>2015-07-12T09:26:06Z</time>
      </trkpt>
      <trkpt lat="46.66287" lon="5.78873">
        <ele>565.9</ele>
        <time>2015-07-12T09:26:10Z</time>
      </trkpt>
      <trkpt lat="46.66296" lon="5.78867">
        <ele>563.3</ele>
        <time>2015-07-12T09:26:17Z</time>
      </trkpt>
      <trkpt lat="46.66305" lon="5.78858">
        <ele>561.2</ele>
        <time>2015-07-12T09:26:22Z</time>
      </trkpt>
      <trkpt lat="46.66314" lon="5.78849">
        <ele>560.4</ele>
        <time>2015-07-12T09:26:24Z</time>
      </trkpt>
      <trkpt lat="46.66319" lon="5.78835">
        <ele>558.9</ele>
        <time>2015-07-12T09:26:27Z</time>
      </trkpt>
      <trkpt lat="46.66324" lon="5.78824">
        <ele>557.4</ele>
        <time>2015-07-12T09:26:30Z</time>
      </trkpt>
      <trkpt lat="46.66335" lon="5.78818">
        <ele>555.8</ele>
        <time>2015-07-12T09:26:33Z</time>
      </trkpt>
      <trkpt lat="46.66343" lon="5.78811">
        <ele>554.5</ele>
        <time>2015-07-12T09:26:36Z</time>
      </trkpt>
      <trkpt lat="46.66354" lon="5.78802">
        <ele>553.1</ele>
        <time>2015-07-12T09:26:39Z</time>
      </trkpt>
      <trkpt lat="46.66362" lon="5.78791">
        <ele>551.7</ele>
        <time>2015-07-12T09:26:42Z</time>
      </trkpt>
      <trkpt lat="46.66371" lon="5.78779">
        <ele>549.9</ele>
        <time>2015-07-12T09:26:46Z</time>
      </trkpt>
      <trkpt lat="46.66384" lon="5.78783">
        <ele>548.7</ele>
        <time>2015-07-12T09:26:49Z</time>
      </trkpt>
      <trkpt lat="46.66394" lon="5.78786">
        <ele>548.1</ele>
        <time>2015-07-12T09:26:51Z</time>
      </trkpt>
      <trkpt lat="46.66404" lon="5.78786">
        <ele>547.5</ele>
        <time>2015-07-12T09:26:53Z</time>
      </trkpt>
      <trkpt lat="46.66413" lon="5.78785">
        <ele>547</ele>
        <time>2015-07-12T09:26:55Z</time>
      </trkpt>
      <trkpt lat="46.66426" lon="5.78784">
        <ele>546.3</ele>
        <time>2015-07-12T09:26:58Z</time>
      </trkpt>
      <trkpt lat="46.66436" lon="5.78784">
        <ele>545.6</ele>
        <time>2015-07-12T09:27:01Z</time>
      </trkpt>
      <trkpt lat="46.66446" lon="5.78783">
        <ele>544.8</ele>
        <time>2015-07-12T09:27:05Z</time>
      </trkpt>
      <trkpt lat="46.66455" lon="5.78787">
        <ele>544.3</ele>
        <time>2015-07-12T09:27:08Z</time>
      </trkpt>
      <trkpt lat="46.66467" lon="5.78794">
        <ele>544</ele>
        <time>2015-07-12T09:27:11Z</time>
      </trkpt>
      <trkpt lat="46.66479" lon="5.78797">
        <ele>543.6</ele>
        <time>2015-07-12T09:27:15Z</time>
      </trkpt>
      <trkpt lat="46.66489" lon="5.78799">
        <ele>543.4</ele>
        <time>2015-07-12T09:27:17Z</time>
      </trkpt>
      <trkpt lat="46.665" lon="5.78798">
        <ele>543.2</ele>
        <time>2015-07-12T09:27:20Z</time>
      </trkpt>
      <trkpt lat="46.66507" lon="5.78788">
        <ele>543.1</ele>
        <time>2015-07-12T09:27:23Z</time>
      </trkpt>
      <trkpt lat="46.66509" lon="5.7877">
        <ele>542.9</ele>
        <time>2015-07-12T09:27:26Z</time>
      </trkpt>
      <trkpt lat="46.66504" lon="5.78756">
        <ele>542.8</ele>
        <time>2015-07-12T09:27:28Z</time>
      </trkpt>
      <trkpt lat="46.66502" lon="5.78743">
        <ele>542.7</ele>
        <time>2015-07-12T09:27:30Z</time>
      </trkpt>
      <trkpt lat="46.66501" lon="5.78725">
        <ele>542.6</ele>
        <time>2015-07-12T09:27:33Z</time>
      </trkpt>
      <trkpt lat="46.66497" lon="5.78713">
        <ele>542.5</ele>
        <time>2015-07-12T09:27:35Z</time>
      </trkpt>
      <trkpt lat="46.66495" lon="5.78694">
        <ele>542.5</ele>
        <time>2015-07-12T09:27:38Z</time>
      </trkpt>
      <trkpt lat="46.66494" lon="5.78675">
        <ele>542.5</ele>
        <time>2015-07-12T09:27:41Z</time>
      </trkpt>
      <trkpt lat="46.66491" lon="5.78657">
        <ele>542.6</ele>
        <time>2015-07-12T09:27:44Z</time>
      </trkpt>
      <trkpt lat="46.66488" lon="5.78639">
        <ele>542.6</ele>
        <time>2015-07-12T09:27:47Z</time>
      </trkpt>
      <trkpt lat="46.66486" lon="5.78622">
        <ele>542.6</ele>
        <time>2015-07-12T09:27:50Z</time>
      </trkpt>
      <trkpt lat="46.66484" lon="5.78604">
        <ele>542.7</ele>
        <time>2015-07-12T09:27:53Z</time>
      </trkpt>
      <trkpt lat="46.66483" lon="5.7859">
        <ele>542.7</ele>
        <time>2015-07-12T09:27:55Z</time>
      </trkpt>
      <trkpt lat="46.66481" lon="5.78575">
        <ele>542.7</ele>
        <time>2015-07-12T09:27:57Z</time>
      </trkpt>
      <trkpt lat="46.6648" lon="5.78561">
        <ele>542.8</ele>
        <time>2015-07-12T09:27:59Z</time>
      </trkpt>
      <trkpt lat="46.66478" lon="5.78546">
        <ele>542.8</ele>
        <time>2015-07-12T09:28:01Z</time>
      </trkpt>
      <trkpt lat="46.66477" lon="5.7853">
        <ele>542.8</ele>
        <time>2015-07-12T09:28:03Z</time>
      </trkpt>
      <trkpt lat="46.66475" lon="5.78513">
        <ele>542.8</ele>
        <time>2015-07-12T09:28:05Z</time>
      </trkpt>
      <trkpt lat="46.66474" lon="5.78497">
        <ele>542.9</ele>
        <time>2015-07-12T09:28:07Z</time>
      </trkpt>
      <trkpt lat="46.66473" lon="5.78481">
        <ele>542.9</ele>
        <time>2015-07-12T09:28:09Z</time>
      </trkpt>
      <trkpt lat="46.66471" lon="5.78465">
        <ele>542.9</ele>
        <time>2015-07-12T09:28:11Z</time>
      </trkpt>
      <trkpt lat="46.66472" lon="5.78447">
        <ele>542.9</ele>
        <time>2015-07-12T09:28:13Z</time>
      </trkpt>
      <trkpt lat="46.66476" lon="5.7843">
        <ele>543</ele>
        <time>2015-07-12T09:28:15Z</time>
      </trkpt>
      <trkpt lat="46.66486" lon="5.78414">
        <ele>542.9</ele>
        <time>2015-07-12T09:28:17Z</time>
      </trkpt>
      <trkpt lat="46.66494" lon="5.78396">
        <ele>542.7</ele>
        <time>2015-07-12T09:28:19Z</time>
      </trkpt>
      <trkpt lat="46.66498" lon="5.78371">
        <ele>542.3</ele>
        <time>2015-07-12T09:28:21Z</time>
      </trkpt>
      <trkpt lat="46.66499" lon="5.78345">
        <ele>541.8</ele>
        <time>2015-07-12T09:28:23Z</time>
      </trkpt>
      <trkpt lat="46.66498" lon="5.78321">
        <ele>541</ele>
        <time>2015-07-12T09:28:25Z</time>
      </trkpt>
      <trkpt lat="46.66498" lon="5.78301">
        <ele>540.1</ele>
        <time>2015-07-12T09:28:27Z</time>
      </trkpt>
      <trkpt lat="46.66499" lon="5.78287">
        <ele>539.1</ele>
        <time>2015-07-12T09:28:29Z</time>
      </trkpt>
      <trkpt lat="46.66501" lon="5.78274">
        <ele>537.1</ele>
        <time>2015-07-12T09:28:33Z</time>
      </trkpt>
      <trkpt lat="46.6651" lon="5.78265">
        <ele>535.9</ele>
        <time>2015-07-12T09:28:36Z</time>
      </trkpt>
      <trkpt lat="46.66519" lon="5.78257">
        <ele>535.1</ele>
        <time>2015-07-12T09:28:38Z</time>
      </trkpt>
      <trkpt lat="46.66532" lon="5.78249">
        <ele>534.4</ele>
        <time>2015-07-12T09:28:40Z</time>
      </trkpt>
      <trkpt lat="46.66546" lon="5.78249">
        <ele>533.6</ele>
        <time>2015-07-12T09:28:42Z</time>
      </trkpt>
      <trkpt lat="46.66562" lon="5.78254">
        <ele>532.7</ele>
        <time>2015-07-12T09:28:44Z</time>
      </trkpt>
      <trkpt lat="46.66571" lon="5.78259">
        <ele>532.2</ele>
        <time>2015-07-12T09:28:45Z</time>
      </trkpt>
      <trkpt lat="46.66579" lon="5.78263">
        <ele>531.7</ele>
        <time>2015-07-12T09:28:46Z</time>
      </trkpt>
      <trkpt lat="46.66589" lon="5.78269">
        <ele>531.2</ele>
        <time>2015-07-12T09:28:47Z</time>
      </trkpt>
      <trkpt lat="46.66599" lon="5.78274">
        <ele>530.8</ele>
        <time>2015-07-12T09:28:48Z</time>
      </trkpt>
      <trkpt lat="46.66609" lon="5.78279">
        <ele>530.2</ele>
        <time>2015-07-12T09:28:49Z</time>
      </trkpt>
      <trkpt lat="46.66618" lon="5.78284">
        <ele>529.7</ele>
        <time>2015-07-12T09:28:50Z</time>
      </trkpt>
      <trkpt lat="46.66627" lon="5.78288">
        <ele>529.1</ele>
        <time>2015-07-12T09:28:51Z</time>
      </trkpt>
      <trkpt lat="46.66636" lon="5.78294">
        <ele>528.5</ele>
        <time>2015-07-12T09:28:52Z</time>
      </trkpt>
      <trkpt lat="46.66644" lon="5.78301">
        <ele>527.9</ele>
        <time>2015-07-12T09:28:53Z</time>
      </trkpt>
      <trkpt lat="46.66646" lon="5.78324">
        <ele>526.7</ele>
        <time>2015-07-12T09:28:55Z</time>
      </trkpt>
      <trkpt lat="46.66646" lon="5.78338">
        <ele>526.1</ele>
        <time>2015-07-12T09:28:56Z</time>
      </trkpt>
      <trkpt lat="46.66645" lon="5.78352">
        <ele>525.6</ele>
        <time>2015-07-12T09:28:57Z</time>
      </trkpt>
      <trkpt lat="46.66645" lon="5.78366">
        <ele>525</ele>
        <time>2015-07-12T09:28:58Z</time>
      </trkpt>
      <trkpt lat="46.66645" lon="5.78379">
        <ele>524.5</ele>
        <time>2015-07-12T09:28:59Z</time>
      </trkpt>
      <trkpt lat="46.66645" lon="5.78393">
        <ele>523.9</ele>
        <time>2015-07-12T09:29:00Z</time>
      </trkpt>
      <trkpt lat="46.66645" lon="5.78419">
        <ele>523</ele>
        <time>2015-07-12T09:29:02Z</time>
      </trkpt>
      <trkpt lat="46.66645" lon="5.78442">
        <ele>522</ele>
        <time>2015-07-12T09:29:04Z</time>
      </trkpt>
      <trkpt lat="46.66644" lon="5.78465">
        <ele>521.2</ele>
        <time>2015-07-12T09:29:06Z</time>
      </trkpt>
      <trkpt lat="46.66645" lon="5.78485">
        <ele>520.4</ele>
        <time>2015-07-12T09:29:08Z</time>
      </trkpt>
      <trkpt lat="46.66646" lon="5.78499">
        <ele>519.7</ele>
        <time>2015-07-12T09:29:10Z</time>
      </trkpt>
      <trkpt lat="46.66651" lon="5.78511">
        <ele>518.8</ele>
        <time>2015-07-12T09:29:13Z</time>
      </trkpt>
      <trkpt lat="46.66649" lon="5.78529">
        <ele>517.5</ele>
        <time>2015-07-12T09:29:17Z</time>
      </trkpt>
      <trkpt lat="46.66648" lon="5.78543">
        <ele>517</ele>
        <time>2015-07-12T09:29:19Z</time>
      </trkpt>
      <trkpt lat="46.66649" lon="5.78561">
        <ele>516.6</ele>
        <time>2015-07-12T09:29:21Z</time>
      </trkpt>
      <trkpt lat="46.66651" lon="5.78581">
        <ele>516.2</ele>
        <time>2015-07-12T09:29:23Z</time>
      </trkpt>
      <trkpt lat="46.66655" lon="5.78599">
        <ele>515.9</ele>
        <time>2015-07-12T09:29:25Z</time>
      </trkpt>
      <trkpt lat="46.66656" lon="5.78617">
        <ele>515.6</ele>
        <time>2015-07-12T09:29:27Z</time>
      </trkpt>
      <trkpt lat="46.66656" lon="5.78634">
        <ele>515.3</ele>
        <time>2015-07-12T09:29:29Z</time>
      </trkpt>
      <trkpt lat="46.66657" lon="5.78651">
        <ele>515.1</ele>
        <time>2015-07-12T09:29:31Z</time>
      </trkpt>
      <trkpt lat="46.66658" lon="5.78669">
        <ele>514.8</ele>
        <time>2015-07-12T09:29:33Z</time>
      </trkpt>
      <trkpt lat="46.66658" lon="5.78683">
        <ele>514.5</ele>
        <time>2015-07-12T09:29:35Z</time>
      </trkpt>
      <trkpt lat="46.66656" lon="5.78697">
        <ele>514.2</ele>
        <time>2015-07-12T09:29:37Z</time>
      </trkpt>
      <trkpt lat="46.66652" lon="5.78715">
        <ele>513.9</ele>
        <time>2015-07-12T09:29:40Z</time>
      </trkpt>
      <trkpt lat="46.66651" lon="5.78732">
        <ele>513.7</ele>
        <time>2015-07-12T09:29:43Z</time>
      </trkpt>
      <trkpt lat="46.66651" lon="5.78746">
        <ele>513.6</ele>
        <time>2015-07-12T09:29:45Z</time>
      </trkpt>
      <trkpt lat="46.66652" lon="5.7876">
        <ele>513.5</ele>
        <time>2015-07-12T09:29:47Z</time>
      </trkpt>
      <trkpt lat="46.66653" lon="5.78778">
        <ele>513.4</ele>
        <time>2015-07-12T09:29:50Z</time>
      </trkpt>
      <trkpt lat="46.66652" lon="5.78795">
        <ele>513.5</ele>
        <time>2015-07-12T09:29:53Z</time>
      </trkpt>
      <trkpt lat="46.66653" lon="5.78812">
        <ele>513.4</ele>
        <time>2015-07-12T09:29:56Z</time>
      </trkpt>
      <trkpt lat="46.66656" lon="5.78832">
        <ele>513.4</ele>
        <time>2015-07-12T09:29:59Z</time>
      </trkpt>
      <trkpt lat="46.66657" lon="5.78846">
        <ele>513.3</ele>
        <time>2015-07-12T09:30:01Z</time>
      </trkpt>
      <trkpt lat="46.66656" lon="5.78862">
        <ele>513.3</ele>
        <time>2015-07-12T09:30:03Z</time>
      </trkpt>
      <trkpt lat="46.66656" lon="5.78879">
        <ele>513.2</ele>
        <time>2015-07-12T09:30:05Z</time>
      </trkpt>
      <trkpt lat="46.66658" lon="5.78895">
        <ele>513.1</ele>
        <time>2015-07-12T09:30:07Z</time>
      </trkpt>
      <trkpt lat="46.66657" lon="5.78913">
        <ele>513.1</ele>
        <time>2015-07-12T09:30:09Z</time>
      </trkpt>
      <trkpt lat="46.66654" lon="5.7893">
        <ele>513</ele>
        <time>2015-07-12T09:30:11Z</time>
      </trkpt>
      <trkpt lat="46.66652" lon="5.78944">
        <ele>512.9</ele>
        <time>2015-07-12T09:30:13Z</time>
      </trkpt>
      <trkpt lat="46.6665" lon="5.78959">
        <ele>512.9</ele>
        <time>2015-07-12T09:30:15Z</time>
      </trkpt>
      <trkpt lat="46.66649" lon="5.78973">
        <ele>512.9</ele>
        <time>2015-07-12T09:30:17Z</time>
      </trkpt>
      <trkpt lat="46.66647" lon="5.78988">
        <ele>513</ele>
        <time>2015-07-12T09:30:19Z</time>
      </trkpt>
      <trkpt lat="46.66647" lon="5.79002">
        <ele>513</ele>
        <time>2015-07-12T09:30:21Z</time>
      </trkpt>
      <trkpt lat="46.66646" lon="5.79015">
        <ele>513</ele>
        <time>2015-07-12T09:30:23Z</time>
      </trkpt>
      <trkpt lat="46.66646" lon="5.79029">
        <ele>513.1</ele>
        <time>2015-07-12T09:30:25Z</time>
      </trkpt>
      <trkpt lat="46.66643" lon="5.79048">
        <ele>513.2</ele>
        <time>2015-07-12T09:30:28Z</time>
      </trkpt>
      <trkpt lat="46.66643" lon="5.79062">
        <ele>513.3</ele>
        <time>2015-07-12T09:30:30Z</time>
      </trkpt>
      <trkpt lat="46.66641" lon="5.79076">
        <ele>513.4</ele>
        <time>2015-07-12T09:30:32Z</time>
      </trkpt>
      <trkpt lat="46.66639" lon="5.79089">
        <ele>513.6</ele>
        <time>2015-07-12T09:30:34Z</time>
      </trkpt>
      <trkpt lat="46.66637" lon="5.79103">
        <ele>513.9</ele>
        <time>2015-07-12T09:30:36Z</time>
      </trkpt>
      <trkpt lat="46.66641" lon="5.79117">
        <ele>514.1</ele>
        <time>2015-07-12T09:30:38Z</time>
      </trkpt>
      <trkpt lat="46.66639" lon="5.79133">
        <ele>514.4</ele>
        <time>2015-07-12T09:30:41Z</time>
      </trkpt>
      <trkpt lat="46.66638" lon="5.79147">
        <ele>514.8</ele>
        <time>2015-07-12T09:30:44Z</time>
      </trkpt>
      <trkpt lat="46.66636" lon="5.79161">
        <ele>515.3</ele>
        <time>2015-07-12T09:30:47Z</time>
      </trkpt>
      <trkpt lat="46.66634" lon="5.79178">
        <ele>515.7</ele>
        <time>2015-07-12T09:30:50Z</time>
      </trkpt>
      <trkpt lat="46.66632" lon="5.79195">
        <ele>516.1</ele>
        <time>2015-07-12T09:30:53Z</time>
      </trkpt>
      <trkpt lat="46.66631" lon="5.79212">
        <ele>516.6</ele>
        <time>2015-07-12T09:30:56Z</time>
      </trkpt>
      <trkpt lat="46.66632" lon="5.7923">
        <ele>516.9</ele>
        <time>2015-07-12T09:30:59Z</time>
      </trkpt>
      <trkpt lat="46.66633" lon="5.79249">
        <ele>517.3</ele>
        <time>2015-07-12T09:31:02Z</time>
      </trkpt>
      <trkpt lat="46.66632" lon="5.79267">
        <ele>517.7</ele>
        <time>2015-07-12T09:31:05Z</time>
      </trkpt>
      <trkpt lat="46.6663" lon="5.79286">
        <ele>518</ele>
        <time>2015-07-12T09:31:08Z</time>
      </trkpt>
      <trkpt lat="46.6663" lon="5.79301">
        <ele>518.2</ele>
        <time>2015-07-12T09:31:10Z</time>
      </trkpt>
      <trkpt lat="46.66628" lon="5.79319">
        <ele>518.6</ele>
        <time>2015-07-12T09:31:13Z</time>
      </trkpt>
      <trkpt lat="46.66626" lon="5.79332">
        <ele>518.8</ele>
        <time>2015-07-12T09:31:15Z</time>
      </trkpt>
      <trkpt lat="46.66625" lon="5.79346">
        <ele>519</ele>
        <time>2015-07-12T09:31:17Z</time>
      </trkpt>
      <trkpt lat="46.66625" lon="5.79361">
        <ele>519.1</ele>
        <time>2015-07-12T09:31:19Z</time>
      </trkpt>
      <trkpt lat="46.66627" lon="5.79377">
        <ele>519.1</ele>
        <time>2015-07-12T09:31:21Z</time>
      </trkpt>
      <trkpt lat="46.66629" lon="5.79394">
        <ele>519.2</ele>
        <time>2015-07-12T09:31:23Z</time>
      </trkpt>
      <trkpt lat="46.66629" lon="5.79412">
        <ele>519.3</ele>
        <time>2015-07-12T09:31:25Z</time>
      </trkpt>
      <trkpt lat="46.66629" lon="5.79431">
        <ele>519.2</ele>
        <time>2015-07-12T09:31:27Z</time>
      </trkpt>
      <trkpt lat="46.66629" lon="5.7945">
        <ele>519</ele>
        <time>2015-07-12T09:31:29Z</time>
      </trkpt>
      <trkpt lat="46.6663" lon="5.79469">
        <ele>518.8</ele>
        <time>2015-07-12T09:31:31Z</time>
      </trkpt>
      <trkpt lat="46.6663" lon="5.79488">
        <ele>518.6</ele>
        <time>2015-07-12T09:31:33Z</time>
      </trkpt>
      <trkpt lat="46.66632" lon="5.79507">
        <ele>518.4</ele>
        <time>2015-07-12T09:31:35Z</time>
      </trkpt>
      <trkpt lat="46.66633" lon="5.79525">
        <ele>518.2</ele>
        <time>2015-07-12T09:31:37Z</time>
      </trkpt>
      <trkpt lat="46.66634" lon="5.79541">
        <ele>518</ele>
        <time>2015-07-12T09:31:39Z</time>
      </trkpt>
      <trkpt lat="46.66636" lon="5.79561">
        <ele>517.7</ele>
        <time>2015-07-12T09:31:41Z</time>
      </trkpt>
      <trkpt lat="46.66638" lon="5.7958">
        <ele>517.5</ele>
        <time>2015-07-12T09:31:43Z</time>
      </trkpt>
      <trkpt lat="46.66641" lon="5.796">
        <ele>517.3</ele>
        <time>2015-07-12T09:31:45Z</time>
      </trkpt>
      <trkpt lat="46.66642" lon="5.79618">
        <ele>517.1</ele>
        <time>2015-07-12T09:31:47Z</time>
      </trkpt>
      <trkpt lat="46.66644" lon="5.79637">
        <ele>516.9</ele>
        <time>2015-07-12T09:31:49Z</time>
      </trkpt>
      <trkpt lat="46.66646" lon="5.79656">
        <ele>516.7</ele>
        <time>2015-07-12T09:31:51Z</time>
      </trkpt>
      <trkpt lat="46.66647" lon="5.79675">
        <ele>516.5</ele>
        <time>2015-07-12T09:31:53Z</time>
      </trkpt>
      <trkpt lat="46.66647" lon="5.79695">
        <ele>516.3</ele>
        <time>2015-07-12T09:31:55Z</time>
      </trkpt>
      <trkpt lat="46.66648" lon="5.79714">
        <ele>516.1</ele>
        <time>2015-07-12T09:31:57Z</time>
      </trkpt>
      <trkpt lat="46.66648" lon="5.7973">
        <ele>515.9</ele>
        <time>2015-07-12T09:31:59Z</time>
      </trkpt>
      <trkpt lat="46.66647" lon="5.79745">
        <ele>515.7</ele>
        <time>2015-07-12T09:32:01Z</time>
      </trkpt>
      <trkpt lat="46.66647" lon="5.79764">
        <ele>515.4</ele>
        <time>2015-07-12T09:32:04Z</time>
      </trkpt>
      <trkpt lat="46.66648" lon="5.7978">
        <ele>515.3</ele>
        <time>2015-07-12T09:32:06Z</time>
      </trkpt>
      <trkpt lat="46.66649" lon="5.79796">
        <ele>515.2</ele>
        <time>2015-07-12T09:32:08Z</time>
      </trkpt>
      <trkpt lat="46.66649" lon="5.7981">
        <ele>515</ele>
        <time>2015-07-12T09:32:10Z</time>
      </trkpt>
      <trkpt lat="46.6665" lon="5.79829">
        <ele>514.9</ele>
        <time>2015-07-12T09:32:12Z</time>
      </trkpt>
      <trkpt lat="46.66649" lon="5.79842">
        <ele>514.9</ele>
        <time>2015-07-12T09:32:14Z</time>
      </trkpt>
      <trkpt lat="46.66648" lon="5.79856">
        <ele>515</ele>
        <time>2015-07-12T09:32:17Z</time>
      </trkpt>
      <trkpt lat="46.66645" lon="5.7987">
        <ele>515.2</ele>
        <time>2015-07-12T09:32:20Z</time>
      </trkpt>
      <trkpt lat="46.66639" lon="5.79886">
        <ele>515.5</ele>
        <time>2015-07-12T09:32:23Z</time>
      </trkpt>
      <trkpt lat="46.66636" lon="5.79899">
        <ele>515.8</ele>
        <time>2015-07-12T09:32:26Z</time>
      </trkpt>
      <trkpt lat="46.66636" lon="5.79916">
        <ele>516.1</ele>
        <time>2015-07-12T09:32:29Z</time>
      </trkpt>
      <trkpt lat="46.66636" lon="5.79936">
        <ele>516.3</ele>
        <time>2015-07-12T09:32:32Z</time>
      </trkpt>
      <trkpt lat="46.66635" lon="5.79953">
        <ele>516.5</ele>
        <time>2015-07-12T09:32:35Z</time>
      </trkpt>
      <trkpt lat="46.66635" lon="5.79973">
        <ele>516.7</ele>
        <time>2015-07-12T09:32:38Z</time>
      </trkpt>
      <trkpt lat="46.66635" lon="5.79989">
        <ele>516.6</ele>
        <time>2015-07-12T09:32:40Z</time>
      </trkpt>
      <trkpt lat="46.6664" lon="5.80008">
        <ele>516.4</ele>
        <time>2015-07-12T09:32:42Z</time>
      </trkpt>
      <trkpt lat="46.66641" lon="5.80028">
        <ele>516.3</ele>
        <time>2015-07-12T09:32:44Z</time>
      </trkpt>
      <trkpt lat="46.6664" lon="5.80044">
        <ele>516.3</ele>
        <time>2015-07-12T09:32:46Z</time>
      </trkpt>
      <trkpt lat="46.66638" lon="5.8006">
        <ele>516.2</ele>
        <time>2015-07-12T09:32:49Z</time>
      </trkpt>
      <trkpt lat="46.66635" lon="5.80073">
        <ele>516.3</ele>
        <time>2015-07-12T09:32:52Z</time>
      </trkpt>
      <trkpt lat="46.66635" lon="5.80091">
        <ele>516.4</ele>
        <time>2015-07-12T09:32:55Z</time>
      </trkpt>
      <trkpt lat="46.66632" lon="5.80107">
        <ele>516.5</ele>
        <time>2015-07-12T09:32:58Z</time>
      </trkpt>
      <trkpt lat="46.66633" lon="5.80125">
        <ele>516.7</ele>
        <time>2015-07-12T09:33:01Z</time>
      </trkpt>
      <trkpt lat="46.66629" lon="5.80143">
        <ele>516.7</ele>
        <time>2015-07-12T09:33:03Z</time>
      </trkpt>
      <trkpt lat="46.66627" lon="5.80159">
        <ele>516.8</ele>
        <time>2015-07-12T09:33:05Z</time>
      </trkpt>
      <trkpt lat="46.66628" lon="5.80174">
        <ele>516.9</ele>
        <time>2015-07-12T09:33:07Z</time>
      </trkpt>
      <trkpt lat="46.66625" lon="5.80188">
        <ele>516.9</ele>
        <time>2015-07-12T09:33:09Z</time>
      </trkpt>
      <trkpt lat="46.66623" lon="5.80206">
        <ele>517</ele>
        <time>2015-07-12T09:33:12Z</time>
      </trkpt>
      <trkpt lat="46.66624" lon="5.80225">
        <ele>517.1</ele>
        <time>2015-07-12T09:33:14Z</time>
      </trkpt>
      <trkpt lat="46.66625" lon="5.80241">
        <ele>517.2</ele>
        <time>2015-07-12T09:33:16Z</time>
      </trkpt>
      <trkpt lat="46.66623" lon="5.80256">
        <ele>517.2</ele>
        <time>2015-07-12T09:33:18Z</time>
      </trkpt>
      <trkpt lat="46.6662" lon="5.80273">
        <ele>517.3</ele>
        <time>2015-07-12T09:33:20Z</time>
      </trkpt>
      <trkpt lat="46.66616" lon="5.80289">
        <ele>517.3</ele>
        <time>2015-07-12T09:33:22Z</time>
      </trkpt>
      <trkpt lat="46.66612" lon="5.80304">
        <ele>517.4</ele>
        <time>2015-07-12T09:33:24Z</time>
      </trkpt>
      <trkpt lat="46.66608" lon="5.80319">
        <ele>517.4</ele>
        <time>2015-07-12T09:33:26Z</time>
      </trkpt>
      <trkpt lat="46.66605" lon="5.80332">
        <ele>517.5</ele>
        <time>2015-07-12T09:33:28Z</time>
      </trkpt>
      <trkpt lat="46.66602" lon="5.80351">
        <ele>517.6</ele>
        <time>2015-07-12T09:33:31Z</time>
      </trkpt>
      <trkpt lat="46.66601" lon="5.80365">
        <ele>517.5</ele>
        <time>2015-07-12T09:33:33Z</time>
      </trkpt>
      <trkpt lat="46.66601" lon="5.80379">
        <ele>517.4</ele>
        <time>2015-07-12T09:33:35Z</time>
      </trkpt>
      <trkpt lat="46.66601" lon="5.80395">
        <ele>517.3</ele>
        <time>2015-07-12T09:33:37Z</time>
      </trkpt>
      <trkpt lat="46.666" lon="5.8041">
        <ele>517.2</ele>
        <time>2015-07-12T09:33:39Z</time>
      </trkpt>
      <trkpt lat="46.66599" lon="5.80429">
        <ele>517.1</ele>
        <time>2015-07-12T09:33:42Z</time>
      </trkpt>
      <trkpt lat="46.66602" lon="5.80444">
        <ele>517</ele>
        <time>2015-07-12T09:33:44Z</time>
      </trkpt>
      <trkpt lat="46.66602" lon="5.80461">
        <ele>516.9</ele>
        <time>2015-07-12T09:33:46Z</time>
      </trkpt>
      <trkpt lat="46.66603" lon="5.80478">
        <ele>516.8</ele>
        <time>2015-07-12T09:33:48Z</time>
      </trkpt>
      <trkpt lat="46.66605" lon="5.80493">
        <ele>516.7</ele>
        <time>2015-07-12T09:33:50Z</time>
      </trkpt>
      <trkpt lat="46.66605" lon="5.80508">
        <ele>516.6</ele>
        <time>2015-07-12T09:33:52Z</time>
      </trkpt>
      <trkpt lat="46.66607" lon="5.80523">
        <ele>516.5</ele>
        <time>2015-07-12T09:33:54Z</time>
      </trkpt>
      <trkpt lat="46.66608" lon="5.80542">
        <ele>516.4</ele>
        <time>2015-07-12T09:33:57Z</time>
      </trkpt>
      <trkpt lat="46.66607" lon="5.80561">
        <ele>516.3</ele>
        <time>2015-07-12T09:34:00Z</time>
      </trkpt>
      <trkpt lat="46.66608" lon="5.80574">
        <ele>516.3</ele>
        <time>2015-07-12T09:34:02Z</time>
      </trkpt>
      <trkpt lat="46.66607" lon="5.80594">
        <ele>516.2</ele>
        <time>2015-07-12T09:34:05Z</time>
      </trkpt>
      <trkpt lat="46.66605" lon="5.80607">
        <ele>516.2</ele>
        <time>2015-07-12T09:34:07Z</time>
      </trkpt>
      <trkpt lat="46.66601" lon="5.80626">
        <ele>516.1</ele>
        <time>2015-07-12T09:34:10Z</time>
      </trkpt>
      <trkpt lat="46.66596" lon="5.80641">
        <ele>516.1</ele>
        <time>2015-07-12T09:34:13Z</time>
      </trkpt>
      <trkpt lat="46.66592" lon="5.80658">
        <ele>516.2</ele>
        <time>2015-07-12T09:34:17Z</time>
      </trkpt>
      <trkpt lat="46.66585" lon="5.80672">
        <ele>516.7</ele>
        <time>2015-07-12T09:34:21Z</time>
      </trkpt>
      <trkpt lat="46.66576" lon="5.80684">
        <ele>517.1</ele>
        <time>2015-07-12T09:34:24Z</time>
      </trkpt>
      <trkpt lat="46.66568" lon="5.80698">
        <ele>517.4</ele>
        <time>2015-07-12T09:34:27Z</time>
      </trkpt>
      <trkpt lat="46.66563" lon="5.8071">
        <ele>517.6</ele>
        <time>2015-07-12T09:34:29Z</time>
      </trkpt>
      <trkpt lat="46.66557" lon="5.8072">
        <ele>517.8</ele>
        <time>2015-07-12T09:34:31Z</time>
      </trkpt>
      <trkpt lat="46.66551" lon="5.80738">
        <ele>518</ele>
        <time>2015-07-12T09:34:34Z</time>
      </trkpt>
      <trkpt lat="46.66544" lon="5.80749">
        <ele>518.1</ele>
        <time>2015-07-12T09:34:36Z</time>
      </trkpt>
      <trkpt lat="46.66538" lon="5.80762">
        <ele>518.2</ele>
        <time>2015-07-12T09:34:38Z</time>
      </trkpt>
      <trkpt lat="46.66532" lon="5.80775">
        <ele>518.3</ele>
        <time>2015-07-12T09:34:40Z</time>
      </trkpt>
      <trkpt lat="46.66527" lon="5.80787">
        <ele>518.4</ele>
        <time>2015-07-12T09:34:42Z</time>
      </trkpt>
      <trkpt lat="46.66523" lon="5.808">
        <ele>518.5</ele>
        <time>2015-07-12T09:34:44Z</time>
      </trkpt>
      <trkpt lat="46.66521" lon="5.80816">
        <ele>518.6</ele>
        <time>2015-07-12T09:34:46Z</time>
      </trkpt>
      <trkpt lat="46.66519" lon="5.8083">
        <ele>518.6</ele>
        <time>2015-07-12T09:34:48Z</time>
      </trkpt>
      <trkpt lat="46.66514" lon="5.80846">
        <ele>518.5</ele>
        <time>2015-07-12T09:34:50Z</time>
      </trkpt>
      <trkpt lat="46.66509" lon="5.80861">
        <ele>518.5</ele>
        <time>2015-07-12T09:34:52Z</time>
      </trkpt>
      <trkpt lat="46.66507" lon="5.80877">
        <ele>518.5</ele>
        <time>2015-07-12T09:34:54Z</time>
      </trkpt>
      <trkpt lat="46.66501" lon="5.80891">
        <ele>518.5</ele>
        <time>2015-07-12T09:34:56Z</time>
      </trkpt>
      <trkpt lat="46.66494" lon="5.80904">
        <ele>518.5</ele>
        <time>2015-07-12T09:34:59Z</time>
      </trkpt>
      <trkpt lat="46.6649" lon="5.80917">
        <ele>518.7</ele>
        <time>2015-07-12T09:35:02Z</time>
      </trkpt>
      <trkpt lat="46.66479" lon="5.8093">
        <ele>518.8</ele>
        <time>2015-07-12T09:35:05Z</time>
      </trkpt>
      <trkpt lat="46.66473" lon="5.80944">
        <ele>518.9</ele>
        <time>2015-07-12T09:35:07Z</time>
      </trkpt>
      <trkpt lat="46.66467" lon="5.80962">
        <ele>518.9</ele>
        <time>2015-07-12T09:35:09Z</time>
      </trkpt>
      <trkpt lat="46.66461" lon="5.8098">
        <ele>518.8</ele>
        <time>2015-07-12T09:35:11Z</time>
      </trkpt>
      <trkpt lat="46.66452" lon="5.80995">
        <ele>518.8</ele>
        <time>2015-07-12T09:35:13Z</time>
      </trkpt>
      <trkpt lat="46.66444" lon="5.8101">
        <ele>518.7</ele>
        <time>2015-07-12T09:35:15Z</time>
      </trkpt>
      <trkpt lat="46.66437" lon="5.81024">
        <ele>518.7</ele>
        <time>2015-07-12T09:35:17Z</time>
      </trkpt>
      <trkpt lat="46.66428" lon="5.81037">
        <ele>518.7</ele>
        <time>2015-07-12T09:35:19Z</time>
      </trkpt>
      <trkpt lat="46.6642" lon="5.81051">
        <ele>518.7</ele>
        <time>2015-07-12T09:35:21Z</time>
      </trkpt>
      <trkpt lat="46.66417" lon="5.81065">
        <ele>518.7</ele>
        <time>2015-07-12T09:35:23Z</time>
      </trkpt>
      <trkpt lat="46.66413" lon="5.81078">
        <ele>518.7</ele>
        <time>2015-07-12T09:35:25Z</time>
      </trkpt>
      <trkpt lat="46.66407" lon="5.81089">
        <ele>518.7</ele>
        <time>2015-07-12T09:35:27Z</time>
      </trkpt>
      <trkpt lat="46.66402" lon="5.81103">
        <ele>518.7</ele>
        <time>2015-07-12T09:35:30Z</time>
      </trkpt>
      <trkpt lat="46.66399" lon="5.81119">
        <ele>518.7</ele>
        <time>2015-07-12T09:35:35Z</time>
      </trkpt>
      <trkpt lat="46.66399" lon="5.81133">
        <ele>518.7</ele>
        <time>2015-07-12T09:35:39Z</time>
      </trkpt>
      <trkpt lat="46.66405" lon="5.81148">
        <ele>518.8</ele>
        <time>2015-07-12T09:35:43Z</time>
      </trkpt>
      <trkpt lat="46.66409" lon="5.81161">
        <ele>518.8</ele>
        <time>2015-07-12T09:35:46Z</time>
      </trkpt>
      <trkpt lat="46.66415" lon="5.81172">
        <ele>518.8</ele>
        <time>2015-07-12T09:35:49Z</time>
      </trkpt>
      <trkpt lat="46.66418" lon="5.81185">
        <ele>518.9</ele>
        <time>2015-07-12T09:35:53Z</time>
      </trkpt>
      <trkpt lat="46.66426" lon="5.81196">
        <ele>518.9</ele>
        <time>2015-07-12T09:35:56Z</time>
      </trkpt>
      <trkpt lat="46.66433" lon="5.81206">
        <ele>518.9</ele>
        <time>2015-07-12T09:35:59Z</time>
      </trkpt>
      <trkpt lat="46.66437" lon="5.8122">
        <ele>519</ele>
        <time>2015-07-12T09:36:04Z</time>
      </trkpt>
      <trkpt lat="46.66439" lon="5.81234">
        <ele>519</ele>
        <time>2015-07-12T09:36:08Z</time>
      </trkpt>
      <trkpt lat="46.66445" lon="5.81248">
        <ele>519</ele>
        <time>2015-07-12T09:36:11Z</time>
      </trkpt>
      <trkpt lat="46.66451" lon="5.81262">
        <ele>519</ele>
        <time>2015-07-12T09:36:15Z</time>
      </trkpt>
      <trkpt lat="46.6646" lon="5.81274">
        <ele>519</ele>
        <time>2015-07-12T09:36:19Z</time>
      </trkpt>
      <trkpt lat="46.6647" lon="5.81281">
        <ele>519</ele>
        <time>2015-07-12T09:36:22Z</time>
      </trkpt>
      <trkpt lat="46.6648" lon="5.81281">
        <ele>519.1</ele>
        <time>2015-07-12T09:36:24Z</time>
      </trkpt>
      <trkpt lat="46.6649" lon="5.81278">
        <ele>519.1</ele>
        <time>2015-07-12T09:36:26Z</time>
      </trkpt>
      <trkpt lat="46.66503" lon="5.81277">
        <ele>519.1</ele>
        <time>2015-07-12T09:36:28Z</time>
      </trkpt>
      <trkpt lat="46.66513" lon="5.8127">
        <ele>519.1</ele>
        <time>2015-07-12T09:36:31Z</time>
      </trkpt>
      <trkpt lat="46.66524" lon="5.81257">
        <ele>519</ele>
        <time>2015-07-12T09:36:36Z</time>
      </trkpt>
      <trkpt lat="46.66532" lon="5.81248">
        <ele>519.2</ele>
        <time>2015-07-12T09:36:42Z</time>
      </trkpt>
      <trkpt lat="46.66542" lon="5.81241">
        <ele>519.3</ele>
        <time>2015-07-12T09:36:46Z</time>
      </trkpt>
      <trkpt lat="46.66552" lon="5.81236">
        <ele>519.3</ele>
        <time>2015-07-12T09:36:49Z</time>
      </trkpt>
      <trkpt lat="46.66562" lon="5.81234">
        <ele>519.4</ele>
        <time>2015-07-12T09:36:52Z</time>
      </trkpt>
      <trkpt lat="46.6657" lon="5.81231">
        <ele>519.4</ele>
        <time>2015-07-12T09:36:55Z</time>
      </trkpt>
      <trkpt lat="46.66575" lon="5.81218">
        <ele>519.5</ele>
        <time>2015-07-12T09:37:00Z</time>
      </trkpt>
      <trkpt lat="46.66582" lon="5.8121">
        <ele>519.5</ele>
        <time>2015-07-12T09:37:09Z</time>
      </trkpt>
      <trkpt lat="46.66573" lon="5.81217">
        <ele>518.9</ele>
        <time>2015-07-12T09:37:43Z</time>
      </trkpt>
      <trkpt lat="46.66566" lon="5.81227">
        <ele>518.9</ele>
        <time>2015-07-12T09:37:46Z</time>
      </trkpt>
      <trkpt lat="46.66557" lon="5.81232">
        <ele>519</ele>
        <time>2015-07-12T09:37:48Z</time>
      </trkpt>
      <trkpt lat="46.66548" lon="5.81236">
        <ele>519</ele>
        <time>2015-07-12T09:37:50Z</time>
      </trkpt>
      <trkpt lat="46.6654" lon="5.81243">
        <ele>519</ele>
        <time>2015-07-12T09:37:53Z</time>
      </trkpt>
      <trkpt lat="46.66533" lon="5.81252">
        <ele>519.1</ele>
        <time>2015-07-12T09:37:56Z</time>
      </trkpt>
      <trkpt lat="46.66524" lon="5.81266">
        <ele>519.1</ele>
        <time>2015-07-12T09:38:00Z</time>
      </trkpt>
      <trkpt lat="46.66512" lon="5.81273">
        <ele>519.3</ele>
        <time>2015-07-12T09:38:03Z</time>
      </trkpt>
      <trkpt lat="46.66501" lon="5.81279">
        <ele>519.4</ele>
        <time>2015-07-12T09:38:06Z</time>
      </trkpt>
      <trkpt lat="46.66495" lon="5.81293">
        <ele>519.5</ele>
        <time>2015-07-12T09:38:10Z</time>
      </trkpt>
      <trkpt lat="46.66485" lon="5.81299">
        <ele>519.7</ele>
        <time>2015-07-12T09:38:14Z</time>
      </trkpt>
      <trkpt lat="46.66476" lon="5.81304">
        <ele>519.8</ele>
        <time>2015-07-12T09:38:16Z</time>
      </trkpt>
      <trkpt lat="46.66469" lon="5.81313">
        <ele>519.9</ele>
        <time>2015-07-12T09:38:18Z</time>
      </trkpt>
      <trkpt lat="46.66463" lon="5.81324">
        <ele>520</ele>
        <time>2015-07-12T09:38:21Z</time>
      </trkpt>
      <trkpt lat="46.66463" lon="5.81339">
        <ele>520.2</ele>
        <time>2015-07-12T09:38:24Z</time>
      </trkpt>
      <trkpt lat="46.66467" lon="5.81355">
        <ele>520.3</ele>
        <time>2015-07-12T09:38:28Z</time>
      </trkpt>
      <trkpt lat="46.66473" lon="5.81366">
        <ele>520.4</ele>
        <time>2015-07-12T09:38:30Z</time>
      </trkpt>
      <trkpt lat="46.6648" lon="5.8138">
        <ele>520.5</ele>
        <time>2015-07-12T09:38:32Z</time>
      </trkpt>
      <trkpt lat="46.66487" lon="5.81393">
        <ele>520.6</ele>
        <time>2015-07-12T09:38:34Z</time>
      </trkpt>
      <trkpt lat="46.66493" lon="5.81406">
        <ele>520.8</ele>
        <time>2015-07-12T09:38:36Z</time>
      </trkpt>
      <trkpt lat="46.66502" lon="5.81418">
        <ele>520.9</ele>
        <time>2015-07-12T09:38:39Z</time>
      </trkpt>
      <trkpt lat="46.66512" lon="5.81418">
        <ele>521.4</ele>
        <time>2015-07-12T09:38:44Z</time>
      </trkpt>
      <trkpt lat="46.66513" lon="5.81433">
        <ele>521.9</ele>
        <time>2015-07-12T09:38:49Z</time>
      </trkpt>
      <trkpt lat="46.66516" lon="5.81449">
        <ele>522.4</ele>
        <time>2015-07-12T09:38:54Z</time>
      </trkpt>
      <trkpt lat="46.66526" lon="5.81459">
        <ele>522.9</ele>
        <time>2015-07-12T09:38:58Z</time>
      </trkpt>
      <trkpt lat="46.66533" lon="5.81469">
        <ele>523.3</ele>
        <time>2015-07-12T09:39:01Z</time>
      </trkpt>
      <trkpt lat="46.66543" lon="5.81478">
        <ele>523.6</ele>
        <time>2015-07-12T09:39:05Z</time>
      </trkpt>
      <trkpt lat="46.66555" lon="5.81481">
        <ele>523.8</ele>
        <time>2015-07-12T09:39:08Z</time>
      </trkpt>
      <trkpt lat="46.66566" lon="5.81482">
        <ele>524</ele>
        <time>2015-07-12T09:39:11Z</time>
      </trkpt>
      <trkpt lat="46.66576" lon="5.81484">
        <ele>524.2</ele>
        <time>2015-07-12T09:39:14Z</time>
      </trkpt>
      <trkpt lat="46.66587" lon="5.81487">
        <ele>524.3</ele>
        <time>2015-07-12T09:39:17Z</time>
      </trkpt>
      <trkpt lat="46.66599" lon="5.81489">
        <ele>524.4</ele>
        <time>2015-07-12T09:39:20Z</time>
      </trkpt>
      <trkpt lat="46.66611" lon="5.81491">
        <ele>524.6</ele>
        <time>2015-07-12T09:39:24Z</time>
      </trkpt>
      <trkpt lat="46.66624" lon="5.81493">
        <ele>524.7</ele>
        <time>2015-07-12T09:39:27Z</time>
      </trkpt>
      <trkpt lat="46.66634" lon="5.81495">
        <ele>524.7</ele>
        <time>2015-07-12T09:39:30Z</time>
      </trkpt>
      <trkpt lat="46.66648" lon="5.81498">
        <ele>524.8</ele>
        <time>2015-07-12T09:39:33Z</time>
      </trkpt>
      <trkpt lat="46.66657" lon="5.815">
        <ele>524.9</ele>
        <time>2015-07-12T09:39:35Z</time>
      </trkpt>
      <trkpt lat="46.66667" lon="5.81502">
        <ele>524.9</ele>
        <time>2015-07-12T09:39:37Z</time>
      </trkpt>
      <trkpt lat="46.66677" lon="5.81505">
        <ele>524.9</ele>
        <time>2015-07-12T09:39:39Z</time>
      </trkpt>
      <trkpt lat="46.66686" lon="5.81507">
        <ele>525</ele>
        <time>2015-07-12T09:39:41Z</time>
      </trkpt>
      <trkpt lat="46.66696" lon="5.8151">
        <ele>525</ele>
        <time>2015-07-12T09:39:43Z</time>
      </trkpt>
      <trkpt lat="46.66706" lon="5.81511">
        <ele>525</ele>
        <time>2015-07-12T09:39:45Z</time>
      </trkpt>
      <trkpt lat="46.66715" lon="5.81515">
        <ele>525.1</ele>
        <time>2015-07-12T09:39:47Z</time>
      </trkpt>
      <trkpt lat="46.66724" lon="5.8152">
        <ele>525.2</ele>
        <time>2015-07-12T09:39:49Z</time>
      </trkpt>
      <trkpt lat="46.66742" lon="5.81523">
        <ele>525</ele>
        <time>2015-07-12T09:39:53Z</time>
      </trkpt>
      <trkpt lat="46.66752" lon="5.81529">
        <ele>525.5</ele>
        <time>2015-07-12T09:39:57Z</time>
      </trkpt>
      <trkpt lat="46.66762" lon="5.81526">
        <ele>525.8</ele>
        <time>2015-07-12T09:40:02Z</time>
      </trkpt>
      <trkpt lat="46.66773" lon="5.81519">
        <ele>525.9</ele>
        <time>2015-07-12T09:40:06Z</time>
      </trkpt>
      <trkpt lat="46.66785" lon="5.81515">
        <ele>526.1</ele>
        <time>2015-07-12T09:40:09Z</time>
      </trkpt>
      <trkpt lat="46.66797" lon="5.8151">
        <ele>526</ele>
        <time>2015-07-12T09:40:11Z</time>
      </trkpt>
      <trkpt lat="46.66805" lon="5.81502">
        <ele>526.1</ele>
        <time>2015-07-12T09:40:14Z</time>
      </trkpt>
      <trkpt lat="46.6681" lon="5.81492">
        <ele>525</ele>
        <time>2015-07-12T09:40:16Z</time>
      </trkpt>
      <trkpt lat="46.66819" lon="5.81489">
        <ele>525.8</ele>
        <time>2015-07-12T09:40:19Z</time>
      </trkpt>
      <trkpt lat="46.66826" lon="5.81477">
        <ele>525</ele>
        <time>2015-07-12T09:40:21Z</time>
      </trkpt>
      <trkpt lat="46.66833" lon="5.81467">
        <ele>525.7</ele>
        <time>2015-07-12T09:40:24Z</time>
      </trkpt>
      <trkpt lat="46.66842" lon="5.81455">
        <ele>525.7</ele>
        <time>2015-07-12T09:40:27Z</time>
      </trkpt>
      <trkpt lat="46.66854" lon="5.81433">
        <ele>525</ele>
        <time>2015-07-12T09:40:31Z</time>
      </trkpt>
      <trkpt lat="46.66867" lon="5.81415">
        <ele>525</ele>
        <time>2015-07-12T09:40:35Z</time>
      </trkpt>
      <trkpt lat="46.66881" lon="5.814">
        <ele>525</ele>
        <time>2015-07-12T09:40:39Z</time>
      </trkpt>
      <trkpt lat="46.66889" lon="5.81374">
        <ele>525</ele>
        <time>2015-07-12T09:40:43Z</time>
      </trkpt>
      <trkpt lat="46.66898" lon="5.81355">
        <ele>525</ele>
        <time>2015-07-12T09:40:47Z</time>
      </trkpt>
      <trkpt lat="46.66907" lon="5.81343">
        <ele>525</ele>
        <time>2015-07-12T09:40:51Z</time>
      </trkpt>
      <trkpt lat="46.66918" lon="5.81336">
        <ele>525</ele>
        <time>2015-07-12T09:40:55Z</time>
      </trkpt>
      <trkpt lat="46.66926" lon="5.81325">
        <ele>525</ele>
        <time>2015-07-12T09:40:59Z</time>
      </trkpt>
      <trkpt lat="46.66933" lon="5.81315">
        <ele>525</ele>
        <time>2015-07-12T09:41:03Z</time>
      </trkpt>
      <trkpt lat="46.6694" lon="5.81293">
        <ele>524</ele>
        <time>2015-07-12T09:41:11Z</time>
      </trkpt>
      <trkpt lat="46.66937" lon="5.81273">
        <ele>524</ele>
        <time>2015-07-12T09:41:15Z</time>
      </trkpt>
      <trkpt lat="46.66918" lon="5.81253">
        <ele>524.6</ele>
        <time>2015-07-12T09:41:26Z</time>
      </trkpt>
      <trkpt lat="46.66921" lon="5.81237">
        <ele>524.9</ele>
        <time>2015-07-12T09:41:36Z</time>
      </trkpt>
      <trkpt lat="46.66929" lon="5.81229">
        <ele>525.1</ele>
        <time>2015-07-12T09:41:40Z</time>
      </trkpt>
      <trkpt lat="46.66937" lon="5.81224">
        <ele>525.2</ele>
        <time>2015-07-12T09:41:43Z</time>
      </trkpt>
      <trkpt lat="46.66946" lon="5.81214">
        <ele>525.5</ele>
        <time>2015-07-12T09:41:47Z</time>
      </trkpt>
      <trkpt lat="46.66951" lon="5.81203">
        <ele>525.7</ele>
        <time>2015-07-12T09:41:50Z</time>
      </trkpt>
      <trkpt lat="46.66957" lon="5.81192">
        <ele>525.8</ele>
        <time>2015-07-12T09:41:53Z</time>
      </trkpt>
      <trkpt lat="46.66966" lon="5.81179">
        <ele>526</ele>
        <time>2015-07-12T09:41:57Z</time>
      </trkpt>
      <trkpt lat="46.66975" lon="5.8117">
        <ele>526.2</ele>
        <time>2015-07-12T09:42:00Z</time>
      </trkpt>
      <trkpt lat="46.66985" lon="5.81162">
        <ele>526.3</ele>
        <time>2015-07-12T09:42:04Z</time>
      </trkpt>
      <trkpt lat="46.66991" lon="5.81153">
        <ele>526.4</ele>
        <time>2015-07-12T09:42:08Z</time>
      </trkpt>
      <trkpt lat="46.66995" lon="5.81139">
        <ele>526.6</ele>
        <time>2015-07-12T09:42:16Z</time>
      </trkpt>
      <trkpt lat="46.67002" lon="5.81126">
        <ele>526.7</ele>
        <time>2015-07-12T09:42:20Z</time>
      </trkpt>
      <trkpt lat="46.67006" lon="5.81114">
        <ele>526.6</ele>
        <time>2015-07-12T09:42:35Z</time>
      </trkpt>
      <trkpt lat="46.66997" lon="5.81118">
        <ele>526.8</ele>
        <time>2015-07-12T09:42:39Z</time>
      </trkpt>
      <trkpt lat="46.66989" lon="5.81127">
        <ele>526.9</ele>
        <time>2015-07-12T09:42:42Z</time>
      </trkpt>
      <trkpt lat="46.66982" lon="5.81135">
        <ele>527</ele>
        <time>2015-07-12T09:42:45Z</time>
      </trkpt>
      <trkpt lat="46.66973" lon="5.81145">
        <ele>527.1</ele>
        <time>2015-07-12T09:42:49Z</time>
      </trkpt>
      <trkpt lat="46.66965" lon="5.81153">
        <ele>527.2</ele>
        <time>2015-07-12T09:42:54Z</time>
      </trkpt>
      <trkpt lat="46.66976" lon="5.8116">
        <ele>527.6</ele>
        <time>2015-07-12T09:43:27Z</time>
      </trkpt>
      <trkpt lat="46.66985" lon="5.81151">
        <ele>527.6</ele>
        <time>2015-07-12T09:43:30Z</time>
      </trkpt>
      <trkpt lat="46.66992" lon="5.81142">
        <ele>527.8</ele>
        <time>2015-07-12T09:43:34Z</time>
      </trkpt>
      <trkpt lat="46.67001" lon="5.81136">
        <ele>527.9</ele>
        <time>2015-07-12T09:43:40Z</time>
      </trkpt>
      <trkpt lat="46.67008" lon="5.81124">
        <ele>527.9</ele>
        <time>2015-07-12T09:43:44Z</time>
      </trkpt>
      <trkpt lat="46.67016" lon="5.81114">
        <ele>528</ele>
        <time>2015-07-12T09:43:48Z</time>
      </trkpt>
      <trkpt lat="46.67025" lon="5.81102">
        <ele>528.1</ele>
        <time>2015-07-12T09:43:52Z</time>
      </trkpt>
      <trkpt lat="46.67034" lon="5.81092">
        <ele>528.1</ele>
        <time>2015-07-12T09:43:55Z</time>
      </trkpt>
      <trkpt lat="46.67044" lon="5.81085">
        <ele>528.2</ele>
        <time>2015-07-12T09:43:57Z</time>
      </trkpt>
      <trkpt lat="46.67053" lon="5.81076">
        <ele>528.3</ele>
        <time>2015-07-12T09:44:00Z</time>
      </trkpt>
      <trkpt lat="46.6706" lon="5.81066">
        <ele>528.4</ele>
        <time>2015-07-12T09:44:03Z</time>
      </trkpt>
      <trkpt lat="46.67069" lon="5.81059">
        <ele>528.6</ele>
        <time>2015-07-12T09:44:06Z</time>
      </trkpt>
      <trkpt lat="46.67077" lon="5.8105">
        <ele>528.9</ele>
        <time>2015-07-12T09:44:09Z</time>
      </trkpt>
      <trkpt lat="46.67086" lon="5.81039">
        <ele>529.2</ele>
        <time>2015-07-12T09:44:12Z</time>
      </trkpt>
      <trkpt lat="46.67094" lon="5.81032">
        <ele>529.3</ele>
        <time>2015-07-12T09:44:14Z</time>
      </trkpt>
      <trkpt lat="46.67103" lon="5.81022">
        <ele>529.5</ele>
        <time>2015-07-12T09:44:17Z</time>
      </trkpt>
      <trkpt lat="46.6711" lon="5.8101">
        <ele>529.6</ele>
        <time>2015-07-12T09:44:20Z</time>
      </trkpt>
      <trkpt lat="46.67118" lon="5.80995">
        <ele>529.7</ele>
        <time>2015-07-12T09:44:23Z</time>
      </trkpt>
      <trkpt lat="46.67125" lon="5.8098">
        <ele>529.8</ele>
        <time>2015-07-12T09:44:26Z</time>
      </trkpt>
      <trkpt lat="46.67132" lon="5.80969">
        <ele>529.9</ele>
        <time>2015-07-12T09:44:28Z</time>
      </trkpt>
      <trkpt lat="46.67139" lon="5.80959">
        <ele>530</ele>
        <time>2015-07-12T09:44:32Z</time>
      </trkpt>
      <trkpt lat="46.67144" lon="5.80946">
        <ele>530.1</ele>
        <time>2015-07-12T09:44:37Z</time>
      </trkpt>
      <trkpt lat="46.67148" lon="5.80932">
        <ele>530.2</ele>
        <time>2015-07-12T09:44:41Z</time>
      </trkpt>
      <trkpt lat="46.67153" lon="5.80918">
        <ele>530.2</ele>
        <time>2015-07-12T09:44:45Z</time>
      </trkpt>
      <trkpt lat="46.67156" lon="5.80902">
        <ele>530.3</ele>
        <time>2015-07-12T09:44:49Z</time>
      </trkpt>
      <trkpt lat="46.67156" lon="5.80886">
        <ele>530.3</ele>
        <time>2015-07-12T09:44:52Z</time>
      </trkpt>
      <trkpt lat="46.67158" lon="5.8087">
        <ele>530.4</ele>
        <time>2015-07-12T09:44:55Z</time>
      </trkpt>
      <trkpt lat="46.67165" lon="5.8085">
        <ele>530.4</ele>
        <time>2015-07-12T09:44:58Z</time>
      </trkpt>
      <trkpt lat="46.67169" lon="5.80837">
        <ele>530.5</ele>
        <time>2015-07-12T09:45:00Z</time>
      </trkpt>
      <trkpt lat="46.67171" lon="5.80821">
        <ele>530.6</ele>
        <time>2015-07-12T09:45:03Z</time>
      </trkpt>
      <trkpt lat="46.67173" lon="5.80807">
        <ele>530.6</ele>
        <time>2015-07-12T09:45:06Z</time>
      </trkpt>
      <trkpt lat="46.67176" lon="5.80793">
        <ele>530.7</ele>
        <time>2015-07-12T09:45:09Z</time>
      </trkpt>
      <trkpt lat="46.6718" lon="5.80777">
        <ele>530.8</ele>
        <time>2015-07-12T09:45:12Z</time>
      </trkpt>
      <trkpt lat="46.67182" lon="5.80762">
        <ele>530.9</ele>
        <time>2015-07-12T09:45:15Z</time>
      </trkpt>
      <trkpt lat="46.67184" lon="5.80745">
        <ele>531.1</ele>
        <time>2015-07-12T09:45:18Z</time>
      </trkpt>
      <trkpt lat="46.67187" lon="5.80728">
        <ele>531.2</ele>
        <time>2015-07-12T09:45:21Z</time>
      </trkpt>
      <trkpt lat="46.6719" lon="5.8071">
        <ele>531.4</ele>
        <time>2015-07-12T09:45:24Z</time>
      </trkpt>
      <trkpt lat="46.67194" lon="5.80693">
        <ele>531.6</ele>
        <time>2015-07-12T09:45:27Z</time>
      </trkpt>
      <trkpt lat="46.67194" lon="5.80679">
        <ele>531.7</ele>
        <time>2015-07-12T09:45:29Z</time>
      </trkpt>
      <trkpt lat="46.67196" lon="5.80666">
        <ele>531.9</ele>
        <time>2015-07-12T09:45:31Z</time>
      </trkpt>
      <trkpt lat="46.67197" lon="5.80647">
        <ele>532</ele>
        <time>2015-07-12T09:45:34Z</time>
      </trkpt>
      <trkpt lat="46.67199" lon="5.8063">
        <ele>532.1</ele>
        <time>2015-07-12T09:45:37Z</time>
      </trkpt>
      <trkpt lat="46.67204" lon="5.80618">
        <ele>532.2</ele>
        <time>2015-07-12T09:45:39Z</time>
      </trkpt>
      <trkpt lat="46.67203" lon="5.80605">
        <ele>532.2</ele>
        <time>2015-07-12T09:45:41Z</time>
      </trkpt>
      <trkpt lat="46.67206" lon="5.80586">
        <ele>532.3</ele>
        <time>2015-07-12T09:45:44Z</time>
      </trkpt>
      <trkpt lat="46.67211" lon="5.80569">
        <ele>532.4</ele>
        <time>2015-07-12T09:45:47Z</time>
      </trkpt>
      <trkpt lat="46.67213" lon="5.80553">
        <ele>532.4</ele>
        <time>2015-07-12T09:45:50Z</time>
      </trkpt>
      <trkpt lat="46.67214" lon="5.80537">
        <ele>532.5</ele>
        <time>2015-07-12T09:45:53Z</time>
      </trkpt>
      <trkpt lat="46.67214" lon="5.80519">
        <ele>532.6</ele>
        <time>2015-07-12T09:45:56Z</time>
      </trkpt>
      <trkpt lat="46.67217" lon="5.80502">
        <ele>532.8</ele>
        <time>2015-07-12T09:45:59Z</time>
      </trkpt>
      <trkpt lat="46.67218" lon="5.80489">
        <ele>532.9</ele>
        <time>2015-07-12T09:46:01Z</time>
      </trkpt>
      <trkpt lat="46.67223" lon="5.80476">
        <ele>532.9</ele>
        <time>2015-07-12T09:46:03Z</time>
      </trkpt>
      <trkpt lat="46.67224" lon="5.80459">
        <ele>533</ele>
        <time>2015-07-12T09:46:06Z</time>
      </trkpt>
      <trkpt lat="46.6723" lon="5.80442">
        <ele>533.1</ele>
        <time>2015-07-12T09:46:09Z</time>
      </trkpt>
      <trkpt lat="46.67235" lon="5.80431">
        <ele>533.2</ele>
        <time>2015-07-12T09:46:11Z</time>
      </trkpt>
      <trkpt lat="46.67242" lon="5.80416">
        <ele>533.3</ele>
        <time>2015-07-12T09:46:14Z</time>
      </trkpt>
      <trkpt lat="46.67248" lon="5.804">
        <ele>533.3</ele>
        <time>2015-07-12T09:46:17Z</time>
      </trkpt>
      <trkpt lat="46.67254" lon="5.80383">
        <ele>533.4</ele>
        <time>2015-07-12T09:46:20Z</time>
      </trkpt>
      <trkpt lat="46.6726" lon="5.80366">
        <ele>533.5</ele>
        <time>2015-07-12T09:46:23Z</time>
      </trkpt>
      <trkpt lat="46.67265" lon="5.80349">
        <ele>533.5</ele>
        <time>2015-07-12T09:46:26Z</time>
      </trkpt>
      <trkpt lat="46.67268" lon="5.80333">
        <ele>533.6</ele>
        <time>2015-07-12T09:46:29Z</time>
      </trkpt>
      <trkpt lat="46.67273" lon="5.80317">
        <ele>533.7</ele>
        <time>2015-07-12T09:46:32Z</time>
      </trkpt>
      <trkpt lat="46.67279" lon="5.80306">
        <ele>533.7</ele>
        <time>2015-07-12T09:46:34Z</time>
      </trkpt>
      <trkpt lat="46.67283" lon="5.80292">
        <ele>533.9</ele>
        <time>2015-07-12T09:46:36Z</time>
      </trkpt>
      <trkpt lat="46.67286" lon="5.80275">
        <ele>534.1</ele>
        <time>2015-07-12T09:46:39Z</time>
      </trkpt>
      <trkpt lat="46.67289" lon="5.80262">
        <ele>534.2</ele>
        <time>2015-07-12T09:46:41Z</time>
      </trkpt>
      <trkpt lat="46.67292" lon="5.80247">
        <ele>534.3</ele>
        <time>2015-07-12T09:46:43Z</time>
      </trkpt>
      <trkpt lat="46.67294" lon="5.80232">
        <ele>534.4</ele>
        <time>2015-07-12T09:46:45Z</time>
      </trkpt>
      <trkpt lat="46.67297" lon="5.80219">
        <ele>534.5</ele>
        <time>2015-07-12T09:46:47Z</time>
      </trkpt>
      <trkpt lat="46.67298" lon="5.80205">
        <ele>534.6</ele>
        <time>2015-07-12T09:46:49Z</time>
      </trkpt>
      <trkpt lat="46.67299" lon="5.80192">
        <ele>534.6</ele>
        <time>2015-07-12T09:46:51Z</time>
      </trkpt>
      <trkpt lat="46.673" lon="5.80179">
        <ele>534.7</ele>
        <time>2015-07-12T09:46:53Z</time>
      </trkpt>
      <trkpt lat="46.67301" lon="5.80165">
        <ele>534.7</ele>
        <time>2015-07-12T09:46:55Z</time>
      </trkpt>
      <trkpt lat="46.67302" lon="5.80152">
        <ele>534.8</ele>
        <time>2015-07-12T09:46:57Z</time>
      </trkpt>
      <trkpt lat="46.67303" lon="5.80132">
        <ele>534.9</ele>
        <time>2015-07-12T09:47:00Z</time>
      </trkpt>
      <trkpt lat="46.67304" lon="5.80115">
        <ele>534.8</ele>
        <time>2015-07-12T09:47:02Z</time>
      </trkpt>
      <trkpt lat="46.67306" lon="5.80096">
        <ele>534.8</ele>
        <time>2015-07-12T09:47:04Z</time>
      </trkpt>
      <trkpt lat="46.67308" lon="5.8008">
        <ele>534.7</ele>
        <time>2015-07-12T09:47:06Z</time>
      </trkpt>
      <trkpt lat="46.67308" lon="5.80064">
        <ele>534.7</ele>
        <time>2015-07-12T09:47:08Z</time>
      </trkpt>
      <trkpt lat="46.67309" lon="5.8005">
        <ele>534.7</ele>
        <time>2015-07-12T09:47:10Z</time>
      </trkpt>
      <trkpt lat="46.67308" lon="5.80032">
        <ele>534.7</ele>
        <time>2015-07-12T09:47:13Z</time>
      </trkpt>
      <trkpt lat="46.67309" lon="5.80018">
        <ele>534.7</ele>
        <time>2015-07-12T09:47:15Z</time>
      </trkpt>
      <trkpt lat="46.67309" lon="5.79998">
        <ele>534.8</ele>
        <time>2015-07-12T09:47:18Z</time>
      </trkpt>
      <trkpt lat="46.6731" lon="5.79985">
        <ele>534.8</ele>
        <time>2015-07-12T09:47:20Z</time>
      </trkpt>
      <trkpt lat="46.67313" lon="5.79966">
        <ele>534.8</ele>
        <time>2015-07-12T09:47:23Z</time>
      </trkpt>
      <trkpt lat="46.67314" lon="5.79952">
        <ele>534.9</ele>
        <time>2015-07-12T09:47:26Z</time>
      </trkpt>
      <trkpt lat="46.67317" lon="5.79939">
        <ele>534.9</ele>
        <time>2015-07-12T09:47:29Z</time>
      </trkpt>
      <trkpt lat="46.67323" lon="5.79926">
        <ele>535</ele>
        <time>2015-07-12T09:47:33Z</time>
      </trkpt>
      <trkpt lat="46.67324" lon="5.79913">
        <ele>535.3</ele>
        <time>2015-07-12T09:47:37Z</time>
      </trkpt>
      <trkpt lat="46.67327" lon="5.799">
        <ele>536</ele>
        <time>2015-07-12T09:47:43Z</time>
      </trkpt>
      <trkpt lat="46.67331" lon="5.79885">
        <ele>536.7</ele>
        <time>2015-07-12T09:47:49Z</time>
      </trkpt>
      <trkpt lat="46.67331" lon="5.79872">
        <ele>539.4</ele>
        <time>2015-07-12T09:49:43Z</time>
      </trkpt>
      <trkpt lat="46.67334" lon="5.79858">
        <ele>539.6</ele>
        <time>2015-07-12T09:49:46Z</time>
      </trkpt>
      <trkpt lat="46.67338" lon="5.79845">
        <ele>539.9</ele>
        <time>2015-07-12T09:49:50Z</time>
      </trkpt>
      <trkpt lat="46.67339" lon="5.7983">
        <ele>540.5</ele>
        <time>2015-07-12T09:49:55Z</time>
      </trkpt>
      <trkpt lat="46.67342" lon="5.79816">
        <ele>541.2</ele>
        <time>2015-07-12T09:50:00Z</time>
      </trkpt>
      <trkpt lat="46.67346" lon="5.79801">
        <ele>541.6</ele>
        <time>2015-07-12T09:50:04Z</time>
      </trkpt>
      <trkpt lat="46.67348" lon="5.79786">
        <ele>542.2</ele>
        <time>2015-07-12T09:50:09Z</time>
      </trkpt>
      <trkpt lat="46.67348" lon="5.79771">
        <ele>542.8</ele>
        <time>2015-07-12T09:50:14Z</time>
      </trkpt>
      <trkpt lat="46.67352" lon="5.79756">
        <ele>543.4</ele>
        <time>2015-07-12T09:50:18Z</time>
      </trkpt>
      <trkpt lat="46.67354" lon="5.79743">
        <ele>544.1</ele>
        <time>2015-07-12T09:50:22Z</time>
      </trkpt>
      <trkpt lat="46.67358" lon="5.79728">
        <ele>544.8</ele>
        <time>2015-07-12T09:50:26Z</time>
      </trkpt>
      <trkpt lat="46.67358" lon="5.79715">
        <ele>545.5</ele>
        <time>2015-07-12T09:50:30Z</time>
      </trkpt>
      <trkpt lat="46.67361" lon="5.79701">
        <ele>546.6</ele>
        <time>2015-07-12T09:50:35Z</time>
      </trkpt>
      <trkpt lat="46.67362" lon="5.79688">
        <ele>547.7</ele>
        <time>2015-07-12T09:50:40Z</time>
      </trkpt>
      <trkpt lat="46.67363" lon="5.79673">
        <ele>548.5</ele>
        <time>2015-07-12T09:50:45Z</time>
      </trkpt>
      <trkpt lat="46.67369" lon="5.79661">
        <ele>548.9</ele>
        <time>2015-07-12T09:50:48Z</time>
      </trkpt>
      <trkpt lat="46.67372" lon="5.79648">
        <ele>549.4</ele>
        <time>2015-07-12T09:50:52Z</time>
      </trkpt>
      <trkpt lat="46.67376" lon="5.79634">
        <ele>550.1</ele>
        <time>2015-07-12T09:50:56Z</time>
      </trkpt>
      <trkpt lat="46.67379" lon="5.7962">
        <ele>550.7</ele>
        <time>2015-07-12T09:51:00Z</time>
      </trkpt>
      <trkpt lat="46.67382" lon="5.79605">
        <ele>551.1</ele>
        <time>2015-07-12T09:51:04Z</time>
      </trkpt>
      <trkpt lat="46.67387" lon="5.7959">
        <ele>551.5</ele>
        <time>2015-07-12T09:51:08Z</time>
      </trkpt>
      <trkpt lat="46.67395" lon="5.79582">
        <ele>551.9</ele>
        <time>2015-07-12T09:51:11Z</time>
      </trkpt>
      <trkpt lat="46.67402" lon="5.7957">
        <ele>552.3</ele>
        <time>2015-07-12T09:51:15Z</time>
      </trkpt>
      <trkpt lat="46.67411" lon="5.79559">
        <ele>552.7</ele>
        <time>2015-07-12T09:51:18Z</time>
      </trkpt>
      <trkpt lat="46.67415" lon="5.79546">
        <ele>553.2</ele>
        <time>2015-07-12T09:51:21Z</time>
      </trkpt>
      <trkpt lat="46.67422" lon="5.79532">
        <ele>554</ele>
        <time>2015-07-12T09:51:26Z</time>
      </trkpt>
      <trkpt lat="46.67431" lon="5.79523">
        <ele>554.8</ele>
        <time>2015-07-12T09:51:31Z</time>
      </trkpt>
      <trkpt lat="46.67438" lon="5.79515">
        <ele>555.5</ele>
        <time>2015-07-12T09:51:35Z</time>
      </trkpt>
      <trkpt lat="46.67447" lon="5.79506">
        <ele>556.2</ele>
        <time>2015-07-12T09:51:40Z</time>
      </trkpt>
      <trkpt lat="46.67456" lon="5.79497">
        <ele>557</ele>
        <time>2015-07-12T09:51:45Z</time>
      </trkpt>
      <trkpt lat="46.67464" lon="5.79491">
        <ele>557.4</ele>
        <time>2015-07-12T09:51:48Z</time>
      </trkpt>
      <trkpt lat="46.67474" lon="5.79487">
        <ele>558.1</ele>
        <time>2015-07-12T09:51:52Z</time>
      </trkpt>
      <trkpt lat="46.67484" lon="5.79482">
        <ele>559</ele>
        <time>2015-07-12T09:51:58Z</time>
      </trkpt>
      <trkpt lat="46.67493" lon="5.79478">
        <ele>559.8</ele>
        <time>2015-07-12T09:52:03Z</time>
      </trkpt>
      <trkpt lat="46.67501" lon="5.79473">
        <ele>560.7</ele>
        <time>2015-07-12T09:52:09Z</time>
      </trkpt>
      <trkpt lat="46.67503" lon="5.79456">
        <ele>561.6</ele>
        <time>2015-07-12T09:52:17Z</time>
      </trkpt>
      <trkpt lat="46.67502" lon="5.79438">
        <ele>561.7</ele>
        <time>2015-07-12T09:52:19Z</time>
      </trkpt>
      <trkpt lat="46.67504" lon="5.79416">
        <ele>561.5</ele>
        <time>2015-07-12T09:52:21Z</time>
      </trkpt>
      <trkpt lat="46.67506" lon="5.79393">
        <ele>561.3</ele>
        <time>2015-07-12T09:52:23Z</time>
      </trkpt>
      <trkpt lat="46.67508" lon="5.79377">
        <ele>561</ele>
        <time>2015-07-12T09:52:25Z</time>
      </trkpt>
      <trkpt lat="46.67509" lon="5.79359">
        <ele>560.6</ele>
        <time>2015-07-12T09:52:27Z</time>
      </trkpt>
      <trkpt lat="46.67513" lon="5.7934">
        <ele>560.2</ele>
        <time>2015-07-12T09:52:29Z</time>
      </trkpt>
      <trkpt lat="46.67518" lon="5.79321">
        <ele>559.6</ele>
        <time>2015-07-12T09:52:31Z</time>
      </trkpt>
      <trkpt lat="46.67523" lon="5.79303">
        <ele>559.1</ele>
        <time>2015-07-12T09:52:33Z</time>
      </trkpt>
      <trkpt lat="46.67528" lon="5.79285">
        <ele>558.7</ele>
        <time>2015-07-12T09:52:35Z</time>
      </trkpt>
      <trkpt lat="46.67533" lon="5.79267">
        <ele>558.3</ele>
        <time>2015-07-12T09:52:37Z</time>
      </trkpt>
      <trkpt lat="46.67536" lon="5.79249">
        <ele>557.9</ele>
        <time>2015-07-12T09:52:39Z</time>
      </trkpt>
      <trkpt lat="46.67539" lon="5.79231">
        <ele>557.3</ele>
        <time>2015-07-12T09:52:41Z</time>
      </trkpt>
      <trkpt lat="46.67543" lon="5.79216">
        <ele>556.7</ele>
        <time>2015-07-12T09:52:43Z</time>
      </trkpt>
      <trkpt lat="46.67548" lon="5.79204">
        <ele>556.2</ele>
        <time>2015-07-12T09:52:45Z</time>
      </trkpt>
      <trkpt lat="46.67552" lon="5.79187">
        <ele>555.6</ele>
        <time>2015-07-12T09:52:48Z</time>
      </trkpt>
      <trkpt lat="46.67556" lon="5.79174">
        <ele>555.4</ele>
        <time>2015-07-12T09:52:50Z</time>
      </trkpt>
      <trkpt lat="46.6756" lon="5.7916">
        <ele>555.1</ele>
        <time>2015-07-12T09:52:52Z</time>
      </trkpt>
      <trkpt lat="46.67565" lon="5.79148">
        <ele>554.9</ele>
        <time>2015-07-12T09:52:54Z</time>
      </trkpt>
      <trkpt lat="46.6757" lon="5.79133">
        <ele>554.5</ele>
        <time>2015-07-12T09:52:57Z</time>
      </trkpt>
      <trkpt lat="46.67576" lon="5.79117">
        <ele>554.1</ele>
        <time>2015-07-12T09:53:00Z</time>
      </trkpt>
      <trkpt lat="46.67581" lon="5.79103">
        <ele>553.6</ele>
        <time>2015-07-12T09:53:03Z</time>
      </trkpt>
      <trkpt lat="46.67585" lon="5.79088">
        <ele>553.2</ele>
        <time>2015-07-12T09:53:06Z</time>
      </trkpt>
      <trkpt lat="46.6759" lon="5.79073">
        <ele>552.9</ele>
        <time>2015-07-12T09:53:09Z</time>
      </trkpt>
      <trkpt lat="46.67597" lon="5.79063">
        <ele>552.6</ele>
        <time>2015-07-12T09:53:12Z</time>
      </trkpt>
      <trkpt lat="46.67602" lon="5.79052">
        <ele>552.5</ele>
        <time>2015-07-12T09:53:15Z</time>
      </trkpt>
      <trkpt lat="46.67611" lon="5.79043">
        <ele>552.4</ele>
        <time>2015-07-12T09:53:18Z</time>
      </trkpt>
      <trkpt lat="46.67618" lon="5.79032">
        <ele>552.3</ele>
        <time>2015-07-12T09:53:24Z</time>
      </trkpt>
      <trkpt lat="46.67624" lon="5.79022">
        <ele>552.3</ele>
        <time>2015-07-12T09:53:27Z</time>
      </trkpt>
      <trkpt lat="46.6763" lon="5.79008">
        <ele>552.3</ele>
        <time>2015-07-12T09:53:31Z</time>
      </trkpt>
      <trkpt lat="46.67636" lon="5.78997">
        <ele>552.3</ele>
        <time>2015-07-12T09:53:36Z</time>
      </trkpt>
      <trkpt lat="46.6764" lon="5.78982">
        <ele>552.4</ele>
        <time>2015-07-12T09:53:42Z</time>
      </trkpt>
      <trkpt lat="46.67648" lon="5.78971">
        <ele>552.4</ele>
        <time>2015-07-12T09:53:45Z</time>
      </trkpt>
      <trkpt lat="46.67654" lon="5.78958">
        <ele>552.4</ele>
        <time>2015-07-12T09:53:48Z</time>
      </trkpt>
      <trkpt lat="46.67659" lon="5.78945">
        <ele>552.5</ele>
        <time>2015-07-12T09:53:51Z</time>
      </trkpt>
      <trkpt lat="46.67663" lon="5.7893">
        <ele>552.5</ele>
        <time>2015-07-12T09:53:55Z</time>
      </trkpt>
      <trkpt lat="46.67668" lon="5.78917">
        <ele>552.5</ele>
        <time>2015-07-12T09:53:59Z</time>
      </trkpt>
      <trkpt lat="46.67676" lon="5.78904">
        <ele>552.5</ele>
        <time>2015-07-12T09:54:02Z</time>
      </trkpt>
      <trkpt lat="46.67685" lon="5.7889">
        <ele>552.6</ele>
        <time>2015-07-12T09:54:05Z</time>
      </trkpt>
      <trkpt lat="46.67692" lon="5.78875">
        <ele>552.6</ele>
        <time>2015-07-12T09:54:08Z</time>
      </trkpt>
      <trkpt lat="46.67696" lon="5.78864">
        <ele>552.6</ele>
        <time>2015-07-12T09:54:10Z</time>
      </trkpt>
      <trkpt lat="46.67701" lon="5.78846">
        <ele>552.7</ele>
        <time>2015-07-12T09:54:13Z</time>
      </trkpt>
      <trkpt lat="46.67707" lon="5.7883">
        <ele>552.7</ele>
        <time>2015-07-12T09:54:16Z</time>
      </trkpt>
      <trkpt lat="46.67712" lon="5.78813">
        <ele>552.8</ele>
        <time>2015-07-12T09:54:19Z</time>
      </trkpt>
      <trkpt lat="46.67717" lon="5.78794">
        <ele>552.8</ele>
        <time>2015-07-12T09:54:22Z</time>
      </trkpt>
      <trkpt lat="46.67718" lon="5.78778">
        <ele>552.8</ele>
        <time>2015-07-12T09:54:24Z</time>
      </trkpt>
      <trkpt lat="46.67719" lon="5.78761">
        <ele>552.8</ele>
        <time>2015-07-12T09:54:26Z</time>
      </trkpt>
      <trkpt lat="46.67719" lon="5.78742">
        <ele>552.9</ele>
        <time>2015-07-12T09:54:28Z</time>
      </trkpt>
      <trkpt lat="46.67719" lon="5.78721">
        <ele>552.9</ele>
        <time>2015-07-12T09:54:30Z</time>
      </trkpt>
      <trkpt lat="46.67721" lon="5.78701">
        <ele>552.7</ele>
        <time>2015-07-12T09:54:32Z</time>
      </trkpt>
      <trkpt lat="46.67724" lon="5.78682">
        <ele>552.6</ele>
        <time>2015-07-12T09:54:34Z</time>
      </trkpt>
      <trkpt lat="46.67723" lon="5.78664">
        <ele>552.5</ele>
        <time>2015-07-12T09:54:36Z</time>
      </trkpt>
      <trkpt lat="46.67723" lon="5.78648">
        <ele>552.3</ele>
        <time>2015-07-12T09:54:38Z</time>
      </trkpt>
      <trkpt lat="46.67723" lon="5.78632">
        <ele>552.2</ele>
        <time>2015-07-12T09:54:40Z</time>
      </trkpt>
      <trkpt lat="46.67724" lon="5.78618">
        <ele>552</ele>
        <time>2015-07-12T09:54:42Z</time>
      </trkpt>
      <trkpt lat="46.67725" lon="5.78602">
        <ele>551.9</ele>
        <time>2015-07-12T09:54:44Z</time>
      </trkpt>
      <trkpt lat="46.67726" lon="5.78587">
        <ele>551.8</ele>
        <time>2015-07-12T09:54:46Z</time>
      </trkpt>
      <trkpt lat="46.67728" lon="5.7857">
        <ele>551.7</ele>
        <time>2015-07-12T09:54:48Z</time>
      </trkpt>
      <trkpt lat="46.6773" lon="5.78554">
        <ele>551.6</ele>
        <time>2015-07-12T09:54:50Z</time>
      </trkpt>
      <trkpt lat="46.67732" lon="5.78537">
        <ele>551.5</ele>
        <time>2015-07-12T09:54:52Z</time>
      </trkpt>
      <trkpt lat="46.67734" lon="5.78521">
        <ele>551.4</ele>
        <time>2015-07-12T09:54:54Z</time>
      </trkpt>
      <trkpt lat="46.67737" lon="5.78506">
        <ele>551.3</ele>
        <time>2015-07-12T09:54:56Z</time>
      </trkpt>
      <trkpt lat="46.67743" lon="5.78491">
        <ele>551.2</ele>
        <time>2015-07-12T09:54:58Z</time>
      </trkpt>
      <trkpt lat="46.67748" lon="5.78477">
        <ele>551.1</ele>
        <time>2015-07-12T09:55:00Z</time>
      </trkpt>
      <trkpt lat="46.67752" lon="5.78461">
        <ele>550.9</ele>
        <time>2015-07-12T09:55:02Z</time>
      </trkpt>
      <trkpt lat="46.67756" lon="5.78445">
        <ele>550.8</ele>
        <time>2015-07-12T09:55:04Z</time>
      </trkpt>
      <trkpt lat="46.6776" lon="5.78428">
        <ele>550.6</ele>
        <time>2015-07-12T09:55:06Z</time>
      </trkpt>
      <trkpt lat="46.67766" lon="5.78412">
        <ele>550.4</ele>
        <time>2015-07-12T09:55:08Z</time>
      </trkpt>
      <trkpt lat="46.67772" lon="5.78398">
        <ele>550.2</ele>
        <time>2015-07-12T09:55:10Z</time>
      </trkpt>
      <trkpt lat="46.67778" lon="5.78385">
        <ele>550.1</ele>
        <time>2015-07-12T09:55:12Z</time>
      </trkpt>
      <trkpt lat="46.67785" lon="5.78372">
        <ele>549.9</ele>
        <time>2015-07-12T09:55:14Z</time>
      </trkpt>
      <trkpt lat="46.67792" lon="5.7836">
        <ele>549.7</ele>
        <time>2015-07-12T09:55:16Z</time>
      </trkpt>
      <trkpt lat="46.67799" lon="5.78348">
        <ele>549.5</ele>
        <time>2015-07-12T09:55:18Z</time>
      </trkpt>
      <trkpt lat="46.67805" lon="5.78335">
        <ele>549.3</ele>
        <time>2015-07-12T09:55:20Z</time>
      </trkpt>
      <trkpt lat="46.67813" lon="5.78323">
        <ele>549.1</ele>
        <time>2015-07-12T09:55:22Z</time>
      </trkpt>
      <trkpt lat="46.6782" lon="5.78312">
        <ele>548.7</ele>
        <time>2015-07-12T09:55:24Z</time>
      </trkpt>
      <trkpt lat="46.67831" lon="5.78301">
        <ele>548.4</ele>
        <time>2015-07-12T09:55:26Z</time>
      </trkpt>
      <trkpt lat="46.67844" lon="5.78289">
        <ele>548</ele>
        <time>2015-07-12T09:55:28Z</time>
      </trkpt>
      <trkpt lat="46.67858" lon="5.78279">
        <ele>547.4</ele>
        <time>2015-07-12T09:55:30Z</time>
      </trkpt>
      <trkpt lat="46.67872" lon="5.78269">
        <ele>546.9</ele>
        <time>2015-07-12T09:55:32Z</time>
      </trkpt>
      <trkpt lat="46.67883" lon="5.78251">
        <ele>546.3</ele>
        <time>2015-07-12T09:55:34Z</time>
      </trkpt>
      <trkpt lat="46.67891" lon="5.78227">
        <ele>545.6</ele>
        <time>2015-07-12T09:55:36Z</time>
      </trkpt>
      <trkpt lat="46.67895" lon="5.78214">
        <ele>545.1</ele>
        <time>2015-07-12T09:55:37Z</time>
      </trkpt>
      <trkpt lat="46.67899" lon="5.78202">
        <ele>544.7</ele>
        <time>2015-07-12T09:55:38Z</time>
      </trkpt>
      <trkpt lat="46.67903" lon="5.78188">
        <ele>544.2</ele>
        <time>2015-07-12T09:55:39Z</time>
      </trkpt>
      <trkpt lat="46.67906" lon="5.78174">
        <ele>543.7</ele>
        <time>2015-07-12T09:55:40Z</time>
      </trkpt>
      <trkpt lat="46.67907" lon="5.78159">
        <ele>543.3</ele>
        <time>2015-07-12T09:55:41Z</time>
      </trkpt>
      <trkpt lat="46.67908" lon="5.78144">
        <ele>542.8</ele>
        <time>2015-07-12T09:55:42Z</time>
      </trkpt>
      <trkpt lat="46.67908" lon="5.78129">
        <ele>542.4</ele>
        <time>2015-07-12T09:55:43Z</time>
      </trkpt>
      <trkpt lat="46.67908" lon="5.78115">
        <ele>541.8</ele>
        <time>2015-07-12T09:55:44Z</time>
      </trkpt>
      <trkpt lat="46.67908" lon="5.78101">
        <ele>541.3</ele>
        <time>2015-07-12T09:55:45Z</time>
      </trkpt>
      <trkpt lat="46.67909" lon="5.78087">
        <ele>540.8</ele>
        <time>2015-07-12T09:55:46Z</time>
      </trkpt>
      <trkpt lat="46.67911" lon="5.78073">
        <ele>540.3</ele>
        <time>2015-07-12T09:55:47Z</time>
      </trkpt>
      <trkpt lat="46.67913" lon="5.7806">
        <ele>539.8</ele>
        <time>2015-07-12T09:55:48Z</time>
      </trkpt>
      <trkpt lat="46.67917" lon="5.78047">
        <ele>539.4</ele>
        <time>2015-07-12T09:55:49Z</time>
      </trkpt>
      <trkpt lat="46.67922" lon="5.78035">
        <ele>538.9</ele>
        <time>2015-07-12T09:55:50Z</time>
      </trkpt>
      <trkpt lat="46.67926" lon="5.78024">
        <ele>538.5</ele>
        <time>2015-07-12T09:55:51Z</time>
      </trkpt>
      <trkpt lat="46.67936" lon="5.78004">
        <ele>537.6</ele>
        <time>2015-07-12T09:55:53Z</time>
      </trkpt>
      <trkpt lat="46.67942" lon="5.77992">
        <ele>536.7</ele>
        <time>2015-07-12T09:55:55Z</time>
      </trkpt>
      <trkpt lat="46.67928" lon="5.77998">
        <ele>533.6</ele>
        <time>2015-07-12T09:56:03Z</time>
      </trkpt>
      <trkpt lat="46.6792" lon="5.78007">
        <ele>532.8</ele>
        <time>2015-07-12T09:56:05Z</time>
      </trkpt>
      <trkpt lat="46.67911" lon="5.78008">
        <ele>531.6</ele>
        <time>2015-07-12T09:56:08Z</time>
      </trkpt>
      <trkpt lat="46.67907" lon="5.77992">
        <ele>530.4</ele>
        <time>2015-07-12T09:56:11Z</time>
      </trkpt>
      <trkpt lat="46.67905" lon="5.77977">
        <ele>529.4</ele>
        <time>2015-07-12T09:56:14Z</time>
      </trkpt>
      <trkpt lat="46.67905" lon="5.77959">
        <ele>528.6</ele>
        <time>2015-07-12T09:56:17Z</time>
      </trkpt>
      <trkpt lat="46.67902" lon="5.77945">
        <ele>527.8</ele>
        <time>2015-07-12T09:56:21Z</time>
      </trkpt>
      <trkpt lat="46.67892" lon="5.77938">
        <ele>527.6</ele>
        <time>2015-07-12T09:56:27Z</time>
      </trkpt>
      <trkpt lat="46.67885" lon="5.7793">
        <ele>527.8</ele>
        <time>2015-07-12T09:56:32Z</time>
      </trkpt>
      <trkpt lat="46.67877" lon="5.77919">
        <ele>528</ele>
        <time>2015-07-12T09:56:36Z</time>
      </trkpt>
      <trkpt lat="46.67869" lon="5.77909">
        <ele>528.3</ele>
        <time>2015-07-12T09:56:40Z</time>
      </trkpt>
      <trkpt lat="46.67862" lon="5.77901">
        <ele>528.7</ele>
        <time>2015-07-12T09:56:44Z</time>
      </trkpt>
      <trkpt lat="46.67853" lon="5.77892">
        <ele>529.3</ele>
        <time>2015-07-12T09:56:49Z</time>
      </trkpt>
      <trkpt lat="46.67848" lon="5.77878">
        <ele>530</ele>
        <time>2015-07-12T09:56:54Z</time>
      </trkpt>
      <trkpt lat="46.67842" lon="5.77868">
        <ele>532.2</ele>
        <time>2015-07-12T09:57:19Z</time>
      </trkpt>
      <trkpt lat="46.67843" lon="5.77854">
        <ele>532.8</ele>
        <time>2015-07-12T09:57:33Z</time>
      </trkpt>
      <trkpt lat="46.67847" lon="5.77839">
        <ele>533.2</ele>
        <time>2015-07-12T09:57:37Z</time>
      </trkpt>
      <trkpt lat="46.67852" lon="5.77824">
        <ele>533.6</ele>
        <time>2015-07-12T09:57:41Z</time>
      </trkpt>
      <trkpt lat="46.67858" lon="5.77813">
        <ele>534.1</ele>
        <time>2015-07-12T09:57:45Z</time>
      </trkpt>
      <trkpt lat="46.67864" lon="5.77803">
        <ele>534.5</ele>
        <time>2015-07-12T09:57:49Z</time>
      </trkpt>
      <trkpt lat="46.6787" lon="5.77791">
        <ele>535</ele>
        <time>2015-07-12T09:57:53Z</time>
      </trkpt>
      <trkpt lat="46.67878" lon="5.77781">
        <ele>535.5</ele>
        <time>2015-07-12T09:57:57Z</time>
      </trkpt>
      <trkpt lat="46.67885" lon="5.7777">
        <ele>536.1</ele>
        <time>2015-07-12T09:58:01Z</time>
      </trkpt>
      <trkpt lat="46.67893" lon="5.77759">
        <ele>536.6</ele>
        <time>2015-07-12T09:58:05Z</time>
      </trkpt>
      <trkpt lat="46.679" lon="5.77749">
        <ele>537.1</ele>
        <time>2015-07-12T09:58:09Z</time>
      </trkpt>
      <trkpt lat="46.67907" lon="5.77739">
        <ele>537.7</ele>
        <time>2015-07-12T09:58:13Z</time>
      </trkpt>
      <trkpt lat="46.67915" lon="5.77729">
        <ele>538.2</ele>
        <time>2015-07-12T09:58:17Z</time>
      </trkpt>
      <trkpt lat="46.67921" lon="5.77719">
        <ele>538.8</ele>
        <time>2015-07-12T09:58:21Z</time>
      </trkpt>
      <trkpt lat="46.67928" lon="5.77709">
        <ele>539.4</ele>
        <time>2015-07-12T09:58:25Z</time>
      </trkpt>
      <trkpt lat="46.67935" lon="5.77698">
        <ele>540</ele>
        <time>2015-07-12T09:58:29Z</time>
      </trkpt>
      <trkpt lat="46.67942" lon="5.77688">
        <ele>540.6</ele>
        <time>2015-07-12T09:58:33Z</time>
      </trkpt>
      <trkpt lat="46.6795" lon="5.77678">
        <ele>541.3</ele>
        <time>2015-07-12T09:58:38Z</time>
      </trkpt>
      <trkpt lat="46.67959" lon="5.7767">
        <ele>541.9</ele>
        <time>2015-07-12T09:58:42Z</time>
      </trkpt>
      <trkpt lat="46.67966" lon="5.77657">
        <ele>542.6</ele>
        <time>2015-07-12T09:58:47Z</time>
      </trkpt>
      <trkpt lat="46.67973" lon="5.77645">
        <ele>543.3</ele>
        <time>2015-07-12T09:58:52Z</time>
      </trkpt>
      <trkpt lat="46.6798" lon="5.77634">
        <ele>544.2</ele>
        <time>2015-07-12T09:58:57Z</time>
      </trkpt>
      <trkpt lat="46.67988" lon="5.77622">
        <ele>545.1</ele>
        <time>2015-07-12T09:59:02Z</time>
      </trkpt>
      <trkpt lat="46.67993" lon="5.7761">
        <ele>545.8</ele>
        <time>2015-07-12T09:59:06Z</time>
      </trkpt>
      <trkpt lat="46.67999" lon="5.77595">
        <ele>546.6</ele>
        <time>2015-07-12T09:59:11Z</time>
      </trkpt>
      <trkpt lat="46.68004" lon="5.7758">
        <ele>547.2</ele>
        <time>2015-07-12T09:59:15Z</time>
      </trkpt>
      <trkpt lat="46.68011" lon="5.7757">
        <ele>547.6</ele>
        <time>2015-07-12T09:59:18Z</time>
      </trkpt>
      <trkpt lat="46.68018" lon="5.77561">
        <ele>547.8</ele>
        <time>2015-07-12T09:59:21Z</time>
      </trkpt>
      <trkpt lat="46.68026" lon="5.77551">
        <ele>548.2</ele>
        <time>2015-07-12T09:59:24Z</time>
      </trkpt>
      <trkpt lat="46.68034" lon="5.77541">
        <ele>548.6</ele>
        <time>2015-07-12T09:59:27Z</time>
      </trkpt>
      <trkpt lat="46.68041" lon="5.77528">
        <ele>549</ele>
        <time>2015-07-12T09:59:31Z</time>
      </trkpt>
      <trkpt lat="46.68046" lon="5.77516">
        <ele>549.6</ele>
        <time>2015-07-12T09:59:35Z</time>
      </trkpt>
      <trkpt lat="46.68047" lon="5.77501">
        <ele>550.2</ele>
        <time>2015-07-12T09:59:39Z</time>
      </trkpt>
      <trkpt lat="46.68046" lon="5.77487">
        <ele>550.6</ele>
        <time>2015-07-12T09:59:42Z</time>
      </trkpt>
      <trkpt lat="46.68046" lon="5.77472">
        <ele>551.1</ele>
        <time>2015-07-12T09:59:45Z</time>
      </trkpt>
      <trkpt lat="46.68045" lon="5.77457">
        <ele>551.5</ele>
        <time>2015-07-12T09:59:48Z</time>
      </trkpt>
      <trkpt lat="46.68044" lon="5.77443">
        <ele>551.8</ele>
        <time>2015-07-12T09:59:51Z</time>
      </trkpt>
      <trkpt lat="46.68042" lon="5.77429">
        <ele>552.1</ele>
        <time>2015-07-12T09:59:54Z</time>
      </trkpt>
      <trkpt lat="46.68039" lon="5.77415">
        <ele>552.4</ele>
        <time>2015-07-12T09:59:57Z</time>
      </trkpt>
      <trkpt lat="46.68037" lon="5.77402">
        <ele>552.8</ele>
        <time>2015-07-12T10:00:00Z</time>
      </trkpt>
      <trkpt lat="46.68035" lon="5.77388">
        <ele>553.1</ele>
        <time>2015-07-12T10:00:03Z</time>
      </trkpt>
      <trkpt lat="46.68033" lon="5.77374">
        <ele>553.4</ele>
        <time>2015-07-12T10:00:06Z</time>
      </trkpt>
      <trkpt lat="46.68032" lon="5.77359">
        <ele>553.6</ele>
        <time>2015-07-12T10:00:09Z</time>
      </trkpt>
      <trkpt lat="46.68031" lon="5.77345">
        <ele>553.8</ele>
        <time>2015-07-12T10:00:12Z</time>
      </trkpt>
      <trkpt lat="46.68029" lon="5.77331">
        <ele>554</ele>
        <time>2015-07-12T10:00:15Z</time>
      </trkpt>
      <trkpt lat="46.68026" lon="5.77315">
        <ele>554.2</ele>
        <time>2015-07-12T10:00:19Z</time>
      </trkpt>
      <trkpt lat="46.68036" lon="5.77325">
        <ele>554.9</ele>
        <time>2015-07-12T10:01:40Z</time>
      </trkpt>
      <trkpt lat="46.68044" lon="5.77336">
        <ele>554.8</ele>
        <time>2015-07-12T10:01:43Z</time>
      </trkpt>
      <trkpt lat="46.68053" lon="5.7735">
        <ele>554.7</ele>
        <time>2015-07-12T10:01:46Z</time>
      </trkpt>
      <trkpt lat="46.68059" lon="5.7736">
        <ele>554.5</ele>
        <time>2015-07-12T10:01:48Z</time>
      </trkpt>
      <trkpt lat="46.68065" lon="5.7737">
        <ele>554.3</ele>
        <time>2015-07-12T10:01:50Z</time>
      </trkpt>
      <trkpt lat="46.68072" lon="5.77382">
        <ele>553.8</ele>
        <time>2015-07-12T10:01:52Z</time>
      </trkpt>
      <trkpt lat="46.68079" lon="5.77396">
        <ele>553.3</ele>
        <time>2015-07-12T10:01:54Z</time>
      </trkpt>
      <trkpt lat="46.68085" lon="5.77409">
        <ele>552.8</ele>
        <time>2015-07-12T10:01:56Z</time>
      </trkpt>
      <trkpt lat="46.6809" lon="5.77421">
        <ele>552.2</ele>
        <time>2015-07-12T10:01:58Z</time>
      </trkpt>
      <trkpt lat="46.68095" lon="5.77432">
        <ele>551.7</ele>
        <time>2015-07-12T10:02:00Z</time>
      </trkpt>
      <trkpt lat="46.68101" lon="5.77448">
        <ele>550.9</ele>
        <time>2015-07-12T10:02:03Z</time>
      </trkpt>
      <trkpt lat="46.68106" lon="5.77464">
        <ele>550.1</ele>
        <time>2015-07-12T10:02:06Z</time>
      </trkpt>
      <trkpt lat="46.68112" lon="5.7748">
        <ele>548.7</ele>
        <time>2015-07-12T10:02:09Z</time>
      </trkpt>
      <trkpt lat="46.6812" lon="5.77491">
        <ele>547.4</ele>
        <time>2015-07-12T10:02:12Z</time>
      </trkpt>
      <trkpt lat="46.68131" lon="5.77497">
        <ele>546.3</ele>
        <time>2015-07-12T10:02:15Z</time>
      </trkpt>
      <trkpt lat="46.68141" lon="5.77501">
        <ele>544.7</ele>
        <time>2015-07-12T10:02:19Z</time>
      </trkpt>
      <trkpt lat="46.68151" lon="5.77504">
        <ele>543.5</ele>
        <time>2015-07-12T10:02:22Z</time>
      </trkpt>
      <trkpt lat="46.68164" lon="5.77507">
        <ele>542.4</ele>
        <time>2015-07-12T10:02:25Z</time>
      </trkpt>
      <trkpt lat="46.68174" lon="5.77513">
        <ele>541.2</ele>
        <time>2015-07-12T10:02:27Z</time>
      </trkpt>
      <trkpt lat="46.68186" lon="5.7752">
        <ele>539.6</ele>
        <time>2015-07-12T10:02:30Z</time>
      </trkpt>
      <trkpt lat="46.68195" lon="5.77524">
        <ele>538.7</ele>
        <time>2015-07-12T10:02:32Z</time>
      </trkpt>
      <trkpt lat="46.68206" lon="5.77528">
        <ele>537.7</ele>
        <time>2015-07-12T10:02:34Z</time>
      </trkpt>
      <trkpt lat="46.68217" lon="5.77531">
        <ele>536.7</ele>
        <time>2015-07-12T10:02:36Z</time>
      </trkpt>
      <trkpt lat="46.68227" lon="5.77535">
        <ele>535.7</ele>
        <time>2015-07-12T10:02:38Z</time>
      </trkpt>
      <trkpt lat="46.68238" lon="5.7754">
        <ele>534.7</ele>
        <time>2015-07-12T10:02:40Z</time>
      </trkpt>
      <trkpt lat="46.68249" lon="5.77544">
        <ele>533.7</ele>
        <time>2015-07-12T10:02:42Z</time>
      </trkpt>
      <trkpt lat="46.68261" lon="5.77545">
        <ele>532.7</ele>
        <time>2015-07-12T10:02:44Z</time>
      </trkpt>
      <trkpt lat="46.68272" lon="5.77545">
        <ele>531.8</ele>
        <time>2015-07-12T10:02:46Z</time>
      </trkpt>
      <trkpt lat="46.68285" lon="5.77543">
        <ele>530.3</ele>
        <time>2015-07-12T10:02:49Z</time>
      </trkpt>
      <trkpt lat="46.68294" lon="5.77543">
        <ele>529.2</ele>
        <time>2015-07-12T10:02:51Z</time>
      </trkpt>
      <trkpt lat="46.68307" lon="5.77541">
        <ele>528.1</ele>
        <time>2015-07-12T10:02:53Z</time>
      </trkpt>
      <trkpt lat="46.68321" lon="5.77542">
        <ele>527.1</ele>
        <time>2015-07-12T10:02:55Z</time>
      </trkpt>
      <trkpt lat="46.68335" lon="5.77546">
        <ele>526.2</ele>
        <time>2015-07-12T10:02:57Z</time>
      </trkpt>
      <trkpt lat="46.68347" lon="5.77552">
        <ele>525.3</ele>
        <time>2015-07-12T10:02:59Z</time>
      </trkpt>
      <trkpt lat="46.68357" lon="5.77564">
        <ele>524.5</ele>
        <time>2015-07-12T10:03:01Z</time>
      </trkpt>
      <trkpt lat="46.68362" lon="5.77577">
        <ele>523.7</ele>
        <time>2015-07-12T10:03:03Z</time>
      </trkpt>
      <trkpt lat="46.68367" lon="5.77593">
        <ele>522.7</ele>
        <time>2015-07-12T10:03:06Z</time>
      </trkpt>
      <trkpt lat="46.68371" lon="5.77606">
        <ele>521.9</ele>
        <time>2015-07-12T10:03:09Z</time>
      </trkpt>
      <trkpt lat="46.68375" lon="5.77621">
        <ele>521.3</ele>
        <time>2015-07-12T10:03:13Z</time>
      </trkpt>
      <trkpt lat="46.6838" lon="5.77636">
        <ele>521.2</ele>
        <time>2015-07-12T10:03:18Z</time>
      </trkpt>
      <trkpt lat="46.68384" lon="5.77649">
        <ele>521.2</ele>
        <time>2015-07-12T10:03:22Z</time>
      </trkpt>
      <trkpt lat="46.68388" lon="5.77663">
        <ele>521.4</ele>
        <time>2015-07-12T10:03:27Z</time>
      </trkpt>
      <trkpt lat="46.68393" lon="5.77674">
        <ele>521.9</ele>
        <time>2015-07-12T10:03:31Z</time>
      </trkpt>
      <trkpt lat="46.68398" lon="5.77686">
        <ele>522.5</ele>
        <time>2015-07-12T10:03:35Z</time>
      </trkpt>
      <trkpt lat="46.68405" lon="5.77696">
        <ele>523.1</ele>
        <time>2015-07-12T10:03:39Z</time>
      </trkpt>
      <trkpt lat="46.68412" lon="5.77708">
        <ele>523.7</ele>
        <time>2015-07-12T10:03:43Z</time>
      </trkpt>
      <trkpt lat="46.68418" lon="5.77718">
        <ele>524.4</ele>
        <time>2015-07-12T10:03:47Z</time>
      </trkpt>
      <trkpt lat="46.68427" lon="5.77728">
        <ele>525.3</ele>
        <time>2015-07-12T10:03:52Z</time>
      </trkpt>
      <trkpt lat="46.68435" lon="5.77735">
        <ele>526.1</ele>
        <time>2015-07-12T10:03:57Z</time>
      </trkpt>
      <trkpt lat="46.68444" lon="5.77744">
        <ele>527</ele>
        <time>2015-07-12T10:04:02Z</time>
      </trkpt>
      <trkpt lat="46.68453" lon="5.77749">
        <ele>527.7</ele>
        <time>2015-07-12T10:04:06Z</time>
      </trkpt>
      <trkpt lat="46.68462" lon="5.77754">
        <ele>528.4</ele>
        <time>2015-07-12T10:04:10Z</time>
      </trkpt>
      <trkpt lat="46.68472" lon="5.7776">
        <ele>529.3</ele>
        <time>2015-07-12T10:04:15Z</time>
      </trkpt>
      <trkpt lat="46.6848" lon="5.77769">
        <ele>530.3</ele>
        <time>2015-07-12T10:04:20Z</time>
      </trkpt>
      <trkpt lat="46.68488" lon="5.77779">
        <ele>531</ele>
        <time>2015-07-12T10:04:24Z</time>
      </trkpt>
      <trkpt lat="46.68498" lon="5.77776">
        <ele>531.7</ele>
        <time>2015-07-12T10:04:28Z</time>
      </trkpt>
      <trkpt lat="46.68507" lon="5.77765">
        <ele>532.4</ele>
        <time>2015-07-12T10:04:32Z</time>
      </trkpt>
      <trkpt lat="46.68514" lon="5.77754">
        <ele>532.8</ele>
        <time>2015-07-12T10:04:35Z</time>
      </trkpt>
      <trkpt lat="46.68521" lon="5.77744">
        <ele>533.2</ele>
        <time>2015-07-12T10:04:38Z</time>
      </trkpt>
      <trkpt lat="46.68528" lon="5.77735">
        <ele>533.6</ele>
        <time>2015-07-12T10:04:41Z</time>
      </trkpt>
      <trkpt lat="46.68534" lon="5.77724">
        <ele>533.9</ele>
        <time>2015-07-12T10:04:44Z</time>
      </trkpt>
      <trkpt lat="46.68541" lon="5.77715">
        <ele>534.3</ele>
        <time>2015-07-12T10:04:47Z</time>
      </trkpt>
      <trkpt lat="46.68547" lon="5.77705">
        <ele>534.7</ele>
        <time>2015-07-12T10:04:50Z</time>
      </trkpt>
      <trkpt lat="46.68555" lon="5.77696">
        <ele>535.1</ele>
        <time>2015-07-12T10:04:53Z</time>
      </trkpt>
      <trkpt lat="46.68561" lon="5.77687">
        <ele>535.6</ele>
        <time>2015-07-12T10:04:56Z</time>
      </trkpt>
      <trkpt lat="46.68568" lon="5.77678">
        <ele>536.1</ele>
        <time>2015-07-12T10:04:59Z</time>
      </trkpt>
      <trkpt lat="46.68575" lon="5.77669">
        <ele>536.5</ele>
        <time>2015-07-12T10:05:02Z</time>
      </trkpt>
      <trkpt lat="46.68582" lon="5.7766">
        <ele>536.9</ele>
        <time>2015-07-12T10:05:05Z</time>
      </trkpt>
      <trkpt lat="46.68589" lon="5.77651">
        <ele>537.2</ele>
        <time>2015-07-12T10:05:08Z</time>
      </trkpt>
      <trkpt lat="46.68597" lon="5.77643">
        <ele>537.5</ele>
        <time>2015-07-12T10:05:11Z</time>
      </trkpt>
      <trkpt lat="46.68605" lon="5.77633">
        <ele>537.9</ele>
        <time>2015-07-12T10:05:14Z</time>
      </trkpt>
      <trkpt lat="46.68614" lon="5.77624">
        <ele>538.1</ele>
        <time>2015-07-12T10:05:17Z</time>
      </trkpt>
      <trkpt lat="46.68622" lon="5.77613">
        <ele>538.4</ele>
        <time>2015-07-12T10:05:20Z</time>
      </trkpt>
      <trkpt lat="46.6863" lon="5.77602">
        <ele>538.6</ele>
        <time>2015-07-12T10:05:23Z</time>
      </trkpt>
      <trkpt lat="46.68639" lon="5.7759">
        <ele>538.8</ele>
        <time>2015-07-12T10:05:26Z</time>
      </trkpt>
      <trkpt lat="46.68647" lon="5.77578">
        <ele>539.1</ele>
        <time>2015-07-12T10:05:29Z</time>
      </trkpt>
      <trkpt lat="46.68656" lon="5.77566">
        <ele>539.4</ele>
        <time>2015-07-12T10:05:32Z</time>
      </trkpt>
      <trkpt lat="46.68665" lon="5.77553">
        <ele>539.7</ele>
        <time>2015-07-12T10:05:35Z</time>
      </trkpt>
      <trkpt lat="46.6867" lon="5.77542">
        <ele>539.9</ele>
        <time>2015-07-12T10:05:37Z</time>
      </trkpt>
      <trkpt lat="46.68675" lon="5.7753">
        <ele>540</ele>
        <time>2015-07-12T10:05:39Z</time>
      </trkpt>
      <trkpt lat="46.6868" lon="5.77519">
        <ele>540.1</ele>
        <time>2015-07-12T10:05:41Z</time>
      </trkpt>
      <trkpt lat="46.68686" lon="5.77506">
        <ele>540.2</ele>
        <time>2015-07-12T10:05:43Z</time>
      </trkpt>
      <trkpt lat="46.68692" lon="5.77492">
        <ele>540.2</ele>
        <time>2015-07-12T10:05:45Z</time>
      </trkpt>
      <trkpt lat="46.68698" lon="5.77475">
        <ele>540</ele>
        <time>2015-07-12T10:05:47Z</time>
      </trkpt>
      <trkpt lat="46.68702" lon="5.77457">
        <ele>539.7</ele>
        <time>2015-07-12T10:05:49Z</time>
      </trkpt>
      <trkpt lat="46.68699" lon="5.77436">
        <ele>539.3</ele>
        <time>2015-07-12T10:05:51Z</time>
      </trkpt>
      <trkpt lat="46.6869" lon="5.77417">
        <ele>538.8</ele>
        <time>2015-07-12T10:05:53Z</time>
      </trkpt>
      <trkpt lat="46.68681" lon="5.77398">
        <ele>538.2</ele>
        <time>2015-07-12T10:05:55Z</time>
      </trkpt>
      <trkpt lat="46.68671" lon="5.77379">
        <ele>537.7</ele>
        <time>2015-07-12T10:05:57Z</time>
      </trkpt>
      <trkpt lat="46.6866" lon="5.77359">
        <ele>537.1</ele>
        <time>2015-07-12T10:05:59Z</time>
      </trkpt>
      <trkpt lat="46.68648" lon="5.7734">
        <ele>536.5</ele>
        <time>2015-07-12T10:06:01Z</time>
      </trkpt>
      <trkpt lat="46.68641" lon="5.7733">
        <ele>536.1</ele>
        <time>2015-07-12T10:06:02Z</time>
      </trkpt>
      <trkpt lat="46.68634" lon="5.77321">
        <ele>535.6</ele>
        <time>2015-07-12T10:06:03Z</time>
      </trkpt>
      <trkpt lat="46.68627" lon="5.77312">
        <ele>535.1</ele>
        <time>2015-07-12T10:06:04Z</time>
      </trkpt>
      <trkpt lat="46.68614" lon="5.77295">
        <ele>534.3</ele>
        <time>2015-07-12T10:06:06Z</time>
      </trkpt>
      <trkpt lat="46.68604" lon="5.77278">
        <ele>533.7</ele>
        <time>2015-07-12T10:06:08Z</time>
      </trkpt>
      <trkpt lat="46.68594" lon="5.77262">
        <ele>533.1</ele>
        <time>2015-07-12T10:06:10Z</time>
      </trkpt>
      <trkpt lat="46.68587" lon="5.77247">
        <ele>532.5</ele>
        <time>2015-07-12T10:06:12Z</time>
      </trkpt>
      <trkpt lat="46.68582" lon="5.77233">
        <ele>532.1</ele>
        <time>2015-07-12T10:06:14Z</time>
      </trkpt>
      <trkpt lat="46.68577" lon="5.77222">
        <ele>531.7</ele>
        <time>2015-07-12T10:06:16Z</time>
      </trkpt>
      <trkpt lat="46.68571" lon="5.7721">
        <ele>531.3</ele>
        <time>2015-07-12T10:06:18Z</time>
      </trkpt>
      <trkpt lat="46.68566" lon="5.77197">
        <ele>531</ele>
        <time>2015-07-12T10:06:20Z</time>
      </trkpt>
      <trkpt lat="46.6856" lon="5.77184">
        <ele>530.7</ele>
        <time>2015-07-12T10:06:22Z</time>
      </trkpt>
      <trkpt lat="46.68556" lon="5.77167">
        <ele>530.3</ele>
        <time>2015-07-12T10:06:24Z</time>
      </trkpt>
      <trkpt lat="46.68552" lon="5.77152">
        <ele>529.7</ele>
        <time>2015-07-12T10:06:26Z</time>
      </trkpt>
      <trkpt lat="46.68551" lon="5.77138">
        <ele>529.1</ele>
        <time>2015-07-12T10:06:28Z</time>
      </trkpt>
      <trkpt lat="46.6855" lon="5.77124">
        <ele>528.3</ele>
        <time>2015-07-12T10:06:30Z</time>
      </trkpt>
      <trkpt lat="46.6855" lon="5.77109">
        <ele>527.3</ele>
        <time>2015-07-12T10:06:32Z</time>
      </trkpt>
      <trkpt lat="46.68548" lon="5.77089">
        <ele>526.4</ele>
        <time>2015-07-12T10:06:34Z</time>
      </trkpt>
      <trkpt lat="46.68543" lon="5.77068">
        <ele>525.2</ele>
        <time>2015-07-12T10:06:36Z</time>
      </trkpt>
      <trkpt lat="46.68537" lon="5.77045">
        <ele>524.1</ele>
        <time>2015-07-12T10:06:38Z</time>
      </trkpt>
      <trkpt lat="46.68531" lon="5.77022">
        <ele>523.1</ele>
        <time>2015-07-12T10:06:40Z</time>
      </trkpt>
      <trkpt lat="46.68526" lon="5.76999">
        <ele>521.9</ele>
        <time>2015-07-12T10:06:42Z</time>
      </trkpt>
      <trkpt lat="46.68525" lon="5.76977">
        <ele>520.8</ele>
        <time>2015-07-12T10:06:44Z</time>
      </trkpt>
      <trkpt lat="46.68524" lon="5.76954">
        <ele>519.7</ele>
        <time>2015-07-12T10:06:46Z</time>
      </trkpt>
      <trkpt lat="46.68523" lon="5.76931">
        <ele>518.9</ele>
        <time>2015-07-12T10:06:48Z</time>
      </trkpt>
      <trkpt lat="46.68525" lon="5.76909">
        <ele>517.9</ele>
        <time>2015-07-12T10:06:50Z</time>
      </trkpt>
      <trkpt lat="46.68527" lon="5.76889">
        <ele>516.9</ele>
        <time>2015-07-12T10:06:52Z</time>
      </trkpt>
      <trkpt lat="46.68531" lon="5.76869">
        <ele>516</ele>
        <time>2015-07-12T10:06:54Z</time>
      </trkpt>
      <trkpt lat="46.68533" lon="5.76847">
        <ele>515.2</ele>
        <time>2015-07-12T10:06:56Z</time>
      </trkpt>
      <trkpt lat="46.68534" lon="5.76823">
        <ele>514.4</ele>
        <time>2015-07-12T10:06:58Z</time>
      </trkpt>
      <trkpt lat="46.68534" lon="5.768">
        <ele>513.5</ele>
        <time>2015-07-12T10:07:00Z</time>
      </trkpt>
      <trkpt lat="46.68534" lon="5.76775">
        <ele>512.6</ele>
        <time>2015-07-12T10:07:02Z</time>
      </trkpt>
      <trkpt lat="46.68535" lon="5.76751">
        <ele>511.6</ele>
        <time>2015-07-12T10:07:04Z</time>
      </trkpt>
      <trkpt lat="46.68537" lon="5.76735">
        <ele>510.8</ele>
        <time>2015-07-12T10:07:06Z</time>
      </trkpt>
      <trkpt lat="46.68542" lon="5.76723">
        <ele>509.8</ele>
        <time>2015-07-12T10:07:08Z</time>
      </trkpt>
      <trkpt lat="46.6855" lon="5.76713">
        <ele>509</ele>
        <time>2015-07-12T10:07:10Z</time>
      </trkpt>
      <trkpt lat="46.68561" lon="5.76709">
        <ele>508.1</ele>
        <time>2015-07-12T10:07:12Z</time>
      </trkpt>
      <trkpt lat="46.68572" lon="5.76713">
        <ele>507.4</ele>
        <time>2015-07-12T10:07:14Z</time>
      </trkpt>
      <trkpt lat="46.68582" lon="5.76715">
        <ele>506.7</ele>
        <time>2015-07-12T10:07:16Z</time>
      </trkpt>
      <trkpt lat="46.68594" lon="5.76718">
        <ele>506</ele>
        <time>2015-07-12T10:07:18Z</time>
      </trkpt>
      <trkpt lat="46.68604" lon="5.76721">
        <ele>505.3</ele>
        <time>2015-07-12T10:07:20Z</time>
      </trkpt>
      <trkpt lat="46.68615" lon="5.76721">
        <ele>504.8</ele>
        <time>2015-07-12T10:07:22Z</time>
      </trkpt>
      <trkpt lat="46.68626" lon="5.76721">
        <ele>504.3</ele>
        <time>2015-07-12T10:07:24Z</time>
      </trkpt>
      <trkpt lat="46.68636" lon="5.76722">
        <ele>503.8</ele>
        <time>2015-07-12T10:07:26Z</time>
      </trkpt>
      <trkpt lat="46.68647" lon="5.76722">
        <ele>503.5</ele>
        <time>2015-07-12T10:07:28Z</time>
      </trkpt>
      <trkpt lat="46.68658" lon="5.7672">
        <ele>503.1</ele>
        <time>2015-07-12T10:07:30Z</time>
      </trkpt>
      <trkpt lat="46.68668" lon="5.76716">
        <ele>502.8</ele>
        <time>2015-07-12T10:07:32Z</time>
      </trkpt>
      <trkpt lat="46.68677" lon="5.76711">
        <ele>502.6</ele>
        <time>2015-07-12T10:07:34Z</time>
      </trkpt>
      <trkpt lat="46.68687" lon="5.76705">
        <ele>502.4</ele>
        <time>2015-07-12T10:07:36Z</time>
      </trkpt>
      <trkpt lat="46.68697" lon="5.76697">
        <ele>502.2</ele>
        <time>2015-07-12T10:07:38Z</time>
      </trkpt>
      <trkpt lat="46.68706" lon="5.7669">
        <ele>502</ele>
        <time>2015-07-12T10:07:40Z</time>
      </trkpt>
      <trkpt lat="46.68714" lon="5.76681">
        <ele>501.9</ele>
        <time>2015-07-12T10:07:42Z</time>
      </trkpt>
      <trkpt lat="46.68722" lon="5.76671">
        <ele>501.8</ele>
        <time>2015-07-12T10:07:44Z</time>
      </trkpt>
      <trkpt lat="46.68728" lon="5.76656">
        <ele>501.7</ele>
        <time>2015-07-12T10:07:47Z</time>
      </trkpt>
      <trkpt lat="46.68729" lon="5.76642">
        <ele>501.8</ele>
        <time>2015-07-12T10:07:50Z</time>
      </trkpt>
      <trkpt lat="46.6873" lon="5.76625">
        <ele>501.8</ele>
        <time>2015-07-12T10:07:54Z</time>
      </trkpt>
      <trkpt lat="46.68733" lon="5.76611">
        <ele>502</ele>
        <time>2015-07-12T10:07:58Z</time>
      </trkpt>
      <trkpt lat="46.68736" lon="5.76597">
        <ele>502.4</ele>
        <time>2015-07-12T10:08:02Z</time>
      </trkpt>
      <trkpt lat="46.6874" lon="5.76584">
        <ele>502.8</ele>
        <time>2015-07-12T10:08:06Z</time>
      </trkpt>
      <trkpt lat="46.68744" lon="5.76569">
        <ele>503.2</ele>
        <time>2015-07-12T10:08:10Z</time>
      </trkpt>
      <trkpt lat="46.68745" lon="5.76553">
        <ele>503.8</ele>
        <time>2015-07-12T10:08:14Z</time>
      </trkpt>
      <trkpt lat="46.68746" lon="5.76539">
        <ele>504.3</ele>
        <time>2015-07-12T10:08:18Z</time>
      </trkpt>
      <trkpt lat="46.68747" lon="5.76525">
        <ele>504.7</ele>
        <time>2015-07-12T10:08:21Z</time>
      </trkpt>
      <trkpt lat="46.68749" lon="5.76512">
        <ele>505</ele>
        <time>2015-07-12T10:08:24Z</time>
      </trkpt>
      <trkpt lat="46.68753" lon="5.76498">
        <ele>505.6</ele>
        <time>2015-07-12T10:08:28Z</time>
      </trkpt>
      <trkpt lat="46.68755" lon="5.76483">
        <ele>506.1</ele>
        <time>2015-07-12T10:08:32Z</time>
      </trkpt>
      <trkpt lat="46.68757" lon="5.76468">
        <ele>506.7</ele>
        <time>2015-07-12T10:08:36Z</time>
      </trkpt>
      <trkpt lat="46.68759" lon="5.76454">
        <ele>507.3</ele>
        <time>2015-07-12T10:08:40Z</time>
      </trkpt>
      <trkpt lat="46.68761" lon="5.7644">
        <ele>507.8</ele>
        <time>2015-07-12T10:08:44Z</time>
      </trkpt>
      <trkpt lat="46.68762" lon="5.76427">
        <ele>508.5</ele>
        <time>2015-07-12T10:08:48Z</time>
      </trkpt>
      <trkpt lat="46.68763" lon="5.76411">
        <ele>509.1</ele>
        <time>2015-07-12T10:08:53Z</time>
      </trkpt>
      <trkpt lat="46.68765" lon="5.76398">
        <ele>509.6</ele>
        <time>2015-07-12T10:08:57Z</time>
      </trkpt>
      <trkpt lat="46.68766" lon="5.76384">
        <ele>510.1</ele>
        <time>2015-07-12T10:09:01Z</time>
      </trkpt>
      <trkpt lat="46.6877" lon="5.76372">
        <ele>510.6</ele>
        <time>2015-07-12T10:09:05Z</time>
      </trkpt>
      <trkpt lat="46.68774" lon="5.76357">
        <ele>511.3</ele>
        <time>2015-07-12T10:09:10Z</time>
      </trkpt>
      <trkpt lat="46.68776" lon="5.76344">
        <ele>511.9</ele>
        <time>2015-07-12T10:09:14Z</time>
      </trkpt>
      <trkpt lat="46.68777" lon="5.76328">
        <ele>512.6</ele>
        <time>2015-07-12T10:09:19Z</time>
      </trkpt>
      <trkpt lat="46.6878" lon="5.76312">
        <ele>513.3</ele>
        <time>2015-07-12T10:09:24Z</time>
      </trkpt>
      <trkpt lat="46.68784" lon="5.76297">
        <ele>513.8</ele>
        <time>2015-07-12T10:09:29Z</time>
      </trkpt>
      <trkpt lat="46.68788" lon="5.76282">
        <ele>514.3</ele>
        <time>2015-07-12T10:09:34Z</time>
      </trkpt>
      <trkpt lat="46.68791" lon="5.76267">
        <ele>515</ele>
        <time>2015-07-12T10:09:39Z</time>
      </trkpt>
      <trkpt lat="46.68794" lon="5.76252">
        <ele>515.7</ele>
        <time>2015-07-12T10:09:44Z</time>
      </trkpt>
      <trkpt lat="46.68797" lon="5.76236">
        <ele>516.3</ele>
        <time>2015-07-12T10:09:49Z</time>
      </trkpt>
      <trkpt lat="46.688" lon="5.76221">
        <ele>516.9</ele>
        <time>2015-07-12T10:09:54Z</time>
      </trkpt>
      <trkpt lat="46.68803" lon="5.76207">
        <ele>517.5</ele>
        <time>2015-07-12T10:09:59Z</time>
      </trkpt>
      <trkpt lat="46.68807" lon="5.76194">
        <ele>518</ele>
        <time>2015-07-12T10:10:03Z</time>
      </trkpt>
      <trkpt lat="46.6881" lon="5.76179">
        <ele>518.7</ele>
        <time>2015-07-12T10:10:08Z</time>
      </trkpt>
      <trkpt lat="46.68812" lon="5.76163">
        <ele>519.4</ele>
        <time>2015-07-12T10:10:13Z</time>
      </trkpt>
      <trkpt lat="46.68814" lon="5.76149">
        <ele>519.9</ele>
        <time>2015-07-12T10:10:17Z</time>
      </trkpt>
      <trkpt lat="46.68815" lon="5.76136">
        <ele>520.4</ele>
        <time>2015-07-12T10:10:21Z</time>
      </trkpt>
      <trkpt lat="46.68816" lon="5.7612">
        <ele>521</ele>
        <time>2015-07-12T10:10:26Z</time>
      </trkpt>
      <trkpt lat="46.68817" lon="5.76104">
        <ele>521.4</ele>
        <time>2015-07-12T10:10:30Z</time>
      </trkpt>
      <trkpt lat="46.68816" lon="5.76088">
        <ele>521.8</ele>
        <time>2015-07-12T10:10:34Z</time>
      </trkpt>
      <trkpt lat="46.68816" lon="5.76072">
        <ele>522.2</ele>
        <time>2015-07-12T10:10:38Z</time>
      </trkpt>
      <trkpt lat="46.68816" lon="5.76057">
        <ele>522.6</ele>
        <time>2015-07-12T10:10:42Z</time>
      </trkpt>
      <trkpt lat="46.68817" lon="5.76044">
        <ele>523.1</ele>
        <time>2015-07-12T10:10:46Z</time>
      </trkpt>
      <trkpt lat="46.68818" lon="5.7603">
        <ele>523.5</ele>
        <time>2015-07-12T10:10:50Z</time>
      </trkpt>
      <trkpt lat="46.6882" lon="5.76015">
        <ele>524.3</ele>
        <time>2015-07-12T10:10:55Z</time>
      </trkpt>
      <trkpt lat="46.68822" lon="5.76001">
        <ele>525</ele>
        <time>2015-07-12T10:11:00Z</time>
      </trkpt>
      <trkpt lat="46.68824" lon="5.75986">
        <ele>525.8</ele>
        <time>2015-07-12T10:11:05Z</time>
      </trkpt>
      <trkpt lat="46.68827" lon="5.7597">
        <ele>526.5</ele>
        <time>2015-07-12T10:11:10Z</time>
      </trkpt>
      <trkpt lat="46.6883" lon="5.75957">
        <ele>527.1</ele>
        <time>2015-07-12T10:11:14Z</time>
      </trkpt>
      <trkpt lat="46.68832" lon="5.75941">
        <ele>527.7</ele>
        <time>2015-07-12T10:11:19Z</time>
      </trkpt>
      <trkpt lat="46.68832" lon="5.75927">
        <ele>528.3</ele>
        <time>2015-07-12T10:11:24Z</time>
      </trkpt>
      <trkpt lat="46.68832" lon="5.7591">
        <ele>528.9</ele>
        <time>2015-07-12T10:11:29Z</time>
      </trkpt>
      <trkpt lat="46.68831" lon="5.75897">
        <ele>529.4</ele>
        <time>2015-07-12T10:11:33Z</time>
      </trkpt>
      <trkpt lat="46.6883" lon="5.75883">
        <ele>529.8</ele>
        <time>2015-07-12T10:11:37Z</time>
      </trkpt>
      <trkpt lat="46.68831" lon="5.75868">
        <ele>530.3</ele>
        <time>2015-07-12T10:11:42Z</time>
      </trkpt>
      <trkpt lat="46.68833" lon="5.75854">
        <ele>531</ele>
        <time>2015-07-12T10:11:47Z</time>
      </trkpt>
      <trkpt lat="46.68834" lon="5.75838">
        <ele>531.5</ele>
        <time>2015-07-12T10:11:52Z</time>
      </trkpt>
      <trkpt lat="46.68834" lon="5.75823">
        <ele>532</ele>
        <time>2015-07-12T10:11:57Z</time>
      </trkpt>
      <trkpt lat="46.68836" lon="5.75808">
        <ele>532.6</ele>
        <time>2015-07-12T10:12:02Z</time>
      </trkpt>
      <trkpt lat="46.68837" lon="5.75792">
        <ele>533.2</ele>
        <time>2015-07-12T10:12:07Z</time>
      </trkpt>
      <trkpt lat="46.68841" lon="5.75779">
        <ele>533.5</ele>
        <time>2015-07-12T10:12:11Z</time>
      </trkpt>
      <trkpt lat="46.68846" lon="5.75765">
        <ele>534.1</ele>
        <time>2015-07-12T10:12:16Z</time>
      </trkpt>
      <trkpt lat="46.68852" lon="5.75752">
        <ele>534.7</ele>
        <time>2015-07-12T10:12:21Z</time>
      </trkpt>
      <trkpt lat="46.68859" lon="5.75741">
        <ele>535.1</ele>
        <time>2015-07-12T10:12:25Z</time>
      </trkpt>
      <trkpt lat="46.68866" lon="5.75731">
        <ele>535.6</ele>
        <time>2015-07-12T10:12:29Z</time>
      </trkpt>
      <trkpt lat="46.68875" lon="5.75722">
        <ele>536.1</ele>
        <time>2015-07-12T10:12:34Z</time>
      </trkpt>
      <trkpt lat="46.68883" lon="5.75714">
        <ele>536.5</ele>
        <time>2015-07-12T10:12:38Z</time>
      </trkpt>
      <trkpt lat="46.68891" lon="5.75707">
        <ele>537</ele>
        <time>2015-07-12T10:12:42Z</time>
      </trkpt>
      <trkpt lat="46.68898" lon="5.75697">
        <ele>537.4</ele>
        <time>2015-07-12T10:12:46Z</time>
      </trkpt>
      <trkpt lat="46.68907" lon="5.75688">
        <ele>537.7</ele>
        <time>2015-07-12T10:12:50Z</time>
      </trkpt>
      <trkpt lat="46.68917" lon="5.75679">
        <ele>537.9</ele>
        <time>2015-07-12T10:12:54Z</time>
      </trkpt>
      <trkpt lat="46.68926" lon="5.7567">
        <ele>538</ele>
        <time>2015-07-12T10:12:57Z</time>
      </trkpt>
      <trkpt lat="46.68934" lon="5.7566">
        <ele>538.1</ele>
        <time>2015-07-12T10:13:00Z</time>
      </trkpt>
      <trkpt lat="46.68944" lon="5.7565">
        <ele>538.2</ele>
        <time>2015-07-12T10:13:03Z</time>
      </trkpt>
      <trkpt lat="46.68954" lon="5.7564">
        <ele>538.3</ele>
        <time>2015-07-12T10:13:06Z</time>
      </trkpt>
      <trkpt lat="46.68964" lon="5.75629">
        <ele>538.4</ele>
        <time>2015-07-12T10:13:09Z</time>
      </trkpt>
      <trkpt lat="46.68975" lon="5.75617">
        <ele>538.5</ele>
        <time>2015-07-12T10:13:12Z</time>
      </trkpt>
      <trkpt lat="46.68985" lon="5.75606">
        <ele>538.5</ele>
        <time>2015-07-12T10:13:15Z</time>
      </trkpt>
      <trkpt lat="46.68996" lon="5.75595">
        <ele>538.5</ele>
        <time>2015-07-12T10:13:18Z</time>
      </trkpt>
      <trkpt lat="46.69003" lon="5.75588">
        <ele>538.5</ele>
        <time>2015-07-12T10:13:20Z</time>
      </trkpt>
      <trkpt lat="46.69014" lon="5.75576">
        <ele>538.4</ele>
        <time>2015-07-12T10:13:23Z</time>
      </trkpt>
      <trkpt lat="46.69021" lon="5.75568">
        <ele>538.4</ele>
        <time>2015-07-12T10:13:25Z</time>
      </trkpt>
      <trkpt lat="46.69029" lon="5.7556">
        <ele>538.3</ele>
        <time>2015-07-12T10:13:27Z</time>
      </trkpt>
      <trkpt lat="46.69036" lon="5.75553">
        <ele>538.3</ele>
        <time>2015-07-12T10:13:29Z</time>
      </trkpt>
      <trkpt lat="46.69044" lon="5.75544">
        <ele>538.1</ele>
        <time>2015-07-12T10:13:31Z</time>
      </trkpt>
      <trkpt lat="46.69052" lon="5.75536">
        <ele>538</ele>
        <time>2015-07-12T10:13:33Z</time>
      </trkpt>
      <trkpt lat="46.6906" lon="5.75528">
        <ele>537.9</ele>
        <time>2015-07-12T10:13:35Z</time>
      </trkpt>
      <trkpt lat="46.69068" lon="5.7552">
        <ele>537.8</ele>
        <time>2015-07-12T10:13:37Z</time>
      </trkpt>
      <trkpt lat="46.69077" lon="5.75511">
        <ele>537.6</ele>
        <time>2015-07-12T10:13:39Z</time>
      </trkpt>
      <trkpt lat="46.69085" lon="5.75503">
        <ele>537.5</ele>
        <time>2015-07-12T10:13:41Z</time>
      </trkpt>
      <trkpt lat="46.69093" lon="5.75494">
        <ele>537.3</ele>
        <time>2015-07-12T10:13:43Z</time>
      </trkpt>
      <trkpt lat="46.69101" lon="5.75485">
        <ele>537.2</ele>
        <time>2015-07-12T10:13:45Z</time>
      </trkpt>
      <trkpt lat="46.69109" lon="5.75476">
        <ele>537.1</ele>
        <time>2015-07-12T10:13:47Z</time>
      </trkpt>
      <trkpt lat="46.69118" lon="5.75468">
        <ele>537</ele>
        <time>2015-07-12T10:13:49Z</time>
      </trkpt>
      <trkpt lat="46.69126" lon="5.75459">
        <ele>536.9</ele>
        <time>2015-07-12T10:13:51Z</time>
      </trkpt>
      <trkpt lat="46.69134" lon="5.75451">
        <ele>536.8</ele>
        <time>2015-07-12T10:13:53Z</time>
      </trkpt>
      <trkpt lat="46.69141" lon="5.75443">
        <ele>536.6</ele>
        <time>2015-07-12T10:13:55Z</time>
      </trkpt>
      <trkpt lat="46.69148" lon="5.75434">
        <ele>536.3</ele>
        <time>2015-07-12T10:13:57Z</time>
      </trkpt>
      <trkpt lat="46.69156" lon="5.75426">
        <ele>536.1</ele>
        <time>2015-07-12T10:13:59Z</time>
      </trkpt>
      <trkpt lat="46.69166" lon="5.75414">
        <ele>535.8</ele>
        <time>2015-07-12T10:14:02Z</time>
      </trkpt>
      <trkpt lat="46.69173" lon="5.75406">
        <ele>535.6</ele>
        <time>2015-07-12T10:14:04Z</time>
      </trkpt>
      <trkpt lat="46.69181" lon="5.75398">
        <ele>535.5</ele>
        <time>2015-07-12T10:14:06Z</time>
      </trkpt>
      <trkpt lat="46.69189" lon="5.75389">
        <ele>535.3</ele>
        <time>2015-07-12T10:14:08Z</time>
      </trkpt>
      <trkpt lat="46.69198" lon="5.75379">
        <ele>535</ele>
        <time>2015-07-12T10:14:10Z</time>
      </trkpt>
      <trkpt lat="46.69207" lon="5.7537">
        <ele>534.8</ele>
        <time>2015-07-12T10:14:12Z</time>
      </trkpt>
      <trkpt lat="46.69215" lon="5.75361">
        <ele>534.6</ele>
        <time>2015-07-12T10:14:14Z</time>
      </trkpt>
      <trkpt lat="46.69223" lon="5.75352">
        <ele>534.4</ele>
        <time>2015-07-12T10:14:16Z</time>
      </trkpt>
      <trkpt lat="46.69231" lon="5.75343">
        <ele>534.2</ele>
        <time>2015-07-12T10:14:18Z</time>
      </trkpt>
      <trkpt lat="46.69239" lon="5.75334">
        <ele>533.9</ele>
        <time>2015-07-12T10:14:20Z</time>
      </trkpt>
      <trkpt lat="46.69247" lon="5.75326">
        <ele>533.7</ele>
        <time>2015-07-12T10:14:22Z</time>
      </trkpt>
      <trkpt lat="46.69254" lon="5.75317">
        <ele>533.5</ele>
        <time>2015-07-12T10:14:24Z</time>
      </trkpt>
      <trkpt lat="46.69262" lon="5.75308">
        <ele>533.1</ele>
        <time>2015-07-12T10:14:26Z</time>
      </trkpt>
      <trkpt lat="46.69271" lon="5.75299">
        <ele>532.8</ele>
        <time>2015-07-12T10:14:28Z</time>
      </trkpt>
      <trkpt lat="46.6928" lon="5.7529">
        <ele>532.5</ele>
        <time>2015-07-12T10:14:30Z</time>
      </trkpt>
      <trkpt lat="46.69289" lon="5.75281">
        <ele>532.2</ele>
        <time>2015-07-12T10:14:32Z</time>
      </trkpt>
      <trkpt lat="46.69299" lon="5.75272">
        <ele>532</ele>
        <time>2015-07-12T10:14:34Z</time>
      </trkpt>
      <trkpt lat="46.69309" lon="5.75262">
        <ele>531.7</ele>
        <time>2015-07-12T10:14:36Z</time>
      </trkpt>
      <trkpt lat="46.69318" lon="5.75252">
        <ele>531.4</ele>
        <time>2015-07-12T10:14:38Z</time>
      </trkpt>
      <trkpt lat="46.69328" lon="5.75242">
        <ele>531</ele>
        <time>2015-07-12T10:14:40Z</time>
      </trkpt>
      <trkpt lat="46.69337" lon="5.75233">
        <ele>530.8</ele>
        <time>2015-07-12T10:14:42Z</time>
      </trkpt>
      <trkpt lat="46.69346" lon="5.75223">
        <ele>530.5</ele>
        <time>2015-07-12T10:14:44Z</time>
      </trkpt>
      <trkpt lat="46.69354" lon="5.75213">
        <ele>530</ele>
        <time>2015-07-12T10:14:46Z</time>
      </trkpt>
      <trkpt lat="46.69363" lon="5.75204">
        <ele>529.7</ele>
        <time>2015-07-12T10:14:48Z</time>
      </trkpt>
      <trkpt lat="46.69371" lon="5.75195">
        <ele>529.5</ele>
        <time>2015-07-12T10:14:50Z</time>
      </trkpt>
      <trkpt lat="46.69379" lon="5.75185">
        <ele>529.3</ele>
        <time>2015-07-12T10:14:52Z</time>
      </trkpt>
      <trkpt lat="46.69387" lon="5.75177">
        <ele>529.2</ele>
        <time>2015-07-12T10:14:54Z</time>
      </trkpt>
      <trkpt lat="46.69395" lon="5.75169">
        <ele>529.1</ele>
        <time>2015-07-12T10:14:56Z</time>
      </trkpt>
      <trkpt lat="46.69403" lon="5.7516">
        <ele>529</ele>
        <time>2015-07-12T10:14:58Z</time>
      </trkpt>
      <trkpt lat="46.69411" lon="5.75152">
        <ele>528.9</ele>
        <time>2015-07-12T10:15:00Z</time>
      </trkpt>
      <trkpt lat="46.69419" lon="5.75143">
        <ele>528.8</ele>
        <time>2015-07-12T10:15:02Z</time>
      </trkpt>
      <trkpt lat="46.69427" lon="5.75135">
        <ele>528.7</ele>
        <time>2015-07-12T10:15:04Z</time>
      </trkpt>
      <trkpt lat="46.69434" lon="5.75127">
        <ele>528.6</ele>
        <time>2015-07-12T10:15:06Z</time>
      </trkpt>
      <trkpt lat="46.69442" lon="5.75118">
        <ele>528.6</ele>
        <time>2015-07-12T10:15:08Z</time>
      </trkpt>
      <trkpt lat="46.69449" lon="5.75109">
        <ele>528.5</ele>
        <time>2015-07-12T10:15:10Z</time>
      </trkpt>
      <trkpt lat="46.69457" lon="5.75101">
        <ele>528.5</ele>
        <time>2015-07-12T10:15:12Z</time>
      </trkpt>
      <trkpt lat="46.69464" lon="5.75093">
        <ele>528.4</ele>
        <time>2015-07-12T10:15:14Z</time>
      </trkpt>
      <trkpt lat="46.69474" lon="5.75083">
        <ele>528.5</ele>
        <time>2015-07-12T10:15:17Z</time>
      </trkpt>
      <trkpt lat="46.69484" lon="5.75073">
        <ele>528.6</ele>
        <time>2015-07-12T10:15:20Z</time>
      </trkpt>
      <trkpt lat="46.69494" lon="5.75067">
        <ele>528.8</ele>
        <time>2015-07-12T10:15:23Z</time>
      </trkpt>
      <trkpt lat="46.69505" lon="5.75068">
        <ele>529</ele>
        <time>2015-07-12T10:15:27Z</time>
      </trkpt>
      <trkpt lat="46.69514" lon="5.75074">
        <ele>529.4</ele>
        <time>2015-07-12T10:15:31Z</time>
      </trkpt>
      <trkpt lat="46.69522" lon="5.75082">
        <ele>530.5</ele>
        <time>2015-07-12T10:15:57Z</time>
      </trkpt>
      <trkpt lat="46.69533" lon="5.75088">
        <ele>530.8</ele>
        <time>2015-07-12T10:16:01Z</time>
      </trkpt>
      <trkpt lat="46.69543" lon="5.75093">
        <ele>531</ele>
        <time>2015-07-12T10:16:04Z</time>
      </trkpt>
      <trkpt lat="46.69552" lon="5.75098">
        <ele>531.2</ele>
        <time>2015-07-12T10:16:07Z</time>
      </trkpt>
      <trkpt lat="46.69561" lon="5.75104">
        <ele>531.4</ele>
        <time>2015-07-12T10:16:10Z</time>
      </trkpt>
      <trkpt lat="46.6957" lon="5.75111">
        <ele>531.6</ele>
        <time>2015-07-12T10:16:13Z</time>
      </trkpt>
      <trkpt lat="46.69579" lon="5.75118">
        <ele>531.8</ele>
        <time>2015-07-12T10:16:16Z</time>
      </trkpt>
      <trkpt lat="46.69589" lon="5.75124">
        <ele>532.1</ele>
        <time>2015-07-12T10:16:19Z</time>
      </trkpt>
      <trkpt lat="46.69599" lon="5.75131">
        <ele>532.4</ele>
        <time>2015-07-12T10:16:22Z</time>
      </trkpt>
      <trkpt lat="46.69609" lon="5.75138">
        <ele>532.6</ele>
        <time>2015-07-12T10:16:25Z</time>
      </trkpt>
      <trkpt lat="46.69619" lon="5.75146">
        <ele>532.8</ele>
        <time>2015-07-12T10:16:28Z</time>
      </trkpt>
      <trkpt lat="46.69629" lon="5.75153">
        <ele>533</ele>
        <time>2015-07-12T10:16:31Z</time>
      </trkpt>
      <trkpt lat="46.69639" lon="5.7516">
        <ele>533.3</ele>
        <time>2015-07-12T10:16:34Z</time>
      </trkpt>
      <trkpt lat="46.69648" lon="5.75168">
        <ele>533.5</ele>
        <time>2015-07-12T10:16:37Z</time>
      </trkpt>
      <trkpt lat="46.69657" lon="5.75177">
        <ele>533.8</ele>
        <time>2015-07-12T10:16:40Z</time>
      </trkpt>
      <trkpt lat="46.69666" lon="5.75187">
        <ele>534</ele>
        <time>2015-07-12T10:16:43Z</time>
      </trkpt>
      <trkpt lat="46.69676" lon="5.75196">
        <ele>534.2</ele>
        <time>2015-07-12T10:16:46Z</time>
      </trkpt>
      <trkpt lat="46.69686" lon="5.75205">
        <ele>534.4</ele>
        <time>2015-07-12T10:16:49Z</time>
      </trkpt>
      <trkpt lat="46.69697" lon="5.75211">
        <ele>534.7</ele>
        <time>2015-07-12T10:16:52Z</time>
      </trkpt>
      <trkpt lat="46.69709" lon="5.75213">
        <ele>535.1</ele>
        <time>2015-07-12T10:16:55Z</time>
      </trkpt>
      <trkpt lat="46.69721" lon="5.7521">
        <ele>535.3</ele>
        <time>2015-07-12T10:16:58Z</time>
      </trkpt>
      <trkpt lat="46.69729" lon="5.75205">
        <ele>535.5</ele>
        <time>2015-07-12T10:17:00Z</time>
      </trkpt>
      <trkpt lat="46.6974" lon="5.75198">
        <ele>535.7</ele>
        <time>2015-07-12T10:17:03Z</time>
      </trkpt>
      <trkpt lat="46.6975" lon="5.75195">
        <ele>535.8</ele>
        <time>2015-07-12T10:17:06Z</time>
      </trkpt>
      <trkpt lat="46.69759" lon="5.75195">
        <ele>536</ele>
        <time>2015-07-12T10:17:09Z</time>
      </trkpt>
      <trkpt lat="46.69768" lon="5.75198">
        <ele>536.3</ele>
        <time>2015-07-12T10:17:12Z</time>
      </trkpt>
      <trkpt lat="46.6978" lon="5.75201">
        <ele>536.7</ele>
        <time>2015-07-12T10:17:16Z</time>
      </trkpt>
      <trkpt lat="46.69791" lon="5.75208">
        <ele>537.2</ele>
        <time>2015-07-12T10:17:20Z</time>
      </trkpt>
      <trkpt lat="46.698" lon="5.75215">
        <ele>537.7</ele>
        <time>2015-07-12T10:17:24Z</time>
      </trkpt>
      <trkpt lat="46.69811" lon="5.75212">
        <ele>538.4</ele>
        <time>2015-07-12T10:17:29Z</time>
      </trkpt>
      <trkpt lat="46.69817" lon="5.752">
        <ele>539</ele>
        <time>2015-07-12T10:17:34Z</time>
      </trkpt>
      <trkpt lat="46.69818" lon="5.75187">
        <ele>539.7</ele>
        <time>2015-07-12T10:17:39Z</time>
      </trkpt>
      <trkpt lat="46.69817" lon="5.75173">
        <ele>540.4</ele>
        <time>2015-07-12T10:17:44Z</time>
      </trkpt>
      <trkpt lat="46.69813" lon="5.75159">
        <ele>541.1</ele>
        <time>2015-07-12T10:17:50Z</time>
      </trkpt>
      <trkpt lat="46.6981" lon="5.75145">
        <ele>541.9</ele>
        <time>2015-07-12T10:17:56Z</time>
      </trkpt>
      <trkpt lat="46.69806" lon="5.75133">
        <ele>542.8</ele>
        <time>2015-07-12T10:18:01Z</time>
      </trkpt>
      <trkpt lat="46.69803" lon="5.75119">
        <ele>543.8</ele>
        <time>2015-07-12T10:18:07Z</time>
      </trkpt>
      <trkpt lat="46.69799" lon="5.75106">
        <ele>544.8</ele>
        <time>2015-07-12T10:18:14Z</time>
      </trkpt>
      <trkpt lat="46.69797" lon="5.75092">
        <ele>546</ele>
        <time>2015-07-12T10:18:22Z</time>
      </trkpt>
      <trkpt lat="46.69794" lon="5.75078">
        <ele>547.1</ele>
        <time>2015-07-12T10:18:29Z</time>
      </trkpt>
      <trkpt lat="46.69792" lon="5.75065">
        <ele>548</ele>
        <time>2015-07-12T10:18:35Z</time>
      </trkpt>
      <trkpt lat="46.6979" lon="5.7505">
        <ele>549.1</ele>
        <time>2015-07-12T10:18:42Z</time>
      </trkpt>
      <trkpt lat="46.69788" lon="5.75037">
        <ele>550.2</ele>
        <time>2015-07-12T10:18:49Z</time>
      </trkpt>
      <trkpt lat="46.69786" lon="5.75022">
        <ele>551.4</ele>
        <time>2015-07-12T10:18:57Z</time>
      </trkpt>
      <trkpt lat="46.69782" lon="5.75009">
        <ele>552.5</ele>
        <time>2015-07-12T10:19:03Z</time>
      </trkpt>
      <trkpt lat="46.69779" lon="5.74996">
        <ele>553.6</ele>
        <time>2015-07-12T10:19:10Z</time>
      </trkpt>
      <trkpt lat="46.69776" lon="5.74983">
        <ele>554.9</ele>
        <time>2015-07-12T10:19:18Z</time>
      </trkpt>
      <trkpt lat="46.69772" lon="5.74969">
        <ele>555.7</ele>
        <time>2015-07-12T10:19:26Z</time>
      </trkpt>
      <trkpt lat="46.69766" lon="5.74957">
        <ele>557.1</ele>
        <time>2015-07-12T10:19:36Z</time>
      </trkpt>
      <trkpt lat="46.6976" lon="5.74947">
        <ele>558.3</ele>
        <time>2015-07-12T10:19:43Z</time>
      </trkpt>
      <trkpt lat="46.69753" lon="5.74937">
        <ele>559.4</ele>
        <time>2015-07-12T10:19:51Z</time>
      </trkpt>
      <trkpt lat="46.69747" lon="5.74926">
        <ele>560.4</ele>
        <time>2015-07-12T10:19:59Z</time>
      </trkpt>
      <trkpt lat="46.6974" lon="5.74915">
        <ele>561.3</ele>
        <time>2015-07-12T10:20:07Z</time>
      </trkpt>
      <trkpt lat="46.69733" lon="5.74906">
        <ele>562.3</ele>
        <time>2015-07-12T10:20:14Z</time>
      </trkpt>
      <trkpt lat="46.69724" lon="5.74901">
        <ele>563.3</ele>
        <time>2015-07-12T10:20:22Z</time>
      </trkpt>
      <trkpt lat="46.69715" lon="5.74899">
        <ele>564.5</ele>
        <time>2015-07-12T10:20:30Z</time>
      </trkpt>
      <trkpt lat="46.69704" lon="5.74899">
        <ele>565.3</ele>
        <time>2015-07-12T10:20:36Z</time>
      </trkpt>
      <trkpt lat="46.69692" lon="5.74898">
        <ele>570.2</ele>
        <time>2015-07-12T10:21:13Z</time>
      </trkpt>
      <trkpt lat="46.69684" lon="5.74889">
        <ele>570.6</ele>
        <time>2015-07-12T10:21:16Z</time>
      </trkpt>
      <trkpt lat="46.69676" lon="5.7488">
        <ele>570.9</ele>
        <time>2015-07-12T10:21:19Z</time>
      </trkpt>
      <trkpt lat="46.69664" lon="5.74868">
        <ele>571.3</ele>
        <time>2015-07-12T10:21:22Z</time>
      </trkpt>
      <trkpt lat="46.69654" lon="5.74859">
        <ele>571.7</ele>
        <time>2015-07-12T10:21:25Z</time>
      </trkpt>
      <trkpt lat="46.69649" lon="5.74848">
        <ele>572.4</ele>
        <time>2015-07-12T10:21:30Z</time>
      </trkpt>
      <trkpt lat="46.69644" lon="5.74836">
        <ele>573.2</ele>
        <time>2015-07-12T10:21:36Z</time>
      </trkpt>
      <trkpt lat="46.6964" lon="5.74824">
        <ele>574</ele>
        <time>2015-07-12T10:21:42Z</time>
      </trkpt>
      <trkpt lat="46.69637" lon="5.74809">
        <ele>574.9</ele>
        <time>2015-07-12T10:21:49Z</time>
      </trkpt>
      <trkpt lat="46.69631" lon="5.74797">
        <ele>575.7</ele>
        <time>2015-07-12T10:21:56Z</time>
      </trkpt>
      <trkpt lat="46.69627" lon="5.74783">
        <ele>576.6</ele>
        <time>2015-07-12T10:22:02Z</time>
      </trkpt>
      <trkpt lat="46.69626" lon="5.7477">
        <ele>577.6</ele>
        <time>2015-07-12T10:22:09Z</time>
      </trkpt>
      <trkpt lat="46.69624" lon="5.74756">
        <ele>578.6</ele>
        <time>2015-07-12T10:22:17Z</time>
      </trkpt>
      <trkpt lat="46.6962" lon="5.74744">
        <ele>579.4</ele>
        <time>2015-07-12T10:22:24Z</time>
      </trkpt>
      <trkpt lat="46.69614" lon="5.74732">
        <ele>580.5</ele>
        <time>2015-07-12T10:22:33Z</time>
      </trkpt>
      <trkpt lat="46.69608" lon="5.74722">
        <ele>581.7</ele>
        <time>2015-07-12T10:22:41Z</time>
      </trkpt>
      <trkpt lat="46.69603" lon="5.7471">
        <ele>582.9</ele>
        <time>2015-07-12T10:22:52Z</time>
      </trkpt>
      <trkpt lat="46.69598" lon="5.74698">
        <ele>583.8</ele>
        <time>2015-07-12T10:23:02Z</time>
      </trkpt>
      <trkpt lat="46.69595" lon="5.74685">
        <ele>584.6</ele>
        <time>2015-07-12T10:23:12Z</time>
      </trkpt>
      <trkpt lat="46.69595" lon="5.74671">
        <ele>585.3</ele>
        <time>2015-07-12T10:23:20Z</time>
      </trkpt>
      <trkpt lat="46.69593" lon="5.74659">
        <ele>586.4</ele>
        <time>2015-07-12T10:23:30Z</time>
      </trkpt>
      <trkpt lat="46.69592" lon="5.74644">
        <ele>587.3</ele>
        <time>2015-07-12T10:23:40Z</time>
      </trkpt>
      <trkpt lat="46.69593" lon="5.74631">
        <ele>588</ele>
        <time>2015-07-12T10:23:48Z</time>
      </trkpt>
      <trkpt lat="46.69597" lon="5.74619">
        <ele>588.8</ele>
        <time>2015-07-12T10:23:57Z</time>
      </trkpt>
      <trkpt lat="46.69603" lon="5.74607">
        <ele>590.3</ele>
        <time>2015-07-12T10:24:15Z</time>
      </trkpt>
      <trkpt lat="46.69607" lon="5.74595">
        <ele>591.1</ele>
        <time>2015-07-12T10:24:26Z</time>
      </trkpt>
      <trkpt lat="46.69613" lon="5.74584">
        <ele>591.8</ele>
        <time>2015-07-12T10:24:38Z</time>
      </trkpt>
      <trkpt lat="46.69617" lon="5.74572">
        <ele>592.2</ele>
        <time>2015-07-12T10:24:44Z</time>
      </trkpt>
      <trkpt lat="46.69623" lon="5.7456">
        <ele>593</ele>
        <time>2015-07-12T10:24:52Z</time>
      </trkpt>
      <trkpt lat="46.69627" lon="5.74546">
        <ele>594</ele>
        <time>2015-07-12T10:25:01Z</time>
      </trkpt>
      <trkpt lat="46.6963" lon="5.74534">
        <ele>594.6</ele>
        <time>2015-07-12T10:25:07Z</time>
      </trkpt>
      <trkpt lat="46.69635" lon="5.74522">
        <ele>595.4</ele>
        <time>2015-07-12T10:25:13Z</time>
      </trkpt>
      <trkpt lat="46.69638" lon="5.74509">
        <ele>596.6</ele>
        <time>2015-07-12T10:25:19Z</time>
      </trkpt>
      <trkpt lat="46.69643" lon="5.74497">
        <ele>597.5</ele>
        <time>2015-07-12T10:25:26Z</time>
      </trkpt>
      <trkpt lat="46.69647" lon="5.74485">
        <ele>598.2</ele>
        <time>2015-07-12T10:25:32Z</time>
      </trkpt>
      <trkpt lat="46.69652" lon="5.74473">
        <ele>599.1</ele>
        <time>2015-07-12T10:25:40Z</time>
      </trkpt>
      <trkpt lat="46.69659" lon="5.74463">
        <ele>599.9</ele>
        <time>2015-07-12T10:25:46Z</time>
      </trkpt>
      <trkpt lat="46.69666" lon="5.74454">
        <ele>600.4</ele>
        <time>2015-07-12T10:25:51Z</time>
      </trkpt>
      <trkpt lat="46.69674" lon="5.74443">
        <ele>601</ele>
        <time>2015-07-12T10:25:57Z</time>
      </trkpt>
      <trkpt lat="46.69682" lon="5.74436">
        <ele>601.6</ele>
        <time>2015-07-12T10:26:02Z</time>
      </trkpt>
      <trkpt lat="46.69689" lon="5.74429">
        <ele>602.2</ele>
        <time>2015-07-12T10:26:08Z</time>
      </trkpt>
      <trkpt lat="46.69698" lon="5.7442">
        <ele>603</ele>
        <time>2015-07-12T10:26:15Z</time>
      </trkpt>
      <trkpt lat="46.69706" lon="5.74413">
        <ele>603.7</ele>
        <time>2015-07-12T10:26:21Z</time>
      </trkpt>
      <trkpt lat="46.69714" lon="5.74404">
        <ele>604.7</ele>
        <time>2015-07-12T10:26:28Z</time>
      </trkpt>
      <trkpt lat="46.69721" lon="5.74396">
        <ele>605.7</ele>
        <time>2015-07-12T10:26:35Z</time>
      </trkpt>
      <trkpt lat="46.69729" lon="5.74388">
        <ele>606.7</ele>
        <time>2015-07-12T10:26:42Z</time>
      </trkpt>
      <trkpt lat="46.69737" lon="5.74378">
        <ele>607.5</ele>
        <time>2015-07-12T10:26:48Z</time>
      </trkpt>
      <trkpt lat="46.69744" lon="5.7437">
        <ele>608.5</ele>
        <time>2015-07-12T10:26:55Z</time>
      </trkpt>
      <trkpt lat="46.69751" lon="5.74361">
        <ele>609.4</ele>
        <time>2015-07-12T10:27:02Z</time>
      </trkpt>
      <trkpt lat="46.69759" lon="5.74351">
        <ele>610.3</ele>
        <time>2015-07-12T10:27:09Z</time>
      </trkpt>
      <trkpt lat="46.69766" lon="5.74343">
        <ele>611.2</ele>
        <time>2015-07-12T10:27:16Z</time>
      </trkpt>
      <trkpt lat="46.69774" lon="5.74335">
        <ele>612.1</ele>
        <time>2015-07-12T10:27:23Z</time>
      </trkpt>
      <trkpt lat="46.69783" lon="5.74329">
        <ele>612.9</ele>
        <time>2015-07-12T10:27:29Z</time>
      </trkpt>
      <trkpt lat="46.69791" lon="5.74319">
        <ele>613.6</ele>
        <time>2015-07-12T10:27:36Z</time>
      </trkpt>
      <trkpt lat="46.69797" lon="5.74308">
        <ele>614.3</ele>
        <time>2015-07-12T10:27:42Z</time>
      </trkpt>
      <trkpt lat="46.69802" lon="5.74297">
        <ele>615.1</ele>
        <time>2015-07-12T10:27:48Z</time>
      </trkpt>
      <trkpt lat="46.69807" lon="5.74286">
        <ele>615.9</ele>
        <time>2015-07-12T10:27:55Z</time>
      </trkpt>
      <trkpt lat="46.6981" lon="5.74271">
        <ele>616.9</ele>
        <time>2015-07-12T10:28:04Z</time>
      </trkpt>
      <trkpt lat="46.69813" lon="5.74259">
        <ele>617.7</ele>
        <time>2015-07-12T10:28:12Z</time>
      </trkpt>
      <trkpt lat="46.69815" lon="5.74244">
        <ele>618.5</ele>
        <time>2015-07-12T10:28:19Z</time>
      </trkpt>
      <trkpt lat="46.69818" lon="5.7423">
        <ele>619.3</ele>
        <time>2015-07-12T10:28:26Z</time>
      </trkpt>
      <trkpt lat="46.69819" lon="5.74216">
        <ele>620.2</ele>
        <time>2015-07-12T10:28:34Z</time>
      </trkpt>
      <trkpt lat="46.69819" lon="5.74202">
        <ele>621.1</ele>
        <time>2015-07-12T10:28:42Z</time>
      </trkpt>
      <trkpt lat="46.69824" lon="5.74189">
        <ele>622</ele>
        <time>2015-07-12T10:28:49Z</time>
      </trkpt>
      <trkpt lat="46.69832" lon="5.74199">
        <ele>622.7</ele>
        <time>2015-07-12T10:28:55Z</time>
      </trkpt>
      <trkpt lat="46.69838" lon="5.7421">
        <ele>623.1</ele>
        <time>2015-07-12T10:29:00Z</time>
      </trkpt>
      <trkpt lat="46.69847" lon="5.74219">
        <ele>623.3</ele>
        <time>2015-07-12T10:29:04Z</time>
      </trkpt>
      <trkpt lat="46.69856" lon="5.74226">
        <ele>623.4</ele>
        <time>2015-07-12T10:29:07Z</time>
      </trkpt>
      <trkpt lat="46.69867" lon="5.74231">
        <ele>623.5</ele>
        <time>2015-07-12T10:29:10Z</time>
      </trkpt>
      <trkpt lat="46.6988" lon="5.74234">
        <ele>623.5</ele>
        <time>2015-07-12T10:29:13Z</time>
      </trkpt>
      <trkpt lat="46.69892" lon="5.74235">
        <ele>623.4</ele>
        <time>2015-07-12T10:29:16Z</time>
      </trkpt>
      <trkpt lat="46.69904" lon="5.74235">
        <ele>623.2</ele>
        <time>2015-07-12T10:29:19Z</time>
      </trkpt>
      <trkpt lat="46.69914" lon="5.74237">
        <ele>623</ele>
        <time>2015-07-12T10:29:22Z</time>
      </trkpt>
      <trkpt lat="46.69923" lon="5.74231">
        <ele>622.3</ele>
        <time>2015-07-12T10:29:28Z</time>
      </trkpt>
      <trkpt lat="46.69928" lon="5.74219">
        <ele>622.2</ele>
        <time>2015-07-12T10:29:33Z</time>
      </trkpt>
      <trkpt lat="46.69934" lon="5.74208">
        <ele>622.3</ele>
        <time>2015-07-12T10:29:39Z</time>
      </trkpt>
      <trkpt lat="46.69944" lon="5.74202">
        <ele>622.3</ele>
        <time>2015-07-12T10:29:46Z</time>
      </trkpt>
      <trkpt lat="46.69951" lon="5.74192">
        <ele>622.8</ele>
        <time>2015-07-12T10:29:54Z</time>
      </trkpt>
      <trkpt lat="46.69958" lon="5.74183">
        <ele>623.3</ele>
        <time>2015-07-12T10:30:01Z</time>
      </trkpt>
      <trkpt lat="46.69965" lon="5.74173">
        <ele>624</ele>
        <time>2015-07-12T10:30:07Z</time>
      </trkpt>
      <trkpt lat="46.6997" lon="5.74162">
        <ele>624.6</ele>
        <time>2015-07-12T10:30:13Z</time>
      </trkpt>
      <trkpt lat="46.69978" lon="5.74152">
        <ele>625.4</ele>
        <time>2015-07-12T10:30:19Z</time>
      </trkpt>
      <trkpt lat="46.69985" lon="5.74143">
        <ele>625.8</ele>
        <time>2015-07-12T10:30:23Z</time>
      </trkpt>
      <trkpt lat="46.69992" lon="5.74135">
        <ele>626.2</ele>
        <time>2015-07-12T10:30:27Z</time>
      </trkpt>
      <trkpt lat="46.7" lon="5.74126">
        <ele>626.5</ele>
        <time>2015-07-12T10:30:32Z</time>
      </trkpt>
      <trkpt lat="46.70006" lon="5.74116">
        <ele>626.6</ele>
        <time>2015-07-12T10:30:37Z</time>
      </trkpt>
      <trkpt lat="46.7001" lon="5.74102">
        <ele>626.6</ele>
        <time>2015-07-12T10:30:44Z</time>
      </trkpt>
      <trkpt lat="46.70012" lon="5.74088">
        <ele>626.8</ele>
        <time>2015-07-12T10:30:50Z</time>
      </trkpt>
      <trkpt lat="46.70018" lon="5.74075">
        <ele>626.8</ele>
        <time>2015-07-12T10:30:55Z</time>
      </trkpt>
      <trkpt lat="46.70025" lon="5.74065">
        <ele>626.8</ele>
        <time>2015-07-12T10:31:00Z</time>
      </trkpt>
      <trkpt lat="46.70033" lon="5.74054">
        <ele>627.2</ele>
        <time>2015-07-12T10:31:05Z</time>
      </trkpt>
      <trkpt lat="46.70041" lon="5.74046">
        <ele>627.5</ele>
        <time>2015-07-12T10:31:10Z</time>
      </trkpt>
      <trkpt lat="46.70049" lon="5.7404">
        <ele>627.8</ele>
        <time>2015-07-12T10:31:15Z</time>
      </trkpt>
      <trkpt lat="46.70057" lon="5.74034">
        <ele>628.6</ele>
        <time>2015-07-12T10:31:21Z</time>
      </trkpt>
      <trkpt lat="46.70067" lon="5.74029">
        <ele>629.4</ele>
        <time>2015-07-12T10:31:27Z</time>
      </trkpt>
      <trkpt lat="46.70076" lon="5.74025">
        <ele>630.3</ele>
        <time>2015-07-12T10:31:34Z</time>
      </trkpt>
      <trkpt lat="46.70086" lon="5.74021">
        <ele>631.2</ele>
        <time>2015-07-12T10:31:41Z</time>
      </trkpt>
      <trkpt lat="46.70097" lon="5.74025">
        <ele>632.2</ele>
        <time>2015-07-12T10:31:48Z</time>
      </trkpt>
      <trkpt lat="46.70106" lon="5.74028">
        <ele>633.3</ele>
        <time>2015-07-12T10:31:55Z</time>
      </trkpt>
      <trkpt lat="46.70115" lon="5.74031">
        <ele>634.2</ele>
        <time>2015-07-12T10:32:03Z</time>
      </trkpt>
      <trkpt lat="46.70124" lon="5.74039">
        <ele>635.1</ele>
        <time>2015-07-12T10:32:12Z</time>
      </trkpt>
      <trkpt lat="46.70132" lon="5.74047">
        <ele>636.1</ele>
        <time>2015-07-12T10:32:21Z</time>
      </trkpt>
      <trkpt lat="46.70137" lon="5.74059">
        <ele>637.5</ele>
        <time>2015-07-12T10:32:33Z</time>
      </trkpt>
      <trkpt lat="46.70146" lon="5.74067">
        <ele>638.5</ele>
        <time>2015-07-12T10:32:40Z</time>
      </trkpt>
      <trkpt lat="46.70155" lon="5.74075">
        <ele>639.1</ele>
        <time>2015-07-12T10:32:46Z</time>
      </trkpt>
      <trkpt lat="46.70165" lon="5.7408">
        <ele>639.4</ele>
        <time>2015-07-12T10:32:52Z</time>
      </trkpt>
      <trkpt lat="46.70174" lon="5.74087">
        <ele>639.6</ele>
        <time>2015-07-12T10:32:56Z</time>
      </trkpt>
      <trkpt lat="46.70182" lon="5.74093">
        <ele>640</ele>
        <time>2015-07-12T10:33:03Z</time>
      </trkpt>
      <trkpt lat="46.70192" lon="5.74095">
        <ele>640.5</ele>
        <time>2015-07-12T10:33:11Z</time>
      </trkpt>
      <trkpt lat="46.70201" lon="5.74099">
        <ele>641</ele>
        <time>2015-07-12T10:33:17Z</time>
      </trkpt>
      <trkpt lat="46.70211" lon="5.74098">
        <ele>641.6</ele>
        <time>2015-07-12T10:33:23Z</time>
      </trkpt>
      <trkpt lat="46.7022" lon="5.74096">
        <ele>642.1</ele>
        <time>2015-07-12T10:33:27Z</time>
      </trkpt>
      <trkpt lat="46.70229" lon="5.74091">
        <ele>643</ele>
        <time>2015-07-12T10:33:36Z</time>
      </trkpt>
      <trkpt lat="46.70239" lon="5.74088">
        <ele>644.6</ele>
        <time>2015-07-12T10:33:46Z</time>
      </trkpt>
      <trkpt lat="46.70248" lon="5.74086">
        <ele>645.9</ele>
        <time>2015-07-12T10:33:55Z</time>
      </trkpt>
      <trkpt lat="46.70258" lon="5.74083">
        <ele>647.1</ele>
        <time>2015-07-12T10:34:02Z</time>
      </trkpt>
      <trkpt lat="46.70267" lon="5.74081">
        <ele>648</ele>
        <time>2015-07-12T10:34:08Z</time>
      </trkpt>
      <trkpt lat="46.70273" lon="5.74071">
        <ele>649.6</ele>
        <time>2015-07-12T10:34:19Z</time>
      </trkpt>
      <trkpt lat="46.7028" lon="5.74062">
        <ele>650.4</ele>
        <time>2015-07-12T10:34:26Z</time>
      </trkpt>
      <trkpt lat="46.70288" lon="5.74052">
        <ele>651.4</ele>
        <time>2015-07-12T10:34:35Z</time>
      </trkpt>
      <trkpt lat="46.70292" lon="5.74039">
        <ele>652.2</ele>
        <time>2015-07-12T10:34:42Z</time>
      </trkpt>
      <trkpt lat="46.70298" lon="5.74027">
        <ele>652.7</ele>
        <time>2015-07-12T10:34:48Z</time>
      </trkpt>
      <trkpt lat="46.70303" lon="5.74015">
        <ele>653.5</ele>
        <time>2015-07-12T10:34:55Z</time>
      </trkpt>
      <trkpt lat="46.7031" lon="5.74004">
        <ele>654</ele>
        <time>2015-07-12T10:35:01Z</time>
      </trkpt>
      <trkpt lat="46.70316" lon="5.73994">
        <ele>654.3</ele>
        <time>2015-07-12T10:35:05Z</time>
      </trkpt>
      <trkpt lat="46.70322" lon="5.73983">
        <ele>654.7</ele>
        <time>2015-07-12T10:35:10Z</time>
      </trkpt>
      <trkpt lat="46.70328" lon="5.73973">
        <ele>655.5</ele>
        <time>2015-07-12T10:35:16Z</time>
      </trkpt>
      <trkpt lat="46.70328" lon="5.73958">
        <ele>655.9</ele>
        <time>2015-07-12T10:35:20Z</time>
      </trkpt>
      <trkpt lat="46.70328" lon="5.73943">
        <ele>656.2</ele>
        <time>2015-07-12T10:35:26Z</time>
      </trkpt>
      <trkpt lat="46.70329" lon="5.7393">
        <ele>656.3</ele>
        <time>2015-07-12T10:35:32Z</time>
      </trkpt>
      <trkpt lat="46.70334" lon="5.73918">
        <ele>656.5</ele>
        <time>2015-07-12T10:35:38Z</time>
      </trkpt>
      <trkpt lat="46.70337" lon="5.73905">
        <ele>657.2</ele>
        <time>2015-07-12T10:35:45Z</time>
      </trkpt>
      <trkpt lat="46.70339" lon="5.73891">
        <ele>657.7</ele>
        <time>2015-07-12T10:35:51Z</time>
      </trkpt>
      <trkpt lat="46.70339" lon="5.73876">
        <ele>658.3</ele>
        <time>2015-07-12T10:35:57Z</time>
      </trkpt>
      <trkpt lat="46.70339" lon="5.73861">
        <ele>658.4</ele>
        <time>2015-07-12T10:36:01Z</time>
      </trkpt>
      <trkpt lat="46.70343" lon="5.73847">
        <ele>658.3</ele>
        <time>2015-07-12T10:36:05Z</time>
      </trkpt>
      <trkpt lat="46.70353" lon="5.73839">
        <ele>657.9</ele>
        <time>2015-07-12T10:36:10Z</time>
      </trkpt>
      <trkpt lat="46.70361" lon="5.73835">
        <ele>656.2</ele>
        <time>2015-07-12T10:37:02Z</time>
      </trkpt>
      <trkpt lat="46.7037" lon="5.73828">
        <ele>656.1</ele>
        <time>2015-07-12T10:37:06Z</time>
      </trkpt>
      <trkpt lat="46.70377" lon="5.7382">
        <ele>655.9</ele>
        <time>2015-07-12T10:37:09Z</time>
      </trkpt>
      <trkpt lat="46.70386" lon="5.73811">
        <ele>655.5</ele>
        <time>2015-07-12T10:37:12Z</time>
      </trkpt>
      <trkpt lat="46.70395" lon="5.73806">
        <ele>654.7</ele>
        <time>2015-07-12T10:37:15Z</time>
      </trkpt>
      <trkpt lat="46.70402" lon="5.73798">
        <ele>653.6</ele>
        <time>2015-07-12T10:37:18Z</time>
      </trkpt>
      <trkpt lat="46.70413" lon="5.73784">
        <ele>652.3</ele>
        <time>2015-07-12T10:37:21Z</time>
      </trkpt>
      <trkpt lat="46.70419" lon="5.73773">
        <ele>651.4</ele>
        <time>2015-07-12T10:37:23Z</time>
      </trkpt>
      <trkpt lat="46.70427" lon="5.73761">
        <ele>649.8</ele>
        <time>2015-07-12T10:37:26Z</time>
      </trkpt>
      <trkpt lat="46.70435" lon="5.7375">
        <ele>648.1</ele>
        <time>2015-07-12T10:37:29Z</time>
      </trkpt>
      <trkpt lat="46.70438" lon="5.73736">
        <ele>646.4</ele>
        <time>2015-07-12T10:37:32Z</time>
      </trkpt>
      <trkpt lat="46.7044" lon="5.73721">
        <ele>644.5</ele>
        <time>2015-07-12T10:37:35Z</time>
      </trkpt>
      <trkpt lat="46.70438" lon="5.73703">
        <ele>642.4</ele>
        <time>2015-07-12T10:37:38Z</time>
      </trkpt>
      <trkpt lat="46.70436" lon="5.73689">
        <ele>641</ele>
        <time>2015-07-12T10:37:40Z</time>
      </trkpt>
      <trkpt lat="46.70435" lon="5.73674">
        <ele>639.6</ele>
        <time>2015-07-12T10:37:42Z</time>
      </trkpt>
      <trkpt lat="46.70433" lon="5.73659">
        <ele>638</ele>
        <time>2015-07-12T10:37:44Z</time>
      </trkpt>
      <trkpt lat="46.70429" lon="5.73643">
        <ele>635.8</ele>
        <time>2015-07-12T10:37:47Z</time>
      </trkpt>
      <trkpt lat="46.70425" lon="5.73629">
        <ele>633.1</ele>
        <time>2015-07-12T10:37:51Z</time>
      </trkpt>
      <trkpt lat="46.70421" lon="5.73614">
        <ele>631.6</ele>
        <time>2015-07-12T10:37:54Z</time>
      </trkpt>
      <trkpt lat="46.70418" lon="5.73599">
        <ele>629.7</ele>
        <time>2015-07-12T10:37:58Z</time>
      </trkpt>
      <trkpt lat="46.70412" lon="5.73586">
        <ele>627.1</ele>
        <time>2015-07-12T10:38:04Z</time>
      </trkpt>
      <trkpt lat="46.70406" lon="5.73576">
        <ele>626.2</ele>
        <time>2015-07-12T10:38:07Z</time>
      </trkpt>
      <trkpt lat="46.70403" lon="5.73561">
        <ele>624.6</ele>
        <time>2015-07-12T10:38:13Z</time>
      </trkpt>
      <trkpt lat="46.70399" lon="5.73548">
        <ele>624</ele>
        <time>2015-07-12T10:38:16Z</time>
      </trkpt>
      <trkpt lat="46.70393" lon="5.73532">
        <ele>623.3</ele>
        <time>2015-07-12T10:38:19Z</time>
      </trkpt>
      <trkpt lat="46.70386" lon="5.73523">
        <ele>622.9</ele>
        <time>2015-07-12T10:38:21Z</time>
      </trkpt>
      <trkpt lat="46.70377" lon="5.73513">
        <ele>622.3</ele>
        <time>2015-07-12T10:38:24Z</time>
      </trkpt>
      <trkpt lat="46.70369" lon="5.73504">
        <ele>621.8</ele>
        <time>2015-07-12T10:38:27Z</time>
      </trkpt>
      <trkpt lat="46.70363" lon="5.73494">
        <ele>621.1</ele>
        <time>2015-07-12T10:38:31Z</time>
      </trkpt>
      <trkpt lat="46.70357" lon="5.73482">
        <ele>620.5</ele>
        <time>2015-07-12T10:38:36Z</time>
      </trkpt>
      <trkpt lat="46.70351" lon="5.73473">
        <ele>620.2</ele>
        <time>2015-07-12T10:38:39Z</time>
      </trkpt>
      <trkpt lat="46.70346" lon="5.73457">
        <ele>619.5</ele>
        <time>2015-07-12T10:38:44Z</time>
      </trkpt>
      <trkpt lat="46.70339" lon="5.73448">
        <ele>619.1</ele>
        <time>2015-07-12T10:38:47Z</time>
      </trkpt>
      <trkpt lat="46.70331" lon="5.73438">
        <ele>618.7</ele>
        <time>2015-07-12T10:38:51Z</time>
      </trkpt>
      <trkpt lat="46.70323" lon="5.73429">
        <ele>618.4</ele>
        <time>2015-07-12T10:38:54Z</time>
      </trkpt>
      <trkpt lat="46.70315" lon="5.73416">
        <ele>618.2</ele>
        <time>2015-07-12T10:38:58Z</time>
      </trkpt>
      <trkpt lat="46.70306" lon="5.73405">
        <ele>618</ele>
        <time>2015-07-12T10:39:01Z</time>
      </trkpt>
      <trkpt lat="46.70298" lon="5.73394">
        <ele>617.9</ele>
        <time>2015-07-12T10:39:04Z</time>
      </trkpt>
      <trkpt lat="46.70292" lon="5.73384">
        <ele>617.8</ele>
        <time>2015-07-12T10:39:07Z</time>
      </trkpt>
      <trkpt lat="46.70285" lon="5.73374">
        <ele>617.7</ele>
        <time>2015-07-12T10:39:10Z</time>
      </trkpt>
      <trkpt lat="46.70276" lon="5.73366">
        <ele>617.8</ele>
        <time>2015-07-12T10:39:14Z</time>
      </trkpt>
      <trkpt lat="46.70268" lon="5.73359">
        <ele>617.9</ele>
        <time>2015-07-12T10:39:18Z</time>
      </trkpt>
      <trkpt lat="46.7026" lon="5.73351">
        <ele>618.1</ele>
        <time>2015-07-12T10:39:23Z</time>
      </trkpt>
      <trkpt lat="46.7025" lon="5.73346">
        <ele>618.6</ele>
        <time>2015-07-12T10:39:29Z</time>
      </trkpt>
      <trkpt lat="46.7024" lon="5.73345">
        <ele>618.9</ele>
        <time>2015-07-12T10:39:33Z</time>
      </trkpt>
      <trkpt lat="46.70228" lon="5.73342">
        <ele>619.3</ele>
        <time>2015-07-12T10:39:37Z</time>
      </trkpt>
      <trkpt lat="46.70217" lon="5.73337">
        <ele>619.7</ele>
        <time>2015-07-12T10:39:41Z</time>
      </trkpt>
      <trkpt lat="46.70208" lon="5.73333">
        <ele>619.9</ele>
        <time>2015-07-12T10:39:44Z</time>
      </trkpt>
      <trkpt lat="46.70198" lon="5.7333">
        <ele>620.1</ele>
        <time>2015-07-12T10:39:46Z</time>
      </trkpt>
      <trkpt lat="46.70186" lon="5.73324">
        <ele>620.2</ele>
        <time>2015-07-12T10:39:48Z</time>
      </trkpt>
      <trkpt lat="46.70175" lon="5.73319">
        <ele>620.3</ele>
        <time>2015-07-12T10:39:50Z</time>
      </trkpt>
      <trkpt lat="46.70165" lon="5.73315">
        <ele>620.3</ele>
        <time>2015-07-12T10:39:52Z</time>
      </trkpt>
      <trkpt lat="46.70154" lon="5.7331">
        <ele>620.4</ele>
        <time>2015-07-12T10:39:54Z</time>
      </trkpt>
      <trkpt lat="46.70141" lon="5.73306">
        <ele>620.4</ele>
        <time>2015-07-12T10:39:56Z</time>
      </trkpt>
      <trkpt lat="46.70129" lon="5.73303">
        <ele>620.4</ele>
        <time>2015-07-12T10:39:58Z</time>
      </trkpt>
      <trkpt lat="46.70119" lon="5.733">
        <ele>620.4</ele>
        <time>2015-07-12T10:40:00Z</time>
      </trkpt>
      <trkpt lat="46.70109" lon="5.73296">
        <ele>620.4</ele>
        <time>2015-07-12T10:40:02Z</time>
      </trkpt>
      <trkpt lat="46.70098" lon="5.73291">
        <ele>620.1</ele>
        <time>2015-07-12T10:40:04Z</time>
      </trkpt>
      <trkpt lat="46.7009" lon="5.73286">
        <ele>619.8</ele>
        <time>2015-07-12T10:40:06Z</time>
      </trkpt>
      <trkpt lat="46.70081" lon="5.73276">
        <ele>619.2</ele>
        <time>2015-07-12T10:40:09Z</time>
      </trkpt>
      <trkpt lat="46.70076" lon="5.73262">
        <ele>618.5</ele>
        <time>2015-07-12T10:40:12Z</time>
      </trkpt>
      <trkpt lat="46.70072" lon="5.73249">
        <ele>617.3</ele>
        <time>2015-07-12T10:40:17Z</time>
      </trkpt>
      <trkpt lat="46.70064" lon="5.73242">
        <ele>615.7</ele>
        <time>2015-07-12T10:40:24Z</time>
      </trkpt>
      <trkpt lat="46.70054" lon="5.73246">
        <ele>615.2</ele>
        <time>2015-07-12T10:40:27Z</time>
      </trkpt>
      <trkpt lat="46.70066" lon="5.73246">
        <ele>611.7</ele>
        <time>2015-07-12T10:41:01Z</time>
      </trkpt>
      <trkpt lat="46.70077" lon="5.73246">
        <ele>611.6</ele>
        <time>2015-07-12T10:41:04Z</time>
      </trkpt>
      <trkpt lat="46.7009" lon="5.73246">
        <ele>611.5</ele>
        <time>2015-07-12T10:41:07Z</time>
      </trkpt>
      <trkpt lat="46.701" lon="5.73245">
        <ele>611.2</ele>
        <time>2015-07-12T10:41:09Z</time>
      </trkpt>
      <trkpt lat="46.70113" lon="5.73244">
        <ele>610.7</ele>
        <time>2015-07-12T10:41:12Z</time>
      </trkpt>
      <trkpt lat="46.70124" lon="5.73245">
        <ele>610.1</ele>
        <time>2015-07-12T10:41:15Z</time>
      </trkpt>
      <trkpt lat="46.70135" lon="5.73245">
        <ele>609.5</ele>
        <time>2015-07-12T10:41:18Z</time>
      </trkpt>
      <trkpt lat="46.70148" lon="5.73244">
        <ele>608.8</ele>
        <time>2015-07-12T10:41:21Z</time>
      </trkpt>
      <trkpt lat="46.70159" lon="5.73243">
        <ele>608.3</ele>
        <time>2015-07-12T10:41:23Z</time>
      </trkpt>
      <trkpt lat="46.70171" lon="5.73243">
        <ele>607.8</ele>
        <time>2015-07-12T10:41:25Z</time>
      </trkpt>
      <trkpt lat="46.70183" lon="5.73242">
        <ele>607.3</ele>
        <time>2015-07-12T10:41:27Z</time>
      </trkpt>
      <trkpt lat="46.70195" lon="5.73242">
        <ele>606.7</ele>
        <time>2015-07-12T10:41:29Z</time>
      </trkpt>
      <trkpt lat="46.70206" lon="5.73245">
        <ele>606.2</ele>
        <time>2015-07-12T10:41:31Z</time>
      </trkpt>
      <trkpt lat="46.70215" lon="5.73253">
        <ele>605.6</ele>
        <time>2015-07-12T10:41:33Z</time>
      </trkpt>
      <trkpt lat="46.70226" lon="5.73262">
        <ele>605.2</ele>
        <time>2015-07-12T10:41:35Z</time>
      </trkpt>
      <trkpt lat="46.70237" lon="5.73269">
        <ele>604.7</ele>
        <time>2015-07-12T10:41:37Z</time>
      </trkpt>
      <trkpt lat="46.70247" lon="5.73277">
        <ele>604.3</ele>
        <time>2015-07-12T10:41:39Z</time>
      </trkpt>
      <trkpt lat="46.70259" lon="5.73284">
        <ele>603.9</ele>
        <time>2015-07-12T10:41:41Z</time>
      </trkpt>
      <trkpt lat="46.7027" lon="5.7329">
        <ele>603.5</ele>
        <time>2015-07-12T10:41:43Z</time>
      </trkpt>
      <trkpt lat="46.70281" lon="5.73293">
        <ele>603.2</ele>
        <time>2015-07-12T10:41:45Z</time>
      </trkpt>
      <trkpt lat="46.70293" lon="5.73294">
        <ele>602.9</ele>
        <time>2015-07-12T10:41:47Z</time>
      </trkpt>
      <trkpt lat="46.70306" lon="5.73293">
        <ele>602.4</ele>
        <time>2015-07-12T10:41:49Z</time>
      </trkpt>
      <trkpt lat="46.70318" lon="5.73293">
        <ele>602</ele>
        <time>2015-07-12T10:41:51Z</time>
      </trkpt>
      <trkpt lat="46.70329" lon="5.73291">
        <ele>601.6</ele>
        <time>2015-07-12T10:41:53Z</time>
      </trkpt>
      <trkpt lat="46.70339" lon="5.73291">
        <ele>601.2</ele>
        <time>2015-07-12T10:41:55Z</time>
      </trkpt>
      <trkpt lat="46.70351" lon="5.73294">
        <ele>600.6</ele>
        <time>2015-07-12T10:41:58Z</time>
      </trkpt>
      <trkpt lat="46.7036" lon="5.73301">
        <ele>599.9</ele>
        <time>2015-07-12T10:42:02Z</time>
      </trkpt>
      <trkpt lat="46.70357" lon="5.73315">
        <ele>598.7</ele>
        <time>2015-07-12T10:42:08Z</time>
      </trkpt>
      <trkpt lat="46.70347" lon="5.73318">
        <ele>598.1</ele>
        <time>2015-07-12T10:42:13Z</time>
      </trkpt>
      <trkpt lat="46.70338" lon="5.73319">
        <ele>597.3</ele>
        <time>2015-07-12T10:42:20Z</time>
      </trkpt>
      <trkpt lat="46.70348" lon="5.73313">
        <ele>590.8</ele>
        <time>2015-07-12T10:56:48Z</time>
      </trkpt>
      <trkpt lat="46.70354" lon="5.73304">
        <ele>591.2</ele>
        <time>2015-07-12T10:57:00Z</time>
      </trkpt>
      <trkpt lat="46.70346" lon="5.73297">
        <ele>591.4</ele>
        <time>2015-07-12T10:57:08Z</time>
      </trkpt>
      <trkpt lat="46.70337" lon="5.73295">
        <ele>591.6</ele>
        <time>2015-07-12T10:57:16Z</time>
      </trkpt>
      <trkpt lat="46.70328" lon="5.73296">
        <ele>591.8</ele>
        <time>2015-07-12T10:57:24Z</time>
      </trkpt>
      <trkpt lat="46.70319" lon="5.73294">
        <ele>592</ele>
        <time>2015-07-12T10:57:31Z</time>
      </trkpt>
      <trkpt lat="46.70309" lon="5.73295">
        <ele>592.1</ele>
        <time>2015-07-12T10:57:39Z</time>
      </trkpt>
      <trkpt lat="46.70299" lon="5.73295">
        <ele>592.4</ele>
        <time>2015-07-12T10:57:46Z</time>
      </trkpt>
      <trkpt lat="46.7029" lon="5.73295">
        <ele>592.5</ele>
        <time>2015-07-12T10:57:52Z</time>
      </trkpt>
      <trkpt lat="46.70281" lon="5.73296">
        <ele>592.8</ele>
        <time>2015-07-12T10:57:59Z</time>
      </trkpt>
      <trkpt lat="46.70271" lon="5.73296">
        <ele>593.1</ele>
        <time>2015-07-12T10:58:06Z</time>
      </trkpt>
      <trkpt lat="46.70262" lon="5.73294">
        <ele>593.5</ele>
        <time>2015-07-12T10:58:13Z</time>
      </trkpt>
      <trkpt lat="46.70252" lon="5.7329">
        <ele>594</ele>
        <time>2015-07-12T10:58:22Z</time>
      </trkpt>
      <trkpt lat="46.70243" lon="5.73286">
        <ele>594.4</ele>
        <time>2015-07-12T10:58:30Z</time>
      </trkpt>
      <trkpt lat="46.70235" lon="5.73279">
        <ele>594.7</ele>
        <time>2015-07-12T10:58:37Z</time>
      </trkpt>
      <trkpt lat="46.70227" lon="5.73272">
        <ele>594.9</ele>
        <time>2015-07-12T10:58:45Z</time>
      </trkpt>
      <trkpt lat="46.70218" lon="5.73266">
        <ele>595.1</ele>
        <time>2015-07-12T10:58:52Z</time>
      </trkpt>
      <trkpt lat="46.7021" lon="5.7326">
        <ele>595.3</ele>
        <time>2015-07-12T10:58:59Z</time>
      </trkpt>
      <trkpt lat="46.70202" lon="5.73254">
        <ele>595.6</ele>
        <time>2015-07-12T10:59:06Z</time>
      </trkpt>
      <trkpt lat="46.70193" lon="5.73249">
        <ele>595.9</ele>
        <time>2015-07-12T10:59:13Z</time>
      </trkpt>
      <trkpt lat="46.70183" lon="5.73247">
        <ele>596.1</ele>
        <time>2015-07-12T10:59:21Z</time>
      </trkpt>
      <trkpt lat="46.70174" lon="5.73247">
        <ele>596.2</ele>
        <time>2015-07-12T10:59:28Z</time>
      </trkpt>
      <trkpt lat="46.70164" lon="5.73246">
        <ele>596.4</ele>
        <time>2015-07-12T10:59:36Z</time>
      </trkpt>
      <trkpt lat="46.70154" lon="5.73245">
        <ele>596.8</ele>
        <time>2015-07-12T10:59:45Z</time>
      </trkpt>
      <trkpt lat="46.70145" lon="5.73245">
        <ele>597.3</ele>
        <time>2015-07-12T10:59:54Z</time>
      </trkpt>
      <trkpt lat="46.70135" lon="5.73243">
        <ele>598</ele>
        <time>2015-07-12T11:00:04Z</time>
      </trkpt>
      <trkpt lat="46.70125" lon="5.73241">
        <ele>598.9</ele>
        <time>2015-07-12T11:00:14Z</time>
      </trkpt>
      <trkpt lat="46.70115" lon="5.73237">
        <ele>599.9</ele>
        <time>2015-07-12T11:00:24Z</time>
      </trkpt>
      <trkpt lat="46.70106" lon="5.73238">
        <ele>600.6</ele>
        <time>2015-07-12T11:00:32Z</time>
      </trkpt>
      <trkpt lat="46.70096" lon="5.73237">
        <ele>601.4</ele>
        <time>2015-07-12T11:00:41Z</time>
      </trkpt>
      <trkpt lat="46.70087" lon="5.73238">
        <ele>602.2</ele>
        <time>2015-07-12T11:00:50Z</time>
      </trkpt>
      <trkpt lat="46.70078" lon="5.7324">
        <ele>602.9</ele>
        <time>2015-07-12T11:00:59Z</time>
      </trkpt>
      <trkpt lat="46.70069" lon="5.7324">
        <ele>604.1</ele>
        <time>2015-07-12T11:01:14Z</time>
      </trkpt>
      <trkpt lat="46.70059" lon="5.7324">
        <ele>604.8</ele>
        <time>2015-07-12T11:01:25Z</time>
      </trkpt>
      <trkpt lat="46.7005" lon="5.73245">
        <ele>605.1</ele>
        <time>2015-07-12T11:01:34Z</time>
      </trkpt>
      <trkpt lat="46.70041" lon="5.73246">
        <ele>605.4</ele>
        <time>2015-07-12T11:01:43Z</time>
      </trkpt>
      <trkpt lat="46.70031" lon="5.73248">
        <ele>606.4</ele>
        <time>2015-07-12T11:02:12Z</time>
      </trkpt>
      <trkpt lat="46.7004" lon="5.73248">
        <ele>606.9</ele>
        <time>2015-07-12T11:06:05Z</time>
      </trkpt>
      <trkpt lat="46.70033" lon="5.73251">
        <ele>607.4</ele>
        <time>2015-07-12T11:08:11Z</time>
      </trkpt>
    </trkseg>
  </trk>
</gpx>